<?xml version="1.0" encoding="UTF-8" standalone="no" ?>
<gpx xmlns="http://www.topografix.com/GPX/1/1" xmlns:xsi="http://www.w3.org/2001/XMLSchema-instance" xsi:schemaLocation="http://www.topografix.com/GPX/1/1 http://www.topografix.com/GPX/1/1/gpx.xsd" version="1.1" creator="VisuGPX - https://www.visugpx.com">
  <metadata>
    <name>De Champigny à Chacé</name>
    <desc><![CDATA[En marche nordique]]></desc>
  </metadata>
  <trk>
    <name><![CDATA[8-10 Place de la Paleine]]></name>
    <desc><![CDATA[]]></desc>
    <trkseg>
      <trkpt lat="47.21481" lon="-0.02171">
        <ele>81</ele>
        <time>2013-02-02T08:34:48.426Z</time>
      </trkpt>
      <trkpt lat="47.2147" lon="-0.02202">
        <ele>80</ele>
        <time>2013-02-02T08:34:49.426Z</time>
      </trkpt>
      <trkpt lat="47.2147" lon="-0.02203">
        <ele>79</ele>
        <time>2013-02-02T08:34:51.414Z</time>
      </trkpt>
      <trkpt lat="47.21475" lon="-0.02211">
        <ele>79</ele>
        <time>2013-02-02T08:34:52.414Z</time>
      </trkpt>
      <trkpt lat="47.21475" lon="-0.02211">
        <ele>79</ele>
        <time>2013-02-02T08:35:12.001Z</time>
      </trkpt>
      <trkpt lat="47.21479" lon="-0.02236">
        <ele>79</ele>
        <time>2013-02-02T08:35:13.001Z</time>
      </trkpt>
      <trkpt lat="47.21479" lon="-0.02236">
        <ele>79</ele>
        <time>2013-02-02T08:35:14.001Z</time>
      </trkpt>
      <trkpt lat="47.21478" lon="-0.02243">
        <ele>79</ele>
        <time>2013-02-02T08:35:15.001Z</time>
      </trkpt>
      <trkpt lat="47.21477" lon="-0.02248">
        <ele>79</ele>
        <time>2013-02-02T08:35:20.001Z</time>
      </trkpt>
      <trkpt lat="47.21475" lon="-0.02251">
        <ele>76</ele>
        <time>2013-02-02T08:35:21.001Z</time>
      </trkpt>
      <trkpt lat="47.21474" lon="-0.02258">
        <ele>76</ele>
        <time>2013-02-02T08:35:23.001Z</time>
      </trkpt>
      <trkpt lat="47.21472" lon="-0.02267">
        <ele>75</ele>
        <time>2013-02-02T08:35:24.001Z</time>
      </trkpt>
      <trkpt lat="47.21469" lon="-0.02275">
        <ele>75</ele>
        <time>2013-02-02T08:35:25.001Z</time>
      </trkpt>
      <trkpt lat="47.21467" lon="-0.02278">
        <ele>75</ele>
        <time>2013-02-02T08:35:26.001Z</time>
      </trkpt>
      <trkpt lat="47.21464" lon="-0.02283">
        <ele>75</ele>
        <time>2013-02-02T08:35:27.001Z</time>
      </trkpt>
      <trkpt lat="47.2146" lon="-0.02288">
        <ele>74</ele>
        <time>2013-02-02T08:35:28.001Z</time>
      </trkpt>
      <trkpt lat="47.21458" lon="-0.02292">
        <ele>74</ele>
        <time>2013-02-02T08:35:29.001Z</time>
      </trkpt>
      <trkpt lat="47.21455" lon="-0.02296">
        <ele>74</ele>
        <time>2013-02-02T08:35:30.001Z</time>
      </trkpt>
      <trkpt lat="47.21453" lon="-0.02299">
        <ele>74</ele>
        <time>2013-02-02T08:35:31.001Z</time>
      </trkpt>
      <trkpt lat="47.21451" lon="-0.02301">
        <ele>74</ele>
        <time>2013-02-02T08:35:32.001Z</time>
      </trkpt>
      <trkpt lat="47.21449" lon="-0.02302">
        <ele>74</ele>
        <time>2013-02-02T08:35:33.001Z</time>
      </trkpt>
      <trkpt lat="47.21446" lon="-0.02305">
        <ele>74</ele>
        <time>2013-02-02T08:35:34.001Z</time>
      </trkpt>
      <trkpt lat="47.21444" lon="-0.02307">
        <ele>73</ele>
        <time>2013-02-02T08:35:35.001Z</time>
      </trkpt>
      <trkpt lat="47.21442" lon="-0.02309">
        <ele>73</ele>
        <time>2013-02-02T08:35:36.001Z</time>
      </trkpt>
      <trkpt lat="47.21438" lon="-0.02311">
        <ele>73</ele>
        <time>2013-02-02T08:35:39.001Z</time>
      </trkpt>
      <trkpt lat="47.21437" lon="-0.02311">
        <ele>73</ele>
        <time>2013-02-02T08:35:40.001Z</time>
      </trkpt>
      <trkpt lat="47.21434" lon="-0.02312">
        <ele>73</ele>
        <time>2013-02-02T08:35:43.001Z</time>
      </trkpt>
      <trkpt lat="47.21433" lon="-0.02312">
        <ele>73</ele>
        <time>2013-02-02T08:35:44.001Z</time>
      </trkpt>
      <trkpt lat="47.21428" lon="-0.0231">
        <ele>73</ele>
        <time>2013-02-02T08:35:47.001Z</time>
      </trkpt>
      <trkpt lat="47.21427" lon="-0.0231">
        <ele>73</ele>
        <time>2013-02-02T08:35:48.001Z</time>
      </trkpt>
      <trkpt lat="47.21424" lon="-0.02307">
        <ele>73</ele>
        <time>2013-02-02T08:35:51.001Z</time>
      </trkpt>
      <trkpt lat="47.21423" lon="-0.02306">
        <ele>73</ele>
        <time>2013-02-02T08:35:52.001Z</time>
      </trkpt>
      <trkpt lat="47.21419" lon="-0.02304">
        <ele>73</ele>
        <time>2013-02-02T08:35:55.001Z</time>
      </trkpt>
      <trkpt lat="47.21418" lon="-0.02302">
        <ele>73</ele>
        <time>2013-02-02T08:35:56.001Z</time>
      </trkpt>
      <trkpt lat="47.21416" lon="-0.02298">
        <ele>72</ele>
        <time>2013-02-02T08:35:58.001Z</time>
      </trkpt>
      <trkpt lat="47.21415" lon="-0.02295">
        <ele>72</ele>
        <time>2013-02-02T08:35:59.001Z</time>
      </trkpt>
      <trkpt lat="47.21413" lon="-0.02289">
        <ele>73</ele>
        <time>2013-02-02T08:36:01.001Z</time>
      </trkpt>
      <trkpt lat="47.21412" lon="-0.02286">
        <ele>73</ele>
        <time>2013-02-02T08:36:02.001Z</time>
      </trkpt>
      <trkpt lat="47.21411" lon="-0.02282">
        <ele>73</ele>
        <time>2013-02-02T08:36:05.001Z</time>
      </trkpt>
      <trkpt lat="47.21411" lon="-0.02278">
        <ele>73</ele>
        <time>2013-02-02T08:36:06.001Z</time>
      </trkpt>
      <trkpt lat="47.21409" lon="-0.02274">
        <ele>74</ele>
        <time>2013-02-02T08:36:09.001Z</time>
      </trkpt>
      <trkpt lat="47.21408" lon="-0.02273">
        <ele>74</ele>
        <time>2013-02-02T08:36:10.001Z</time>
      </trkpt>
      <trkpt lat="47.21406" lon="-0.02267">
        <ele>74</ele>
        <time>2013-02-02T08:36:13.001Z</time>
      </trkpt>
      <trkpt lat="47.21406" lon="-0.02266">
        <ele>74</ele>
        <time>2013-02-02T08:36:14.001Z</time>
      </trkpt>
      <trkpt lat="47.21402" lon="-0.02263">
        <ele>74</ele>
        <time>2013-02-02T08:36:19.001Z</time>
      </trkpt>
      <trkpt lat="47.214" lon="-0.02263">
        <ele>74</ele>
        <time>2013-02-02T08:36:20.001Z</time>
      </trkpt>
      <trkpt lat="47.21397" lon="-0.02266">
        <ele>74</ele>
        <time>2013-02-02T08:36:23.001Z</time>
      </trkpt>
      <trkpt lat="47.21396" lon="-0.02267">
        <ele>74</ele>
        <time>2013-02-02T08:36:24.001Z</time>
      </trkpt>
      <trkpt lat="47.21393" lon="-0.0227">
        <ele>73</ele>
        <time>2013-02-02T08:36:28.001Z</time>
      </trkpt>
      <trkpt lat="47.21391" lon="-0.02272">
        <ele>73</ele>
        <time>2013-02-02T08:36:29.001Z</time>
      </trkpt>
      <trkpt lat="47.21389" lon="-0.02278">
        <ele>73</ele>
        <time>2013-02-02T08:36:32.001Z</time>
      </trkpt>
      <trkpt lat="47.21389" lon="-0.0228">
        <ele>73</ele>
        <time>2013-02-02T08:36:33.001Z</time>
      </trkpt>
      <trkpt lat="47.21388" lon="-0.02285">
        <ele>72</ele>
        <time>2013-02-02T08:36:36.001Z</time>
      </trkpt>
      <trkpt lat="47.21388" lon="-0.02287">
        <ele>72</ele>
        <time>2013-02-02T08:36:37.001Z</time>
      </trkpt>
      <trkpt lat="47.21387" lon="-0.02291">
        <ele>72</ele>
        <time>2013-02-02T08:36:40.001Z</time>
      </trkpt>
      <trkpt lat="47.21387" lon="-0.02294">
        <ele>72</ele>
        <time>2013-02-02T08:36:41.001Z</time>
      </trkpt>
      <trkpt lat="47.21386" lon="-0.02298">
        <ele>72</ele>
        <time>2013-02-02T08:36:43.001Z</time>
      </trkpt>
      <trkpt lat="47.21386" lon="-0.02301">
        <ele>72</ele>
        <time>2013-02-02T08:36:44.001Z</time>
      </trkpt>
      <trkpt lat="47.21386" lon="-0.02303">
        <ele>72</ele>
        <time>2013-02-02T08:36:45.001Z</time>
      </trkpt>
      <trkpt lat="47.21386" lon="-0.02309">
        <ele>71</ele>
        <time>2013-02-02T08:36:47.001Z</time>
      </trkpt>
      <trkpt lat="47.21385" lon="-0.02315">
        <ele>71</ele>
        <time>2013-02-02T08:36:50.001Z</time>
      </trkpt>
      <trkpt lat="47.21384" lon="-0.02318">
        <ele>71</ele>
        <time>2013-02-02T08:36:51.001Z</time>
      </trkpt>
      <trkpt lat="47.21384" lon="-0.02322">
        <ele>71</ele>
        <time>2013-02-02T08:36:53.001Z</time>
      </trkpt>
      <trkpt lat="47.21383" lon="-0.02324">
        <ele>71</ele>
        <time>2013-02-02T08:36:54.001Z</time>
      </trkpt>
      <trkpt lat="47.21383" lon="-0.02328">
        <ele>71</ele>
        <time>2013-02-02T08:36:56.001Z</time>
      </trkpt>
      <trkpt lat="47.21383" lon="-0.02331">
        <ele>71</ele>
        <time>2013-02-02T08:36:57.001Z</time>
      </trkpt>
      <trkpt lat="47.21381" lon="-0.02335">
        <ele>68</ele>
        <time>2013-02-02T08:36:59.001Z</time>
      </trkpt>
      <trkpt lat="47.2138" lon="-0.02337">
        <ele>68</ele>
        <time>2013-02-02T08:37:00.001Z</time>
      </trkpt>
      <trkpt lat="47.21378" lon="-0.02342">
        <ele>68</ele>
        <time>2013-02-02T08:37:03.001Z</time>
      </trkpt>
      <trkpt lat="47.21377" lon="-0.02343">
        <ele>68</ele>
        <time>2013-02-02T08:37:04.001Z</time>
      </trkpt>
      <trkpt lat="47.21375" lon="-0.02348">
        <ele>68</ele>
        <time>2013-02-02T08:37:07.001Z</time>
      </trkpt>
      <trkpt lat="47.21374" lon="-0.0235">
        <ele>68</ele>
        <time>2013-02-02T08:37:08.001Z</time>
      </trkpt>
      <trkpt lat="47.2137" lon="-0.02351">
        <ele>68</ele>
        <time>2013-02-02T08:37:11.001Z</time>
      </trkpt>
      <trkpt lat="47.21368" lon="-0.02352">
        <ele>68</ele>
        <time>2013-02-02T08:37:12.001Z</time>
      </trkpt>
      <trkpt lat="47.21365" lon="-0.02352">
        <ele>68</ele>
        <time>2013-02-02T08:37:13.001Z</time>
      </trkpt>
      <trkpt lat="47.21362" lon="-0.02353">
        <ele>68</ele>
        <time>2013-02-02T08:37:14.001Z</time>
      </trkpt>
      <trkpt lat="47.21358" lon="-0.02356">
        <ele>68</ele>
        <time>2013-02-02T08:37:23.001Z</time>
      </trkpt>
      <trkpt lat="47.21358" lon="-0.02356">
        <ele>68</ele>
        <time>2013-02-02T08:37:24.001Z</time>
      </trkpt>
      <trkpt lat="47.21355" lon="-0.0236">
        <ele>68</ele>
        <time>2013-02-02T08:37:30.001Z</time>
      </trkpt>
      <trkpt lat="47.21354" lon="-0.02362">
        <ele>68</ele>
        <time>2013-02-02T08:37:31.001Z</time>
      </trkpt>
      <trkpt lat="47.21352" lon="-0.02367">
        <ele>68</ele>
        <time>2013-02-02T08:37:34.001Z</time>
      </trkpt>
      <trkpt lat="47.2135" lon="-0.02369">
        <ele>68</ele>
        <time>2013-02-02T08:37:35.001Z</time>
      </trkpt>
      <trkpt lat="47.21348" lon="-0.02374">
        <ele>68</ele>
        <time>2013-02-02T08:37:37.001Z</time>
      </trkpt>
      <trkpt lat="47.21347" lon="-0.02377">
        <ele>68</ele>
        <time>2013-02-02T08:37:38.001Z</time>
      </trkpt>
      <trkpt lat="47.21347" lon="-0.02381">
        <ele>68</ele>
        <time>2013-02-02T08:37:39.001Z</time>
      </trkpt>
      <trkpt lat="47.21346" lon="-0.02384">
        <ele>68</ele>
        <time>2013-02-02T08:37:40.001Z</time>
      </trkpt>
      <trkpt lat="47.21345" lon="-0.0239">
        <ele>68</ele>
        <time>2013-02-02T08:37:44.001Z</time>
      </trkpt>
      <trkpt lat="47.21344" lon="-0.02392">
        <ele>68</ele>
        <time>2013-02-02T08:37:45.001Z</time>
      </trkpt>
      <trkpt lat="47.21342" lon="-0.02397">
        <ele>68</ele>
        <time>2013-02-02T08:37:49.001Z</time>
      </trkpt>
      <trkpt lat="47.21341" lon="-0.02398">
        <ele>67</ele>
        <time>2013-02-02T08:37:50.001Z</time>
      </trkpt>
      <trkpt lat="47.21339" lon="-0.02403">
        <ele>67</ele>
        <time>2013-02-02T08:37:53.001Z</time>
      </trkpt>
      <trkpt lat="47.21339" lon="-0.02405">
        <ele>67</ele>
        <time>2013-02-02T08:37:54.001Z</time>
      </trkpt>
      <trkpt lat="47.21337" lon="-0.02409">
        <ele>67</ele>
        <time>2013-02-02T08:37:56.001Z</time>
      </trkpt>
      <trkpt lat="47.21335" lon="-0.02411">
        <ele>67</ele>
        <time>2013-02-02T08:37:57.001Z</time>
      </trkpt>
      <trkpt lat="47.21332" lon="-0.02415">
        <ele>67</ele>
        <time>2013-02-02T08:37:59.001Z</time>
      </trkpt>
      <trkpt lat="47.21331" lon="-0.02416">
        <ele>67</ele>
        <time>2013-02-02T08:38:00.001Z</time>
      </trkpt>
      <trkpt lat="47.21328" lon="-0.02419">
        <ele>67</ele>
        <time>2013-02-02T08:38:06.001Z</time>
      </trkpt>
      <trkpt lat="47.21326" lon="-0.0242">
        <ele>67</ele>
        <time>2013-02-02T08:38:07.001Z</time>
      </trkpt>
      <trkpt lat="47.21323" lon="-0.02425">
        <ele>67</ele>
        <time>2013-02-02T08:38:10.001Z</time>
      </trkpt>
      <trkpt lat="47.21322" lon="-0.02425">
        <ele>67</ele>
        <time>2013-02-02T08:38:11.001Z</time>
      </trkpt>
      <trkpt lat="47.21319" lon="-0.02428">
        <ele>67</ele>
        <time>2013-02-02T08:38:14.001Z</time>
      </trkpt>
      <trkpt lat="47.21318" lon="-0.0243">
        <ele>67</ele>
        <time>2013-02-02T08:38:15.001Z</time>
      </trkpt>
      <trkpt lat="47.21317" lon="-0.02436">
        <ele>67</ele>
        <time>2013-02-02T08:38:18.001Z</time>
      </trkpt>
      <trkpt lat="47.21316" lon="-0.02438">
        <ele>67</ele>
        <time>2013-02-02T08:38:19.001Z</time>
      </trkpt>
      <trkpt lat="47.21314" lon="-0.02444">
        <ele>67</ele>
        <time>2013-02-02T08:38:21.001Z</time>
      </trkpt>
      <trkpt lat="47.21314" lon="-0.02447">
        <ele>67</ele>
        <time>2013-02-02T08:38:22.001Z</time>
      </trkpt>
      <trkpt lat="47.21313" lon="-0.02451">
        <ele>67</ele>
        <time>2013-02-02T08:38:23.001Z</time>
      </trkpt>
      <trkpt lat="47.21313" lon="-0.02454">
        <ele>67</ele>
        <time>2013-02-02T08:38:24.001Z</time>
      </trkpt>
      <trkpt lat="47.21313" lon="-0.02459">
        <ele>67</ele>
        <time>2013-02-02T08:38:27.001Z</time>
      </trkpt>
      <trkpt lat="47.21313" lon="-0.0246">
        <ele>67</ele>
        <time>2013-02-02T08:38:28.001Z</time>
      </trkpt>
      <trkpt lat="47.21314" lon="-0.02465">
        <ele>67</ele>
        <time>2013-02-02T08:38:30.001Z</time>
      </trkpt>
      <trkpt lat="47.21315" lon="-0.02467">
        <ele>67</ele>
        <time>2013-02-02T08:38:31.001Z</time>
      </trkpt>
      <trkpt lat="47.21315" lon="-0.02471">
        <ele>67</ele>
        <time>2013-02-02T08:38:33.001Z</time>
      </trkpt>
      <trkpt lat="47.21316" lon="-0.02474">
        <ele>67</ele>
        <time>2013-02-02T08:38:34.001Z</time>
      </trkpt>
      <trkpt lat="47.21317" lon="-0.0248">
        <ele>68</ele>
        <time>2013-02-02T08:38:37.001Z</time>
      </trkpt>
      <trkpt lat="47.21317" lon="-0.02481">
        <ele>68</ele>
        <time>2013-02-02T08:38:38.001Z</time>
      </trkpt>
      <trkpt lat="47.21319" lon="-0.02484">
        <ele>68</ele>
        <time>2013-02-02T08:38:42.001Z</time>
      </trkpt>
      <trkpt lat="47.2132" lon="-0.02486">
        <ele>68</ele>
        <time>2013-02-02T08:38:43.001Z</time>
      </trkpt>
      <trkpt lat="47.2132" lon="-0.02491">
        <ele>68</ele>
        <time>2013-02-02T08:38:45.001Z</time>
      </trkpt>
      <trkpt lat="47.2132" lon="-0.02493">
        <ele>68</ele>
        <time>2013-02-02T08:38:46.001Z</time>
      </trkpt>
      <trkpt lat="47.21321" lon="-0.02497">
        <ele>68</ele>
        <time>2013-02-02T08:38:48.001Z</time>
      </trkpt>
      <trkpt lat="47.21321" lon="-0.025">
        <ele>68</ele>
        <time>2013-02-02T08:38:49.001Z</time>
      </trkpt>
      <trkpt lat="47.21322" lon="-0.02505">
        <ele>69</ele>
        <time>2013-02-02T08:38:51.001Z</time>
      </trkpt>
      <trkpt lat="47.21323" lon="-0.02507">
        <ele>69</ele>
        <time>2013-02-02T08:38:52.001Z</time>
      </trkpt>
      <trkpt lat="47.21324" lon="-0.0251">
        <ele>69</ele>
        <time>2013-02-02T08:38:53.001Z</time>
      </trkpt>
      <trkpt lat="47.21325" lon="-0.02513">
        <ele>69</ele>
        <time>2013-02-02T08:38:54.001Z</time>
      </trkpt>
      <trkpt lat="47.21326" lon="-0.02519">
        <ele>69</ele>
        <time>2013-02-02T08:38:57.001Z</time>
      </trkpt>
      <trkpt lat="47.21326" lon="-0.02521">
        <ele>69</ele>
        <time>2013-02-02T08:38:58.001Z</time>
      </trkpt>
      <trkpt lat="47.21327" lon="-0.02526">
        <ele>69</ele>
        <time>2013-02-02T08:39:01.001Z</time>
      </trkpt>
      <trkpt lat="47.21327" lon="-0.02528">
        <ele>69</ele>
        <time>2013-02-02T08:39:02.001Z</time>
      </trkpt>
      <trkpt lat="47.21329" lon="-0.02533">
        <ele>69</ele>
        <time>2013-02-02T08:39:05.001Z</time>
      </trkpt>
      <trkpt lat="47.21329" lon="-0.02535">
        <ele>69</ele>
        <time>2013-02-02T08:39:06.001Z</time>
      </trkpt>
      <trkpt lat="47.2133" lon="-0.0254">
        <ele>69</ele>
        <time>2013-02-02T08:39:09.001Z</time>
      </trkpt>
      <trkpt lat="47.2133" lon="-0.02543">
        <ele>69</ele>
        <time>2013-02-02T08:39:10.001Z</time>
      </trkpt>
      <trkpt lat="47.21332" lon="-0.02548">
        <ele>69</ele>
        <time>2013-02-02T08:39:14.001Z</time>
      </trkpt>
      <trkpt lat="47.21332" lon="-0.02552">
        <ele>69</ele>
        <time>2013-02-02T08:39:15.001Z</time>
      </trkpt>
      <trkpt lat="47.21332" lon="-0.02557">
        <ele>69</ele>
        <time>2013-02-02T08:39:18.001Z</time>
      </trkpt>
      <trkpt lat="47.21333" lon="-0.0256">
        <ele>69</ele>
        <time>2013-02-02T08:39:19.001Z</time>
      </trkpt>
      <trkpt lat="47.21333" lon="-0.02565">
        <ele>70</ele>
        <time>2013-02-02T08:39:21.001Z</time>
      </trkpt>
      <trkpt lat="47.21334" lon="-0.02567">
        <ele>71</ele>
        <time>2013-02-02T08:39:22.001Z</time>
      </trkpt>
      <trkpt lat="47.21334" lon="-0.02573">
        <ele>71</ele>
        <time>2013-02-02T08:39:24.001Z</time>
      </trkpt>
      <trkpt lat="47.21333" lon="-0.02575">
        <ele>70</ele>
        <time>2013-02-02T08:39:25.001Z</time>
      </trkpt>
      <trkpt lat="47.21335" lon="-0.02581">
        <ele>71</ele>
        <time>2013-02-02T08:39:29.001Z</time>
      </trkpt>
      <trkpt lat="47.21335" lon="-0.02583">
        <ele>71</ele>
        <time>2013-02-02T08:39:30.001Z</time>
      </trkpt>
      <trkpt lat="47.21337" lon="-0.02587">
        <ele>71</ele>
        <time>2013-02-02T08:39:32.001Z</time>
      </trkpt>
      <trkpt lat="47.21338" lon="-0.02589">
        <ele>72</ele>
        <time>2013-02-02T08:39:33.001Z</time>
      </trkpt>
      <trkpt lat="47.21339" lon="-0.02595">
        <ele>72</ele>
        <time>2013-02-02T08:39:37.001Z</time>
      </trkpt>
      <trkpt lat="47.21339" lon="-0.02596">
        <ele>72</ele>
        <time>2013-02-02T08:39:38.001Z</time>
      </trkpt>
      <trkpt lat="47.21339" lon="-0.02602">
        <ele>72</ele>
        <time>2013-02-02T08:39:41.001Z</time>
      </trkpt>
      <trkpt lat="47.2134" lon="-0.02604">
        <ele>72</ele>
        <time>2013-02-02T08:39:42.001Z</time>
      </trkpt>
      <trkpt lat="47.2134" lon="-0.02608">
        <ele>73</ele>
        <time>2013-02-02T08:39:44.001Z</time>
      </trkpt>
      <trkpt lat="47.2134" lon="-0.02611">
        <ele>73</ele>
        <time>2013-02-02T08:39:45.001Z</time>
      </trkpt>
      <trkpt lat="47.21341" lon="-0.02616">
        <ele>73</ele>
        <time>2013-02-02T08:39:47.001Z</time>
      </trkpt>
      <trkpt lat="47.21341" lon="-0.02619">
        <ele>73</ele>
        <time>2013-02-02T08:39:48.001Z</time>
      </trkpt>
      <trkpt lat="47.21342" lon="-0.02625">
        <ele>73</ele>
        <time>2013-02-02T08:39:50.001Z</time>
      </trkpt>
      <trkpt lat="47.21341" lon="-0.02627">
        <ele>73</ele>
        <time>2013-02-02T08:39:51.001Z</time>
      </trkpt>
      <trkpt lat="47.21343" lon="-0.02632">
        <ele>73</ele>
        <time>2013-02-02T08:39:53.001Z</time>
      </trkpt>
      <trkpt lat="47.21343" lon="-0.02634">
        <ele>73</ele>
        <time>2013-02-02T08:39:54.001Z</time>
      </trkpt>
      <trkpt lat="47.21344" lon="-0.0264">
        <ele>74</ele>
        <time>2013-02-02T08:39:57.001Z</time>
      </trkpt>
      <trkpt lat="47.21345" lon="-0.02643">
        <ele>74</ele>
        <time>2013-02-02T08:39:58.001Z</time>
      </trkpt>
      <trkpt lat="47.21346" lon="-0.02648">
        <ele>74</ele>
        <time>2013-02-02T08:40:01.001Z</time>
      </trkpt>
      <trkpt lat="47.21346" lon="-0.0265">
        <ele>74</ele>
        <time>2013-02-02T08:40:02.001Z</time>
      </trkpt>
      <trkpt lat="47.21346" lon="-0.02655">
        <ele>74</ele>
        <time>2013-02-02T08:40:04.001Z</time>
      </trkpt>
      <trkpt lat="47.21346" lon="-0.02658">
        <ele>74</ele>
        <time>2013-02-02T08:40:05.001Z</time>
      </trkpt>
      <trkpt lat="47.21347" lon="-0.02662">
        <ele>74</ele>
        <time>2013-02-02T08:40:07.001Z</time>
      </trkpt>
      <trkpt lat="47.21347" lon="-0.02664">
        <ele>74</ele>
        <time>2013-02-02T08:40:08.001Z</time>
      </trkpt>
      <trkpt lat="47.21347" lon="-0.02669">
        <ele>75</ele>
        <time>2013-02-02T08:40:11.001Z</time>
      </trkpt>
      <trkpt lat="47.21347" lon="-0.02672">
        <ele>75</ele>
        <time>2013-02-02T08:40:12.001Z</time>
      </trkpt>
      <trkpt lat="47.21348" lon="-0.02677">
        <ele>75</ele>
        <time>2013-02-02T08:40:14.001Z</time>
      </trkpt>
      <trkpt lat="47.21348" lon="-0.02679">
        <ele>75</ele>
        <time>2013-02-02T08:40:15.001Z</time>
      </trkpt>
      <trkpt lat="47.2135" lon="-0.02685">
        <ele>75</ele>
        <time>2013-02-02T08:40:19.001Z</time>
      </trkpt>
      <trkpt lat="47.2135" lon="-0.02687">
        <ele>75</ele>
        <time>2013-02-02T08:40:20.001Z</time>
      </trkpt>
      <trkpt lat="47.2135" lon="-0.02693">
        <ele>75</ele>
        <time>2013-02-02T08:40:22.001Z</time>
      </trkpt>
      <trkpt lat="47.21351" lon="-0.02696">
        <ele>75</ele>
        <time>2013-02-02T08:40:23.001Z</time>
      </trkpt>
      <trkpt lat="47.21352" lon="-0.02701">
        <ele>76</ele>
        <time>2013-02-02T08:40:25.001Z</time>
      </trkpt>
      <trkpt lat="47.21352" lon="-0.02703">
        <ele>76</ele>
        <time>2013-02-02T08:40:26.001Z</time>
      </trkpt>
      <trkpt lat="47.21353" lon="-0.02708">
        <ele>76</ele>
        <time>2013-02-02T08:40:28.001Z</time>
      </trkpt>
      <trkpt lat="47.21354" lon="-0.0271">
        <ele>76</ele>
        <time>2013-02-02T08:40:29.001Z</time>
      </trkpt>
      <trkpt lat="47.21354" lon="-0.02714">
        <ele>76</ele>
        <time>2013-02-02T08:40:31.001Z</time>
      </trkpt>
      <trkpt lat="47.21355" lon="-0.02717">
        <ele>76</ele>
        <time>2013-02-02T08:40:32.001Z</time>
      </trkpt>
      <trkpt lat="47.21356" lon="-0.02721">
        <ele>76</ele>
        <time>2013-02-02T08:40:34.001Z</time>
      </trkpt>
      <trkpt lat="47.21356" lon="-0.02723">
        <ele>76</ele>
        <time>2013-02-02T08:40:35.001Z</time>
      </trkpt>
      <trkpt lat="47.21358" lon="-0.02729">
        <ele>76</ele>
        <time>2013-02-02T08:40:38.001Z</time>
      </trkpt>
      <trkpt lat="47.21359" lon="-0.02731">
        <ele>76</ele>
        <time>2013-02-02T08:40:39.001Z</time>
      </trkpt>
      <trkpt lat="47.2136" lon="-0.02737">
        <ele>76</ele>
        <time>2013-02-02T08:40:42.001Z</time>
      </trkpt>
      <trkpt lat="47.21361" lon="-0.0274">
        <ele>76</ele>
        <time>2013-02-02T08:40:43.001Z</time>
      </trkpt>
      <trkpt lat="47.21362" lon="-0.02746">
        <ele>76</ele>
        <time>2013-02-02T08:40:47.001Z</time>
      </trkpt>
      <trkpt lat="47.21362" lon="-0.02747">
        <ele>76</ele>
        <time>2013-02-02T08:40:48.001Z</time>
      </trkpt>
      <trkpt lat="47.21364" lon="-0.02753">
        <ele>76</ele>
        <time>2013-02-02T08:40:51.001Z</time>
      </trkpt>
      <trkpt lat="47.21364" lon="-0.02755">
        <ele>76</ele>
        <time>2013-02-02T08:40:52.001Z</time>
      </trkpt>
      <trkpt lat="47.21368" lon="-0.02755">
        <ele>76</ele>
        <time>2013-02-02T08:40:57.001Z</time>
      </trkpt>
      <trkpt lat="47.2137" lon="-0.02753">
        <ele>76</ele>
        <time>2013-02-02T08:40:58.001Z</time>
      </trkpt>
      <trkpt lat="47.21372" lon="-0.0275">
        <ele>76</ele>
        <time>2013-02-02T08:41:00.001Z</time>
      </trkpt>
      <trkpt lat="47.21374" lon="-0.02749">
        <ele>76</ele>
        <time>2013-02-02T08:41:01.001Z</time>
      </trkpt>
      <trkpt lat="47.21377" lon="-0.02745">
        <ele>76</ele>
        <time>2013-02-02T08:41:04.001Z</time>
      </trkpt>
      <trkpt lat="47.21378" lon="-0.02744">
        <ele>76</ele>
        <time>2013-02-02T08:41:05.001Z</time>
      </trkpt>
      <trkpt lat="47.21381" lon="-0.0274">
        <ele>76</ele>
        <time>2013-02-02T08:41:08.001Z</time>
      </trkpt>
      <trkpt lat="47.21383" lon="-0.02738">
        <ele>76</ele>
        <time>2013-02-02T08:41:09.001Z</time>
      </trkpt>
      <trkpt lat="47.21386" lon="-0.02735">
        <ele>76</ele>
        <time>2013-02-02T08:41:11.001Z</time>
      </trkpt>
      <trkpt lat="47.21387" lon="-0.02733">
        <ele>76</ele>
        <time>2013-02-02T08:41:12.001Z</time>
      </trkpt>
      <trkpt lat="47.21391" lon="-0.02732">
        <ele>76</ele>
        <time>2013-02-02T08:41:15.001Z</time>
      </trkpt>
      <trkpt lat="47.21393" lon="-0.02732">
        <ele>76</ele>
        <time>2013-02-02T08:41:16.001Z</time>
      </trkpt>
      <trkpt lat="47.21396" lon="-0.02731">
        <ele>76</ele>
        <time>2013-02-02T08:41:18.001Z</time>
      </trkpt>
      <trkpt lat="47.21398" lon="-0.0273">
        <ele>76</ele>
        <time>2013-02-02T08:41:19.001Z</time>
      </trkpt>
      <trkpt lat="47.21401" lon="-0.02729">
        <ele>76</ele>
        <time>2013-02-02T08:41:22.001Z</time>
      </trkpt>
      <trkpt lat="47.21403" lon="-0.02728">
        <ele>76</ele>
        <time>2013-02-02T08:41:23.001Z</time>
      </trkpt>
      <trkpt lat="47.21407" lon="-0.02727">
        <ele>76</ele>
        <time>2013-02-02T08:41:26.001Z</time>
      </trkpt>
      <trkpt lat="47.21408" lon="-0.02727">
        <ele>76</ele>
        <time>2013-02-02T08:41:27.001Z</time>
      </trkpt>
      <trkpt lat="47.21411" lon="-0.02726">
        <ele>76</ele>
        <time>2013-02-02T08:41:29.001Z</time>
      </trkpt>
      <trkpt lat="47.21413" lon="-0.02725">
        <ele>76</ele>
        <time>2013-02-02T08:41:30.001Z</time>
      </trkpt>
      <trkpt lat="47.21416" lon="-0.02724">
        <ele>76</ele>
        <time>2013-02-02T08:41:33.001Z</time>
      </trkpt>
      <trkpt lat="47.21418" lon="-0.02724">
        <ele>76</ele>
        <time>2013-02-02T08:41:34.001Z</time>
      </trkpt>
      <trkpt lat="47.21421" lon="-0.02723">
        <ele>76</ele>
        <time>2013-02-02T08:41:36.001Z</time>
      </trkpt>
      <trkpt lat="47.21423" lon="-0.02722">
        <ele>76</ele>
        <time>2013-02-02T08:41:37.001Z</time>
      </trkpt>
      <trkpt lat="47.21426" lon="-0.02722">
        <ele>76</ele>
        <time>2013-02-02T08:41:39.001Z</time>
      </trkpt>
      <trkpt lat="47.21428" lon="-0.02722">
        <ele>76</ele>
        <time>2013-02-02T08:41:40.001Z</time>
      </trkpt>
      <trkpt lat="47.21432" lon="-0.02722">
        <ele>76</ele>
        <time>2013-02-02T08:41:42.001Z</time>
      </trkpt>
      <trkpt lat="47.21434" lon="-0.02722">
        <ele>76</ele>
        <time>2013-02-02T08:41:43.001Z</time>
      </trkpt>
      <trkpt lat="47.21438" lon="-0.02722">
        <ele>76</ele>
        <time>2013-02-02T08:41:45.001Z</time>
      </trkpt>
      <trkpt lat="47.2144" lon="-0.02722">
        <ele>76</ele>
        <time>2013-02-02T08:41:46.001Z</time>
      </trkpt>
      <trkpt lat="47.21443" lon="-0.02721">
        <ele>76</ele>
        <time>2013-02-02T08:41:48.001Z</time>
      </trkpt>
      <trkpt lat="47.21445" lon="-0.02721">
        <ele>76</ele>
        <time>2013-02-02T08:41:49.001Z</time>
      </trkpt>
      <trkpt lat="47.21449" lon="-0.02723">
        <ele>76</ele>
        <time>2013-02-02T08:41:53.001Z</time>
      </trkpt>
      <trkpt lat="47.21451" lon="-0.02723">
        <ele>76</ele>
        <time>2013-02-02T08:41:54.001Z</time>
      </trkpt>
      <trkpt lat="47.21454" lon="-0.02724">
        <ele>76</ele>
        <time>2013-02-02T08:41:56.001Z</time>
      </trkpt>
      <trkpt lat="47.21456" lon="-0.02724">
        <ele>76</ele>
        <time>2013-02-02T08:41:57.001Z</time>
      </trkpt>
      <trkpt lat="47.21459" lon="-0.02723">
        <ele>76</ele>
        <time>2013-02-02T08:41:59.001Z</time>
      </trkpt>
      <trkpt lat="47.21461" lon="-0.02723">
        <ele>76</ele>
        <time>2013-02-02T08:42:00.001Z</time>
      </trkpt>
      <trkpt lat="47.21465" lon="-0.02724">
        <ele>76</ele>
        <time>2013-02-02T08:42:03.001Z</time>
      </trkpt>
      <trkpt lat="47.21466" lon="-0.02726">
        <ele>76</ele>
        <time>2013-02-02T08:42:04.001Z</time>
      </trkpt>
      <trkpt lat="47.21469" lon="-0.02728">
        <ele>76</ele>
        <time>2013-02-02T08:42:06.001Z</time>
      </trkpt>
      <trkpt lat="47.2147" lon="-0.02729">
        <ele>76</ele>
        <time>2013-02-02T08:42:07.001Z</time>
      </trkpt>
      <trkpt lat="47.21473" lon="-0.02731">
        <ele>76</ele>
        <time>2013-02-02T08:42:09.001Z</time>
      </trkpt>
      <trkpt lat="47.21474" lon="-0.02733">
        <ele>76</ele>
        <time>2013-02-02T08:42:10.001Z</time>
      </trkpt>
      <trkpt lat="47.21476" lon="-0.02736">
        <ele>76</ele>
        <time>2013-02-02T08:42:12.001Z</time>
      </trkpt>
      <trkpt lat="47.21477" lon="-0.02738">
        <ele>76</ele>
        <time>2013-02-02T08:42:13.001Z</time>
      </trkpt>
      <trkpt lat="47.2148" lon="-0.02741">
        <ele>77</ele>
        <time>2013-02-02T08:42:15.001Z</time>
      </trkpt>
      <trkpt lat="47.21481" lon="-0.02743">
        <ele>77</ele>
        <time>2013-02-02T08:42:16.001Z</time>
      </trkpt>
      <trkpt lat="47.21484" lon="-0.02747">
        <ele>77</ele>
        <time>2013-02-02T08:42:19.001Z</time>
      </trkpt>
      <trkpt lat="47.21485" lon="-0.02748">
        <ele>77</ele>
        <time>2013-02-02T08:42:20.001Z</time>
      </trkpt>
      <trkpt lat="47.21488" lon="-0.02751">
        <ele>76</ele>
        <time>2013-02-02T08:42:22.001Z</time>
      </trkpt>
      <trkpt lat="47.21489" lon="-0.02752">
        <ele>76</ele>
        <time>2013-02-02T08:42:23.001Z</time>
      </trkpt>
      <trkpt lat="47.21492" lon="-0.02756">
        <ele>76</ele>
        <time>2013-02-02T08:42:25.001Z</time>
      </trkpt>
      <trkpt lat="47.21493" lon="-0.02758">
        <ele>76</ele>
        <time>2013-02-02T08:42:26.001Z</time>
      </trkpt>
      <trkpt lat="47.21495" lon="-0.0276">
        <ele>76</ele>
        <time>2013-02-02T08:42:28.001Z</time>
      </trkpt>
      <trkpt lat="47.21497" lon="-0.02761">
        <ele>76</ele>
        <time>2013-02-02T08:42:29.001Z</time>
      </trkpt>
      <trkpt lat="47.215" lon="-0.02764">
        <ele>77</ele>
        <time>2013-02-02T08:42:31.001Z</time>
      </trkpt>
      <trkpt lat="47.21502" lon="-0.02765">
        <ele>77</ele>
        <time>2013-02-02T08:42:32.001Z</time>
      </trkpt>
      <trkpt lat="47.21505" lon="-0.02767">
        <ele>77</ele>
        <time>2013-02-02T08:42:34.001Z</time>
      </trkpt>
      <trkpt lat="47.21506" lon="-0.02768">
        <ele>77</ele>
        <time>2013-02-02T08:42:35.001Z</time>
      </trkpt>
      <trkpt lat="47.21509" lon="-0.02772">
        <ele>76</ele>
        <time>2013-02-02T08:42:38.001Z</time>
      </trkpt>
      <trkpt lat="47.21509" lon="-0.02773">
        <ele>76</ele>
        <time>2013-02-02T08:42:39.001Z</time>
      </trkpt>
      <trkpt lat="47.2151" lon="-0.02779">
        <ele>76</ele>
        <time>2013-02-02T08:42:42.001Z</time>
      </trkpt>
      <trkpt lat="47.2151" lon="-0.02782">
        <ele>76</ele>
        <time>2013-02-02T08:42:43.001Z</time>
      </trkpt>
      <trkpt lat="47.21509" lon="-0.02788">
        <ele>76</ele>
        <time>2013-02-02T08:42:45.001Z</time>
      </trkpt>
      <trkpt lat="47.21509" lon="-0.0279">
        <ele>76</ele>
        <time>2013-02-02T08:42:46.001Z</time>
      </trkpt>
      <trkpt lat="47.21509" lon="-0.02794">
        <ele>76</ele>
        <time>2013-02-02T08:42:48.001Z</time>
      </trkpt>
      <trkpt lat="47.21509" lon="-0.02797">
        <ele>76</ele>
        <time>2013-02-02T08:42:49.001Z</time>
      </trkpt>
      <trkpt lat="47.21509" lon="-0.02802">
        <ele>76</ele>
        <time>2013-02-02T08:42:51.001Z</time>
      </trkpt>
      <trkpt lat="47.21509" lon="-0.02804">
        <ele>76</ele>
        <time>2013-02-02T08:42:52.001Z</time>
      </trkpt>
      <trkpt lat="47.21509" lon="-0.0281">
        <ele>76</ele>
        <time>2013-02-02T08:42:55.001Z</time>
      </trkpt>
      <trkpt lat="47.21509" lon="-0.02812">
        <ele>76</ele>
        <time>2013-02-02T08:42:56.001Z</time>
      </trkpt>
      <trkpt lat="47.2151" lon="-0.02817">
        <ele>76</ele>
        <time>2013-02-02T08:42:59.001Z</time>
      </trkpt>
      <trkpt lat="47.21511" lon="-0.0282">
        <ele>76</ele>
        <time>2013-02-02T08:43:00.001Z</time>
      </trkpt>
      <trkpt lat="47.21511" lon="-0.02824">
        <ele>76</ele>
        <time>2013-02-02T08:43:01.001Z</time>
      </trkpt>
      <trkpt lat="47.21512" lon="-0.02827">
        <ele>76</ele>
        <time>2013-02-02T08:43:02.001Z</time>
      </trkpt>
      <trkpt lat="47.21512" lon="-0.02832">
        <ele>76</ele>
        <time>2013-02-02T08:43:04.001Z</time>
      </trkpt>
      <trkpt lat="47.21512" lon="-0.02834">
        <ele>75</ele>
        <time>2013-02-02T08:43:05.001Z</time>
      </trkpt>
      <trkpt lat="47.21513" lon="-0.0284">
        <ele>75</ele>
        <time>2013-02-02T08:43:09.001Z</time>
      </trkpt>
      <trkpt lat="47.21515" lon="-0.02843">
        <ele>75</ele>
        <time>2013-02-02T08:43:10.001Z</time>
      </trkpt>
      <trkpt lat="47.21516" lon="-0.02847">
        <ele>75</ele>
        <time>2013-02-02T08:43:12.001Z</time>
      </trkpt>
      <trkpt lat="47.21517" lon="-0.02848">
        <ele>75</ele>
        <time>2013-02-02T08:43:13.001Z</time>
      </trkpt>
      <trkpt lat="47.21521" lon="-0.0285">
        <ele>75</ele>
        <time>2013-02-02T08:43:15.001Z</time>
      </trkpt>
      <trkpt lat="47.21523" lon="-0.02851">
        <ele>75</ele>
        <time>2013-02-02T08:43:16.001Z</time>
      </trkpt>
      <trkpt lat="47.21526" lon="-0.02852">
        <ele>75</ele>
        <time>2013-02-02T08:43:18.001Z</time>
      </trkpt>
      <trkpt lat="47.21527" lon="-0.02852">
        <ele>76</ele>
        <time>2013-02-02T08:43:19.001Z</time>
      </trkpt>
      <trkpt lat="47.21531" lon="-0.02852">
        <ele>76</ele>
        <time>2013-02-02T08:43:21.001Z</time>
      </trkpt>
      <trkpt lat="47.21532" lon="-0.02852">
        <ele>76</ele>
        <time>2013-02-02T08:43:22.001Z</time>
      </trkpt>
      <trkpt lat="47.21536" lon="-0.02852">
        <ele>76</ele>
        <time>2013-02-02T08:43:24.001Z</time>
      </trkpt>
      <trkpt lat="47.21538" lon="-0.02852">
        <ele>76</ele>
        <time>2013-02-02T08:43:25.001Z</time>
      </trkpt>
      <trkpt lat="47.21542" lon="-0.02852">
        <ele>76</ele>
        <time>2013-02-02T08:43:28.001Z</time>
      </trkpt>
      <trkpt lat="47.21543" lon="-0.02852">
        <ele>76</ele>
        <time>2013-02-02T08:43:29.001Z</time>
      </trkpt>
      <trkpt lat="47.21546" lon="-0.02852">
        <ele>76</ele>
        <time>2013-02-02T08:43:31.001Z</time>
      </trkpt>
      <trkpt lat="47.21548" lon="-0.02851">
        <ele>76</ele>
        <time>2013-02-02T08:43:32.001Z</time>
      </trkpt>
      <trkpt lat="47.21552" lon="-0.0285">
        <ele>76</ele>
        <time>2013-02-02T08:43:34.001Z</time>
      </trkpt>
      <trkpt lat="47.21553" lon="-0.0285">
        <ele>76</ele>
        <time>2013-02-02T08:43:35.001Z</time>
      </trkpt>
      <trkpt lat="47.21557" lon="-0.0285">
        <ele>76</ele>
        <time>2013-02-02T08:43:38.001Z</time>
      </trkpt>
      <trkpt lat="47.21558" lon="-0.0285">
        <ele>76</ele>
        <time>2013-02-02T08:43:39.001Z</time>
      </trkpt>
      <trkpt lat="47.21562" lon="-0.02852">
        <ele>76</ele>
        <time>2013-02-02T08:43:42.001Z</time>
      </trkpt>
      <trkpt lat="47.21563" lon="-0.02853">
        <ele>76</ele>
        <time>2013-02-02T08:43:43.001Z</time>
      </trkpt>
      <trkpt lat="47.21567" lon="-0.02854">
        <ele>76</ele>
        <time>2013-02-02T08:43:46.001Z</time>
      </trkpt>
      <trkpt lat="47.21569" lon="-0.02854">
        <ele>76</ele>
        <time>2013-02-02T08:43:47.001Z</time>
      </trkpt>
      <trkpt lat="47.21573" lon="-0.02853">
        <ele>76</ele>
        <time>2013-02-02T08:43:49.001Z</time>
      </trkpt>
      <trkpt lat="47.21574" lon="-0.02853">
        <ele>76</ele>
        <time>2013-02-02T08:43:50.001Z</time>
      </trkpt>
      <trkpt lat="47.21579" lon="-0.02852">
        <ele>77</ele>
        <time>2013-02-02T08:43:52.001Z</time>
      </trkpt>
      <trkpt lat="47.21581" lon="-0.02852">
        <ele>77</ele>
        <time>2013-02-02T08:43:53.001Z</time>
      </trkpt>
      <trkpt lat="47.21583" lon="-0.02853">
        <ele>77</ele>
        <time>2013-02-02T08:43:54.001Z</time>
      </trkpt>
      <trkpt lat="47.21586" lon="-0.02853">
        <ele>78</ele>
        <time>2013-02-02T08:43:55.001Z</time>
      </trkpt>
      <trkpt lat="47.2159" lon="-0.02854">
        <ele>78</ele>
        <time>2013-02-02T08:43:57.001Z</time>
      </trkpt>
      <trkpt lat="47.21591" lon="-0.02853">
        <ele>78</ele>
        <time>2013-02-02T08:43:58.001Z</time>
      </trkpt>
      <trkpt lat="47.21595" lon="-0.02853">
        <ele>78</ele>
        <time>2013-02-02T08:44:00.001Z</time>
      </trkpt>
      <trkpt lat="47.21596" lon="-0.02853">
        <ele>78</ele>
        <time>2013-02-02T08:44:01.001Z</time>
      </trkpt>
      <trkpt lat="47.216" lon="-0.02852">
        <ele>78</ele>
        <time>2013-02-02T08:44:04.001Z</time>
      </trkpt>
      <trkpt lat="47.21602" lon="-0.02852">
        <ele>78</ele>
        <time>2013-02-02T08:44:05.001Z</time>
      </trkpt>
      <trkpt lat="47.21605" lon="-0.02852">
        <ele>78</ele>
        <time>2013-02-02T08:44:07.001Z</time>
      </trkpt>
      <trkpt lat="47.21606" lon="-0.02853">
        <ele>78</ele>
        <time>2013-02-02T08:44:08.001Z</time>
      </trkpt>
      <trkpt lat="47.2161" lon="-0.02852">
        <ele>78</ele>
        <time>2013-02-02T08:44:11.001Z</time>
      </trkpt>
      <trkpt lat="47.21612" lon="-0.02851">
        <ele>78</ele>
        <time>2013-02-02T08:44:12.001Z</time>
      </trkpt>
      <trkpt lat="47.21615" lon="-0.02851">
        <ele>78</ele>
        <time>2013-02-02T08:44:16.001Z</time>
      </trkpt>
      <trkpt lat="47.21616" lon="-0.02851">
        <ele>78</ele>
        <time>2013-02-02T08:44:17.001Z</time>
      </trkpt>
      <trkpt lat="47.2162" lon="-0.02851">
        <ele>78</ele>
        <time>2013-02-02T08:44:20.001Z</time>
      </trkpt>
      <trkpt lat="47.21621" lon="-0.02851">
        <ele>78</ele>
        <time>2013-02-02T08:44:21.001Z</time>
      </trkpt>
      <trkpt lat="47.21626" lon="-0.02852">
        <ele>78</ele>
        <time>2013-02-02T08:44:24.001Z</time>
      </trkpt>
      <trkpt lat="47.21627" lon="-0.02852">
        <ele>78</ele>
        <time>2013-02-02T08:44:25.001Z</time>
      </trkpt>
      <trkpt lat="47.2163" lon="-0.02853">
        <ele>78</ele>
        <time>2013-02-02T08:44:27.001Z</time>
      </trkpt>
      <trkpt lat="47.21632" lon="-0.02853">
        <ele>78</ele>
        <time>2013-02-02T08:44:28.001Z</time>
      </trkpt>
      <trkpt lat="47.21636" lon="-0.02853">
        <ele>78</ele>
        <time>2013-02-02T08:44:30.001Z</time>
      </trkpt>
      <trkpt lat="47.21637" lon="-0.02853">
        <ele>78</ele>
        <time>2013-02-02T08:44:31.001Z</time>
      </trkpt>
      <trkpt lat="47.2164" lon="-0.02853">
        <ele>78</ele>
        <time>2013-02-02T08:44:33.001Z</time>
      </trkpt>
      <trkpt lat="47.21642" lon="-0.02852">
        <ele>78</ele>
        <time>2013-02-02T08:44:34.001Z</time>
      </trkpt>
      <trkpt lat="47.21645" lon="-0.02852">
        <ele>78</ele>
        <time>2013-02-02T08:44:36.001Z</time>
      </trkpt>
      <trkpt lat="47.21647" lon="-0.02851">
        <ele>78</ele>
        <time>2013-02-02T08:44:37.001Z</time>
      </trkpt>
      <trkpt lat="47.21651" lon="-0.02852">
        <ele>78</ele>
        <time>2013-02-02T08:44:40.001Z</time>
      </trkpt>
      <trkpt lat="47.21652" lon="-0.02854">
        <ele>78</ele>
        <time>2013-02-02T08:44:41.001Z</time>
      </trkpt>
      <trkpt lat="47.21655" lon="-0.02857">
        <ele>78</ele>
        <time>2013-02-02T08:44:43.001Z</time>
      </trkpt>
      <trkpt lat="47.21656" lon="-0.02859">
        <ele>78</ele>
        <time>2013-02-02T08:44:44.001Z</time>
      </trkpt>
      <trkpt lat="47.21657" lon="-0.02863">
        <ele>78</ele>
        <time>2013-02-02T08:44:46.001Z</time>
      </trkpt>
      <trkpt lat="47.21657" lon="-0.02866">
        <ele>78</ele>
        <time>2013-02-02T08:44:47.001Z</time>
      </trkpt>
      <trkpt lat="47.21658" lon="-0.02871">
        <ele>78</ele>
        <time>2013-02-02T08:44:49.001Z</time>
      </trkpt>
      <trkpt lat="47.21658" lon="-0.02873">
        <ele>78</ele>
        <time>2013-02-02T08:44:50.001Z</time>
      </trkpt>
      <trkpt lat="47.21659" lon="-0.02878">
        <ele>78</ele>
        <time>2013-02-02T08:44:53.001Z</time>
      </trkpt>
      <trkpt lat="47.21658" lon="-0.0288">
        <ele>79</ele>
        <time>2013-02-02T08:44:54.001Z</time>
      </trkpt>
      <trkpt lat="47.21658" lon="-0.02885">
        <ele>79</ele>
        <time>2013-02-02T08:44:57.001Z</time>
      </trkpt>
      <trkpt lat="47.21658" lon="-0.02888">
        <ele>79</ele>
        <time>2013-02-02T08:44:58.001Z</time>
      </trkpt>
      <trkpt lat="47.21657" lon="-0.02894">
        <ele>79</ele>
        <time>2013-02-02T08:45:00.001Z</time>
      </trkpt>
      <trkpt lat="47.21656" lon="-0.02898">
        <ele>79</ele>
        <time>2013-02-02T08:45:01.001Z</time>
      </trkpt>
      <trkpt lat="47.21655" lon="-0.02904">
        <ele>80</ele>
        <time>2013-02-02T08:45:03.001Z</time>
      </trkpt>
      <trkpt lat="47.21656" lon="-0.02906">
        <ele>80</ele>
        <time>2013-02-02T08:45:04.001Z</time>
      </trkpt>
      <trkpt lat="47.21656" lon="-0.02913">
        <ele>80</ele>
        <time>2013-02-02T08:45:07.001Z</time>
      </trkpt>
      <trkpt lat="47.21655" lon="-0.02915">
        <ele>80</ele>
        <time>2013-02-02T08:45:08.001Z</time>
      </trkpt>
      <trkpt lat="47.21655" lon="-0.0292">
        <ele>81</ele>
        <time>2013-02-02T08:45:11.001Z</time>
      </trkpt>
      <trkpt lat="47.21654" lon="-0.02922">
        <ele>81</ele>
        <time>2013-02-02T08:45:12.001Z</time>
      </trkpt>
      <trkpt lat="47.21655" lon="-0.02928">
        <ele>81</ele>
        <time>2013-02-02T08:45:15.001Z</time>
      </trkpt>
      <trkpt lat="47.21655" lon="-0.02929">
        <ele>81</ele>
        <time>2013-02-02T08:45:16.001Z</time>
      </trkpt>
      <trkpt lat="47.21654" lon="-0.02936">
        <ele>81</ele>
        <time>2013-02-02T08:45:21.001Z</time>
      </trkpt>
      <trkpt lat="47.21654" lon="-0.02936">
        <ele>81</ele>
        <time>2013-02-02T08:45:22.001Z</time>
      </trkpt>
      <trkpt lat="47.21655" lon="-0.02942">
        <ele>81</ele>
        <time>2013-02-02T08:45:25.001Z</time>
      </trkpt>
      <trkpt lat="47.21655" lon="-0.02944">
        <ele>81</ele>
        <time>2013-02-02T08:45:26.001Z</time>
      </trkpt>
      <trkpt lat="47.21655" lon="-0.02949">
        <ele>82</ele>
        <time>2013-02-02T08:45:28.001Z</time>
      </trkpt>
      <trkpt lat="47.21655" lon="-0.02951">
        <ele>82</ele>
        <time>2013-02-02T08:45:29.001Z</time>
      </trkpt>
      <trkpt lat="47.21654" lon="-0.02957">
        <ele>82</ele>
        <time>2013-02-02T08:45:31.001Z</time>
      </trkpt>
      <trkpt lat="47.21654" lon="-0.02959">
        <ele>82</ele>
        <time>2013-02-02T08:45:32.001Z</time>
      </trkpt>
      <trkpt lat="47.21653" lon="-0.02965">
        <ele>82</ele>
        <time>2013-02-02T08:45:35.001Z</time>
      </trkpt>
      <trkpt lat="47.21653" lon="-0.02966">
        <ele>82</ele>
        <time>2013-02-02T08:45:36.001Z</time>
      </trkpt>
      <trkpt lat="47.21653" lon="-0.0297">
        <ele>82</ele>
        <time>2013-02-02T08:45:41.001Z</time>
      </trkpt>
      <trkpt lat="47.21653" lon="-0.02973">
        <ele>82</ele>
        <time>2013-02-02T08:45:42.001Z</time>
      </trkpt>
      <trkpt lat="47.21654" lon="-0.02978">
        <ele>82</ele>
        <time>2013-02-02T08:45:44.001Z</time>
      </trkpt>
      <trkpt lat="47.21655" lon="-0.0298">
        <ele>82</ele>
        <time>2013-02-02T08:45:45.001Z</time>
      </trkpt>
      <trkpt lat="47.21655" lon="-0.02986">
        <ele>83</ele>
        <time>2013-02-02T08:45:48.001Z</time>
      </trkpt>
      <trkpt lat="47.21655" lon="-0.02988">
        <ele>83</ele>
        <time>2013-02-02T08:45:49.001Z</time>
      </trkpt>
      <trkpt lat="47.21655" lon="-0.02994">
        <ele>83</ele>
        <time>2013-02-02T08:45:53.001Z</time>
      </trkpt>
      <trkpt lat="47.21656" lon="-0.02996">
        <ele>83</ele>
        <time>2013-02-02T08:45:54.001Z</time>
      </trkpt>
      <trkpt lat="47.21657" lon="-0.03001">
        <ele>83</ele>
        <time>2013-02-02T08:45:57.001Z</time>
      </trkpt>
      <trkpt lat="47.21657" lon="-0.03003">
        <ele>83</ele>
        <time>2013-02-02T08:45:58.001Z</time>
      </trkpt>
      <trkpt lat="47.21657" lon="-0.03009">
        <ele>83</ele>
        <time>2013-02-02T08:46:02.001Z</time>
      </trkpt>
      <trkpt lat="47.21657" lon="-0.03012">
        <ele>83</ele>
        <time>2013-02-02T08:46:03.001Z</time>
      </trkpt>
      <trkpt lat="47.21658" lon="-0.03019">
        <ele>83</ele>
        <time>2013-02-02T08:46:06.001Z</time>
      </trkpt>
      <trkpt lat="47.21659" lon="-0.03021">
        <ele>83</ele>
        <time>2013-02-02T08:46:07.001Z</time>
      </trkpt>
      <trkpt lat="47.2166" lon="-0.03027">
        <ele>83</ele>
        <time>2013-02-02T08:46:10.001Z</time>
      </trkpt>
      <trkpt lat="47.21659" lon="-0.0303">
        <ele>83</ele>
        <time>2013-02-02T08:46:11.001Z</time>
      </trkpt>
      <trkpt lat="47.21659" lon="-0.03033">
        <ele>83</ele>
        <time>2013-02-02T08:46:12.001Z</time>
      </trkpt>
      <trkpt lat="47.21658" lon="-0.03037">
        <ele>83</ele>
        <time>2013-02-02T08:46:13.001Z</time>
      </trkpt>
      <trkpt lat="47.21658" lon="-0.03042">
        <ele>83</ele>
        <time>2013-02-02T08:46:14.001Z</time>
      </trkpt>
      <trkpt lat="47.21658" lon="-0.03047">
        <ele>83</ele>
        <time>2013-02-02T08:46:15.001Z</time>
      </trkpt>
      <trkpt lat="47.21658" lon="-0.03051">
        <ele>83</ele>
        <time>2013-02-02T08:46:16.001Z</time>
      </trkpt>
      <trkpt lat="47.21658" lon="-0.03055">
        <ele>83</ele>
        <time>2013-02-02T08:46:17.001Z</time>
      </trkpt>
      <trkpt lat="47.21659" lon="-0.03059">
        <ele>83</ele>
        <time>2013-02-02T08:46:18.001Z</time>
      </trkpt>
      <trkpt lat="47.2166" lon="-0.03062">
        <ele>83</ele>
        <time>2013-02-02T08:46:19.001Z</time>
      </trkpt>
      <trkpt lat="47.2166" lon="-0.03065">
        <ele>83</ele>
        <time>2013-02-02T08:46:20.001Z</time>
      </trkpt>
      <trkpt lat="47.21661" lon="-0.03068">
        <ele>83</ele>
        <time>2013-02-02T08:46:21.001Z</time>
      </trkpt>
      <trkpt lat="47.21662" lon="-0.03072">
        <ele>83</ele>
        <time>2013-02-02T08:46:22.001Z</time>
      </trkpt>
      <trkpt lat="47.21662" lon="-0.03075">
        <ele>83</ele>
        <time>2013-02-02T08:46:23.001Z</time>
      </trkpt>
      <trkpt lat="47.21664" lon="-0.03081">
        <ele>83</ele>
        <time>2013-02-02T08:46:25.001Z</time>
      </trkpt>
      <trkpt lat="47.21664" lon="-0.03085">
        <ele>83</ele>
        <time>2013-02-02T08:46:26.001Z</time>
      </trkpt>
      <trkpt lat="47.21666" lon="-0.03091">
        <ele>83</ele>
        <time>2013-02-02T08:46:29.001Z</time>
      </trkpt>
      <trkpt lat="47.21666" lon="-0.03093">
        <ele>83</ele>
        <time>2013-02-02T08:46:30.001Z</time>
      </trkpt>
      <trkpt lat="47.21668" lon="-0.03097">
        <ele>82</ele>
        <time>2013-02-02T08:46:33.001Z</time>
      </trkpt>
      <trkpt lat="47.21669" lon="-0.03099">
        <ele>82</ele>
        <time>2013-02-02T08:46:34.001Z</time>
      </trkpt>
      <trkpt lat="47.2167" lon="-0.03104">
        <ele>82</ele>
        <time>2013-02-02T08:46:36.001Z</time>
      </trkpt>
      <trkpt lat="47.21672" lon="-0.03108">
        <ele>82</ele>
        <time>2013-02-02T08:46:37.001Z</time>
      </trkpt>
      <trkpt lat="47.21673" lon="-0.03114">
        <ele>82</ele>
        <time>2013-02-02T08:46:40.001Z</time>
      </trkpt>
      <trkpt lat="47.21675" lon="-0.03116">
        <ele>82</ele>
        <time>2013-02-02T08:46:41.001Z</time>
      </trkpt>
      <trkpt lat="47.21677" lon="-0.03121">
        <ele>82</ele>
        <time>2013-02-02T08:46:44.001Z</time>
      </trkpt>
      <trkpt lat="47.21678" lon="-0.03122">
        <ele>82</ele>
        <time>2013-02-02T08:46:45.001Z</time>
      </trkpt>
      <trkpt lat="47.21681" lon="-0.03124">
        <ele>82</ele>
        <time>2013-02-02T08:46:47.001Z</time>
      </trkpt>
      <trkpt lat="47.21682" lon="-0.03125">
        <ele>82</ele>
        <time>2013-02-02T08:46:48.001Z</time>
      </trkpt>
      <trkpt lat="47.21685" lon="-0.03128">
        <ele>82</ele>
        <time>2013-02-02T08:46:50.001Z</time>
      </trkpt>
      <trkpt lat="47.21687" lon="-0.03129">
        <ele>82</ele>
        <time>2013-02-02T08:46:51.001Z</time>
      </trkpt>
      <trkpt lat="47.21689" lon="-0.03132">
        <ele>82</ele>
        <time>2013-02-02T08:46:53.001Z</time>
      </trkpt>
      <trkpt lat="47.2169" lon="-0.03133">
        <ele>82</ele>
        <time>2013-02-02T08:46:54.001Z</time>
      </trkpt>
      <trkpt lat="47.21694" lon="-0.03138">
        <ele>82</ele>
        <time>2013-02-02T08:46:56.001Z</time>
      </trkpt>
      <trkpt lat="47.21694" lon="-0.03139">
        <ele>82</ele>
        <time>2013-02-02T08:46:57.001Z</time>
      </trkpt>
      <trkpt lat="47.21697" lon="-0.03142">
        <ele>82</ele>
        <time>2013-02-02T08:46:59.001Z</time>
      </trkpt>
      <trkpt lat="47.21698" lon="-0.03144">
        <ele>82</ele>
        <time>2013-02-02T08:47:00.001Z</time>
      </trkpt>
      <trkpt lat="47.21702" lon="-0.03146">
        <ele>81</ele>
        <time>2013-02-02T08:47:03.001Z</time>
      </trkpt>
      <trkpt lat="47.21703" lon="-0.03148">
        <ele>81</ele>
        <time>2013-02-02T08:47:04.001Z</time>
      </trkpt>
      <trkpt lat="47.21705" lon="-0.03153">
        <ele>81</ele>
        <time>2013-02-02T08:47:07.001Z</time>
      </trkpt>
      <trkpt lat="47.21706" lon="-0.03153">
        <ele>81</ele>
        <time>2013-02-02T08:47:08.001Z</time>
      </trkpt>
      <trkpt lat="47.21709" lon="-0.03157">
        <ele>81</ele>
        <time>2013-02-02T08:47:11.001Z</time>
      </trkpt>
      <trkpt lat="47.2171" lon="-0.03159">
        <ele>81</ele>
        <time>2013-02-02T08:47:12.001Z</time>
      </trkpt>
      <trkpt lat="47.21713" lon="-0.03162">
        <ele>81</ele>
        <time>2013-02-02T08:47:14.001Z</time>
      </trkpt>
      <trkpt lat="47.21714" lon="-0.03163">
        <ele>81</ele>
        <time>2013-02-02T08:47:15.001Z</time>
      </trkpt>
      <trkpt lat="47.21717" lon="-0.03165">
        <ele>81</ele>
        <time>2013-02-02T08:47:17.001Z</time>
      </trkpt>
      <trkpt lat="47.21718" lon="-0.03168">
        <ele>81</ele>
        <time>2013-02-02T08:47:18.001Z</time>
      </trkpt>
      <trkpt lat="47.21719" lon="-0.03172">
        <ele>81</ele>
        <time>2013-02-02T08:47:21.001Z</time>
      </trkpt>
      <trkpt lat="47.2172" lon="-0.03174">
        <ele>81</ele>
        <time>2013-02-02T08:47:22.001Z</time>
      </trkpt>
      <trkpt lat="47.21722" lon="-0.03179">
        <ele>81</ele>
        <time>2013-02-02T08:47:26.001Z</time>
      </trkpt>
      <trkpt lat="47.21723" lon="-0.03181">
        <ele>81</ele>
        <time>2013-02-02T08:47:27.001Z</time>
      </trkpt>
      <trkpt lat="47.21725" lon="-0.03185">
        <ele>81</ele>
        <time>2013-02-02T08:47:30.001Z</time>
      </trkpt>
      <trkpt lat="47.21726" lon="-0.03187">
        <ele>81</ele>
        <time>2013-02-02T08:47:31.001Z</time>
      </trkpt>
      <trkpt lat="47.21728" lon="-0.0319">
        <ele>81</ele>
        <time>2013-02-02T08:47:33.001Z</time>
      </trkpt>
      <trkpt lat="47.2173" lon="-0.03192">
        <ele>81</ele>
        <time>2013-02-02T08:47:34.001Z</time>
      </trkpt>
      <trkpt lat="47.21733" lon="-0.03195">
        <ele>81</ele>
        <time>2013-02-02T08:47:37.001Z</time>
      </trkpt>
      <trkpt lat="47.21734" lon="-0.03197">
        <ele>81</ele>
        <time>2013-02-02T08:47:38.001Z</time>
      </trkpt>
      <trkpt lat="47.21736" lon="-0.032">
        <ele>81</ele>
        <time>2013-02-02T08:47:39.001Z</time>
      </trkpt>
      <trkpt lat="47.21737" lon="-0.03202">
        <ele>81</ele>
        <time>2013-02-02T08:47:40.001Z</time>
      </trkpt>
      <trkpt lat="47.21739" lon="-0.03207">
        <ele>81</ele>
        <time>2013-02-02T08:47:42.001Z</time>
      </trkpt>
      <trkpt lat="47.2174" lon="-0.03209">
        <ele>81</ele>
        <time>2013-02-02T08:47:43.001Z</time>
      </trkpt>
      <trkpt lat="47.21743" lon="-0.03212">
        <ele>81</ele>
        <time>2013-02-02T08:47:48.001Z</time>
      </trkpt>
      <trkpt lat="47.21745" lon="-0.03214">
        <ele>81</ele>
        <time>2013-02-02T08:47:49.001Z</time>
      </trkpt>
      <trkpt lat="47.21748" lon="-0.03217">
        <ele>81</ele>
        <time>2013-02-02T08:47:52.001Z</time>
      </trkpt>
      <trkpt lat="47.2175" lon="-0.0322">
        <ele>81</ele>
        <time>2013-02-02T08:47:53.001Z</time>
      </trkpt>
      <trkpt lat="47.21752" lon="-0.03225">
        <ele>81</ele>
        <time>2013-02-02T08:47:57.001Z</time>
      </trkpt>
      <trkpt lat="47.21752" lon="-0.03226">
        <ele>81</ele>
        <time>2013-02-02T08:47:58.001Z</time>
      </trkpt>
      <trkpt lat="47.21755" lon="-0.03226">
        <ele>81</ele>
        <time>2013-02-02T08:48:00.001Z</time>
      </trkpt>
      <trkpt lat="47.21757" lon="-0.03227">
        <ele>81</ele>
        <time>2013-02-02T08:48:01.001Z</time>
      </trkpt>
      <trkpt lat="47.2176" lon="-0.03228">
        <ele>81</ele>
        <time>2013-02-02T08:48:03.001Z</time>
      </trkpt>
      <trkpt lat="47.21762" lon="-0.0323">
        <ele>81</ele>
        <time>2013-02-02T08:48:04.001Z</time>
      </trkpt>
      <trkpt lat="47.21764" lon="-0.03233">
        <ele>81</ele>
        <time>2013-02-02T08:48:06.001Z</time>
      </trkpt>
      <trkpt lat="47.21765" lon="-0.03235">
        <ele>81</ele>
        <time>2013-02-02T08:48:07.001Z</time>
      </trkpt>
      <trkpt lat="47.21768" lon="-0.03239">
        <ele>81</ele>
        <time>2013-02-02T08:48:09.001Z</time>
      </trkpt>
      <trkpt lat="47.2177" lon="-0.03241">
        <ele>81</ele>
        <time>2013-02-02T08:48:10.001Z</time>
      </trkpt>
      <trkpt lat="47.21772" lon="-0.03244">
        <ele>81</ele>
        <time>2013-02-02T08:48:12.001Z</time>
      </trkpt>
      <trkpt lat="47.21774" lon="-0.03247">
        <ele>81</ele>
        <time>2013-02-02T08:48:13.001Z</time>
      </trkpt>
      <trkpt lat="47.21777" lon="-0.03251">
        <ele>82</ele>
        <time>2013-02-02T08:48:15.001Z</time>
      </trkpt>
      <trkpt lat="47.21777" lon="-0.03252">
        <ele>82</ele>
        <time>2013-02-02T08:48:16.001Z</time>
      </trkpt>
      <trkpt lat="47.2178" lon="-0.03257">
        <ele>82</ele>
        <time>2013-02-02T08:48:19.001Z</time>
      </trkpt>
      <trkpt lat="47.2178" lon="-0.03258">
        <ele>82</ele>
        <time>2013-02-02T08:48:20.001Z</time>
      </trkpt>
      <trkpt lat="47.21782" lon="-0.03262">
        <ele>82</ele>
        <time>2013-02-02T08:48:22.001Z</time>
      </trkpt>
      <trkpt lat="47.21782" lon="-0.03264">
        <ele>82</ele>
        <time>2013-02-02T08:48:23.001Z</time>
      </trkpt>
      <trkpt lat="47.21782" lon="-0.03268">
        <ele>82</ele>
        <time>2013-02-02T08:48:24.001Z</time>
      </trkpt>
      <trkpt lat="47.21783" lon="-0.03271">
        <ele>82</ele>
        <time>2013-02-02T08:48:25.001Z</time>
      </trkpt>
      <trkpt lat="47.21785" lon="-0.03274">
        <ele>82</ele>
        <time>2013-02-02T08:48:26.001Z</time>
      </trkpt>
      <trkpt lat="47.21786" lon="-0.03277">
        <ele>82</ele>
        <time>2013-02-02T08:48:27.001Z</time>
      </trkpt>
      <trkpt lat="47.21788" lon="-0.03282">
        <ele>82</ele>
        <time>2013-02-02T08:48:31.001Z</time>
      </trkpt>
      <trkpt lat="47.21789" lon="-0.03283">
        <ele>82</ele>
        <time>2013-02-02T08:48:32.001Z</time>
      </trkpt>
      <trkpt lat="47.21791" lon="-0.03288">
        <ele>82</ele>
        <time>2013-02-02T08:48:35.001Z</time>
      </trkpt>
      <trkpt lat="47.21794" lon="-0.0329">
        <ele>82</ele>
        <time>2013-02-02T08:48:36.001Z</time>
      </trkpt>
      <trkpt lat="47.21796" lon="-0.03292">
        <ele>82</ele>
        <time>2013-02-02T08:48:37.001Z</time>
      </trkpt>
      <trkpt lat="47.21799" lon="-0.03294">
        <ele>82</ele>
        <time>2013-02-02T08:48:38.001Z</time>
      </trkpt>
      <trkpt lat="47.21801" lon="-0.03299">
        <ele>82</ele>
        <time>2013-02-02T08:48:41.001Z</time>
      </trkpt>
      <trkpt lat="47.21801" lon="-0.03301">
        <ele>82</ele>
        <time>2013-02-02T08:48:42.001Z</time>
      </trkpt>
      <trkpt lat="47.21804" lon="-0.03304">
        <ele>82</ele>
        <time>2013-02-02T08:48:44.001Z</time>
      </trkpt>
      <trkpt lat="47.21806" lon="-0.03305">
        <ele>82</ele>
        <time>2013-02-02T08:48:45.001Z</time>
      </trkpt>
      <trkpt lat="47.21807" lon="-0.03308">
        <ele>82</ele>
        <time>2013-02-02T08:48:46.001Z</time>
      </trkpt>
      <trkpt lat="47.21809" lon="-0.03309">
        <ele>82</ele>
        <time>2013-02-02T08:48:47.001Z</time>
      </trkpt>
      <trkpt lat="47.21812" lon="-0.03313">
        <ele>82</ele>
        <time>2013-02-02T08:48:50.001Z</time>
      </trkpt>
      <trkpt lat="47.21813" lon="-0.03314">
        <ele>82</ele>
        <time>2013-02-02T08:48:51.001Z</time>
      </trkpt>
      <trkpt lat="47.21815" lon="-0.03318">
        <ele>82</ele>
        <time>2013-02-02T08:48:54.001Z</time>
      </trkpt>
      <trkpt lat="47.21817" lon="-0.03319">
        <ele>82</ele>
        <time>2013-02-02T08:48:55.001Z</time>
      </trkpt>
      <trkpt lat="47.21821" lon="-0.03321">
        <ele>82</ele>
        <time>2013-02-02T08:48:58.001Z</time>
      </trkpt>
      <trkpt lat="47.21822" lon="-0.03322">
        <ele>82</ele>
        <time>2013-02-02T08:48:59.001Z</time>
      </trkpt>
      <trkpt lat="47.21824" lon="-0.03326">
        <ele>82</ele>
        <time>2013-02-02T08:49:01.001Z</time>
      </trkpt>
      <trkpt lat="47.21826" lon="-0.03329">
        <ele>82</ele>
        <time>2013-02-02T08:49:02.001Z</time>
      </trkpt>
      <trkpt lat="47.21828" lon="-0.03333">
        <ele>82</ele>
        <time>2013-02-02T08:49:04.001Z</time>
      </trkpt>
      <trkpt lat="47.21829" lon="-0.03336">
        <ele>82</ele>
        <time>2013-02-02T08:49:05.001Z</time>
      </trkpt>
      <trkpt lat="47.21831" lon="-0.03341">
        <ele>82</ele>
        <time>2013-02-02T08:49:07.001Z</time>
      </trkpt>
      <trkpt lat="47.21832" lon="-0.03341">
        <ele>82</ele>
        <time>2013-02-02T08:49:08.001Z</time>
      </trkpt>
      <trkpt lat="47.21835" lon="-0.03345">
        <ele>82</ele>
        <time>2013-02-02T08:49:11.001Z</time>
      </trkpt>
      <trkpt lat="47.21835" lon="-0.03346">
        <ele>82</ele>
        <time>2013-02-02T08:49:12.001Z</time>
      </trkpt>
      <trkpt lat="47.21838" lon="-0.03349">
        <ele>83</ele>
        <time>2013-02-02T08:49:14.001Z</time>
      </trkpt>
      <trkpt lat="47.21839" lon="-0.03351">
        <ele>83</ele>
        <time>2013-02-02T08:49:15.001Z</time>
      </trkpt>
      <trkpt lat="47.2184" lon="-0.03357">
        <ele>83</ele>
        <time>2013-02-02T08:49:17.001Z</time>
      </trkpt>
      <trkpt lat="47.2184" lon="-0.03359">
        <ele>83</ele>
        <time>2013-02-02T08:49:18.001Z</time>
      </trkpt>
      <trkpt lat="47.21839" lon="-0.03365">
        <ele>83</ele>
        <time>2013-02-02T08:49:20.001Z</time>
      </trkpt>
      <trkpt lat="47.21839" lon="-0.03367">
        <ele>83</ele>
        <time>2013-02-02T08:49:21.001Z</time>
      </trkpt>
      <trkpt lat="47.21841" lon="-0.03369">
        <ele>83</ele>
        <time>2013-02-02T08:49:22.001Z</time>
      </trkpt>
      <trkpt lat="47.21842" lon="-0.03373">
        <ele>83</ele>
        <time>2013-02-02T08:49:23.001Z</time>
      </trkpt>
      <trkpt lat="47.21843" lon="-0.03376">
        <ele>83</ele>
        <time>2013-02-02T08:49:26.001Z</time>
      </trkpt>
      <trkpt lat="47.21843" lon="-0.03379">
        <ele>83</ele>
        <time>2013-02-02T08:49:27.001Z</time>
      </trkpt>
      <trkpt lat="47.21845" lon="-0.03384">
        <ele>83</ele>
        <time>2013-02-02T08:49:29.001Z</time>
      </trkpt>
      <trkpt lat="47.21847" lon="-0.03385">
        <ele>83</ele>
        <time>2013-02-02T08:49:30.001Z</time>
      </trkpt>
      <trkpt lat="47.2185" lon="-0.03386">
        <ele>83</ele>
        <time>2013-02-02T08:49:31.001Z</time>
      </trkpt>
      <trkpt lat="47.21852" lon="-0.03387">
        <ele>83</ele>
        <time>2013-02-02T08:49:32.001Z</time>
      </trkpt>
      <trkpt lat="47.21854" lon="-0.03388">
        <ele>83</ele>
        <time>2013-02-02T08:49:33.001Z</time>
      </trkpt>
      <trkpt lat="47.21857" lon="-0.03389">
        <ele>83</ele>
        <time>2013-02-02T08:49:34.001Z</time>
      </trkpt>
      <trkpt lat="47.2186" lon="-0.0339">
        <ele>83</ele>
        <time>2013-02-02T08:49:36.001Z</time>
      </trkpt>
      <trkpt lat="47.21862" lon="-0.03394">
        <ele>83</ele>
        <time>2013-02-02T08:49:37.001Z</time>
      </trkpt>
      <trkpt lat="47.21864" lon="-0.03397">
        <ele>83</ele>
        <time>2013-02-02T08:49:39.001Z</time>
      </trkpt>
      <trkpt lat="47.21865" lon="-0.03399">
        <ele>83</ele>
        <time>2013-02-02T08:49:40.001Z</time>
      </trkpt>
      <trkpt lat="47.21869" lon="-0.03401">
        <ele>83</ele>
        <time>2013-02-02T08:49:42.001Z</time>
      </trkpt>
      <trkpt lat="47.21871" lon="-0.03402">
        <ele>83</ele>
        <time>2013-02-02T08:49:43.001Z</time>
      </trkpt>
      <trkpt lat="47.21873" lon="-0.03403">
        <ele>83</ele>
        <time>2013-02-02T08:49:45.001Z</time>
      </trkpt>
      <trkpt lat="47.21875" lon="-0.03404">
        <ele>83</ele>
        <time>2013-02-02T08:49:46.001Z</time>
      </trkpt>
      <trkpt lat="47.21877" lon="-0.03408">
        <ele>83</ele>
        <time>2013-02-02T08:49:49.001Z</time>
      </trkpt>
      <trkpt lat="47.21878" lon="-0.03409">
        <ele>83</ele>
        <time>2013-02-02T08:49:50.001Z</time>
      </trkpt>
      <trkpt lat="47.21882" lon="-0.03409">
        <ele>83</ele>
        <time>2013-02-02T08:49:53.001Z</time>
      </trkpt>
      <trkpt lat="47.21883" lon="-0.03409">
        <ele>83</ele>
        <time>2013-02-02T08:49:54.001Z</time>
      </trkpt>
      <trkpt lat="47.21886" lon="-0.03411">
        <ele>83</ele>
        <time>2013-02-02T08:49:57.001Z</time>
      </trkpt>
      <trkpt lat="47.21888" lon="-0.03412">
        <ele>83</ele>
        <time>2013-02-02T08:49:58.001Z</time>
      </trkpt>
      <trkpt lat="47.21891" lon="-0.03416">
        <ele>83</ele>
        <time>2013-02-02T08:50:00.001Z</time>
      </trkpt>
      <trkpt lat="47.21893" lon="-0.03418">
        <ele>83</ele>
        <time>2013-02-02T08:50:01.001Z</time>
      </trkpt>
      <trkpt lat="47.21896" lon="-0.03422">
        <ele>83</ele>
        <time>2013-02-02T08:50:04.001Z</time>
      </trkpt>
      <trkpt lat="47.21896" lon="-0.03425">
        <ele>83</ele>
        <time>2013-02-02T08:50:05.001Z</time>
      </trkpt>
      <trkpt lat="47.21897" lon="-0.03429">
        <ele>83</ele>
        <time>2013-02-02T08:50:07.001Z</time>
      </trkpt>
      <trkpt lat="47.21898" lon="-0.03431">
        <ele>83</ele>
        <time>2013-02-02T08:50:08.001Z</time>
      </trkpt>
      <trkpt lat="47.219" lon="-0.03434">
        <ele>83</ele>
        <time>2013-02-02T08:50:09.001Z</time>
      </trkpt>
      <trkpt lat="47.21902" lon="-0.03436">
        <ele>83</ele>
        <time>2013-02-02T08:50:10.001Z</time>
      </trkpt>
      <trkpt lat="47.21905" lon="-0.03439">
        <ele>83</ele>
        <time>2013-02-02T08:50:13.001Z</time>
      </trkpt>
      <trkpt lat="47.21906" lon="-0.0344">
        <ele>83</ele>
        <time>2013-02-02T08:50:14.001Z</time>
      </trkpt>
      <trkpt lat="47.21909" lon="-0.03443">
        <ele>83</ele>
        <time>2013-02-02T08:50:18.001Z</time>
      </trkpt>
      <trkpt lat="47.2191" lon="-0.03443">
        <ele>83</ele>
        <time>2013-02-02T08:50:19.001Z</time>
      </trkpt>
      <trkpt lat="47.21914" lon="-0.03445">
        <ele>83</ele>
        <time>2013-02-02T08:50:22.001Z</time>
      </trkpt>
      <trkpt lat="47.21915" lon="-0.03444">
        <ele>83</ele>
        <time>2013-02-02T08:50:23.001Z</time>
      </trkpt>
      <trkpt lat="47.21918" lon="-0.03447">
        <ele>83</ele>
        <time>2013-02-02T08:50:29.001Z</time>
      </trkpt>
      <trkpt lat="47.2192" lon="-0.03447">
        <ele>83</ele>
        <time>2013-02-02T08:50:30.001Z</time>
      </trkpt>
      <trkpt lat="47.21923" lon="-0.03452">
        <ele>83</ele>
        <time>2013-02-02T08:50:38.001Z</time>
      </trkpt>
      <trkpt lat="47.21923" lon="-0.03453">
        <ele>83</ele>
        <time>2013-02-02T08:50:39.001Z</time>
      </trkpt>
      <trkpt lat="47.21924" lon="-0.03455">
        <ele>83</ele>
        <time>2013-02-02T08:50:41.001Z</time>
      </trkpt>
      <trkpt lat="47.21928" lon="-0.03461">
        <ele>84</ele>
        <time>2013-02-02T08:50:42.001Z</time>
      </trkpt>
      <trkpt lat="47.21931" lon="-0.03465">
        <ele>84</ele>
        <time>2013-02-02T08:50:43.001Z</time>
      </trkpt>
      <trkpt lat="47.21932" lon="-0.03466">
        <ele>84</ele>
        <time>2013-02-02T08:50:44.001Z</time>
      </trkpt>
      <trkpt lat="47.21933" lon="-0.03467">
        <ele>84</ele>
        <time>2013-02-02T08:50:45.001Z</time>
      </trkpt>
      <trkpt lat="47.21936" lon="-0.03471">
        <ele>84</ele>
        <time>2013-02-02T08:50:46.001Z</time>
      </trkpt>
      <trkpt lat="47.21939" lon="-0.03474">
        <ele>84</ele>
        <time>2013-02-02T08:50:47.001Z</time>
      </trkpt>
      <trkpt lat="47.2194" lon="-0.03475">
        <ele>84</ele>
        <time>2013-02-02T08:50:48.001Z</time>
      </trkpt>
      <trkpt lat="47.21944" lon="-0.03477">
        <ele>84</ele>
        <time>2013-02-02T08:50:49.001Z</time>
      </trkpt>
      <trkpt lat="47.21946" lon="-0.03479">
        <ele>84</ele>
        <time>2013-02-02T08:50:50.001Z</time>
      </trkpt>
      <trkpt lat="47.21949" lon="-0.03481">
        <ele>84</ele>
        <time>2013-02-02T08:50:52.001Z</time>
      </trkpt>
      <trkpt lat="47.21951" lon="-0.03483">
        <ele>84</ele>
        <time>2013-02-02T08:50:53.001Z</time>
      </trkpt>
      <trkpt lat="47.21952" lon="-0.03486">
        <ele>84</ele>
        <time>2013-02-02T08:50:54.001Z</time>
      </trkpt>
      <trkpt lat="47.21954" lon="-0.0349">
        <ele>84</ele>
        <time>2013-02-02T08:50:55.001Z</time>
      </trkpt>
      <trkpt lat="47.21957" lon="-0.03492">
        <ele>84</ele>
        <time>2013-02-02T08:50:57.001Z</time>
      </trkpt>
      <trkpt lat="47.21958" lon="-0.03492">
        <ele>84</ele>
        <time>2013-02-02T08:50:58.001Z</time>
      </trkpt>
      <trkpt lat="47.21961" lon="-0.03493">
        <ele>83</ele>
        <time>2013-02-02T08:50:59.001Z</time>
      </trkpt>
      <trkpt lat="47.21964" lon="-0.03493">
        <ele>83</ele>
        <time>2013-02-02T08:51:00.001Z</time>
      </trkpt>
      <trkpt lat="47.21967" lon="-0.03495">
        <ele>83</ele>
        <time>2013-02-02T08:51:02.001Z</time>
      </trkpt>
      <trkpt lat="47.21969" lon="-0.03497">
        <ele>83</ele>
        <time>2013-02-02T08:51:03.001Z</time>
      </trkpt>
      <trkpt lat="47.21972" lon="-0.03498">
        <ele>83</ele>
        <time>2013-02-02T08:51:07.001Z</time>
      </trkpt>
      <trkpt lat="47.21974" lon="-0.03499">
        <ele>83</ele>
        <time>2013-02-02T08:51:08.001Z</time>
      </trkpt>
      <trkpt lat="47.21979" lon="-0.03499">
        <ele>83</ele>
        <time>2013-02-02T08:51:11.001Z</time>
      </trkpt>
      <trkpt lat="47.2198" lon="-0.03499">
        <ele>83</ele>
        <time>2013-02-02T08:51:12.001Z</time>
      </trkpt>
      <trkpt lat="47.21984" lon="-0.03498">
        <ele>83</ele>
        <time>2013-02-02T08:51:15.001Z</time>
      </trkpt>
      <trkpt lat="47.21986" lon="-0.03498">
        <ele>83</ele>
        <time>2013-02-02T08:51:16.001Z</time>
      </trkpt>
      <trkpt lat="47.2199" lon="-0.03499">
        <ele>83</ele>
        <time>2013-02-02T08:51:18.001Z</time>
      </trkpt>
      <trkpt lat="47.21991" lon="-0.03499">
        <ele>83</ele>
        <time>2013-02-02T08:51:19.001Z</time>
      </trkpt>
      <trkpt lat="47.21993" lon="-0.03498">
        <ele>83</ele>
        <time>2013-02-02T08:51:21.001Z</time>
      </trkpt>
      <trkpt lat="47.21996" lon="-0.035">
        <ele>83</ele>
        <time>2013-02-02T08:51:22.001Z</time>
      </trkpt>
      <trkpt lat="47.22" lon="-0.03498">
        <ele>83</ele>
        <time>2013-02-02T08:51:28.001Z</time>
      </trkpt>
      <trkpt lat="47.22001" lon="-0.03497">
        <ele>83</ele>
        <time>2013-02-02T08:51:29.001Z</time>
      </trkpt>
      <trkpt lat="47.22005" lon="-0.03496">
        <ele>83</ele>
        <time>2013-02-02T08:51:32.001Z</time>
      </trkpt>
      <trkpt lat="47.22007" lon="-0.03495">
        <ele>82</ele>
        <time>2013-02-02T08:51:33.001Z</time>
      </trkpt>
      <trkpt lat="47.22011" lon="-0.03496">
        <ele>82</ele>
        <time>2013-02-02T08:51:37.001Z</time>
      </trkpt>
      <trkpt lat="47.22012" lon="-0.03496">
        <ele>82</ele>
        <time>2013-02-02T08:51:38.001Z</time>
      </trkpt>
      <trkpt lat="47.22015" lon="-0.03495">
        <ele>82</ele>
        <time>2013-02-02T08:51:40.001Z</time>
      </trkpt>
      <trkpt lat="47.22017" lon="-0.03496">
        <ele>82</ele>
        <time>2013-02-02T08:51:41.001Z</time>
      </trkpt>
      <trkpt lat="47.2202" lon="-0.035">
        <ele>80</ele>
        <time>2013-02-02T08:51:47.001Z</time>
      </trkpt>
      <trkpt lat="47.22021" lon="-0.03503">
        <ele>80</ele>
        <time>2013-02-02T08:51:48.001Z</time>
      </trkpt>
      <trkpt lat="47.22024" lon="-0.03507">
        <ele>80</ele>
        <time>2013-02-02T08:51:50.001Z</time>
      </trkpt>
      <trkpt lat="47.22026" lon="-0.03508">
        <ele>80</ele>
        <time>2013-02-02T08:51:51.001Z</time>
      </trkpt>
      <trkpt lat="47.2203" lon="-0.0351">
        <ele>79</ele>
        <time>2013-02-02T08:51:54.001Z</time>
      </trkpt>
      <trkpt lat="47.22032" lon="-0.0351">
        <ele>79</ele>
        <time>2013-02-02T08:51:55.001Z</time>
      </trkpt>
      <trkpt lat="47.22036" lon="-0.0351">
        <ele>79</ele>
        <time>2013-02-02T08:51:57.001Z</time>
      </trkpt>
      <trkpt lat="47.22038" lon="-0.03513">
        <ele>79</ele>
        <time>2013-02-02T08:51:58.001Z</time>
      </trkpt>
      <trkpt lat="47.22042" lon="-0.03517">
        <ele>78</ele>
        <time>2013-02-02T08:52:01.001Z</time>
      </trkpt>
      <trkpt lat="47.22043" lon="-0.03517">
        <ele>78</ele>
        <time>2013-02-02T08:52:02.001Z</time>
      </trkpt>
      <trkpt lat="47.22046" lon="-0.03521">
        <ele>78</ele>
        <time>2013-02-02T08:52:10.001Z</time>
      </trkpt>
      <trkpt lat="47.22048" lon="-0.03522">
        <ele>78</ele>
        <time>2013-02-02T08:52:11.001Z</time>
      </trkpt>
      <trkpt lat="47.22052" lon="-0.03525">
        <ele>78</ele>
        <time>2013-02-02T08:52:13.001Z</time>
      </trkpt>
      <trkpt lat="47.22054" lon="-0.03528">
        <ele>78</ele>
        <time>2013-02-02T08:52:14.001Z</time>
      </trkpt>
      <trkpt lat="47.22056" lon="-0.0353">
        <ele>78</ele>
        <time>2013-02-02T08:52:15.001Z</time>
      </trkpt>
      <trkpt lat="47.22062" lon="-0.03532">
        <ele>77</ele>
        <time>2013-02-02T08:52:16.001Z</time>
      </trkpt>
      <trkpt lat="47.22065" lon="-0.03532">
        <ele>77</ele>
        <time>2013-02-02T08:52:17.001Z</time>
      </trkpt>
      <trkpt lat="47.22067" lon="-0.03532">
        <ele>77</ele>
        <time>2013-02-02T08:52:18.001Z</time>
      </trkpt>
      <trkpt lat="47.2207" lon="-0.03535">
        <ele>77</ele>
        <time>2013-02-02T08:52:19.001Z</time>
      </trkpt>
      <trkpt lat="47.22076" lon="-0.03544">
        <ele>77</ele>
        <time>2013-02-02T08:52:20.001Z</time>
      </trkpt>
      <trkpt lat="47.22078" lon="-0.03547">
        <ele>76</ele>
        <time>2013-02-02T08:52:21.001Z</time>
      </trkpt>
      <trkpt lat="47.22081" lon="-0.0355">
        <ele>76</ele>
        <time>2013-02-02T08:52:22.001Z</time>
      </trkpt>
      <trkpt lat="47.22084" lon="-0.03554">
        <ele>72</ele>
        <time>2013-02-02T08:52:24.001Z</time>
      </trkpt>
      <trkpt lat="47.22086" lon="-0.03557">
        <ele>71</ele>
        <time>2013-02-02T08:52:25.001Z</time>
      </trkpt>
      <trkpt lat="47.22087" lon="-0.0356">
        <ele>71</ele>
        <time>2013-02-02T08:52:26.001Z</time>
      </trkpt>
      <trkpt lat="47.22089" lon="-0.03564">
        <ele>71</ele>
        <time>2013-02-02T08:52:27.001Z</time>
      </trkpt>
      <trkpt lat="47.22092" lon="-0.03568">
        <ele>71</ele>
        <time>2013-02-02T08:52:29.001Z</time>
      </trkpt>
      <trkpt lat="47.22094" lon="-0.0357">
        <ele>71</ele>
        <time>2013-02-02T08:52:30.001Z</time>
      </trkpt>
      <trkpt lat="47.22095" lon="-0.03573">
        <ele>71</ele>
        <time>2013-02-02T08:52:31.001Z</time>
      </trkpt>
      <trkpt lat="47.22097" lon="-0.03576">
        <ele>71</ele>
        <time>2013-02-02T08:52:32.001Z</time>
      </trkpt>
      <trkpt lat="47.22097" lon="-0.03581">
        <ele>71</ele>
        <time>2013-02-02T08:52:33.001Z</time>
      </trkpt>
      <trkpt lat="47.22098" lon="-0.03584">
        <ele>70</ele>
        <time>2013-02-02T08:52:34.001Z</time>
      </trkpt>
      <trkpt lat="47.22098" lon="-0.03589">
        <ele>69</ele>
        <time>2013-02-02T08:52:36.001Z</time>
      </trkpt>
      <trkpt lat="47.22099" lon="-0.03592">
        <ele>69</ele>
        <time>2013-02-02T08:52:37.001Z</time>
      </trkpt>
      <trkpt lat="47.22102" lon="-0.03596">
        <ele>69</ele>
        <time>2013-02-02T08:52:41.001Z</time>
      </trkpt>
      <trkpt lat="47.22103" lon="-0.03598">
        <ele>68</ele>
        <time>2013-02-02T08:52:42.001Z</time>
      </trkpt>
      <trkpt lat="47.22106" lon="-0.03603">
        <ele>68</ele>
        <time>2013-02-02T08:52:45.001Z</time>
      </trkpt>
      <trkpt lat="47.22107" lon="-0.03603">
        <ele>68</ele>
        <time>2013-02-02T08:52:46.001Z</time>
      </trkpt>
      <trkpt lat="47.2211" lon="-0.03607">
        <ele>68</ele>
        <time>2013-02-02T08:52:48.001Z</time>
      </trkpt>
      <trkpt lat="47.22111" lon="-0.03609">
        <ele>67</ele>
        <time>2013-02-02T08:52:49.001Z</time>
      </trkpt>
      <trkpt lat="47.22113" lon="-0.03612">
        <ele>67</ele>
        <time>2013-02-02T08:52:51.001Z</time>
      </trkpt>
      <trkpt lat="47.22115" lon="-0.03614">
        <ele>67</ele>
        <time>2013-02-02T08:52:52.001Z</time>
      </trkpt>
      <trkpt lat="47.22116" lon="-0.03616">
        <ele>67</ele>
        <time>2013-02-02T08:52:53.001Z</time>
      </trkpt>
      <trkpt lat="47.22118" lon="-0.03619">
        <ele>67</ele>
        <time>2013-02-02T08:52:54.001Z</time>
      </trkpt>
      <trkpt lat="47.22121" lon="-0.03623">
        <ele>67</ele>
        <time>2013-02-02T08:52:56.001Z</time>
      </trkpt>
      <trkpt lat="47.22123" lon="-0.03626">
        <ele>66</ele>
        <time>2013-02-02T08:52:57.001Z</time>
      </trkpt>
      <trkpt lat="47.22125" lon="-0.0363">
        <ele>66</ele>
        <time>2013-02-02T08:52:59.001Z</time>
      </trkpt>
      <trkpt lat="47.22126" lon="-0.03632">
        <ele>66</ele>
        <time>2013-02-02T08:53:00.001Z</time>
      </trkpt>
      <trkpt lat="47.22128" lon="-0.03636">
        <ele>66</ele>
        <time>2013-02-02T08:53:02.001Z</time>
      </trkpt>
      <trkpt lat="47.22128" lon="-0.03638">
        <ele>66</ele>
        <time>2013-02-02T08:53:03.001Z</time>
      </trkpt>
      <trkpt lat="47.2213" lon="-0.03641">
        <ele>66</ele>
        <time>2013-02-02T08:53:05.001Z</time>
      </trkpt>
      <trkpt lat="47.22131" lon="-0.03643">
        <ele>65</ele>
        <time>2013-02-02T08:53:06.001Z</time>
      </trkpt>
      <trkpt lat="47.22134" lon="-0.03648">
        <ele>65</ele>
        <time>2013-02-02T08:53:09.001Z</time>
      </trkpt>
      <trkpt lat="47.22135" lon="-0.0365">
        <ele>65</ele>
        <time>2013-02-02T08:53:10.001Z</time>
      </trkpt>
      <trkpt lat="47.22137" lon="-0.03654">
        <ele>65</ele>
        <time>2013-02-02T08:53:13.001Z</time>
      </trkpt>
      <trkpt lat="47.22139" lon="-0.03656">
        <ele>64</ele>
        <time>2013-02-02T08:53:14.001Z</time>
      </trkpt>
      <trkpt lat="47.22141" lon="-0.03659">
        <ele>64</ele>
        <time>2013-02-02T08:53:17.001Z</time>
      </trkpt>
      <trkpt lat="47.22142" lon="-0.03661">
        <ele>64</ele>
        <time>2013-02-02T08:53:18.001Z</time>
      </trkpt>
      <trkpt lat="47.22145" lon="-0.03664">
        <ele>63</ele>
        <time>2013-02-02T08:53:20.001Z</time>
      </trkpt>
      <trkpt lat="47.22146" lon="-0.03665">
        <ele>63</ele>
        <time>2013-02-02T08:53:21.001Z</time>
      </trkpt>
      <trkpt lat="47.22149" lon="-0.03669">
        <ele>62</ele>
        <time>2013-02-02T08:53:23.001Z</time>
      </trkpt>
      <trkpt lat="47.2215" lon="-0.03671">
        <ele>62</ele>
        <time>2013-02-02T08:53:24.001Z</time>
      </trkpt>
      <trkpt lat="47.22153" lon="-0.03673">
        <ele>62</ele>
        <time>2013-02-02T08:53:26.001Z</time>
      </trkpt>
      <trkpt lat="47.22154" lon="-0.03675">
        <ele>62</ele>
        <time>2013-02-02T08:53:27.001Z</time>
      </trkpt>
      <trkpt lat="47.22158" lon="-0.03678">
        <ele>62</ele>
        <time>2013-02-02T08:53:30.001Z</time>
      </trkpt>
      <trkpt lat="47.22159" lon="-0.0368">
        <ele>62</ele>
        <time>2013-02-02T08:53:31.001Z</time>
      </trkpt>
      <trkpt lat="47.22161" lon="-0.03682">
        <ele>62</ele>
        <time>2013-02-02T08:53:33.001Z</time>
      </trkpt>
      <trkpt lat="47.22162" lon="-0.03685">
        <ele>62</ele>
        <time>2013-02-02T08:53:34.001Z</time>
      </trkpt>
      <trkpt lat="47.22165" lon="-0.0369">
        <ele>62</ele>
        <time>2013-02-02T08:53:37.001Z</time>
      </trkpt>
      <trkpt lat="47.22166" lon="-0.03691">
        <ele>62</ele>
        <time>2013-02-02T08:53:38.001Z</time>
      </trkpt>
      <trkpt lat="47.22169" lon="-0.03695">
        <ele>59</ele>
        <time>2013-02-02T08:53:41.001Z</time>
      </trkpt>
      <trkpt lat="47.2217" lon="-0.03697">
        <ele>59</ele>
        <time>2013-02-02T08:53:42.001Z</time>
      </trkpt>
      <trkpt lat="47.22172" lon="-0.037">
        <ele>59</ele>
        <time>2013-02-02T08:53:44.001Z</time>
      </trkpt>
      <trkpt lat="47.22173" lon="-0.03702">
        <ele>59</ele>
        <time>2013-02-02T08:53:45.001Z</time>
      </trkpt>
      <trkpt lat="47.22174" lon="-0.03705">
        <ele>59</ele>
        <time>2013-02-02T08:53:47.001Z</time>
      </trkpt>
      <trkpt lat="47.22175" lon="-0.03708">
        <ele>59</ele>
        <time>2013-02-02T08:53:48.001Z</time>
      </trkpt>
      <trkpt lat="47.22177" lon="-0.03712">
        <ele>59</ele>
        <time>2013-02-02T08:53:50.001Z</time>
      </trkpt>
      <trkpt lat="47.22178" lon="-0.03714">
        <ele>59</ele>
        <time>2013-02-02T08:53:51.001Z</time>
      </trkpt>
      <trkpt lat="47.22179" lon="-0.03719">
        <ele>59</ele>
        <time>2013-02-02T08:53:53.001Z</time>
      </trkpt>
      <trkpt lat="47.2218" lon="-0.03721">
        <ele>59</ele>
        <time>2013-02-02T08:53:54.001Z</time>
      </trkpt>
      <trkpt lat="47.22181" lon="-0.03727">
        <ele>59</ele>
        <time>2013-02-02T08:53:56.001Z</time>
      </trkpt>
      <trkpt lat="47.22182" lon="-0.0373">
        <ele>59</ele>
        <time>2013-02-02T08:53:57.001Z</time>
      </trkpt>
      <trkpt lat="47.22183" lon="-0.03735">
        <ele>59</ele>
        <time>2013-02-02T08:53:59.001Z</time>
      </trkpt>
      <trkpt lat="47.22184" lon="-0.03738">
        <ele>59</ele>
        <time>2013-02-02T08:54:00.001Z</time>
      </trkpt>
      <trkpt lat="47.22186" lon="-0.03744">
        <ele>59</ele>
        <time>2013-02-02T08:54:05.001Z</time>
      </trkpt>
      <trkpt lat="47.22187" lon="-0.03745">
        <ele>59</ele>
        <time>2013-02-02T08:54:06.001Z</time>
      </trkpt>
      <trkpt lat="47.22189" lon="-0.03749">
        <ele>59</ele>
        <time>2013-02-02T08:54:08.001Z</time>
      </trkpt>
      <trkpt lat="47.2219" lon="-0.03751">
        <ele>59</ele>
        <time>2013-02-02T08:54:09.001Z</time>
      </trkpt>
      <trkpt lat="47.22192" lon="-0.03754">
        <ele>58</ele>
        <time>2013-02-02T08:54:11.001Z</time>
      </trkpt>
      <trkpt lat="47.22193" lon="-0.03756">
        <ele>58</ele>
        <time>2013-02-02T08:54:12.001Z</time>
      </trkpt>
      <trkpt lat="47.22195" lon="-0.0376">
        <ele>58</ele>
        <time>2013-02-02T08:54:14.001Z</time>
      </trkpt>
      <trkpt lat="47.22195" lon="-0.03763">
        <ele>58</ele>
        <time>2013-02-02T08:54:15.001Z</time>
      </trkpt>
      <trkpt lat="47.22197" lon="-0.03769">
        <ele>58</ele>
        <time>2013-02-02T08:54:17.001Z</time>
      </trkpt>
      <trkpt lat="47.22197" lon="-0.03771">
        <ele>58</ele>
        <time>2013-02-02T08:54:18.001Z</time>
      </trkpt>
      <trkpt lat="47.22199" lon="-0.03775">
        <ele>58</ele>
        <time>2013-02-02T08:54:20.001Z</time>
      </trkpt>
      <trkpt lat="47.222" lon="-0.03777">
        <ele>58</ele>
        <time>2013-02-02T08:54:21.001Z</time>
      </trkpt>
      <trkpt lat="47.22202" lon="-0.03782">
        <ele>58</ele>
        <time>2013-02-02T08:54:23.001Z</time>
      </trkpt>
      <trkpt lat="47.22203" lon="-0.03784">
        <ele>58</ele>
        <time>2013-02-02T08:54:24.001Z</time>
      </trkpt>
      <trkpt lat="47.22204" lon="-0.03788">
        <ele>58</ele>
        <time>2013-02-02T08:54:26.001Z</time>
      </trkpt>
      <trkpt lat="47.22205" lon="-0.03791">
        <ele>58</ele>
        <time>2013-02-02T08:54:27.001Z</time>
      </trkpt>
      <trkpt lat="47.22208" lon="-0.03795">
        <ele>58</ele>
        <time>2013-02-02T08:54:30.001Z</time>
      </trkpt>
      <trkpt lat="47.22209" lon="-0.03797">
        <ele>58</ele>
        <time>2013-02-02T08:54:31.001Z</time>
      </trkpt>
      <trkpt lat="47.2221" lon="-0.03801">
        <ele>58</ele>
        <time>2013-02-02T08:54:33.001Z</time>
      </trkpt>
      <trkpt lat="47.22211" lon="-0.03803">
        <ele>58</ele>
        <time>2013-02-02T08:54:34.001Z</time>
      </trkpt>
      <trkpt lat="47.22212" lon="-0.03806">
        <ele>58</ele>
        <time>2013-02-02T08:54:36.001Z</time>
      </trkpt>
      <trkpt lat="47.22213" lon="-0.03809">
        <ele>58</ele>
        <time>2013-02-02T08:54:37.001Z</time>
      </trkpt>
      <trkpt lat="47.22215" lon="-0.03814">
        <ele>58</ele>
        <time>2013-02-02T08:54:40.001Z</time>
      </trkpt>
      <trkpt lat="47.22215" lon="-0.03816">
        <ele>58</ele>
        <time>2013-02-02T08:54:41.001Z</time>
      </trkpt>
      <trkpt lat="47.22216" lon="-0.03821">
        <ele>57</ele>
        <time>2013-02-02T08:54:43.001Z</time>
      </trkpt>
      <trkpt lat="47.22217" lon="-0.03823">
        <ele>57</ele>
        <time>2013-02-02T08:54:44.001Z</time>
      </trkpt>
      <trkpt lat="47.22218" lon="-0.03828">
        <ele>57</ele>
        <time>2013-02-02T08:54:46.001Z</time>
      </trkpt>
      <trkpt lat="47.22218" lon="-0.0383">
        <ele>57</ele>
        <time>2013-02-02T08:54:47.001Z</time>
      </trkpt>
      <trkpt lat="47.22218" lon="-0.03836">
        <ele>57</ele>
        <time>2013-02-02T08:54:50.001Z</time>
      </trkpt>
      <trkpt lat="47.22218" lon="-0.03839">
        <ele>57</ele>
        <time>2013-02-02T08:54:51.001Z</time>
      </trkpt>
      <trkpt lat="47.22218" lon="-0.03843">
        <ele>57</ele>
        <time>2013-02-02T08:54:52.001Z</time>
      </trkpt>
      <trkpt lat="47.22217" lon="-0.03847">
        <ele>57</ele>
        <time>2013-02-02T08:54:53.001Z</time>
      </trkpt>
      <trkpt lat="47.22217" lon="-0.0385">
        <ele>57</ele>
        <time>2013-02-02T08:54:54.001Z</time>
      </trkpt>
      <trkpt lat="47.22216" lon="-0.03853">
        <ele>58</ele>
        <time>2013-02-02T08:54:55.001Z</time>
      </trkpt>
      <trkpt lat="47.22216" lon="-0.03858">
        <ele>58</ele>
        <time>2013-02-02T08:54:57.001Z</time>
      </trkpt>
      <trkpt lat="47.22216" lon="-0.03861">
        <ele>58</ele>
        <time>2013-02-02T08:54:58.001Z</time>
      </trkpt>
      <trkpt lat="47.22216" lon="-0.03866">
        <ele>58</ele>
        <time>2013-02-02T08:55:00.001Z</time>
      </trkpt>
      <trkpt lat="47.22216" lon="-0.03868">
        <ele>58</ele>
        <time>2013-02-02T08:55:01.001Z</time>
      </trkpt>
      <trkpt lat="47.22217" lon="-0.03874">
        <ele>58</ele>
        <time>2013-02-02T08:55:04.001Z</time>
      </trkpt>
      <trkpt lat="47.22216" lon="-0.03876">
        <ele>58</ele>
        <time>2013-02-02T08:55:05.001Z</time>
      </trkpt>
      <trkpt lat="47.22215" lon="-0.03881">
        <ele>58</ele>
        <time>2013-02-02T08:55:08.001Z</time>
      </trkpt>
      <trkpt lat="47.22215" lon="-0.03883">
        <ele>58</ele>
        <time>2013-02-02T08:55:09.001Z</time>
      </trkpt>
      <trkpt lat="47.22214" lon="-0.03888">
        <ele>58</ele>
        <time>2013-02-02T08:55:11.001Z</time>
      </trkpt>
      <trkpt lat="47.22214" lon="-0.0389">
        <ele>58</ele>
        <time>2013-02-02T08:55:12.001Z</time>
      </trkpt>
      <trkpt lat="47.22213" lon="-0.03893">
        <ele>58</ele>
        <time>2013-02-02T08:55:15.001Z</time>
      </trkpt>
      <trkpt lat="47.22212" lon="-0.03896">
        <ele>58</ele>
        <time>2013-02-02T08:55:16.001Z</time>
      </trkpt>
      <trkpt lat="47.22212" lon="-0.03902">
        <ele>58</ele>
        <time>2013-02-02T08:55:18.001Z</time>
      </trkpt>
      <trkpt lat="47.22211" lon="-0.03905">
        <ele>58</ele>
        <time>2013-02-02T08:55:19.001Z</time>
      </trkpt>
      <trkpt lat="47.22211" lon="-0.03911">
        <ele>58</ele>
        <time>2013-02-02T08:55:21.001Z</time>
      </trkpt>
      <trkpt lat="47.22211" lon="-0.03914">
        <ele>58</ele>
        <time>2013-02-02T08:55:22.001Z</time>
      </trkpt>
      <trkpt lat="47.22211" lon="-0.03919">
        <ele>57</ele>
        <time>2013-02-02T08:55:24.001Z</time>
      </trkpt>
      <trkpt lat="47.22211" lon="-0.03921">
        <ele>57</ele>
        <time>2013-02-02T08:55:25.001Z</time>
      </trkpt>
      <trkpt lat="47.22211" lon="-0.03927">
        <ele>57</ele>
        <time>2013-02-02T08:55:28.001Z</time>
      </trkpt>
      <trkpt lat="47.22211" lon="-0.03928">
        <ele>57</ele>
        <time>2013-02-02T08:55:29.001Z</time>
      </trkpt>
      <trkpt lat="47.2221" lon="-0.03933">
        <ele>57</ele>
        <time>2013-02-02T08:55:31.001Z</time>
      </trkpt>
      <trkpt lat="47.22209" lon="-0.03935">
        <ele>57</ele>
        <time>2013-02-02T08:55:32.001Z</time>
      </trkpt>
      <trkpt lat="47.22209" lon="-0.0394">
        <ele>57</ele>
        <time>2013-02-02T08:55:34.001Z</time>
      </trkpt>
      <trkpt lat="47.22208" lon="-0.03943">
        <ele>57</ele>
        <time>2013-02-02T08:55:35.001Z</time>
      </trkpt>
      <trkpt lat="47.22208" lon="-0.03948">
        <ele>57</ele>
        <time>2013-02-02T08:55:37.001Z</time>
      </trkpt>
      <trkpt lat="47.22208" lon="-0.03952">
        <ele>57</ele>
        <time>2013-02-02T08:55:38.001Z</time>
      </trkpt>
      <trkpt lat="47.22208" lon="-0.03957">
        <ele>57</ele>
        <time>2013-02-02T08:55:40.001Z</time>
      </trkpt>
      <trkpt lat="47.22208" lon="-0.03959">
        <ele>57</ele>
        <time>2013-02-02T08:55:41.001Z</time>
      </trkpt>
      <trkpt lat="47.22208" lon="-0.03965">
        <ele>57</ele>
        <time>2013-02-02T08:55:44.001Z</time>
      </trkpt>
      <trkpt lat="47.22207" lon="-0.03967">
        <ele>57</ele>
        <time>2013-02-02T08:55:45.001Z</time>
      </trkpt>
      <trkpt lat="47.22207" lon="-0.03973">
        <ele>57</ele>
        <time>2013-02-02T08:55:49.001Z</time>
      </trkpt>
      <trkpt lat="47.22207" lon="-0.03975">
        <ele>57</ele>
        <time>2013-02-02T08:55:50.001Z</time>
      </trkpt>
      <trkpt lat="47.22207" lon="-0.03981">
        <ele>57</ele>
        <time>2013-02-02T08:55:53.001Z</time>
      </trkpt>
      <trkpt lat="47.22208" lon="-0.03984">
        <ele>57</ele>
        <time>2013-02-02T08:55:54.001Z</time>
      </trkpt>
      <trkpt lat="47.22208" lon="-0.0399">
        <ele>57</ele>
        <time>2013-02-02T08:55:57.001Z</time>
      </trkpt>
      <trkpt lat="47.22209" lon="-0.03991">
        <ele>57</ele>
        <time>2013-02-02T08:55:58.001Z</time>
      </trkpt>
      <trkpt lat="47.22209" lon="-0.03996">
        <ele>57</ele>
        <time>2013-02-02T08:56:01.001Z</time>
      </trkpt>
      <trkpt lat="47.22209" lon="-0.03998">
        <ele>57</ele>
        <time>2013-02-02T08:56:02.001Z</time>
      </trkpt>
      <trkpt lat="47.2221" lon="-0.04003">
        <ele>55</ele>
        <time>2013-02-02T08:56:04.001Z</time>
      </trkpt>
      <trkpt lat="47.2221" lon="-0.04006">
        <ele>55</ele>
        <time>2013-02-02T08:56:05.001Z</time>
      </trkpt>
      <trkpt lat="47.2221" lon="-0.04011">
        <ele>55</ele>
        <time>2013-02-02T08:56:07.001Z</time>
      </trkpt>
      <trkpt lat="47.2221" lon="-0.04013">
        <ele>55</ele>
        <time>2013-02-02T08:56:08.001Z</time>
      </trkpt>
      <trkpt lat="47.22211" lon="-0.04018">
        <ele>55</ele>
        <time>2013-02-02T08:56:10.001Z</time>
      </trkpt>
      <trkpt lat="47.22211" lon="-0.0402">
        <ele>55</ele>
        <time>2013-02-02T08:56:11.001Z</time>
      </trkpt>
      <trkpt lat="47.22212" lon="-0.04025">
        <ele>55</ele>
        <time>2013-02-02T08:56:13.001Z</time>
      </trkpt>
      <trkpt lat="47.22212" lon="-0.04027">
        <ele>55</ele>
        <time>2013-02-02T08:56:14.001Z</time>
      </trkpt>
      <trkpt lat="47.22212" lon="-0.04032">
        <ele>55</ele>
        <time>2013-02-02T08:56:16.001Z</time>
      </trkpt>
      <trkpt lat="47.22212" lon="-0.04035">
        <ele>55</ele>
        <time>2013-02-02T08:56:17.001Z</time>
      </trkpt>
      <trkpt lat="47.22212" lon="-0.04041">
        <ele>55</ele>
        <time>2013-02-02T08:56:19.001Z</time>
      </trkpt>
      <trkpt lat="47.22212" lon="-0.04044">
        <ele>55</ele>
        <time>2013-02-02T08:56:20.001Z</time>
      </trkpt>
      <trkpt lat="47.22211" lon="-0.0405">
        <ele>55</ele>
        <time>2013-02-02T08:56:23.001Z</time>
      </trkpt>
      <trkpt lat="47.22211" lon="-0.04053">
        <ele>55</ele>
        <time>2013-02-02T08:56:24.001Z</time>
      </trkpt>
      <trkpt lat="47.22212" lon="-0.04057">
        <ele>54</ele>
        <time>2013-02-02T08:56:26.001Z</time>
      </trkpt>
      <trkpt lat="47.22212" lon="-0.0406">
        <ele>54</ele>
        <time>2013-02-02T08:56:27.001Z</time>
      </trkpt>
      <trkpt lat="47.22212" lon="-0.04065">
        <ele>54</ele>
        <time>2013-02-02T08:56:29.001Z</time>
      </trkpt>
      <trkpt lat="47.22212" lon="-0.04067">
        <ele>54</ele>
        <time>2013-02-02T08:56:30.001Z</time>
      </trkpt>
      <trkpt lat="47.22213" lon="-0.04074">
        <ele>54</ele>
        <time>2013-02-02T08:56:34.001Z</time>
      </trkpt>
      <trkpt lat="47.22213" lon="-0.04075">
        <ele>54</ele>
        <time>2013-02-02T08:56:35.001Z</time>
      </trkpt>
      <trkpt lat="47.22213" lon="-0.04081">
        <ele>54</ele>
        <time>2013-02-02T08:56:37.001Z</time>
      </trkpt>
      <trkpt lat="47.22212" lon="-0.04084">
        <ele>53</ele>
        <time>2013-02-02T08:56:38.001Z</time>
      </trkpt>
      <trkpt lat="47.22213" lon="-0.04089">
        <ele>53</ele>
        <time>2013-02-02T08:56:41.001Z</time>
      </trkpt>
      <trkpt lat="47.22213" lon="-0.04091">
        <ele>53</ele>
        <time>2013-02-02T08:56:42.001Z</time>
      </trkpt>
      <trkpt lat="47.22214" lon="-0.04096">
        <ele>53</ele>
        <time>2013-02-02T08:56:44.001Z</time>
      </trkpt>
      <trkpt lat="47.22215" lon="-0.04099">
        <ele>53</ele>
        <time>2013-02-02T08:56:45.001Z</time>
      </trkpt>
      <trkpt lat="47.22216" lon="-0.04105">
        <ele>53</ele>
        <time>2013-02-02T08:56:48.001Z</time>
      </trkpt>
      <trkpt lat="47.22216" lon="-0.04107">
        <ele>53</ele>
        <time>2013-02-02T08:56:49.001Z</time>
      </trkpt>
      <trkpt lat="47.22215" lon="-0.04113">
        <ele>53</ele>
        <time>2013-02-02T08:56:52.001Z</time>
      </trkpt>
      <trkpt lat="47.22215" lon="-0.04115">
        <ele>53</ele>
        <time>2013-02-02T08:56:53.001Z</time>
      </trkpt>
      <trkpt lat="47.22216" lon="-0.0412">
        <ele>53</ele>
        <time>2013-02-02T08:56:55.001Z</time>
      </trkpt>
      <trkpt lat="47.22216" lon="-0.04122">
        <ele>53</ele>
        <time>2013-02-02T08:56:56.001Z</time>
      </trkpt>
      <trkpt lat="47.22216" lon="-0.04128">
        <ele>53</ele>
        <time>2013-02-02T08:56:58.001Z</time>
      </trkpt>
      <trkpt lat="47.22216" lon="-0.04129">
        <ele>53</ele>
        <time>2013-02-02T08:56:59.001Z</time>
      </trkpt>
      <trkpt lat="47.22217" lon="-0.04134">
        <ele>53</ele>
        <time>2013-02-02T08:57:02.001Z</time>
      </trkpt>
      <trkpt lat="47.22217" lon="-0.04137">
        <ele>53</ele>
        <time>2013-02-02T08:57:03.001Z</time>
      </trkpt>
      <trkpt lat="47.22218" lon="-0.04142">
        <ele>53</ele>
        <time>2013-02-02T08:57:05.001Z</time>
      </trkpt>
      <trkpt lat="47.22218" lon="-0.04144">
        <ele>53</ele>
        <time>2013-02-02T08:57:06.001Z</time>
      </trkpt>
      <trkpt lat="47.22218" lon="-0.04149">
        <ele>53</ele>
        <time>2013-02-02T08:57:08.001Z</time>
      </trkpt>
      <trkpt lat="47.22218" lon="-0.04152">
        <ele>53</ele>
        <time>2013-02-02T08:57:09.001Z</time>
      </trkpt>
      <trkpt lat="47.22219" lon="-0.04156">
        <ele>53</ele>
        <time>2013-02-02T08:57:11.001Z</time>
      </trkpt>
      <trkpt lat="47.22219" lon="-0.04158">
        <ele>53</ele>
        <time>2013-02-02T08:57:12.001Z</time>
      </trkpt>
      <trkpt lat="47.2222" lon="-0.04163">
        <ele>53</ele>
        <time>2013-02-02T08:57:14.001Z</time>
      </trkpt>
      <trkpt lat="47.2222" lon="-0.04166">
        <ele>53</ele>
        <time>2013-02-02T08:57:15.001Z</time>
      </trkpt>
      <trkpt lat="47.2222" lon="-0.0417">
        <ele>53</ele>
        <time>2013-02-02T08:57:17.001Z</time>
      </trkpt>
      <trkpt lat="47.2222" lon="-0.04173">
        <ele>53</ele>
        <time>2013-02-02T08:57:18.001Z</time>
      </trkpt>
      <trkpt lat="47.2222" lon="-0.04178">
        <ele>52</ele>
        <time>2013-02-02T08:57:21.001Z</time>
      </trkpt>
      <trkpt lat="47.2222" lon="-0.0418">
        <ele>52</ele>
        <time>2013-02-02T08:57:22.001Z</time>
      </trkpt>
      <trkpt lat="47.22221" lon="-0.04185">
        <ele>52</ele>
        <time>2013-02-02T08:57:25.001Z</time>
      </trkpt>
      <trkpt lat="47.22221" lon="-0.04187">
        <ele>52</ele>
        <time>2013-02-02T08:57:26.001Z</time>
      </trkpt>
      <trkpt lat="47.22222" lon="-0.04193">
        <ele>52</ele>
        <time>2013-02-02T08:57:29.001Z</time>
      </trkpt>
      <trkpt lat="47.22222" lon="-0.04195">
        <ele>52</ele>
        <time>2013-02-02T08:57:30.001Z</time>
      </trkpt>
      <trkpt lat="47.22223" lon="-0.042">
        <ele>52</ele>
        <time>2013-02-02T08:57:32.001Z</time>
      </trkpt>
      <trkpt lat="47.22223" lon="-0.04203">
        <ele>52</ele>
        <time>2013-02-02T08:57:33.001Z</time>
      </trkpt>
      <trkpt lat="47.22223" lon="-0.04209">
        <ele>52</ele>
        <time>2013-02-02T08:57:35.001Z</time>
      </trkpt>
      <trkpt lat="47.22223" lon="-0.04211">
        <ele>52</ele>
        <time>2013-02-02T08:57:36.001Z</time>
      </trkpt>
      <trkpt lat="47.22223" lon="-0.04217">
        <ele>52</ele>
        <time>2013-02-02T08:57:39.001Z</time>
      </trkpt>
      <trkpt lat="47.22224" lon="-0.0422">
        <ele>52</ele>
        <time>2013-02-02T08:57:40.001Z</time>
      </trkpt>
      <trkpt lat="47.22224" lon="-0.04224">
        <ele>52</ele>
        <time>2013-02-02T08:57:42.001Z</time>
      </trkpt>
      <trkpt lat="47.22224" lon="-0.04227">
        <ele>52</ele>
        <time>2013-02-02T08:57:43.001Z</time>
      </trkpt>
      <trkpt lat="47.22225" lon="-0.04231">
        <ele>52</ele>
        <time>2013-02-02T08:57:45.001Z</time>
      </trkpt>
      <trkpt lat="47.22225" lon="-0.04233">
        <ele>52</ele>
        <time>2013-02-02T08:57:46.001Z</time>
      </trkpt>
      <trkpt lat="47.22226" lon="-0.04238">
        <ele>52</ele>
        <time>2013-02-02T08:57:48.001Z</time>
      </trkpt>
      <trkpt lat="47.22225" lon="-0.0424">
        <ele>52</ele>
        <time>2013-02-02T08:57:49.001Z</time>
      </trkpt>
      <trkpt lat="47.22226" lon="-0.04246">
        <ele>52</ele>
        <time>2013-02-02T08:57:51.001Z</time>
      </trkpt>
      <trkpt lat="47.22226" lon="-0.04247">
        <ele>52</ele>
        <time>2013-02-02T08:57:52.001Z</time>
      </trkpt>
      <trkpt lat="47.22226" lon="-0.04254">
        <ele>51</ele>
        <time>2013-02-02T08:57:55.001Z</time>
      </trkpt>
      <trkpt lat="47.22226" lon="-0.04256">
        <ele>51</ele>
        <time>2013-02-02T08:57:56.001Z</time>
      </trkpt>
      <trkpt lat="47.22227" lon="-0.04261">
        <ele>51</ele>
        <time>2013-02-02T08:57:59.001Z</time>
      </trkpt>
      <trkpt lat="47.22227" lon="-0.04263">
        <ele>51</ele>
        <time>2013-02-02T08:58:00.001Z</time>
      </trkpt>
      <trkpt lat="47.22226" lon="-0.04268">
        <ele>51</ele>
        <time>2013-02-02T08:58:02.001Z</time>
      </trkpt>
      <trkpt lat="47.22226" lon="-0.0427">
        <ele>51</ele>
        <time>2013-02-02T08:58:03.001Z</time>
      </trkpt>
      <trkpt lat="47.22226" lon="-0.04274">
        <ele>51</ele>
        <time>2013-02-02T08:58:05.001Z</time>
      </trkpt>
      <trkpt lat="47.22226" lon="-0.04277">
        <ele>51</ele>
        <time>2013-02-02T08:58:06.001Z</time>
      </trkpt>
      <trkpt lat="47.22227" lon="-0.04282">
        <ele>51</ele>
        <time>2013-02-02T08:58:08.001Z</time>
      </trkpt>
      <trkpt lat="47.22227" lon="-0.04284">
        <ele>51</ele>
        <time>2013-02-02T08:58:09.001Z</time>
      </trkpt>
      <trkpt lat="47.22225" lon="-0.04288">
        <ele>51</ele>
        <time>2013-02-02T08:58:11.001Z</time>
      </trkpt>
      <trkpt lat="47.22222" lon="-0.04288">
        <ele>51</ele>
        <time>2013-02-02T08:58:12.001Z</time>
      </trkpt>
      <trkpt lat="47.22218" lon="-0.04288">
        <ele>51</ele>
        <time>2013-02-02T08:58:15.001Z</time>
      </trkpt>
      <trkpt lat="47.22217" lon="-0.04288">
        <ele>51</ele>
        <time>2013-02-02T08:58:16.001Z</time>
      </trkpt>
      <trkpt lat="47.22214" lon="-0.04288">
        <ele>51</ele>
        <time>2013-02-02T08:58:18.001Z</time>
      </trkpt>
      <trkpt lat="47.22212" lon="-0.04288">
        <ele>51</ele>
        <time>2013-02-02T08:58:19.001Z</time>
      </trkpt>
      <trkpt lat="47.22209" lon="-0.0429">
        <ele>51</ele>
        <time>2013-02-02T08:58:22.001Z</time>
      </trkpt>
      <trkpt lat="47.22207" lon="-0.0429">
        <ele>51</ele>
        <time>2013-02-02T08:58:23.001Z</time>
      </trkpt>
      <trkpt lat="47.22203" lon="-0.0429">
        <ele>51</ele>
        <time>2013-02-02T08:58:26.001Z</time>
      </trkpt>
      <trkpt lat="47.22201" lon="-0.04292">
        <ele>51</ele>
        <time>2013-02-02T08:58:27.001Z</time>
      </trkpt>
      <trkpt lat="47.22199" lon="-0.04293">
        <ele>51</ele>
        <time>2013-02-02T08:58:28.001Z</time>
      </trkpt>
      <trkpt lat="47.22196" lon="-0.04294">
        <ele>51</ele>
        <time>2013-02-02T08:58:29.001Z</time>
      </trkpt>
      <trkpt lat="47.22192" lon="-0.04295">
        <ele>51</ele>
        <time>2013-02-02T08:58:31.001Z</time>
      </trkpt>
      <trkpt lat="47.2219" lon="-0.04295">
        <ele>51</ele>
        <time>2013-02-02T08:58:32.001Z</time>
      </trkpt>
      <trkpt lat="47.22187" lon="-0.04295">
        <ele>51</ele>
        <time>2013-02-02T08:58:34.001Z</time>
      </trkpt>
      <trkpt lat="47.22185" lon="-0.04296">
        <ele>51</ele>
        <time>2013-02-02T08:58:35.001Z</time>
      </trkpt>
      <trkpt lat="47.22181" lon="-0.04296">
        <ele>51</ele>
        <time>2013-02-02T08:58:37.001Z</time>
      </trkpt>
      <trkpt lat="47.2218" lon="-0.04297">
        <ele>51</ele>
        <time>2013-02-02T08:58:38.001Z</time>
      </trkpt>
      <trkpt lat="47.22177" lon="-0.04298">
        <ele>51</ele>
        <time>2013-02-02T08:58:41.001Z</time>
      </trkpt>
      <trkpt lat="47.22176" lon="-0.04298">
        <ele>51</ele>
        <time>2013-02-02T08:58:42.001Z</time>
      </trkpt>
      <trkpt lat="47.22171" lon="-0.04299">
        <ele>51</ele>
        <time>2013-02-02T08:58:45.001Z</time>
      </trkpt>
      <trkpt lat="47.2217" lon="-0.043">
        <ele>51</ele>
        <time>2013-02-02T08:58:46.001Z</time>
      </trkpt>
      <trkpt lat="47.22166" lon="-0.04299">
        <ele>53</ele>
        <time>2013-02-02T08:58:48.001Z</time>
      </trkpt>
      <trkpt lat="47.22164" lon="-0.04299">
        <ele>53</ele>
        <time>2013-02-02T08:58:49.001Z</time>
      </trkpt>
      <trkpt lat="47.2216" lon="-0.04298">
        <ele>53</ele>
        <time>2013-02-02T08:58:52.001Z</time>
      </trkpt>
      <trkpt lat="47.22159" lon="-0.04298">
        <ele>53</ele>
        <time>2013-02-02T08:58:53.001Z</time>
      </trkpt>
      <trkpt lat="47.22154" lon="-0.04298">
        <ele>53</ele>
        <time>2013-02-02T08:58:56.001Z</time>
      </trkpt>
      <trkpt lat="47.22152" lon="-0.04298">
        <ele>53</ele>
        <time>2013-02-02T08:58:57.001Z</time>
      </trkpt>
      <trkpt lat="47.22148" lon="-0.04297">
        <ele>53</ele>
        <time>2013-02-02T08:58:59.001Z</time>
      </trkpt>
      <trkpt lat="47.22146" lon="-0.04297">
        <ele>53</ele>
        <time>2013-02-02T08:59:00.001Z</time>
      </trkpt>
      <trkpt lat="47.22143" lon="-0.04296">
        <ele>53</ele>
        <time>2013-02-02T08:59:02.001Z</time>
      </trkpt>
      <trkpt lat="47.22141" lon="-0.04296">
        <ele>53</ele>
        <time>2013-02-02T08:59:03.001Z</time>
      </trkpt>
      <trkpt lat="47.22138" lon="-0.04298">
        <ele>53</ele>
        <time>2013-02-02T08:59:05.001Z</time>
      </trkpt>
      <trkpt lat="47.22136" lon="-0.04299">
        <ele>53</ele>
        <time>2013-02-02T08:59:06.001Z</time>
      </trkpt>
      <trkpt lat="47.22132" lon="-0.04301">
        <ele>53</ele>
        <time>2013-02-02T08:59:09.001Z</time>
      </trkpt>
      <trkpt lat="47.22131" lon="-0.04301">
        <ele>53</ele>
        <time>2013-02-02T08:59:10.001Z</time>
      </trkpt>
      <trkpt lat="47.22128" lon="-0.04302">
        <ele>53</ele>
        <time>2013-02-02T08:59:13.001Z</time>
      </trkpt>
      <trkpt lat="47.22126" lon="-0.04302">
        <ele>53</ele>
        <time>2013-02-02T08:59:14.001Z</time>
      </trkpt>
      <trkpt lat="47.22122" lon="-0.04304">
        <ele>53</ele>
        <time>2013-02-02T08:59:17.001Z</time>
      </trkpt>
      <trkpt lat="47.2212" lon="-0.04304">
        <ele>53</ele>
        <time>2013-02-02T08:59:18.001Z</time>
      </trkpt>
      <trkpt lat="47.22117" lon="-0.04305">
        <ele>53</ele>
        <time>2013-02-02T08:59:20.001Z</time>
      </trkpt>
      <trkpt lat="47.22114" lon="-0.04306">
        <ele>53</ele>
        <time>2013-02-02T08:59:21.001Z</time>
      </trkpt>
      <trkpt lat="47.2211" lon="-0.04307">
        <ele>54</ele>
        <time>2013-02-02T08:59:24.001Z</time>
      </trkpt>
      <trkpt lat="47.22108" lon="-0.04308">
        <ele>54</ele>
        <time>2013-02-02T08:59:25.001Z</time>
      </trkpt>
      <trkpt lat="47.22105" lon="-0.04309">
        <ele>54</ele>
        <time>2013-02-02T08:59:28.001Z</time>
      </trkpt>
      <trkpt lat="47.22104" lon="-0.0431">
        <ele>54</ele>
        <time>2013-02-02T08:59:29.001Z</time>
      </trkpt>
      <trkpt lat="47.22099" lon="-0.0431">
        <ele>54</ele>
        <time>2013-02-02T08:59:32.001Z</time>
      </trkpt>
      <trkpt lat="47.22098" lon="-0.04311">
        <ele>54</ele>
        <time>2013-02-02T08:59:33.001Z</time>
      </trkpt>
      <trkpt lat="47.22094" lon="-0.04312">
        <ele>54</ele>
        <time>2013-02-02T08:59:35.001Z</time>
      </trkpt>
      <trkpt lat="47.22093" lon="-0.04312">
        <ele>54</ele>
        <time>2013-02-02T08:59:36.001Z</time>
      </trkpt>
      <trkpt lat="47.22089" lon="-0.04314">
        <ele>54</ele>
        <time>2013-02-02T08:59:38.001Z</time>
      </trkpt>
      <trkpt lat="47.22087" lon="-0.04314">
        <ele>54</ele>
        <time>2013-02-02T08:59:39.001Z</time>
      </trkpt>
      <trkpt lat="47.22083" lon="-0.04315">
        <ele>56</ele>
        <time>2013-02-02T08:59:42.001Z</time>
      </trkpt>
      <trkpt lat="47.22081" lon="-0.04314">
        <ele>56</ele>
        <time>2013-02-02T08:59:43.001Z</time>
      </trkpt>
      <trkpt lat="47.22077" lon="-0.04314">
        <ele>56</ele>
        <time>2013-02-02T08:59:46.001Z</time>
      </trkpt>
      <trkpt lat="47.22075" lon="-0.04314">
        <ele>56</ele>
        <time>2013-02-02T08:59:47.001Z</time>
      </trkpt>
      <trkpt lat="47.22071" lon="-0.04313">
        <ele>56</ele>
        <time>2013-02-02T08:59:50.001Z</time>
      </trkpt>
      <trkpt lat="47.2207" lon="-0.04313">
        <ele>56</ele>
        <time>2013-02-02T08:59:51.001Z</time>
      </trkpt>
      <trkpt lat="47.22066" lon="-0.04313">
        <ele>56</ele>
        <time>2013-02-02T08:59:53.001Z</time>
      </trkpt>
      <trkpt lat="47.22065" lon="-0.04313">
        <ele>56</ele>
        <time>2013-02-02T08:59:54.001Z</time>
      </trkpt>
      <trkpt lat="47.22062" lon="-0.04314">
        <ele>56</ele>
        <time>2013-02-02T08:59:56.001Z</time>
      </trkpt>
      <trkpt lat="47.2206" lon="-0.04314">
        <ele>56</ele>
        <time>2013-02-02T08:59:57.001Z</time>
      </trkpt>
      <trkpt lat="47.22056" lon="-0.04314">
        <ele>56</ele>
        <time>2013-02-02T09:00:00.001Z</time>
      </trkpt>
      <trkpt lat="47.22054" lon="-0.04315">
        <ele>56</ele>
        <time>2013-02-02T09:00:01.001Z</time>
      </trkpt>
      <trkpt lat="47.22052" lon="-0.04317">
        <ele>56</ele>
        <time>2013-02-02T09:00:03.001Z</time>
      </trkpt>
      <trkpt lat="47.2205" lon="-0.04318">
        <ele>56</ele>
        <time>2013-02-02T09:00:04.001Z</time>
      </trkpt>
      <trkpt lat="47.22046" lon="-0.0432">
        <ele>56</ele>
        <time>2013-02-02T09:00:07.001Z</time>
      </trkpt>
      <trkpt lat="47.22045" lon="-0.04322">
        <ele>56</ele>
        <time>2013-02-02T09:00:08.001Z</time>
      </trkpt>
      <trkpt lat="47.22041" lon="-0.04325">
        <ele>57</ele>
        <time>2013-02-02T09:00:11.001Z</time>
      </trkpt>
      <trkpt lat="47.22041" lon="-0.04327">
        <ele>57</ele>
        <time>2013-02-02T09:00:12.001Z</time>
      </trkpt>
      <trkpt lat="47.2204" lon="-0.04331">
        <ele>57</ele>
        <time>2013-02-02T09:00:15.001Z</time>
      </trkpt>
      <trkpt lat="47.22039" lon="-0.04334">
        <ele>56</ele>
        <time>2013-02-02T09:00:16.001Z</time>
      </trkpt>
      <trkpt lat="47.22037" lon="-0.04339">
        <ele>56</ele>
        <time>2013-02-02T09:00:19.001Z</time>
      </trkpt>
      <trkpt lat="47.22037" lon="-0.04341">
        <ele>56</ele>
        <time>2013-02-02T09:00:20.001Z</time>
      </trkpt>
      <trkpt lat="47.22035" lon="-0.04345">
        <ele>56</ele>
        <time>2013-02-02T09:00:22.001Z</time>
      </trkpt>
      <trkpt lat="47.22034" lon="-0.04348">
        <ele>56</ele>
        <time>2013-02-02T09:00:23.001Z</time>
      </trkpt>
      <trkpt lat="47.22032" lon="-0.04353">
        <ele>56</ele>
        <time>2013-02-02T09:00:25.001Z</time>
      </trkpt>
      <trkpt lat="47.22032" lon="-0.04355">
        <ele>56</ele>
        <time>2013-02-02T09:00:26.001Z</time>
      </trkpt>
      <trkpt lat="47.22031" lon="-0.04361">
        <ele>55</ele>
        <time>2013-02-02T09:00:29.001Z</time>
      </trkpt>
      <trkpt lat="47.2203" lon="-0.04364">
        <ele>55</ele>
        <time>2013-02-02T09:00:30.001Z</time>
      </trkpt>
      <trkpt lat="47.2203" lon="-0.0437">
        <ele>55</ele>
        <time>2013-02-02T09:00:33.001Z</time>
      </trkpt>
      <trkpt lat="47.2203" lon="-0.04371">
        <ele>55</ele>
        <time>2013-02-02T09:00:34.001Z</time>
      </trkpt>
      <trkpt lat="47.22029" lon="-0.04378">
        <ele>55</ele>
        <time>2013-02-02T09:00:38.001Z</time>
      </trkpt>
      <trkpt lat="47.22029" lon="-0.0438">
        <ele>55</ele>
        <time>2013-02-02T09:00:39.001Z</time>
      </trkpt>
      <trkpt lat="47.22029" lon="-0.04385">
        <ele>55</ele>
        <time>2013-02-02T09:00:41.001Z</time>
      </trkpt>
      <trkpt lat="47.2203" lon="-0.04387">
        <ele>55</ele>
        <time>2013-02-02T09:00:42.001Z</time>
      </trkpt>
      <trkpt lat="47.22031" lon="-0.04392">
        <ele>55</ele>
        <time>2013-02-02T09:00:44.001Z</time>
      </trkpt>
      <trkpt lat="47.22031" lon="-0.04393">
        <ele>55</ele>
        <time>2013-02-02T09:00:45.001Z</time>
      </trkpt>
      <trkpt lat="47.22032" lon="-0.04399">
        <ele>55</ele>
        <time>2013-02-02T09:00:48.001Z</time>
      </trkpt>
      <trkpt lat="47.22032" lon="-0.04402">
        <ele>55</ele>
        <time>2013-02-02T09:00:49.001Z</time>
      </trkpt>
      <trkpt lat="47.22032" lon="-0.04407">
        <ele>55</ele>
        <time>2013-02-02T09:00:51.001Z</time>
      </trkpt>
      <trkpt lat="47.22033" lon="-0.04409">
        <ele>55</ele>
        <time>2013-02-02T09:00:52.001Z</time>
      </trkpt>
      <trkpt lat="47.22034" lon="-0.04414">
        <ele>55</ele>
        <time>2013-02-02T09:00:54.001Z</time>
      </trkpt>
      <trkpt lat="47.22034" lon="-0.04417">
        <ele>54</ele>
        <time>2013-02-02T09:00:55.001Z</time>
      </trkpt>
      <trkpt lat="47.22035" lon="-0.04422">
        <ele>54</ele>
        <time>2013-02-02T09:00:58.001Z</time>
      </trkpt>
      <trkpt lat="47.22036" lon="-0.04424">
        <ele>54</ele>
        <time>2013-02-02T09:00:59.001Z</time>
      </trkpt>
      <trkpt lat="47.22037" lon="-0.0443">
        <ele>54</ele>
        <time>2013-02-02T09:01:03.001Z</time>
      </trkpt>
      <trkpt lat="47.22037" lon="-0.04432">
        <ele>54</ele>
        <time>2013-02-02T09:01:04.001Z</time>
      </trkpt>
      <trkpt lat="47.22037" lon="-0.04437">
        <ele>54</ele>
        <time>2013-02-02T09:01:06.001Z</time>
      </trkpt>
      <trkpt lat="47.22037" lon="-0.04439">
        <ele>54</ele>
        <time>2013-02-02T09:01:07.001Z</time>
      </trkpt>
      <trkpt lat="47.22037" lon="-0.04443">
        <ele>54</ele>
        <time>2013-02-02T09:01:10.001Z</time>
      </trkpt>
      <trkpt lat="47.22037" lon="-0.04446">
        <ele>54</ele>
        <time>2013-02-02T09:01:11.001Z</time>
      </trkpt>
      <trkpt lat="47.22037" lon="-0.04451">
        <ele>54</ele>
        <time>2013-02-02T09:01:13.001Z</time>
      </trkpt>
      <trkpt lat="47.22037" lon="-0.04453">
        <ele>54</ele>
        <time>2013-02-02T09:01:14.001Z</time>
      </trkpt>
      <trkpt lat="47.22039" lon="-0.04458">
        <ele>54</ele>
        <time>2013-02-02T09:01:16.001Z</time>
      </trkpt>
      <trkpt lat="47.2204" lon="-0.0446">
        <ele>54</ele>
        <time>2013-02-02T09:01:17.001Z</time>
      </trkpt>
      <trkpt lat="47.22041" lon="-0.04466">
        <ele>54</ele>
        <time>2013-02-02T09:01:20.001Z</time>
      </trkpt>
      <trkpt lat="47.22041" lon="-0.04468">
        <ele>54</ele>
        <time>2013-02-02T09:01:21.001Z</time>
      </trkpt>
      <trkpt lat="47.22041" lon="-0.04474">
        <ele>54</ele>
        <time>2013-02-02T09:01:24.001Z</time>
      </trkpt>
      <trkpt lat="47.22042" lon="-0.04477">
        <ele>54</ele>
        <time>2013-02-02T09:01:25.001Z</time>
      </trkpt>
      <trkpt lat="47.22043" lon="-0.04482">
        <ele>54</ele>
        <time>2013-02-02T09:01:27.001Z</time>
      </trkpt>
      <trkpt lat="47.22042" lon="-0.04485">
        <ele>54</ele>
        <time>2013-02-02T09:01:28.001Z</time>
      </trkpt>
      <trkpt lat="47.22043" lon="-0.0449">
        <ele>54</ele>
        <time>2013-02-02T09:01:30.001Z</time>
      </trkpt>
      <trkpt lat="47.22042" lon="-0.04493">
        <ele>54</ele>
        <time>2013-02-02T09:01:31.001Z</time>
      </trkpt>
      <trkpt lat="47.22041" lon="-0.04498">
        <ele>54</ele>
        <time>2013-02-02T09:01:33.001Z</time>
      </trkpt>
      <trkpt lat="47.22041" lon="-0.045">
        <ele>53</ele>
        <time>2013-02-02T09:01:34.001Z</time>
      </trkpt>
      <trkpt lat="47.2204" lon="-0.04505">
        <ele>53</ele>
        <time>2013-02-02T09:01:36.001Z</time>
      </trkpt>
      <trkpt lat="47.22039" lon="-0.04507">
        <ele>53</ele>
        <time>2013-02-02T09:01:37.001Z</time>
      </trkpt>
      <trkpt lat="47.22037" lon="-0.04511">
        <ele>53</ele>
        <time>2013-02-02T09:01:40.001Z</time>
      </trkpt>
      <trkpt lat="47.22036" lon="-0.04512">
        <ele>53</ele>
        <time>2013-02-02T09:01:41.001Z</time>
      </trkpt>
      <trkpt lat="47.22033" lon="-0.04512">
        <ele>53</ele>
        <time>2013-02-02T09:01:43.001Z</time>
      </trkpt>
      <trkpt lat="47.22031" lon="-0.04513">
        <ele>53</ele>
        <time>2013-02-02T09:01:44.001Z</time>
      </trkpt>
      <trkpt lat="47.22027" lon="-0.04516">
        <ele>54</ele>
        <time>2013-02-02T09:01:48.000Z</time>
      </trkpt>
      <trkpt lat="47.22026" lon="-0.04517">
        <ele>54</ele>
        <time>2013-02-02T09:01:49.000Z</time>
      </trkpt>
      <trkpt lat="47.22023" lon="-0.04521">
        <ele>54</ele>
        <time>2013-02-02T09:01:51.000Z</time>
      </trkpt>
      <trkpt lat="47.22021" lon="-0.04523">
        <ele>54</ele>
        <time>2013-02-02T09:01:52.000Z</time>
      </trkpt>
      <trkpt lat="47.22019" lon="-0.04526">
        <ele>54</ele>
        <time>2013-02-02T09:01:54.000Z</time>
      </trkpt>
      <trkpt lat="47.22017" lon="-0.04527">
        <ele>54</ele>
        <time>2013-02-02T09:01:55.000Z</time>
      </trkpt>
      <trkpt lat="47.22015" lon="-0.0453">
        <ele>54</ele>
        <time>2013-02-02T09:01:57.000Z</time>
      </trkpt>
      <trkpt lat="47.22013" lon="-0.04531">
        <ele>54</ele>
        <time>2013-02-02T09:01:58.000Z</time>
      </trkpt>
      <trkpt lat="47.22011" lon="-0.04534">
        <ele>54</ele>
        <time>2013-02-02T09:02:00.000Z</time>
      </trkpt>
      <trkpt lat="47.22009" lon="-0.04535">
        <ele>54</ele>
        <time>2013-02-02T09:02:01.000Z</time>
      </trkpt>
      <trkpt lat="47.22006" lon="-0.0454">
        <ele>54</ele>
        <time>2013-02-02T09:02:05.000Z</time>
      </trkpt>
      <trkpt lat="47.22005" lon="-0.04541">
        <ele>54</ele>
        <time>2013-02-02T09:02:06.000Z</time>
      </trkpt>
      <trkpt lat="47.22003" lon="-0.04545">
        <ele>54</ele>
        <time>2013-02-02T09:02:08.000Z</time>
      </trkpt>
      <trkpt lat="47.22002" lon="-0.04547">
        <ele>54</ele>
        <time>2013-02-02T09:02:09.000Z</time>
      </trkpt>
      <trkpt lat="47.21998" lon="-0.0455">
        <ele>55</ele>
        <time>2013-02-02T09:02:12.000Z</time>
      </trkpt>
      <trkpt lat="47.21996" lon="-0.04551">
        <ele>55</ele>
        <time>2013-02-02T09:02:13.000Z</time>
      </trkpt>
      <trkpt lat="47.21993" lon="-0.04555">
        <ele>55</ele>
        <time>2013-02-02T09:02:17.000Z</time>
      </trkpt>
      <trkpt lat="47.21992" lon="-0.04555">
        <ele>55</ele>
        <time>2013-02-02T09:02:18.000Z</time>
      </trkpt>
      <trkpt lat="47.21989" lon="-0.04555">
        <ele>55</ele>
        <time>2013-02-02T09:02:20.000Z</time>
      </trkpt>
      <trkpt lat="47.21987" lon="-0.04556">
        <ele>55</ele>
        <time>2013-02-02T09:02:21.000Z</time>
      </trkpt>
      <trkpt lat="47.21983" lon="-0.04556">
        <ele>55</ele>
        <time>2013-02-02T09:02:25.000Z</time>
      </trkpt>
      <trkpt lat="47.21982" lon="-0.04557">
        <ele>55</ele>
        <time>2013-02-02T09:02:26.000Z</time>
      </trkpt>
      <trkpt lat="47.21979" lon="-0.04559">
        <ele>55</ele>
        <time>2013-02-02T09:02:28.000Z</time>
      </trkpt>
      <trkpt lat="47.21978" lon="-0.04559">
        <ele>55</ele>
        <time>2013-02-02T09:02:29.000Z</time>
      </trkpt>
      <trkpt lat="47.21974" lon="-0.04562">
        <ele>55</ele>
        <time>2013-02-02T09:02:31.000Z</time>
      </trkpt>
      <trkpt lat="47.21973" lon="-0.04563">
        <ele>55</ele>
        <time>2013-02-02T09:02:32.000Z</time>
      </trkpt>
      <trkpt lat="47.2197" lon="-0.04567">
        <ele>55</ele>
        <time>2013-02-02T09:02:34.000Z</time>
      </trkpt>
      <trkpt lat="47.21969" lon="-0.04568">
        <ele>55</ele>
        <time>2013-02-02T09:02:35.000Z</time>
      </trkpt>
      <trkpt lat="47.21966" lon="-0.04571">
        <ele>55</ele>
        <time>2013-02-02T09:02:38.000Z</time>
      </trkpt>
      <trkpt lat="47.21964" lon="-0.04572">
        <ele>55</ele>
        <time>2013-02-02T09:02:39.000Z</time>
      </trkpt>
      <trkpt lat="47.21963" lon="-0.04576">
        <ele>55</ele>
        <time>2013-02-02T09:02:42.000Z</time>
      </trkpt>
      <trkpt lat="47.21962" lon="-0.04578">
        <ele>55</ele>
        <time>2013-02-02T09:02:43.000Z</time>
      </trkpt>
      <trkpt lat="47.2196" lon="-0.04582">
        <ele>55</ele>
        <time>2013-02-02T09:02:45.000Z</time>
      </trkpt>
      <trkpt lat="47.21959" lon="-0.04584">
        <ele>54</ele>
        <time>2013-02-02T09:02:46.000Z</time>
      </trkpt>
      <trkpt lat="47.21958" lon="-0.0459">
        <ele>54</ele>
        <time>2013-02-02T09:02:49.000Z</time>
      </trkpt>
      <trkpt lat="47.21957" lon="-0.04592">
        <ele>54</ele>
        <time>2013-02-02T09:02:50.000Z</time>
      </trkpt>
      <trkpt lat="47.21957" lon="-0.04598">
        <ele>54</ele>
        <time>2013-02-02T09:02:52.000Z</time>
      </trkpt>
      <trkpt lat="47.21956" lon="-0.04601">
        <ele>54</ele>
        <time>2013-02-02T09:02:53.000Z</time>
      </trkpt>
      <trkpt lat="47.21954" lon="-0.04606">
        <ele>54</ele>
        <time>2013-02-02T09:02:55.000Z</time>
      </trkpt>
      <trkpt lat="47.21953" lon="-0.04607">
        <ele>54</ele>
        <time>2013-02-02T09:02:56.000Z</time>
      </trkpt>
      <trkpt lat="47.21952" lon="-0.04612">
        <ele>54</ele>
        <time>2013-02-02T09:02:59.000Z</time>
      </trkpt>
      <trkpt lat="47.21952" lon="-0.04614">
        <ele>54</ele>
        <time>2013-02-02T09:03:00.000Z</time>
      </trkpt>
      <trkpt lat="47.21952" lon="-0.0462">
        <ele>54</ele>
        <time>2013-02-02T09:03:03.000Z</time>
      </trkpt>
      <trkpt lat="47.21952" lon="-0.04623">
        <ele>54</ele>
        <time>2013-02-02T09:03:04.000Z</time>
      </trkpt>
      <trkpt lat="47.21951" lon="-0.04628">
        <ele>54</ele>
        <time>2013-02-02T09:03:06.000Z</time>
      </trkpt>
      <trkpt lat="47.21952" lon="-0.04631">
        <ele>54</ele>
        <time>2013-02-02T09:03:07.000Z</time>
      </trkpt>
      <trkpt lat="47.21951" lon="-0.04638">
        <ele>54</ele>
        <time>2013-02-02T09:03:10.000Z</time>
      </trkpt>
      <trkpt lat="47.2195" lon="-0.0464">
        <ele>54</ele>
        <time>2013-02-02T09:03:11.000Z</time>
      </trkpt>
      <trkpt lat="47.21948" lon="-0.04645">
        <ele>54</ele>
        <time>2013-02-02T09:03:13.000Z</time>
      </trkpt>
      <trkpt lat="47.21947" lon="-0.04647">
        <ele>54</ele>
        <time>2013-02-02T09:03:14.000Z</time>
      </trkpt>
      <trkpt lat="47.21945" lon="-0.04649">
        <ele>54</ele>
        <time>2013-02-02T09:03:15.000Z</time>
      </trkpt>
      <trkpt lat="47.21943" lon="-0.04651">
        <ele>54</ele>
        <time>2013-02-02T09:03:16.000Z</time>
      </trkpt>
      <trkpt lat="47.21941" lon="-0.04655">
        <ele>54</ele>
        <time>2013-02-02T09:03:18.000Z</time>
      </trkpt>
      <trkpt lat="47.21939" lon="-0.04657">
        <ele>54</ele>
        <time>2013-02-02T09:03:19.000Z</time>
      </trkpt>
      <trkpt lat="47.21937" lon="-0.04661">
        <ele>54</ele>
        <time>2013-02-02T09:03:21.000Z</time>
      </trkpt>
      <trkpt lat="47.21936" lon="-0.04663">
        <ele>54</ele>
        <time>2013-02-02T09:03:22.000Z</time>
      </trkpt>
      <trkpt lat="47.21933" lon="-0.04667">
        <ele>54</ele>
        <time>2013-02-02T09:03:25.000Z</time>
      </trkpt>
      <trkpt lat="47.21932" lon="-0.04669">
        <ele>54</ele>
        <time>2013-02-02T09:03:26.000Z</time>
      </trkpt>
      <trkpt lat="47.21928" lon="-0.04672">
        <ele>54</ele>
        <time>2013-02-02T09:03:29.000Z</time>
      </trkpt>
      <trkpt lat="47.21927" lon="-0.04673">
        <ele>54</ele>
        <time>2013-02-02T09:03:30.000Z</time>
      </trkpt>
      <trkpt lat="47.21924" lon="-0.04678">
        <ele>54</ele>
        <time>2013-02-02T09:03:32.000Z</time>
      </trkpt>
      <trkpt lat="47.21924" lon="-0.04679">
        <ele>54</ele>
        <time>2013-02-02T09:03:33.000Z</time>
      </trkpt>
      <trkpt lat="47.21919" lon="-0.0468">
        <ele>54</ele>
        <time>2013-02-02T09:03:37.000Z</time>
      </trkpt>
      <trkpt lat="47.21919" lon="-0.04679">
        <ele>54</ele>
        <time>2013-02-02T09:03:38.000Z</time>
      </trkpt>
      <trkpt lat="47.21917" lon="-0.04676">
        <ele>54</ele>
        <time>2013-02-02T09:03:40.000Z</time>
      </trkpt>
      <trkpt lat="47.21916" lon="-0.04674">
        <ele>56</ele>
        <time>2013-02-02T09:03:41.000Z</time>
      </trkpt>
      <trkpt lat="47.21914" lon="-0.04671">
        <ele>55</ele>
        <time>2013-02-02T09:03:43.000Z</time>
      </trkpt>
      <trkpt lat="47.21913" lon="-0.04669">
        <ele>55</ele>
        <time>2013-02-02T09:03:44.000Z</time>
      </trkpt>
      <trkpt lat="47.2191" lon="-0.04666">
        <ele>55</ele>
        <time>2013-02-02T09:03:47.000Z</time>
      </trkpt>
      <trkpt lat="47.21909" lon="-0.04665">
        <ele>55</ele>
        <time>2013-02-02T09:03:48.000Z</time>
      </trkpt>
      <trkpt lat="47.21906" lon="-0.0466">
        <ele>55</ele>
        <time>2013-02-02T09:03:51.000Z</time>
      </trkpt>
      <trkpt lat="47.21905" lon="-0.04659">
        <ele>55</ele>
        <time>2013-02-02T09:03:52.000Z</time>
      </trkpt>
      <trkpt lat="47.21903" lon="-0.04655">
        <ele>56</ele>
        <time>2013-02-02T09:03:55.000Z</time>
      </trkpt>
      <trkpt lat="47.21902" lon="-0.04653">
        <ele>56</ele>
        <time>2013-02-02T09:03:56.000Z</time>
      </trkpt>
      <trkpt lat="47.219" lon="-0.04648">
        <ele>56</ele>
        <time>2013-02-02T09:03:59.000Z</time>
      </trkpt>
      <trkpt lat="47.21899" lon="-0.04646">
        <ele>56</ele>
        <time>2013-02-02T09:04:00.000Z</time>
      </trkpt>
      <trkpt lat="47.21897" lon="-0.04642">
        <ele>56</ele>
        <time>2013-02-02T09:04:02.000Z</time>
      </trkpt>
      <trkpt lat="47.21896" lon="-0.04641">
        <ele>56</ele>
        <time>2013-02-02T09:04:03.000Z</time>
      </trkpt>
      <trkpt lat="47.21893" lon="-0.04636">
        <ele>57</ele>
        <time>2013-02-02T09:04:06.000Z</time>
      </trkpt>
      <trkpt lat="47.21892" lon="-0.04634">
        <ele>57</ele>
        <time>2013-02-02T09:04:07.000Z</time>
      </trkpt>
      <trkpt lat="47.21889" lon="-0.0463">
        <ele>57</ele>
        <time>2013-02-02T09:04:09.000Z</time>
      </trkpt>
      <trkpt lat="47.21887" lon="-0.04627">
        <ele>57</ele>
        <time>2013-02-02T09:04:10.000Z</time>
      </trkpt>
      <trkpt lat="47.21885" lon="-0.04623">
        <ele>57</ele>
        <time>2013-02-02T09:04:12.000Z</time>
      </trkpt>
      <trkpt lat="47.21884" lon="-0.04621">
        <ele>57</ele>
        <time>2013-02-02T09:04:13.000Z</time>
      </trkpt>
      <trkpt lat="47.21882" lon="-0.04616">
        <ele>57</ele>
        <time>2013-02-02T09:04:15.000Z</time>
      </trkpt>
      <trkpt lat="47.21881" lon="-0.04615">
        <ele>57</ele>
        <time>2013-02-02T09:04:16.000Z</time>
      </trkpt>
      <trkpt lat="47.21879" lon="-0.04611">
        <ele>57</ele>
        <time>2013-02-02T09:04:19.000Z</time>
      </trkpt>
      <trkpt lat="47.21878" lon="-0.04609">
        <ele>57</ele>
        <time>2013-02-02T09:04:20.000Z</time>
      </trkpt>
      <trkpt lat="47.21875" lon="-0.04604">
        <ele>57</ele>
        <time>2013-02-02T09:04:23.000Z</time>
      </trkpt>
      <trkpt lat="47.21874" lon="-0.04601">
        <ele>57</ele>
        <time>2013-02-02T09:04:24.000Z</time>
      </trkpt>
      <trkpt lat="47.21871" lon="-0.04597">
        <ele>57</ele>
        <time>2013-02-02T09:04:27.000Z</time>
      </trkpt>
      <trkpt lat="47.21869" lon="-0.04595">
        <ele>57</ele>
        <time>2013-02-02T09:04:28.000Z</time>
      </trkpt>
      <trkpt lat="47.21866" lon="-0.04591">
        <ele>58</ele>
        <time>2013-02-02T09:04:30.000Z</time>
      </trkpt>
      <trkpt lat="47.21865" lon="-0.0459">
        <ele>58</ele>
        <time>2013-02-02T09:04:31.000Z</time>
      </trkpt>
      <trkpt lat="47.21861" lon="-0.04586">
        <ele>58</ele>
        <time>2013-02-02T09:04:34.000Z</time>
      </trkpt>
      <trkpt lat="47.2186" lon="-0.04584">
        <ele>58</ele>
        <time>2013-02-02T09:04:35.000Z</time>
      </trkpt>
      <trkpt lat="47.21857" lon="-0.04581">
        <ele>59</ele>
        <time>2013-02-02T09:04:38.000Z</time>
      </trkpt>
      <trkpt lat="47.21856" lon="-0.0458">
        <ele>59</ele>
        <time>2013-02-02T09:04:39.000Z</time>
      </trkpt>
      <trkpt lat="47.21853" lon="-0.04576">
        <ele>59</ele>
        <time>2013-02-02T09:04:43.000Z</time>
      </trkpt>
      <trkpt lat="47.21852" lon="-0.04575">
        <ele>59</ele>
        <time>2013-02-02T09:04:44.000Z</time>
      </trkpt>
      <trkpt lat="47.2185" lon="-0.04571">
        <ele>59</ele>
        <time>2013-02-02T09:04:46.000Z</time>
      </trkpt>
      <trkpt lat="47.21849" lon="-0.0457">
        <ele>59</ele>
        <time>2013-02-02T09:04:47.000Z</time>
      </trkpt>
      <trkpt lat="47.21845" lon="-0.04567">
        <ele>59</ele>
        <time>2013-02-02T09:04:50.000Z</time>
      </trkpt>
      <trkpt lat="47.21845" lon="-0.04565">
        <ele>59</ele>
        <time>2013-02-02T09:04:51.000Z</time>
      </trkpt>
      <trkpt lat="47.21842" lon="-0.04563">
        <ele>59</ele>
        <time>2013-02-02T09:04:55.000Z</time>
      </trkpt>
      <trkpt lat="47.21841" lon="-0.04562">
        <ele>59</ele>
        <time>2013-02-02T09:04:56.000Z</time>
      </trkpt>
      <trkpt lat="47.21837" lon="-0.04558">
        <ele>59</ele>
        <time>2013-02-02T09:05:00.000Z</time>
      </trkpt>
      <trkpt lat="47.21836" lon="-0.04555">
        <ele>59</ele>
        <time>2013-02-02T09:05:01.000Z</time>
      </trkpt>
      <trkpt lat="47.21834" lon="-0.04552">
        <ele>59</ele>
        <time>2013-02-02T09:05:03.000Z</time>
      </trkpt>
      <trkpt lat="47.21833" lon="-0.04549">
        <ele>63</ele>
        <time>2013-02-02T09:05:04.000Z</time>
      </trkpt>
      <trkpt lat="47.2183" lon="-0.04546">
        <ele>63</ele>
        <time>2013-02-02T09:05:07.000Z</time>
      </trkpt>
      <trkpt lat="47.21829" lon="-0.04544">
        <ele>63</ele>
        <time>2013-02-02T09:05:08.000Z</time>
      </trkpt>
      <trkpt lat="47.21825" lon="-0.04543">
        <ele>63</ele>
        <time>2013-02-02T09:05:11.000Z</time>
      </trkpt>
      <trkpt lat="47.21824" lon="-0.04543">
        <ele>63</ele>
        <time>2013-02-02T09:05:12.000Z</time>
      </trkpt>
      <trkpt lat="47.21822" lon="-0.0454">
        <ele>64</ele>
        <time>2013-02-02T09:05:13.000Z</time>
      </trkpt>
      <trkpt lat="47.21819" lon="-0.04539">
        <ele>64</ele>
        <time>2013-02-02T09:05:14.000Z</time>
      </trkpt>
      <trkpt lat="47.21817" lon="-0.04536">
        <ele>64</ele>
        <time>2013-02-02T09:05:15.000Z</time>
      </trkpt>
      <trkpt lat="47.21815" lon="-0.04535">
        <ele>64</ele>
        <time>2013-02-02T09:05:16.000Z</time>
      </trkpt>
      <trkpt lat="47.21813" lon="-0.04533">
        <ele>64</ele>
        <time>2013-02-02T09:05:18.000Z</time>
      </trkpt>
      <trkpt lat="47.2181" lon="-0.04533">
        <ele>64</ele>
        <time>2013-02-02T09:05:19.000Z</time>
      </trkpt>
      <trkpt lat="47.21807" lon="-0.04531">
        <ele>64</ele>
        <time>2013-02-02T09:05:21.000Z</time>
      </trkpt>
      <trkpt lat="47.21805" lon="-0.04531">
        <ele>64</ele>
        <time>2013-02-02T09:05:22.000Z</time>
      </trkpt>
      <trkpt lat="47.21802" lon="-0.04529">
        <ele>65</ele>
        <time>2013-02-02T09:05:24.000Z</time>
      </trkpt>
      <trkpt lat="47.218" lon="-0.04528">
        <ele>65</ele>
        <time>2013-02-02T09:05:25.000Z</time>
      </trkpt>
      <trkpt lat="47.21798" lon="-0.04525">
        <ele>65</ele>
        <time>2013-02-02T09:05:27.000Z</time>
      </trkpt>
      <trkpt lat="47.21796" lon="-0.04523">
        <ele>65</ele>
        <time>2013-02-02T09:05:28.000Z</time>
      </trkpt>
      <trkpt lat="47.21793" lon="-0.0452">
        <ele>65</ele>
        <time>2013-02-02T09:05:30.000Z</time>
      </trkpt>
      <trkpt lat="47.21791" lon="-0.0452">
        <ele>65</ele>
        <time>2013-02-02T09:05:31.000Z</time>
      </trkpt>
      <trkpt lat="47.21788" lon="-0.04516">
        <ele>66</ele>
        <time>2013-02-02T09:05:34.000Z</time>
      </trkpt>
      <trkpt lat="47.21787" lon="-0.04516">
        <ele>66</ele>
        <time>2013-02-02T09:05:35.000Z</time>
      </trkpt>
      <trkpt lat="47.21784" lon="-0.04514">
        <ele>66</ele>
        <time>2013-02-02T09:05:37.000Z</time>
      </trkpt>
      <trkpt lat="47.21782" lon="-0.04514">
        <ele>66</ele>
        <time>2013-02-02T09:05:38.000Z</time>
      </trkpt>
      <trkpt lat="47.21778" lon="-0.04513">
        <ele>67</ele>
        <time>2013-02-02T09:05:40.000Z</time>
      </trkpt>
      <trkpt lat="47.21777" lon="-0.04513">
        <ele>67</ele>
        <time>2013-02-02T09:05:41.000Z</time>
      </trkpt>
      <trkpt lat="47.21773" lon="-0.04511">
        <ele>67</ele>
        <time>2013-02-02T09:05:46.000Z</time>
      </trkpt>
      <trkpt lat="47.21772" lon="-0.0451">
        <ele>67</ele>
        <time>2013-02-02T09:05:47.000Z</time>
      </trkpt>
      <trkpt lat="47.21768" lon="-0.04508">
        <ele>68</ele>
        <time>2013-02-02T09:05:51.000Z</time>
      </trkpt>
      <trkpt lat="47.21766" lon="-0.04508">
        <ele>68</ele>
        <time>2013-02-02T09:05:52.000Z</time>
      </trkpt>
      <trkpt lat="47.21764" lon="-0.04507">
        <ele>68</ele>
        <time>2013-02-02T09:05:53.000Z</time>
      </trkpt>
      <trkpt lat="47.21761" lon="-0.04505">
        <ele>69</ele>
        <time>2013-02-02T09:05:54.000Z</time>
      </trkpt>
      <trkpt lat="47.2176" lon="-0.04503">
        <ele>69</ele>
        <time>2013-02-02T09:05:55.000Z</time>
      </trkpt>
      <trkpt lat="47.21757" lon="-0.04501">
        <ele>69</ele>
        <time>2013-02-02T09:05:56.000Z</time>
      </trkpt>
      <trkpt lat="47.21754" lon="-0.04497">
        <ele>70</ele>
        <time>2013-02-02T09:05:58.000Z</time>
      </trkpt>
      <trkpt lat="47.21753" lon="-0.04496">
        <ele>70</ele>
        <time>2013-02-02T09:05:59.000Z</time>
      </trkpt>
      <trkpt lat="47.2175" lon="-0.04495">
        <ele>71</ele>
        <time>2013-02-02T09:06:02.000Z</time>
      </trkpt>
      <trkpt lat="47.21749" lon="-0.04493">
        <ele>71</ele>
        <time>2013-02-02T09:06:03.000Z</time>
      </trkpt>
      <trkpt lat="47.21745" lon="-0.04491">
        <ele>71</ele>
        <time>2013-02-02T09:06:11.000Z</time>
      </trkpt>
      <trkpt lat="47.21744" lon="-0.04489">
        <ele>71</ele>
        <time>2013-02-02T09:06:12.000Z</time>
      </trkpt>
      <trkpt lat="47.21741" lon="-0.04486">
        <ele>72</ele>
        <time>2013-02-02T09:06:14.000Z</time>
      </trkpt>
      <trkpt lat="47.2174" lon="-0.04485">
        <ele>72</ele>
        <time>2013-02-02T09:06:15.000Z</time>
      </trkpt>
      <trkpt lat="47.21738" lon="-0.04481">
        <ele>72</ele>
        <time>2013-02-02T09:06:17.000Z</time>
      </trkpt>
      <trkpt lat="47.21737" lon="-0.04479">
        <ele>72</ele>
        <time>2013-02-02T09:06:18.000Z</time>
      </trkpt>
      <trkpt lat="47.21736" lon="-0.04477">
        <ele>72</ele>
        <time>2013-02-02T09:06:19.000Z</time>
      </trkpt>
      <trkpt lat="47.21734" lon="-0.04472">
        <ele>72</ele>
        <time>2013-02-02T09:06:20.000Z</time>
      </trkpt>
      <trkpt lat="47.2173" lon="-0.0447">
        <ele>72</ele>
        <time>2013-02-02T09:06:24.000Z</time>
      </trkpt>
      <trkpt lat="47.21729" lon="-0.0447">
        <ele>72</ele>
        <time>2013-02-02T09:06:25.000Z</time>
      </trkpt>
      <trkpt lat="47.21728" lon="-0.04476">
        <ele>72</ele>
        <time>2013-02-02T09:06:30.000Z</time>
      </trkpt>
      <trkpt lat="47.21728" lon="-0.04478">
        <ele>72</ele>
        <time>2013-02-02T09:06:31.000Z</time>
      </trkpt>
      <trkpt lat="47.21727" lon="-0.04484">
        <ele>72</ele>
        <time>2013-02-02T09:06:33.000Z</time>
      </trkpt>
      <trkpt lat="47.21728" lon="-0.04485">
        <ele>72</ele>
        <time>2013-02-02T09:06:34.000Z</time>
      </trkpt>
      <trkpt lat="47.21727" lon="-0.0449">
        <ele>72</ele>
        <time>2013-02-02T09:06:36.000Z</time>
      </trkpt>
      <trkpt lat="47.21727" lon="-0.04493">
        <ele>72</ele>
        <time>2013-02-02T09:06:37.000Z</time>
      </trkpt>
      <trkpt lat="47.21727" lon="-0.04498">
        <ele>72</ele>
        <time>2013-02-02T09:06:39.000Z</time>
      </trkpt>
      <trkpt lat="47.21727" lon="-0.04501">
        <ele>71</ele>
        <time>2013-02-02T09:06:40.000Z</time>
      </trkpt>
      <trkpt lat="47.21727" lon="-0.04506">
        <ele>71</ele>
        <time>2013-02-02T09:06:43.000Z</time>
      </trkpt>
      <trkpt lat="47.21727" lon="-0.04508">
        <ele>71</ele>
        <time>2013-02-02T09:06:44.000Z</time>
      </trkpt>
      <trkpt lat="47.21726" lon="-0.04513">
        <ele>71</ele>
        <time>2013-02-02T09:06:46.000Z</time>
      </trkpt>
      <trkpt lat="47.21726" lon="-0.04515">
        <ele>71</ele>
        <time>2013-02-02T09:06:47.000Z</time>
      </trkpt>
      <trkpt lat="47.21728" lon="-0.04521">
        <ele>71</ele>
        <time>2013-02-02T09:06:50.000Z</time>
      </trkpt>
      <trkpt lat="47.21729" lon="-0.04524">
        <ele>71</ele>
        <time>2013-02-02T09:06:51.000Z</time>
      </trkpt>
      <trkpt lat="47.2173" lon="-0.04528">
        <ele>71</ele>
        <time>2013-02-02T09:06:53.000Z</time>
      </trkpt>
      <trkpt lat="47.21731" lon="-0.0453">
        <ele>71</ele>
        <time>2013-02-02T09:06:54.000Z</time>
      </trkpt>
      <trkpt lat="47.21732" lon="-0.04535">
        <ele>71</ele>
        <time>2013-02-02T09:06:56.000Z</time>
      </trkpt>
      <trkpt lat="47.21733" lon="-0.04537">
        <ele>71</ele>
        <time>2013-02-02T09:06:57.000Z</time>
      </trkpt>
      <trkpt lat="47.21735" lon="-0.04541">
        <ele>71</ele>
        <time>2013-02-02T09:06:59.000Z</time>
      </trkpt>
      <trkpt lat="47.21735" lon="-0.04543">
        <ele>71</ele>
        <time>2013-02-02T09:07:00.000Z</time>
      </trkpt>
      <trkpt lat="47.21735" lon="-0.04549">
        <ele>71</ele>
        <time>2013-02-02T09:07:02.000Z</time>
      </trkpt>
      <trkpt lat="47.21735" lon="-0.04551">
        <ele>71</ele>
        <time>2013-02-02T09:07:03.000Z</time>
      </trkpt>
      <trkpt lat="47.21736" lon="-0.04557">
        <ele>70</ele>
        <time>2013-02-02T09:07:06.000Z</time>
      </trkpt>
      <trkpt lat="47.21736" lon="-0.04558">
        <ele>70</ele>
        <time>2013-02-02T09:07:07.000Z</time>
      </trkpt>
      <trkpt lat="47.21736" lon="-0.04563">
        <ele>70</ele>
        <time>2013-02-02T09:07:09.000Z</time>
      </trkpt>
      <trkpt lat="47.21736" lon="-0.04565">
        <ele>70</ele>
        <time>2013-02-02T09:07:10.000Z</time>
      </trkpt>
      <trkpt lat="47.21735" lon="-0.04569">
        <ele>70</ele>
        <time>2013-02-02T09:07:11.000Z</time>
      </trkpt>
      <trkpt lat="47.21734" lon="-0.04572">
        <ele>70</ele>
        <time>2013-02-02T09:07:12.000Z</time>
      </trkpt>
      <trkpt lat="47.21735" lon="-0.04577">
        <ele>70</ele>
        <time>2013-02-02T09:07:15.000Z</time>
      </trkpt>
      <trkpt lat="47.21735" lon="-0.0458">
        <ele>70</ele>
        <time>2013-02-02T09:07:16.000Z</time>
      </trkpt>
      <trkpt lat="47.21735" lon="-0.04586">
        <ele>69</ele>
        <time>2013-02-02T09:07:18.000Z</time>
      </trkpt>
      <trkpt lat="47.21735" lon="-0.04589">
        <ele>69</ele>
        <time>2013-02-02T09:07:19.000Z</time>
      </trkpt>
      <trkpt lat="47.21736" lon="-0.04594">
        <ele>69</ele>
        <time>2013-02-02T09:07:22.000Z</time>
      </trkpt>
      <trkpt lat="47.21736" lon="-0.04597">
        <ele>69</ele>
        <time>2013-02-02T09:07:23.000Z</time>
      </trkpt>
      <trkpt lat="47.21735" lon="-0.04603">
        <ele>69</ele>
        <time>2013-02-02T09:07:25.000Z</time>
      </trkpt>
      <trkpt lat="47.21735" lon="-0.04605">
        <ele>70</ele>
        <time>2013-02-02T09:07:26.000Z</time>
      </trkpt>
      <trkpt lat="47.21737" lon="-0.04611">
        <ele>70</ele>
        <time>2013-02-02T09:07:29.000Z</time>
      </trkpt>
      <trkpt lat="47.21737" lon="-0.04612">
        <ele>70</ele>
        <time>2013-02-02T09:07:30.000Z</time>
      </trkpt>
      <trkpt lat="47.21737" lon="-0.04617">
        <ele>70</ele>
        <time>2013-02-02T09:07:33.000Z</time>
      </trkpt>
      <trkpt lat="47.21737" lon="-0.0462">
        <ele>70</ele>
        <time>2013-02-02T09:07:34.000Z</time>
      </trkpt>
      <trkpt lat="47.21736" lon="-0.04624">
        <ele>70</ele>
        <time>2013-02-02T09:07:36.000Z</time>
      </trkpt>
      <trkpt lat="47.21736" lon="-0.04626">
        <ele>70</ele>
        <time>2013-02-02T09:07:37.000Z</time>
      </trkpt>
      <trkpt lat="47.21735" lon="-0.04633">
        <ele>70</ele>
        <time>2013-02-02T09:07:40.000Z</time>
      </trkpt>
      <trkpt lat="47.21735" lon="-0.04634">
        <ele>70</ele>
        <time>2013-02-02T09:07:41.000Z</time>
      </trkpt>
      <trkpt lat="47.21734" lon="-0.0464">
        <ele>69</ele>
        <time>2013-02-02T09:07:44.000Z</time>
      </trkpt>
      <trkpt lat="47.21735" lon="-0.04643">
        <ele>69</ele>
        <time>2013-02-02T09:07:45.000Z</time>
      </trkpt>
      <trkpt lat="47.21734" lon="-0.04648">
        <ele>69</ele>
        <time>2013-02-02T09:07:48.000Z</time>
      </trkpt>
      <trkpt lat="47.21734" lon="-0.0465">
        <ele>69</ele>
        <time>2013-02-02T09:07:49.000Z</time>
      </trkpt>
      <trkpt lat="47.21734" lon="-0.04656">
        <ele>69</ele>
        <time>2013-02-02T09:07:51.000Z</time>
      </trkpt>
      <trkpt lat="47.21734" lon="-0.04659">
        <ele>69</ele>
        <time>2013-02-02T09:07:52.000Z</time>
      </trkpt>
      <trkpt lat="47.21733" lon="-0.04664">
        <ele>69</ele>
        <time>2013-02-02T09:07:54.000Z</time>
      </trkpt>
      <trkpt lat="47.21732" lon="-0.04667">
        <ele>70</ele>
        <time>2013-02-02T09:07:55.000Z</time>
      </trkpt>
      <trkpt lat="47.21731" lon="-0.04671">
        <ele>70</ele>
        <time>2013-02-02T09:07:57.000Z</time>
      </trkpt>
      <trkpt lat="47.21731" lon="-0.04674">
        <ele>70</ele>
        <time>2013-02-02T09:07:58.000Z</time>
      </trkpt>
      <trkpt lat="47.21732" lon="-0.04679">
        <ele>70</ele>
        <time>2013-02-02T09:08:00.000Z</time>
      </trkpt>
      <trkpt lat="47.21732" lon="-0.04681">
        <ele>70</ele>
        <time>2013-02-02T09:08:01.000Z</time>
      </trkpt>
      <trkpt lat="47.21732" lon="-0.04687">
        <ele>71</ele>
        <time>2013-02-02T09:08:04.000Z</time>
      </trkpt>
      <trkpt lat="47.21732" lon="-0.04689">
        <ele>71</ele>
        <time>2013-02-02T09:08:05.000Z</time>
      </trkpt>
      <trkpt lat="47.21732" lon="-0.04696">
        <ele>71</ele>
        <time>2013-02-02T09:08:08.000Z</time>
      </trkpt>
      <trkpt lat="47.21732" lon="-0.04698">
        <ele>71</ele>
        <time>2013-02-02T09:08:09.000Z</time>
      </trkpt>
      <trkpt lat="47.21732" lon="-0.04704">
        <ele>72</ele>
        <time>2013-02-02T09:08:11.000Z</time>
      </trkpt>
      <trkpt lat="47.21732" lon="-0.04706">
        <ele>72</ele>
        <time>2013-02-02T09:08:12.000Z</time>
      </trkpt>
      <trkpt lat="47.21733" lon="-0.04712">
        <ele>72</ele>
        <time>2013-02-02T09:08:15.000Z</time>
      </trkpt>
      <trkpt lat="47.21733" lon="-0.04713">
        <ele>72</ele>
        <time>2013-02-02T09:08:16.000Z</time>
      </trkpt>
      <trkpt lat="47.21733" lon="-0.04718">
        <ele>72</ele>
        <time>2013-02-02T09:08:19.000Z</time>
      </trkpt>
      <trkpt lat="47.21733" lon="-0.04721">
        <ele>72</ele>
        <time>2013-02-02T09:08:20.000Z</time>
      </trkpt>
      <trkpt lat="47.21732" lon="-0.04726">
        <ele>72</ele>
        <time>2013-02-02T09:08:22.000Z</time>
      </trkpt>
      <trkpt lat="47.21731" lon="-0.04728">
        <ele>73</ele>
        <time>2013-02-02T09:08:23.000Z</time>
      </trkpt>
      <trkpt lat="47.2173" lon="-0.04733">
        <ele>73</ele>
        <time>2013-02-02T09:08:26.000Z</time>
      </trkpt>
      <trkpt lat="47.2173" lon="-0.04735">
        <ele>73</ele>
        <time>2013-02-02T09:08:27.000Z</time>
      </trkpt>
      <trkpt lat="47.21733" lon="-0.04739">
        <ele>73</ele>
        <time>2013-02-02T09:08:33.000Z</time>
      </trkpt>
      <trkpt lat="47.21734" lon="-0.0474">
        <ele>73</ele>
        <time>2013-02-02T09:08:34.000Z</time>
      </trkpt>
      <trkpt lat="47.21735" lon="-0.04745">
        <ele>73</ele>
        <time>2013-02-02T09:08:36.000Z</time>
      </trkpt>
      <trkpt lat="47.21735" lon="-0.04749">
        <ele>73</ele>
        <time>2013-02-02T09:08:37.000Z</time>
      </trkpt>
      <trkpt lat="47.21734" lon="-0.04754">
        <ele>75</ele>
        <time>2013-02-02T09:08:39.000Z</time>
      </trkpt>
      <trkpt lat="47.21734" lon="-0.04757">
        <ele>75</ele>
        <time>2013-02-02T09:08:40.000Z</time>
      </trkpt>
      <trkpt lat="47.21734" lon="-0.04763">
        <ele>75</ele>
        <time>2013-02-02T09:08:44.000Z</time>
      </trkpt>
      <trkpt lat="47.21735" lon="-0.04765">
        <ele>75</ele>
        <time>2013-02-02T09:08:45.000Z</time>
      </trkpt>
      <trkpt lat="47.21736" lon="-0.04771">
        <ele>75</ele>
        <time>2013-02-02T09:08:48.000Z</time>
      </trkpt>
      <trkpt lat="47.21736" lon="-0.04772">
        <ele>75</ele>
        <time>2013-02-02T09:08:49.000Z</time>
      </trkpt>
      <trkpt lat="47.21734" lon="-0.04777">
        <ele>75</ele>
        <time>2013-02-02T09:08:54.000Z</time>
      </trkpt>
      <trkpt lat="47.21734" lon="-0.04778">
        <ele>75</ele>
        <time>2013-02-02T09:08:55.000Z</time>
      </trkpt>
      <trkpt lat="47.21734" lon="-0.0478">
        <ele>75</ele>
        <time>2013-02-02T09:08:57.000Z</time>
      </trkpt>
      <trkpt lat="47.21734" lon="-0.04785">
        <ele>75</ele>
        <time>2013-02-02T09:08:58.000Z</time>
      </trkpt>
      <trkpt lat="47.21734" lon="-0.04789">
        <ele>75</ele>
        <time>2013-02-02T09:08:59.000Z</time>
      </trkpt>
      <trkpt lat="47.21734" lon="-0.04793">
        <ele>75</ele>
        <time>2013-02-02T09:09:00.000Z</time>
      </trkpt>
      <trkpt lat="47.21734" lon="-0.04796">
        <ele>75</ele>
        <time>2013-02-02T09:09:01.000Z</time>
      </trkpt>
      <trkpt lat="47.21734" lon="-0.048">
        <ele>76</ele>
        <time>2013-02-02T09:09:02.000Z</time>
      </trkpt>
      <trkpt lat="47.21735" lon="-0.04804">
        <ele>76</ele>
        <time>2013-02-02T09:09:03.000Z</time>
      </trkpt>
      <trkpt lat="47.21735" lon="-0.04808">
        <ele>76</ele>
        <time>2013-02-02T09:09:04.000Z</time>
      </trkpt>
      <trkpt lat="47.21735" lon="-0.04812">
        <ele>76</ele>
        <time>2013-02-02T09:09:05.000Z</time>
      </trkpt>
      <trkpt lat="47.21735" lon="-0.04815">
        <ele>76</ele>
        <time>2013-02-02T09:09:06.000Z</time>
      </trkpt>
      <trkpt lat="47.21736" lon="-0.04819">
        <ele>76</ele>
        <time>2013-02-02T09:09:07.000Z</time>
      </trkpt>
      <trkpt lat="47.21736" lon="-0.04822">
        <ele>76</ele>
        <time>2013-02-02T09:09:08.000Z</time>
      </trkpt>
      <trkpt lat="47.21738" lon="-0.04827">
        <ele>76</ele>
        <time>2013-02-02T09:09:10.000Z</time>
      </trkpt>
      <trkpt lat="47.21738" lon="-0.0483">
        <ele>76</ele>
        <time>2013-02-02T09:09:11.000Z</time>
      </trkpt>
      <trkpt lat="47.2174" lon="-0.04836">
        <ele>77</ele>
        <time>2013-02-02T09:09:13.000Z</time>
      </trkpt>
      <trkpt lat="47.21741" lon="-0.0484">
        <ele>77</ele>
        <time>2013-02-02T09:09:14.000Z</time>
      </trkpt>
      <trkpt lat="47.21742" lon="-0.04845">
        <ele>77</ele>
        <time>2013-02-02T09:09:16.000Z</time>
      </trkpt>
      <trkpt lat="47.21742" lon="-0.04847">
        <ele>77</ele>
        <time>2013-02-02T09:09:17.000Z</time>
      </trkpt>
      <trkpt lat="47.21744" lon="-0.04851">
        <ele>77</ele>
        <time>2013-02-02T09:09:19.000Z</time>
      </trkpt>
      <trkpt lat="47.21745" lon="-0.04854">
        <ele>77</ele>
        <time>2013-02-02T09:09:20.000Z</time>
      </trkpt>
      <trkpt lat="47.21746" lon="-0.04859">
        <ele>77</ele>
        <time>2013-02-02T09:09:23.000Z</time>
      </trkpt>
      <trkpt lat="47.21747" lon="-0.0486">
        <ele>77</ele>
        <time>2013-02-02T09:09:24.000Z</time>
      </trkpt>
      <trkpt lat="47.21748" lon="-0.04865">
        <ele>77</ele>
        <time>2013-02-02T09:09:27.000Z</time>
      </trkpt>
      <trkpt lat="47.21749" lon="-0.04867">
        <ele>77</ele>
        <time>2013-02-02T09:09:28.000Z</time>
      </trkpt>
      <trkpt lat="47.2175" lon="-0.04872">
        <ele>77</ele>
        <time>2013-02-02T09:09:31.000Z</time>
      </trkpt>
      <trkpt lat="47.2175" lon="-0.04873">
        <ele>77</ele>
        <time>2013-02-02T09:09:32.000Z</time>
      </trkpt>
      <trkpt lat="47.21751" lon="-0.04878">
        <ele>77</ele>
        <time>2013-02-02T09:09:34.000Z</time>
      </trkpt>
      <trkpt lat="47.21752" lon="-0.04881">
        <ele>77</ele>
        <time>2013-02-02T09:09:35.000Z</time>
      </trkpt>
      <trkpt lat="47.21752" lon="-0.04886">
        <ele>77</ele>
        <time>2013-02-02T09:09:37.000Z</time>
      </trkpt>
      <trkpt lat="47.21753" lon="-0.04887">
        <ele>77</ele>
        <time>2013-02-02T09:09:38.000Z</time>
      </trkpt>
      <trkpt lat="47.21752" lon="-0.04894">
        <ele>77</ele>
        <time>2013-02-02T09:09:40.000Z</time>
      </trkpt>
      <trkpt lat="47.21752" lon="-0.04896">
        <ele>77</ele>
        <time>2013-02-02T09:09:41.000Z</time>
      </trkpt>
      <trkpt lat="47.21752" lon="-0.04902">
        <ele>77</ele>
        <time>2013-02-02T09:09:44.000Z</time>
      </trkpt>
      <trkpt lat="47.21752" lon="-0.04905">
        <ele>77</ele>
        <time>2013-02-02T09:09:45.000Z</time>
      </trkpt>
      <trkpt lat="47.21753" lon="-0.0491">
        <ele>77</ele>
        <time>2013-02-02T09:09:47.000Z</time>
      </trkpt>
      <trkpt lat="47.21754" lon="-0.04912">
        <ele>77</ele>
        <time>2013-02-02T09:09:48.000Z</time>
      </trkpt>
      <trkpt lat="47.21754" lon="-0.04916">
        <ele>77</ele>
        <time>2013-02-02T09:09:50.000Z</time>
      </trkpt>
      <trkpt lat="47.21754" lon="-0.04919">
        <ele>77</ele>
        <time>2013-02-02T09:09:51.000Z</time>
      </trkpt>
      <trkpt lat="47.21755" lon="-0.04923">
        <ele>76</ele>
        <time>2013-02-02T09:09:53.000Z</time>
      </trkpt>
      <trkpt lat="47.21756" lon="-0.04925">
        <ele>76</ele>
        <time>2013-02-02T09:09:54.000Z</time>
      </trkpt>
      <trkpt lat="47.21758" lon="-0.0493">
        <ele>76</ele>
        <time>2013-02-02T09:09:56.000Z</time>
      </trkpt>
      <trkpt lat="47.21759" lon="-0.04932">
        <ele>76</ele>
        <time>2013-02-02T09:09:57.000Z</time>
      </trkpt>
      <trkpt lat="47.21759" lon="-0.04938">
        <ele>76</ele>
        <time>2013-02-02T09:09:59.000Z</time>
      </trkpt>
      <trkpt lat="47.2176" lon="-0.04941">
        <ele>76</ele>
        <time>2013-02-02T09:10:00.000Z</time>
      </trkpt>
      <trkpt lat="47.21761" lon="-0.04946">
        <ele>76</ele>
        <time>2013-02-02T09:10:02.000Z</time>
      </trkpt>
      <trkpt lat="47.21761" lon="-0.04948">
        <ele>76</ele>
        <time>2013-02-02T09:10:03.000Z</time>
      </trkpt>
      <trkpt lat="47.21762" lon="-0.04954">
        <ele>76</ele>
        <time>2013-02-02T09:10:06.000Z</time>
      </trkpt>
      <trkpt lat="47.21763" lon="-0.04956">
        <ele>75</ele>
        <time>2013-02-02T09:10:07.000Z</time>
      </trkpt>
      <trkpt lat="47.21765" lon="-0.04962">
        <ele>75</ele>
        <time>2013-02-02T09:10:10.000Z</time>
      </trkpt>
      <trkpt lat="47.21766" lon="-0.04964">
        <ele>75</ele>
        <time>2013-02-02T09:10:11.000Z</time>
      </trkpt>
      <trkpt lat="47.21768" lon="-0.04968">
        <ele>75</ele>
        <time>2013-02-02T09:10:14.000Z</time>
      </trkpt>
      <trkpt lat="47.21769" lon="-0.04969">
        <ele>75</ele>
        <time>2013-02-02T09:10:15.000Z</time>
      </trkpt>
      <trkpt lat="47.21771" lon="-0.04973">
        <ele>75</ele>
        <time>2013-02-02T09:10:18.000Z</time>
      </trkpt>
      <trkpt lat="47.21772" lon="-0.04975">
        <ele>75</ele>
        <time>2013-02-02T09:10:19.000Z</time>
      </trkpt>
      <trkpt lat="47.21775" lon="-0.04979">
        <ele>75</ele>
        <time>2013-02-02T09:10:22.000Z</time>
      </trkpt>
      <trkpt lat="47.21776" lon="-0.0498">
        <ele>75</ele>
        <time>2013-02-02T09:10:23.000Z</time>
      </trkpt>
      <trkpt lat="47.21778" lon="-0.04986">
        <ele>75</ele>
        <time>2013-02-02T09:10:26.000Z</time>
      </trkpt>
      <trkpt lat="47.21779" lon="-0.04988">
        <ele>75</ele>
        <time>2013-02-02T09:10:27.000Z</time>
      </trkpt>
      <trkpt lat="47.21781" lon="-0.04993">
        <ele>75</ele>
        <time>2013-02-02T09:10:30.000Z</time>
      </trkpt>
      <trkpt lat="47.21781" lon="-0.04995">
        <ele>75</ele>
        <time>2013-02-02T09:10:31.000Z</time>
      </trkpt>
      <trkpt lat="47.21783" lon="-0.05001">
        <ele>73</ele>
        <time>2013-02-02T09:10:34.000Z</time>
      </trkpt>
      <trkpt lat="47.21783" lon="-0.05003">
        <ele>73</ele>
        <time>2013-02-02T09:10:35.000Z</time>
      </trkpt>
      <trkpt lat="47.21784" lon="-0.05007">
        <ele>73</ele>
        <time>2013-02-02T09:10:37.000Z</time>
      </trkpt>
      <trkpt lat="47.21784" lon="-0.05009">
        <ele>73</ele>
        <time>2013-02-02T09:10:38.000Z</time>
      </trkpt>
      <trkpt lat="47.21786" lon="-0.05015">
        <ele>73</ele>
        <time>2013-02-02T09:10:41.000Z</time>
      </trkpt>
      <trkpt lat="47.21787" lon="-0.05017">
        <ele>73</ele>
        <time>2013-02-02T09:10:42.000Z</time>
      </trkpt>
      <trkpt lat="47.21789" lon="-0.05022">
        <ele>73</ele>
        <time>2013-02-02T09:10:44.000Z</time>
      </trkpt>
      <trkpt lat="47.2179" lon="-0.05024">
        <ele>73</ele>
        <time>2013-02-02T09:10:45.000Z</time>
      </trkpt>
      <trkpt lat="47.21791" lon="-0.05029">
        <ele>73</ele>
        <time>2013-02-02T09:10:47.000Z</time>
      </trkpt>
      <trkpt lat="47.21792" lon="-0.05031">
        <ele>72</ele>
        <time>2013-02-02T09:10:48.000Z</time>
      </trkpt>
      <trkpt lat="47.21795" lon="-0.05036">
        <ele>72</ele>
        <time>2013-02-02T09:10:51.000Z</time>
      </trkpt>
      <trkpt lat="47.21796" lon="-0.05037">
        <ele>72</ele>
        <time>2013-02-02T09:10:52.000Z</time>
      </trkpt>
      <trkpt lat="47.21798" lon="-0.0504">
        <ele>72</ele>
        <time>2013-02-02T09:10:54.000Z</time>
      </trkpt>
      <trkpt lat="47.21799" lon="-0.05043">
        <ele>72</ele>
        <time>2013-02-02T09:10:55.000Z</time>
      </trkpt>
      <trkpt lat="47.21801" lon="-0.05047">
        <ele>72</ele>
        <time>2013-02-02T09:10:58.000Z</time>
      </trkpt>
      <trkpt lat="47.21802" lon="-0.05049">
        <ele>72</ele>
        <time>2013-02-02T09:10:59.000Z</time>
      </trkpt>
      <trkpt lat="47.21803" lon="-0.05055">
        <ele>71</ele>
        <time>2013-02-02T09:11:03.000Z</time>
      </trkpt>
      <trkpt lat="47.21803" lon="-0.05057">
        <ele>71</ele>
        <time>2013-02-02T09:11:04.000Z</time>
      </trkpt>
      <trkpt lat="47.218" lon="-0.05056">
        <ele>72</ele>
        <time>2013-02-02T09:11:33.000Z</time>
      </trkpt>
      <trkpt lat="47.21799" lon="-0.05057">
        <ele>72</ele>
        <time>2013-02-02T09:11:34.000Z</time>
      </trkpt>
      <trkpt lat="47.21795" lon="-0.05058">
        <ele>72</ele>
        <time>2013-02-02T09:11:36.000Z</time>
      </trkpt>
      <trkpt lat="47.21793" lon="-0.05058">
        <ele>72</ele>
        <time>2013-02-02T09:11:37.000Z</time>
      </trkpt>
      <trkpt lat="47.21789" lon="-0.05059">
        <ele>72</ele>
        <time>2013-02-02T09:11:40.000Z</time>
      </trkpt>
      <trkpt lat="47.21788" lon="-0.05059">
        <ele>72</ele>
        <time>2013-02-02T09:11:41.000Z</time>
      </trkpt>
      <trkpt lat="47.21784" lon="-0.0506">
        <ele>72</ele>
        <time>2013-02-02T09:11:44.000Z</time>
      </trkpt>
      <trkpt lat="47.21783" lon="-0.0506">
        <ele>72</ele>
        <time>2013-02-02T09:11:45.000Z</time>
      </trkpt>
      <trkpt lat="47.21779" lon="-0.0506">
        <ele>73</ele>
        <time>2013-02-02T09:11:48.000Z</time>
      </trkpt>
      <trkpt lat="47.21778" lon="-0.0506">
        <ele>73</ele>
        <time>2013-02-02T09:11:49.000Z</time>
      </trkpt>
      <trkpt lat="47.21774" lon="-0.0506">
        <ele>73</ele>
        <time>2013-02-02T09:11:52.000Z</time>
      </trkpt>
      <trkpt lat="47.21773" lon="-0.0506">
        <ele>73</ele>
        <time>2013-02-02T09:11:53.000Z</time>
      </trkpt>
      <trkpt lat="47.21769" lon="-0.05061">
        <ele>73</ele>
        <time>2013-02-02T09:11:55.000Z</time>
      </trkpt>
      <trkpt lat="47.21767" lon="-0.05061">
        <ele>73</ele>
        <time>2013-02-02T09:11:56.000Z</time>
      </trkpt>
      <trkpt lat="47.21764" lon="-0.05065">
        <ele>73</ele>
        <time>2013-02-02T09:11:58.000Z</time>
      </trkpt>
      <trkpt lat="47.21763" lon="-0.05066">
        <ele>73</ele>
        <time>2013-02-02T09:11:59.000Z</time>
      </trkpt>
      <trkpt lat="47.21759" lon="-0.05066">
        <ele>74</ele>
        <time>2013-02-02T09:12:02.000Z</time>
      </trkpt>
      <trkpt lat="47.21757" lon="-0.05066">
        <ele>74</ele>
        <time>2013-02-02T09:12:03.000Z</time>
      </trkpt>
      <trkpt lat="47.21754" lon="-0.05063">
        <ele>74</ele>
        <time>2013-02-02T09:12:06.000Z</time>
      </trkpt>
      <trkpt lat="47.21752" lon="-0.05062">
        <ele>74</ele>
        <time>2013-02-02T09:12:07.000Z</time>
      </trkpt>
      <trkpt lat="47.21749" lon="-0.05061">
        <ele>75</ele>
        <time>2013-02-02T09:12:09.000Z</time>
      </trkpt>
      <trkpt lat="47.21748" lon="-0.0506">
        <ele>75</ele>
        <time>2013-02-02T09:12:10.000Z</time>
      </trkpt>
      <trkpt lat="47.21744" lon="-0.05059">
        <ele>75</ele>
        <time>2013-02-02T09:12:13.000Z</time>
      </trkpt>
      <trkpt lat="47.21741" lon="-0.05058">
        <ele>75</ele>
        <time>2013-02-02T09:12:14.000Z</time>
      </trkpt>
      <trkpt lat="47.21737" lon="-0.05058">
        <ele>75</ele>
        <time>2013-02-02T09:12:17.000Z</time>
      </trkpt>
      <trkpt lat="47.21736" lon="-0.05057">
        <ele>75</ele>
        <time>2013-02-02T09:12:18.000Z</time>
      </trkpt>
      <trkpt lat="47.21732" lon="-0.05055">
        <ele>75</ele>
        <time>2013-02-02T09:12:22.000Z</time>
      </trkpt>
      <trkpt lat="47.2173" lon="-0.05055">
        <ele>75</ele>
        <time>2013-02-02T09:12:23.000Z</time>
      </trkpt>
      <trkpt lat="47.21726" lon="-0.05053">
        <ele>75</ele>
        <time>2013-02-02T09:12:26.000Z</time>
      </trkpt>
      <trkpt lat="47.21725" lon="-0.05053">
        <ele>75</ele>
        <time>2013-02-02T09:12:27.000Z</time>
      </trkpt>
      <trkpt lat="47.21722" lon="-0.05052">
        <ele>75</ele>
        <time>2013-02-02T09:12:29.000Z</time>
      </trkpt>
      <trkpt lat="47.2172" lon="-0.0505">
        <ele>75</ele>
        <time>2013-02-02T09:12:30.000Z</time>
      </trkpt>
      <trkpt lat="47.21717" lon="-0.05049">
        <ele>75</ele>
        <time>2013-02-02T09:12:32.000Z</time>
      </trkpt>
      <trkpt lat="47.21715" lon="-0.05046">
        <ele>75</ele>
        <time>2013-02-02T09:12:33.000Z</time>
      </trkpt>
      <trkpt lat="47.21713" lon="-0.05044">
        <ele>75</ele>
        <time>2013-02-02T09:12:35.000Z</time>
      </trkpt>
      <trkpt lat="47.21711" lon="-0.05042">
        <ele>75</ele>
        <time>2013-02-02T09:12:36.000Z</time>
      </trkpt>
      <trkpt lat="47.21707" lon="-0.0504">
        <ele>75</ele>
        <time>2013-02-02T09:12:39.000Z</time>
      </trkpt>
      <trkpt lat="47.21706" lon="-0.05039">
        <ele>75</ele>
        <time>2013-02-02T09:12:40.000Z</time>
      </trkpt>
      <trkpt lat="47.21703" lon="-0.05036">
        <ele>75</ele>
        <time>2013-02-02T09:12:42.000Z</time>
      </trkpt>
      <trkpt lat="47.21702" lon="-0.05034">
        <ele>75</ele>
        <time>2013-02-02T09:12:43.000Z</time>
      </trkpt>
      <trkpt lat="47.21699" lon="-0.05032">
        <ele>75</ele>
        <time>2013-02-02T09:12:45.000Z</time>
      </trkpt>
      <trkpt lat="47.21698" lon="-0.05031">
        <ele>75</ele>
        <time>2013-02-02T09:12:46.000Z</time>
      </trkpt>
      <trkpt lat="47.21695" lon="-0.05029">
        <ele>75</ele>
        <time>2013-02-02T09:12:48.000Z</time>
      </trkpt>
      <trkpt lat="47.21694" lon="-0.05027">
        <ele>75</ele>
        <time>2013-02-02T09:12:49.000Z</time>
      </trkpt>
      <trkpt lat="47.2169" lon="-0.05024">
        <ele>75</ele>
        <time>2013-02-02T09:12:52.000Z</time>
      </trkpt>
      <trkpt lat="47.21689" lon="-0.05024">
        <ele>75</ele>
        <time>2013-02-02T09:12:53.000Z</time>
      </trkpt>
      <trkpt lat="47.21685" lon="-0.05022">
        <ele>75</ele>
        <time>2013-02-02T09:12:56.000Z</time>
      </trkpt>
      <trkpt lat="47.21684" lon="-0.05021">
        <ele>75</ele>
        <time>2013-02-02T09:12:57.000Z</time>
      </trkpt>
      <trkpt lat="47.21681" lon="-0.05018">
        <ele>75</ele>
        <time>2013-02-02T09:13:00.000Z</time>
      </trkpt>
      <trkpt lat="47.21679" lon="-0.05017">
        <ele>75</ele>
        <time>2013-02-02T09:13:01.000Z</time>
      </trkpt>
      <trkpt lat="47.21676" lon="-0.05015">
        <ele>75</ele>
        <time>2013-02-02T09:13:03.000Z</time>
      </trkpt>
      <trkpt lat="47.21675" lon="-0.05015">
        <ele>75</ele>
        <time>2013-02-02T09:13:04.000Z</time>
      </trkpt>
      <trkpt lat="47.21671" lon="-0.05013">
        <ele>75</ele>
        <time>2013-02-02T09:13:07.000Z</time>
      </trkpt>
      <trkpt lat="47.21669" lon="-0.05012">
        <ele>75</ele>
        <time>2013-02-02T09:13:08.000Z</time>
      </trkpt>
      <trkpt lat="47.21666" lon="-0.0501">
        <ele>74</ele>
        <time>2013-02-02T09:13:11.000Z</time>
      </trkpt>
      <trkpt lat="47.21665" lon="-0.05008">
        <ele>74</ele>
        <time>2013-02-02T09:13:12.000Z</time>
      </trkpt>
      <trkpt lat="47.21662" lon="-0.05004">
        <ele>74</ele>
        <time>2013-02-02T09:13:14.000Z</time>
      </trkpt>
      <trkpt lat="47.21661" lon="-0.05003">
        <ele>74</ele>
        <time>2013-02-02T09:13:15.000Z</time>
      </trkpt>
      <trkpt lat="47.21658" lon="-0.05">
        <ele>74</ele>
        <time>2013-02-02T09:13:18.000Z</time>
      </trkpt>
      <trkpt lat="47.21657" lon="-0.04999">
        <ele>75</ele>
        <time>2013-02-02T09:13:19.000Z</time>
      </trkpt>
      <trkpt lat="47.21654" lon="-0.04995">
        <ele>74</ele>
        <time>2013-02-02T09:13:22.000Z</time>
      </trkpt>
      <trkpt lat="47.21653" lon="-0.04993">
        <ele>74</ele>
        <time>2013-02-02T09:13:23.000Z</time>
      </trkpt>
      <trkpt lat="47.21649" lon="-0.04988">
        <ele>74</ele>
        <time>2013-02-02T09:13:26.000Z</time>
      </trkpt>
      <trkpt lat="47.21648" lon="-0.04988">
        <ele>74</ele>
        <time>2013-02-02T09:13:27.000Z</time>
      </trkpt>
      <trkpt lat="47.21645" lon="-0.04985">
        <ele>74</ele>
        <time>2013-02-02T09:13:30.000Z</time>
      </trkpt>
      <trkpt lat="47.21644" lon="-0.04984">
        <ele>74</ele>
        <time>2013-02-02T09:13:31.000Z</time>
      </trkpt>
      <trkpt lat="47.21641" lon="-0.0498">
        <ele>74</ele>
        <time>2013-02-02T09:13:33.000Z</time>
      </trkpt>
      <trkpt lat="47.2164" lon="-0.04979">
        <ele>74</ele>
        <time>2013-02-02T09:13:34.000Z</time>
      </trkpt>
      <trkpt lat="47.21637" lon="-0.04976">
        <ele>74</ele>
        <time>2013-02-02T09:13:36.000Z</time>
      </trkpt>
      <trkpt lat="47.21636" lon="-0.04974">
        <ele>74</ele>
        <time>2013-02-02T09:13:37.000Z</time>
      </trkpt>
      <trkpt lat="47.21633" lon="-0.04969">
        <ele>74</ele>
        <time>2013-02-02T09:13:40.000Z</time>
      </trkpt>
      <trkpt lat="47.21632" lon="-0.04968">
        <ele>74</ele>
        <time>2013-02-02T09:13:41.000Z</time>
      </trkpt>
      <trkpt lat="47.21629" lon="-0.04966">
        <ele>74</ele>
        <time>2013-02-02T09:13:43.000Z</time>
      </trkpt>
      <trkpt lat="47.21628" lon="-0.04965">
        <ele>74</ele>
        <time>2013-02-02T09:13:44.000Z</time>
      </trkpt>
      <trkpt lat="47.21625" lon="-0.04962">
        <ele>73</ele>
        <time>2013-02-02T09:13:47.000Z</time>
      </trkpt>
      <trkpt lat="47.21624" lon="-0.04961">
        <ele>73</ele>
        <time>2013-02-02T09:13:48.000Z</time>
      </trkpt>
      <trkpt lat="47.2162" lon="-0.04958">
        <ele>73</ele>
        <time>2013-02-02T09:13:52.000Z</time>
      </trkpt>
      <trkpt lat="47.21619" lon="-0.04957">
        <ele>73</ele>
        <time>2013-02-02T09:13:53.000Z</time>
      </trkpt>
      <trkpt lat="47.21616" lon="-0.04954">
        <ele>73</ele>
        <time>2013-02-02T09:13:56.000Z</time>
      </trkpt>
      <trkpt lat="47.21615" lon="-0.04954">
        <ele>73</ele>
        <time>2013-02-02T09:13:57.000Z</time>
      </trkpt>
      <trkpt lat="47.21612" lon="-0.04952">
        <ele>73</ele>
        <time>2013-02-02T09:13:59.000Z</time>
      </trkpt>
      <trkpt lat="47.21611" lon="-0.04951">
        <ele>73</ele>
        <time>2013-02-02T09:14:00.000Z</time>
      </trkpt>
      <trkpt lat="47.21609" lon="-0.04948">
        <ele>73</ele>
        <time>2013-02-02T09:14:02.000Z</time>
      </trkpt>
      <trkpt lat="47.21608" lon="-0.04946">
        <ele>73</ele>
        <time>2013-02-02T09:14:03.000Z</time>
      </trkpt>
      <trkpt lat="47.21605" lon="-0.04942">
        <ele>73</ele>
        <time>2013-02-02T09:14:06.000Z</time>
      </trkpt>
      <trkpt lat="47.21604" lon="-0.0494">
        <ele>73</ele>
        <time>2013-02-02T09:14:07.000Z</time>
      </trkpt>
      <trkpt lat="47.21601" lon="-0.04935">
        <ele>73</ele>
        <time>2013-02-02T09:14:09.000Z</time>
      </trkpt>
      <trkpt lat="47.21601" lon="-0.04932">
        <ele>73</ele>
        <time>2013-02-02T09:14:10.000Z</time>
      </trkpt>
      <trkpt lat="47.21598" lon="-0.04927">
        <ele>72</ele>
        <time>2013-02-02T09:14:13.000Z</time>
      </trkpt>
      <trkpt lat="47.21597" lon="-0.04926">
        <ele>72</ele>
        <time>2013-02-02T09:14:14.000Z</time>
      </trkpt>
      <trkpt lat="47.21595" lon="-0.04922">
        <ele>72</ele>
        <time>2013-02-02T09:14:16.000Z</time>
      </trkpt>
      <trkpt lat="47.21594" lon="-0.0492">
        <ele>72</ele>
        <time>2013-02-02T09:14:17.000Z</time>
      </trkpt>
      <trkpt lat="47.21591" lon="-0.04918">
        <ele>72</ele>
        <time>2013-02-02T09:14:19.000Z</time>
      </trkpt>
      <trkpt lat="47.21589" lon="-0.04918">
        <ele>72</ele>
        <time>2013-02-02T09:14:20.000Z</time>
      </trkpt>
      <trkpt lat="47.21585" lon="-0.04916">
        <ele>71</ele>
        <time>2013-02-02T09:14:22.000Z</time>
      </trkpt>
      <trkpt lat="47.21584" lon="-0.04915">
        <ele>71</ele>
        <time>2013-02-02T09:14:23.000Z</time>
      </trkpt>
      <trkpt lat="47.21581" lon="-0.04912">
        <ele>71</ele>
        <time>2013-02-02T09:14:25.000Z</time>
      </trkpt>
      <trkpt lat="47.21579" lon="-0.04911">
        <ele>71</ele>
        <time>2013-02-02T09:14:26.000Z</time>
      </trkpt>
      <trkpt lat="47.21574" lon="-0.0491">
        <ele>71</ele>
        <time>2013-02-02T09:14:29.000Z</time>
      </trkpt>
      <trkpt lat="47.21574" lon="-0.04908">
        <ele>71</ele>
        <time>2013-02-02T09:14:30.000Z</time>
      </trkpt>
      <trkpt lat="47.2157" lon="-0.04905">
        <ele>71</ele>
        <time>2013-02-02T09:14:33.000Z</time>
      </trkpt>
      <trkpt lat="47.21568" lon="-0.04904">
        <ele>71</ele>
        <time>2013-02-02T09:14:34.000Z</time>
      </trkpt>
      <trkpt lat="47.21565" lon="-0.049">
        <ele>71</ele>
        <time>2013-02-02T09:14:37.000Z</time>
      </trkpt>
      <trkpt lat="47.21564" lon="-0.04899">
        <ele>71</ele>
        <time>2013-02-02T09:14:38.000Z</time>
      </trkpt>
      <trkpt lat="47.21561" lon="-0.04896">
        <ele>71</ele>
        <time>2013-02-02T09:14:40.000Z</time>
      </trkpt>
      <trkpt lat="47.2156" lon="-0.04896">
        <ele>71</ele>
        <time>2013-02-02T09:14:41.000Z</time>
      </trkpt>
      <trkpt lat="47.21556" lon="-0.04893">
        <ele>71</ele>
        <time>2013-02-02T09:14:44.000Z</time>
      </trkpt>
      <trkpt lat="47.21554" lon="-0.04893">
        <ele>71</ele>
        <time>2013-02-02T09:14:45.000Z</time>
      </trkpt>
      <trkpt lat="47.21551" lon="-0.04891">
        <ele>71</ele>
        <time>2013-02-02T09:14:48.000Z</time>
      </trkpt>
      <trkpt lat="47.21549" lon="-0.04889">
        <ele>71</ele>
        <time>2013-02-02T09:14:49.000Z</time>
      </trkpt>
      <trkpt lat="47.21545" lon="-0.04886">
        <ele>71</ele>
        <time>2013-02-02T09:14:53.000Z</time>
      </trkpt>
      <trkpt lat="47.21544" lon="-0.04885">
        <ele>71</ele>
        <time>2013-02-02T09:14:54.000Z</time>
      </trkpt>
      <trkpt lat="47.2154" lon="-0.04882">
        <ele>71</ele>
        <time>2013-02-02T09:14:56.000Z</time>
      </trkpt>
      <trkpt lat="47.21539" lon="-0.04881">
        <ele>71</ele>
        <time>2013-02-02T09:14:57.000Z</time>
      </trkpt>
      <trkpt lat="47.21535" lon="-0.04879">
        <ele>71</ele>
        <time>2013-02-02T09:14:59.000Z</time>
      </trkpt>
      <trkpt lat="47.21534" lon="-0.04878">
        <ele>71</ele>
        <time>2013-02-02T09:15:00.000Z</time>
      </trkpt>
      <trkpt lat="47.21531" lon="-0.04875">
        <ele>71</ele>
        <time>2013-02-02T09:15:02.000Z</time>
      </trkpt>
      <trkpt lat="47.2153" lon="-0.04874">
        <ele>71</ele>
        <time>2013-02-02T09:15:03.000Z</time>
      </trkpt>
      <trkpt lat="47.21527" lon="-0.04871">
        <ele>71</ele>
        <time>2013-02-02T09:15:05.000Z</time>
      </trkpt>
      <trkpt lat="47.21526" lon="-0.0487">
        <ele>71</ele>
        <time>2013-02-02T09:15:06.000Z</time>
      </trkpt>
      <trkpt lat="47.21523" lon="-0.04868">
        <ele>71</ele>
        <time>2013-02-02T09:15:08.000Z</time>
      </trkpt>
      <trkpt lat="47.21522" lon="-0.04867">
        <ele>71</ele>
        <time>2013-02-02T09:15:09.000Z</time>
      </trkpt>
      <trkpt lat="47.21519" lon="-0.04864">
        <ele>71</ele>
        <time>2013-02-02T09:15:12.000Z</time>
      </trkpt>
      <trkpt lat="47.21518" lon="-0.04863">
        <ele>71</ele>
        <time>2013-02-02T09:15:13.000Z</time>
      </trkpt>
      <trkpt lat="47.21514" lon="-0.0486">
        <ele>71</ele>
        <time>2013-02-02T09:15:16.000Z</time>
      </trkpt>
      <trkpt lat="47.21512" lon="-0.0486">
        <ele>71</ele>
        <time>2013-02-02T09:15:17.000Z</time>
      </trkpt>
      <trkpt lat="47.2151" lon="-0.04857">
        <ele>71</ele>
        <time>2013-02-02T09:15:19.000Z</time>
      </trkpt>
      <trkpt lat="47.21509" lon="-0.04856">
        <ele>71</ele>
        <time>2013-02-02T09:15:20.000Z</time>
      </trkpt>
      <trkpt lat="47.21505" lon="-0.04854">
        <ele>71</ele>
        <time>2013-02-02T09:15:23.000Z</time>
      </trkpt>
      <trkpt lat="47.21505" lon="-0.04852">
        <ele>71</ele>
        <time>2013-02-02T09:15:24.000Z</time>
      </trkpt>
      <trkpt lat="47.21503" lon="-0.04849">
        <ele>71</ele>
        <time>2013-02-02T09:15:26.000Z</time>
      </trkpt>
      <trkpt lat="47.21501" lon="-0.04847">
        <ele>71</ele>
        <time>2013-02-02T09:15:27.000Z</time>
      </trkpt>
      <trkpt lat="47.21497" lon="-0.04846">
        <ele>69</ele>
        <time>2013-02-02T09:15:30.000Z</time>
      </trkpt>
      <trkpt lat="47.21496" lon="-0.04845">
        <ele>69</ele>
        <time>2013-02-02T09:15:31.000Z</time>
      </trkpt>
      <trkpt lat="47.21493" lon="-0.04843">
        <ele>69</ele>
        <time>2013-02-02T09:15:33.000Z</time>
      </trkpt>
      <trkpt lat="47.21491" lon="-0.04841">
        <ele>69</ele>
        <time>2013-02-02T09:15:34.000Z</time>
      </trkpt>
      <trkpt lat="47.21488" lon="-0.04838">
        <ele>69</ele>
        <time>2013-02-02T09:15:37.000Z</time>
      </trkpt>
      <trkpt lat="47.21487" lon="-0.04837">
        <ele>69</ele>
        <time>2013-02-02T09:15:38.000Z</time>
      </trkpt>
      <trkpt lat="47.21484" lon="-0.04834">
        <ele>69</ele>
        <time>2013-02-02T09:15:40.000Z</time>
      </trkpt>
      <trkpt lat="47.21482" lon="-0.04833">
        <ele>70</ele>
        <time>2013-02-02T09:15:41.000Z</time>
      </trkpt>
      <trkpt lat="47.21479" lon="-0.0483">
        <ele>70</ele>
        <time>2013-02-02T09:15:43.000Z</time>
      </trkpt>
      <trkpt lat="47.21478" lon="-0.0483">
        <ele>70</ele>
        <time>2013-02-02T09:15:44.000Z</time>
      </trkpt>
      <trkpt lat="47.21474" lon="-0.04828">
        <ele>70</ele>
        <time>2013-02-02T09:15:48.000Z</time>
      </trkpt>
      <trkpt lat="47.21472" lon="-0.04826">
        <ele>70</ele>
        <time>2013-02-02T09:15:49.000Z</time>
      </trkpt>
      <trkpt lat="47.21469" lon="-0.04823">
        <ele>69</ele>
        <time>2013-02-02T09:15:52.000Z</time>
      </trkpt>
      <trkpt lat="47.21468" lon="-0.04822">
        <ele>69</ele>
        <time>2013-02-02T09:15:53.000Z</time>
      </trkpt>
      <trkpt lat="47.21464" lon="-0.04819">
        <ele>69</ele>
        <time>2013-02-02T09:15:55.000Z</time>
      </trkpt>
      <trkpt lat="47.21463" lon="-0.04818">
        <ele>69</ele>
        <time>2013-02-02T09:15:56.000Z</time>
      </trkpt>
      <trkpt lat="47.21459" lon="-0.04815">
        <ele>69</ele>
        <time>2013-02-02T09:16:00.000Z</time>
      </trkpt>
      <trkpt lat="47.21458" lon="-0.04812">
        <ele>69</ele>
        <time>2013-02-02T09:16:01.000Z</time>
      </trkpt>
      <trkpt lat="47.21455" lon="-0.04807">
        <ele>69</ele>
        <time>2013-02-02T09:16:03.000Z</time>
      </trkpt>
      <trkpt lat="47.21454" lon="-0.04806">
        <ele>69</ele>
        <time>2013-02-02T09:16:04.000Z</time>
      </trkpt>
      <trkpt lat="47.21451" lon="-0.04803">
        <ele>69</ele>
        <time>2013-02-02T09:16:09.000Z</time>
      </trkpt>
      <trkpt lat="47.2145" lon="-0.04803">
        <ele>69</ele>
        <time>2013-02-02T09:16:10.000Z</time>
      </trkpt>
      <trkpt lat="47.21448" lon="-0.04801">
        <ele>69</ele>
        <time>2013-02-02T09:16:11.000Z</time>
      </trkpt>
      <trkpt lat="47.21447" lon="-0.04797">
        <ele>69</ele>
        <time>2013-02-02T09:16:12.000Z</time>
      </trkpt>
      <trkpt lat="47.21446" lon="-0.04794">
        <ele>69</ele>
        <time>2013-02-02T09:16:13.000Z</time>
      </trkpt>
      <trkpt lat="47.21446" lon="-0.04789">
        <ele>69</ele>
        <time>2013-02-02T09:16:14.000Z</time>
      </trkpt>
      <trkpt lat="47.21445" lon="-0.04783">
        <ele>69</ele>
        <time>2013-02-02T09:16:16.000Z</time>
      </trkpt>
      <trkpt lat="47.21444" lon="-0.0478">
        <ele>69</ele>
        <time>2013-02-02T09:16:17.000Z</time>
      </trkpt>
      <trkpt lat="47.21442" lon="-0.04776">
        <ele>69</ele>
        <time>2013-02-02T09:16:21.000Z</time>
      </trkpt>
      <trkpt lat="47.21441" lon="-0.04774">
        <ele>69</ele>
        <time>2013-02-02T09:16:22.000Z</time>
      </trkpt>
      <trkpt lat="47.2144" lon="-0.04771">
        <ele>69</ele>
        <time>2013-02-02T09:16:23.000Z</time>
      </trkpt>
      <trkpt lat="47.21439" lon="-0.04767">
        <ele>69</ele>
        <time>2013-02-02T09:16:24.000Z</time>
      </trkpt>
      <trkpt lat="47.21437" lon="-0.04762">
        <ele>69</ele>
        <time>2013-02-02T09:16:26.000Z</time>
      </trkpt>
      <trkpt lat="47.21436" lon="-0.0476">
        <ele>69</ele>
        <time>2013-02-02T09:16:27.000Z</time>
      </trkpt>
      <trkpt lat="47.21434" lon="-0.04755">
        <ele>69</ele>
        <time>2013-02-02T09:16:31.000Z</time>
      </trkpt>
      <trkpt lat="47.21434" lon="-0.04753">
        <ele>69</ele>
        <time>2013-02-02T09:16:32.000Z</time>
      </trkpt>
      <trkpt lat="47.2143" lon="-0.04751">
        <ele>69</ele>
        <time>2013-02-02T09:16:35.000Z</time>
      </trkpt>
      <trkpt lat="47.21429" lon="-0.0475">
        <ele>69</ele>
        <time>2013-02-02T09:16:36.000Z</time>
      </trkpt>
      <trkpt lat="47.21426" lon="-0.04746">
        <ele>70</ele>
        <time>2013-02-02T09:16:38.000Z</time>
      </trkpt>
      <trkpt lat="47.21424" lon="-0.04744">
        <ele>70</ele>
        <time>2013-02-02T09:16:39.000Z</time>
      </trkpt>
      <trkpt lat="47.21421" lon="-0.04739">
        <ele>70</ele>
        <time>2013-02-02T09:16:41.000Z</time>
      </trkpt>
      <trkpt lat="47.2142" lon="-0.04737">
        <ele>70</ele>
        <time>2013-02-02T09:16:42.000Z</time>
      </trkpt>
      <trkpt lat="47.21418" lon="-0.04732">
        <ele>70</ele>
        <time>2013-02-02T09:16:44.000Z</time>
      </trkpt>
      <trkpt lat="47.21417" lon="-0.04731">
        <ele>70</ele>
        <time>2013-02-02T09:16:45.000Z</time>
      </trkpt>
      <trkpt lat="47.21415" lon="-0.04727">
        <ele>66</ele>
        <time>2013-02-02T09:16:47.000Z</time>
      </trkpt>
      <trkpt lat="47.21413" lon="-0.04725">
        <ele>66</ele>
        <time>2013-02-02T09:16:48.000Z</time>
      </trkpt>
      <trkpt lat="47.21411" lon="-0.04721">
        <ele>66</ele>
        <time>2013-02-02T09:16:51.000Z</time>
      </trkpt>
      <trkpt lat="47.2141" lon="-0.04719">
        <ele>66</ele>
        <time>2013-02-02T09:16:52.000Z</time>
      </trkpt>
      <trkpt lat="47.21407" lon="-0.04715">
        <ele>66</ele>
        <time>2013-02-02T09:16:54.000Z</time>
      </trkpt>
      <trkpt lat="47.21407" lon="-0.04713">
        <ele>66</ele>
        <time>2013-02-02T09:16:55.000Z</time>
      </trkpt>
      <trkpt lat="47.21405" lon="-0.04707">
        <ele>66</ele>
        <time>2013-02-02T09:16:57.000Z</time>
      </trkpt>
      <trkpt lat="47.21404" lon="-0.04706">
        <ele>66</ele>
        <time>2013-02-02T09:16:58.000Z</time>
      </trkpt>
      <trkpt lat="47.21402" lon="-0.04701">
        <ele>66</ele>
        <time>2013-02-02T09:17:01.000Z</time>
      </trkpt>
      <trkpt lat="47.214" lon="-0.04701">
        <ele>65</ele>
        <time>2013-02-02T09:17:02.000Z</time>
      </trkpt>
      <trkpt lat="47.21397" lon="-0.04697">
        <ele>65</ele>
        <time>2013-02-02T09:17:05.000Z</time>
      </trkpt>
      <trkpt lat="47.21396" lon="-0.04696">
        <ele>65</ele>
        <time>2013-02-02T09:17:06.000Z</time>
      </trkpt>
      <trkpt lat="47.21392" lon="-0.04694">
        <ele>65</ele>
        <time>2013-02-02T09:17:09.000Z</time>
      </trkpt>
      <trkpt lat="47.21391" lon="-0.04694">
        <ele>65</ele>
        <time>2013-02-02T09:17:10.000Z</time>
      </trkpt>
      <trkpt lat="47.21388" lon="-0.04689">
        <ele>65</ele>
        <time>2013-02-02T09:17:13.000Z</time>
      </trkpt>
      <trkpt lat="47.21388" lon="-0.04688">
        <ele>65</ele>
        <time>2013-02-02T09:17:14.000Z</time>
      </trkpt>
      <trkpt lat="47.21385" lon="-0.04684">
        <ele>65</ele>
        <time>2013-02-02T09:17:17.000Z</time>
      </trkpt>
      <trkpt lat="47.21384" lon="-0.04681">
        <ele>65</ele>
        <time>2013-02-02T09:17:18.000Z</time>
      </trkpt>
      <trkpt lat="47.21381" lon="-0.04676">
        <ele>65</ele>
        <time>2013-02-02T09:17:20.000Z</time>
      </trkpt>
      <trkpt lat="47.21379" lon="-0.04673">
        <ele>64</ele>
        <time>2013-02-02T09:17:21.000Z</time>
      </trkpt>
      <trkpt lat="47.21376" lon="-0.04668">
        <ele>64</ele>
        <time>2013-02-02T09:17:23.000Z</time>
      </trkpt>
      <trkpt lat="47.21375" lon="-0.04667">
        <ele>64</ele>
        <time>2013-02-02T09:17:24.000Z</time>
      </trkpt>
      <trkpt lat="47.21373" lon="-0.04661">
        <ele>64</ele>
        <time>2013-02-02T09:17:27.000Z</time>
      </trkpt>
      <trkpt lat="47.21372" lon="-0.04661">
        <ele>64</ele>
        <time>2013-02-02T09:17:28.000Z</time>
      </trkpt>
      <trkpt lat="47.2137" lon="-0.04656">
        <ele>63</ele>
        <time>2013-02-02T09:17:30.000Z</time>
      </trkpt>
      <trkpt lat="47.21369" lon="-0.04655">
        <ele>63</ele>
        <time>2013-02-02T09:17:31.000Z</time>
      </trkpt>
      <trkpt lat="47.21366" lon="-0.04652">
        <ele>63</ele>
        <time>2013-02-02T09:17:34.000Z</time>
      </trkpt>
      <trkpt lat="47.21364" lon="-0.0465">
        <ele>63</ele>
        <time>2013-02-02T09:17:35.000Z</time>
      </trkpt>
      <trkpt lat="47.21361" lon="-0.04647">
        <ele>63</ele>
        <time>2013-02-02T09:17:38.000Z</time>
      </trkpt>
      <trkpt lat="47.2136" lon="-0.04645">
        <ele>63</ele>
        <time>2013-02-02T09:17:39.000Z</time>
      </trkpt>
      <trkpt lat="47.21356" lon="-0.04641">
        <ele>62</ele>
        <time>2013-02-02T09:17:42.000Z</time>
      </trkpt>
      <trkpt lat="47.21355" lon="-0.0464">
        <ele>62</ele>
        <time>2013-02-02T09:17:43.000Z</time>
      </trkpt>
      <trkpt lat="47.21351" lon="-0.04638">
        <ele>62</ele>
        <time>2013-02-02T09:17:46.000Z</time>
      </trkpt>
      <trkpt lat="47.21349" lon="-0.04637">
        <ele>62</ele>
        <time>2013-02-02T09:17:47.000Z</time>
      </trkpt>
      <trkpt lat="47.21346" lon="-0.04636">
        <ele>62</ele>
        <time>2013-02-02T09:17:49.000Z</time>
      </trkpt>
      <trkpt lat="47.21344" lon="-0.04636">
        <ele>62</ele>
        <time>2013-02-02T09:17:50.000Z</time>
      </trkpt>
      <trkpt lat="47.21341" lon="-0.04637">
        <ele>62</ele>
        <time>2013-02-02T09:17:54.000Z</time>
      </trkpt>
      <trkpt lat="47.2134" lon="-0.04638">
        <ele>62</ele>
        <time>2013-02-02T09:17:55.000Z</time>
      </trkpt>
      <trkpt lat="47.21338" lon="-0.04642">
        <ele>61</ele>
        <time>2013-02-02T09:17:59.000Z</time>
      </trkpt>
      <trkpt lat="47.21338" lon="-0.04644">
        <ele>61</ele>
        <time>2013-02-02T09:18:00.000Z</time>
      </trkpt>
      <trkpt lat="47.21338" lon="-0.04651">
        <ele>61</ele>
        <time>2013-02-02T09:18:03.000Z</time>
      </trkpt>
      <trkpt lat="47.21338" lon="-0.04653">
        <ele>61</ele>
        <time>2013-02-02T09:18:04.000Z</time>
      </trkpt>
      <trkpt lat="47.21338" lon="-0.04658">
        <ele>60</ele>
        <time>2013-02-02T09:18:07.000Z</time>
      </trkpt>
      <trkpt lat="47.21338" lon="-0.04661">
        <ele>60</ele>
        <time>2013-02-02T09:18:08.000Z</time>
      </trkpt>
      <trkpt lat="47.21337" lon="-0.04665">
        <ele>60</ele>
        <time>2013-02-02T09:18:10.000Z</time>
      </trkpt>
      <trkpt lat="47.21337" lon="-0.04667">
        <ele>60</ele>
        <time>2013-02-02T09:18:11.000Z</time>
      </trkpt>
      <trkpt lat="47.21337" lon="-0.04673">
        <ele>60</ele>
        <time>2013-02-02T09:18:14.000Z</time>
      </trkpt>
      <trkpt lat="47.21336" lon="-0.04675">
        <ele>60</ele>
        <time>2013-02-02T09:18:15.000Z</time>
      </trkpt>
      <trkpt lat="47.21335" lon="-0.0468">
        <ele>61</ele>
        <time>2013-02-02T09:18:17.000Z</time>
      </trkpt>
      <trkpt lat="47.21334" lon="-0.04682">
        <ele>61</ele>
        <time>2013-02-02T09:18:18.000Z</time>
      </trkpt>
      <trkpt lat="47.21333" lon="-0.04687">
        <ele>56</ele>
        <time>2013-02-02T09:18:20.000Z</time>
      </trkpt>
      <trkpt lat="47.21333" lon="-0.04689">
        <ele>56</ele>
        <time>2013-02-02T09:18:21.000Z</time>
      </trkpt>
      <trkpt lat="47.21333" lon="-0.04694">
        <ele>56</ele>
        <time>2013-02-02T09:18:24.000Z</time>
      </trkpt>
      <trkpt lat="47.21333" lon="-0.04696">
        <ele>56</ele>
        <time>2013-02-02T09:18:25.000Z</time>
      </trkpt>
      <trkpt lat="47.21333" lon="-0.047">
        <ele>55</ele>
        <time>2013-02-02T09:18:28.000Z</time>
      </trkpt>
      <trkpt lat="47.21333" lon="-0.04703">
        <ele>55</ele>
        <time>2013-02-02T09:18:29.000Z</time>
      </trkpt>
      <trkpt lat="47.21333" lon="-0.04708">
        <ele>55</ele>
        <time>2013-02-02T09:18:31.000Z</time>
      </trkpt>
      <trkpt lat="47.21333" lon="-0.04712">
        <ele>55</ele>
        <time>2013-02-02T09:18:32.000Z</time>
      </trkpt>
      <trkpt lat="47.21332" lon="-0.04718">
        <ele>55</ele>
        <time>2013-02-02T09:18:34.000Z</time>
      </trkpt>
      <trkpt lat="47.21331" lon="-0.04721">
        <ele>55</ele>
        <time>2013-02-02T09:18:35.000Z</time>
      </trkpt>
      <trkpt lat="47.2133" lon="-0.04726">
        <ele>55</ele>
        <time>2013-02-02T09:18:38.000Z</time>
      </trkpt>
      <trkpt lat="47.2133" lon="-0.04728">
        <ele>55</ele>
        <time>2013-02-02T09:18:39.000Z</time>
      </trkpt>
      <trkpt lat="47.21329" lon="-0.04733">
        <ele>55</ele>
        <time>2013-02-02T09:18:42.000Z</time>
      </trkpt>
      <trkpt lat="47.21329" lon="-0.04735">
        <ele>56</ele>
        <time>2013-02-02T09:18:43.000Z</time>
      </trkpt>
      <trkpt lat="47.21328" lon="-0.0474">
        <ele>56</ele>
        <time>2013-02-02T09:18:45.000Z</time>
      </trkpt>
      <trkpt lat="47.21328" lon="-0.04743">
        <ele>56</ele>
        <time>2013-02-02T09:18:46.000Z</time>
      </trkpt>
      <trkpt lat="47.21327" lon="-0.04748">
        <ele>56</ele>
        <time>2013-02-02T09:18:48.000Z</time>
      </trkpt>
      <trkpt lat="47.21326" lon="-0.04751">
        <ele>56</ele>
        <time>2013-02-02T09:18:49.000Z</time>
      </trkpt>
      <trkpt lat="47.21324" lon="-0.04756">
        <ele>55</ele>
        <time>2013-02-02T09:18:52.000Z</time>
      </trkpt>
      <trkpt lat="47.21324" lon="-0.04756">
        <ele>55</ele>
        <time>2013-02-02T09:18:53.000Z</time>
      </trkpt>
      <trkpt lat="47.21322" lon="-0.04759">
        <ele>55</ele>
        <time>2013-02-02T09:18:54.000Z</time>
      </trkpt>
      <trkpt lat="47.2132" lon="-0.04762">
        <ele>55</ele>
        <time>2013-02-02T09:18:55.000Z</time>
      </trkpt>
      <trkpt lat="47.21318" lon="-0.04765">
        <ele>55</ele>
        <time>2013-02-02T09:18:56.000Z</time>
      </trkpt>
      <trkpt lat="47.21317" lon="-0.04768">
        <ele>54</ele>
        <time>2013-02-02T09:18:57.000Z</time>
      </trkpt>
      <trkpt lat="47.21316" lon="-0.04773">
        <ele>54</ele>
        <time>2013-02-02T09:18:59.000Z</time>
      </trkpt>
      <trkpt lat="47.21316" lon="-0.04775">
        <ele>54</ele>
        <time>2013-02-02T09:19:00.000Z</time>
      </trkpt>
      <trkpt lat="47.21317" lon="-0.0478">
        <ele>54</ele>
        <time>2013-02-02T09:19:04.000Z</time>
      </trkpt>
      <trkpt lat="47.21317" lon="-0.04782">
        <ele>54</ele>
        <time>2013-02-02T09:19:05.000Z</time>
      </trkpt>
      <trkpt lat="47.21315" lon="-0.04788">
        <ele>54</ele>
        <time>2013-02-02T09:19:08.000Z</time>
      </trkpt>
      <trkpt lat="47.21315" lon="-0.04791">
        <ele>54</ele>
        <time>2013-02-02T09:19:09.000Z</time>
      </trkpt>
      <trkpt lat="47.21314" lon="-0.04797">
        <ele>54</ele>
        <time>2013-02-02T09:19:12.000Z</time>
      </trkpt>
      <trkpt lat="47.21313" lon="-0.04799">
        <ele>53</ele>
        <time>2013-02-02T09:19:13.000Z</time>
      </trkpt>
      <trkpt lat="47.21312" lon="-0.04805">
        <ele>53</ele>
        <time>2013-02-02T09:19:16.000Z</time>
      </trkpt>
      <trkpt lat="47.21312" lon="-0.04807">
        <ele>53</ele>
        <time>2013-02-02T09:19:17.000Z</time>
      </trkpt>
      <trkpt lat="47.2131" lon="-0.04813">
        <ele>53</ele>
        <time>2013-02-02T09:19:20.000Z</time>
      </trkpt>
      <trkpt lat="47.2131" lon="-0.04814">
        <ele>53</ele>
        <time>2013-02-02T09:19:21.000Z</time>
      </trkpt>
      <trkpt lat="47.21309" lon="-0.04821">
        <ele>53</ele>
        <time>2013-02-02T09:19:24.000Z</time>
      </trkpt>
      <trkpt lat="47.21308" lon="-0.04823">
        <ele>53</ele>
        <time>2013-02-02T09:19:25.000Z</time>
      </trkpt>
      <trkpt lat="47.21307" lon="-0.04827">
        <ele>53</ele>
        <time>2013-02-02T09:19:27.000Z</time>
      </trkpt>
      <trkpt lat="47.21306" lon="-0.04829">
        <ele>53</ele>
        <time>2013-02-02T09:19:28.000Z</time>
      </trkpt>
      <trkpt lat="47.21305" lon="-0.04833">
        <ele>53</ele>
        <time>2013-02-02T09:19:30.000Z</time>
      </trkpt>
      <trkpt lat="47.21305" lon="-0.04835">
        <ele>53</ele>
        <time>2013-02-02T09:19:31.000Z</time>
      </trkpt>
      <trkpt lat="47.21304" lon="-0.0484">
        <ele>53</ele>
        <time>2013-02-02T09:19:33.000Z</time>
      </trkpt>
      <trkpt lat="47.21303" lon="-0.04843">
        <ele>53</ele>
        <time>2013-02-02T09:19:34.000Z</time>
      </trkpt>
      <trkpt lat="47.21303" lon="-0.04848">
        <ele>53</ele>
        <time>2013-02-02T09:19:36.000Z</time>
      </trkpt>
      <trkpt lat="47.21302" lon="-0.04851">
        <ele>53</ele>
        <time>2013-02-02T09:19:37.000Z</time>
      </trkpt>
      <trkpt lat="47.21301" lon="-0.04857">
        <ele>53</ele>
        <time>2013-02-02T09:19:40.000Z</time>
      </trkpt>
      <trkpt lat="47.21301" lon="-0.04859">
        <ele>53</ele>
        <time>2013-02-02T09:19:41.000Z</time>
      </trkpt>
      <trkpt lat="47.21301" lon="-0.04865">
        <ele>53</ele>
        <time>2013-02-02T09:19:44.000Z</time>
      </trkpt>
      <trkpt lat="47.21301" lon="-0.04866">
        <ele>53</ele>
        <time>2013-02-02T09:19:45.000Z</time>
      </trkpt>
      <trkpt lat="47.213" lon="-0.04872">
        <ele>53</ele>
        <time>2013-02-02T09:19:48.000Z</time>
      </trkpt>
      <trkpt lat="47.213" lon="-0.04874">
        <ele>53</ele>
        <time>2013-02-02T09:19:49.000Z</time>
      </trkpt>
      <trkpt lat="47.213" lon="-0.04879">
        <ele>53</ele>
        <time>2013-02-02T09:19:51.000Z</time>
      </trkpt>
      <trkpt lat="47.213" lon="-0.04882">
        <ele>53</ele>
        <time>2013-02-02T09:19:52.000Z</time>
      </trkpt>
      <trkpt lat="47.21299" lon="-0.04888">
        <ele>53</ele>
        <time>2013-02-02T09:19:55.000Z</time>
      </trkpt>
      <trkpt lat="47.21299" lon="-0.0489">
        <ele>53</ele>
        <time>2013-02-02T09:19:56.000Z</time>
      </trkpt>
      <trkpt lat="47.21299" lon="-0.04894">
        <ele>53</ele>
        <time>2013-02-02T09:19:58.000Z</time>
      </trkpt>
      <trkpt lat="47.21299" lon="-0.04896">
        <ele>53</ele>
        <time>2013-02-02T09:19:59.000Z</time>
      </trkpt>
      <trkpt lat="47.21298" lon="-0.04901">
        <ele>53</ele>
        <time>2013-02-02T09:20:01.000Z</time>
      </trkpt>
      <trkpt lat="47.21298" lon="-0.04903">
        <ele>53</ele>
        <time>2013-02-02T09:20:02.000Z</time>
      </trkpt>
      <trkpt lat="47.21297" lon="-0.04907">
        <ele>53</ele>
        <time>2013-02-02T09:20:04.000Z</time>
      </trkpt>
      <trkpt lat="47.21296" lon="-0.0491">
        <ele>53</ele>
        <time>2013-02-02T09:20:05.000Z</time>
      </trkpt>
      <trkpt lat="47.21293" lon="-0.04914">
        <ele>53</ele>
        <time>2013-02-02T09:20:20.000Z</time>
      </trkpt>
      <trkpt lat="47.21293" lon="-0.04914">
        <ele>53</ele>
        <time>2013-02-02T09:20:21.000Z</time>
      </trkpt>
      <trkpt lat="47.21291" lon="-0.04909">
        <ele>52</ele>
        <time>2013-02-02T09:20:35.000Z</time>
      </trkpt>
      <trkpt lat="47.2129" lon="-0.04908">
        <ele>52</ele>
        <time>2013-02-02T09:20:36.000Z</time>
      </trkpt>
      <trkpt lat="47.21287" lon="-0.04905">
        <ele>52</ele>
        <time>2013-02-02T09:20:40.000Z</time>
      </trkpt>
      <trkpt lat="47.21286" lon="-0.04902">
        <ele>52</ele>
        <time>2013-02-02T09:20:41.000Z</time>
      </trkpt>
      <trkpt lat="47.21284" lon="-0.04899">
        <ele>52</ele>
        <time>2013-02-02T09:20:43.000Z</time>
      </trkpt>
      <trkpt lat="47.21283" lon="-0.04897">
        <ele>52</ele>
        <time>2013-02-02T09:20:44.000Z</time>
      </trkpt>
      <trkpt lat="47.21281" lon="-0.04894">
        <ele>52</ele>
        <time>2013-02-02T09:20:46.000Z</time>
      </trkpt>
      <trkpt lat="47.21279" lon="-0.04893">
        <ele>52</ele>
        <time>2013-02-02T09:20:47.000Z</time>
      </trkpt>
      <trkpt lat="47.21277" lon="-0.0489">
        <ele>52</ele>
        <time>2013-02-02T09:20:49.000Z</time>
      </trkpt>
      <trkpt lat="47.21275" lon="-0.04888">
        <ele>52</ele>
        <time>2013-02-02T09:20:50.000Z</time>
      </trkpt>
      <trkpt lat="47.21273" lon="-0.04885">
        <ele>52</ele>
        <time>2013-02-02T09:20:52.000Z</time>
      </trkpt>
      <trkpt lat="47.21272" lon="-0.04882">
        <ele>52</ele>
        <time>2013-02-02T09:20:53.000Z</time>
      </trkpt>
      <trkpt lat="47.21269" lon="-0.04878">
        <ele>52</ele>
        <time>2013-02-02T09:20:56.000Z</time>
      </trkpt>
      <trkpt lat="47.21268" lon="-0.04876">
        <ele>52</ele>
        <time>2013-02-02T09:20:57.000Z</time>
      </trkpt>
      <trkpt lat="47.21266" lon="-0.04873">
        <ele>52</ele>
        <time>2013-02-02T09:20:59.000Z</time>
      </trkpt>
      <trkpt lat="47.21264" lon="-0.04871">
        <ele>52</ele>
        <time>2013-02-02T09:21:00.000Z</time>
      </trkpt>
      <trkpt lat="47.21261" lon="-0.04868">
        <ele>52</ele>
        <time>2013-02-02T09:21:03.000Z</time>
      </trkpt>
      <trkpt lat="47.21259" lon="-0.04867">
        <ele>52</ele>
        <time>2013-02-02T09:21:04.000Z</time>
      </trkpt>
      <trkpt lat="47.21256" lon="-0.04864">
        <ele>52</ele>
        <time>2013-02-02T09:21:06.000Z</time>
      </trkpt>
      <trkpt lat="47.21255" lon="-0.04863">
        <ele>52</ele>
        <time>2013-02-02T09:21:07.000Z</time>
      </trkpt>
      <trkpt lat="47.21252" lon="-0.04858">
        <ele>51</ele>
        <time>2013-02-02T09:21:10.000Z</time>
      </trkpt>
      <trkpt lat="47.21251" lon="-0.04856">
        <ele>51</ele>
        <time>2013-02-02T09:21:11.000Z</time>
      </trkpt>
      <trkpt lat="47.21247" lon="-0.04852">
        <ele>50</ele>
        <time>2013-02-02T09:21:14.000Z</time>
      </trkpt>
      <trkpt lat="47.21246" lon="-0.04852">
        <ele>50</ele>
        <time>2013-02-02T09:21:15.000Z</time>
      </trkpt>
      <trkpt lat="47.21243" lon="-0.04849">
        <ele>50</ele>
        <time>2013-02-02T09:21:18.000Z</time>
      </trkpt>
      <trkpt lat="47.21242" lon="-0.04848">
        <ele>50</ele>
        <time>2013-02-02T09:21:19.000Z</time>
      </trkpt>
      <trkpt lat="47.2124" lon="-0.04844">
        <ele>50</ele>
        <time>2013-02-02T09:21:21.000Z</time>
      </trkpt>
      <trkpt lat="47.21239" lon="-0.04842">
        <ele>50</ele>
        <time>2013-02-02T09:21:22.000Z</time>
      </trkpt>
      <trkpt lat="47.21236" lon="-0.04839">
        <ele>50</ele>
        <time>2013-02-02T09:21:24.000Z</time>
      </trkpt>
      <trkpt lat="47.21235" lon="-0.04838">
        <ele>50</ele>
        <time>2013-02-02T09:21:25.000Z</time>
      </trkpt>
      <trkpt lat="47.21232" lon="-0.04837">
        <ele>50</ele>
        <time>2013-02-02T09:21:27.000Z</time>
      </trkpt>
      <trkpt lat="47.2123" lon="-0.04836">
        <ele>50</ele>
        <time>2013-02-02T09:21:28.000Z</time>
      </trkpt>
      <trkpt lat="47.21228" lon="-0.04832">
        <ele>49</ele>
        <time>2013-02-02T09:21:31.000Z</time>
      </trkpt>
      <trkpt lat="47.21227" lon="-0.04831">
        <ele>49</ele>
        <time>2013-02-02T09:21:32.000Z</time>
      </trkpt>
      <trkpt lat="47.21225" lon="-0.04828">
        <ele>49</ele>
        <time>2013-02-02T09:21:34.000Z</time>
      </trkpt>
      <trkpt lat="47.21223" lon="-0.04826">
        <ele>49</ele>
        <time>2013-02-02T09:21:35.000Z</time>
      </trkpt>
      <trkpt lat="47.21221" lon="-0.04821">
        <ele>49</ele>
        <time>2013-02-02T09:21:37.000Z</time>
      </trkpt>
      <trkpt lat="47.21219" lon="-0.04819">
        <ele>49</ele>
        <time>2013-02-02T09:21:38.000Z</time>
      </trkpt>
      <trkpt lat="47.21217" lon="-0.04817">
        <ele>49</ele>
        <time>2013-02-02T09:21:40.000Z</time>
      </trkpt>
      <trkpt lat="47.21216" lon="-0.04815">
        <ele>49</ele>
        <time>2013-02-02T09:21:41.000Z</time>
      </trkpt>
      <trkpt lat="47.21212" lon="-0.0481">
        <ele>49</ele>
        <time>2013-02-02T09:21:44.000Z</time>
      </trkpt>
      <trkpt lat="47.21211" lon="-0.04809">
        <ele>49</ele>
        <time>2013-02-02T09:21:45.000Z</time>
      </trkpt>
      <trkpt lat="47.21208" lon="-0.04807">
        <ele>49</ele>
        <time>2013-02-02T09:21:47.000Z</time>
      </trkpt>
      <trkpt lat="47.21207" lon="-0.04805">
        <ele>49</ele>
        <time>2013-02-02T09:21:48.000Z</time>
      </trkpt>
      <trkpt lat="47.21204" lon="-0.04801">
        <ele>49</ele>
        <time>2013-02-02T09:21:50.000Z</time>
      </trkpt>
      <trkpt lat="47.21203" lon="-0.04798">
        <ele>49</ele>
        <time>2013-02-02T09:21:51.000Z</time>
      </trkpt>
      <trkpt lat="47.21201" lon="-0.04794">
        <ele>49</ele>
        <time>2013-02-02T09:21:54.000Z</time>
      </trkpt>
      <trkpt lat="47.21199" lon="-0.04792">
        <ele>49</ele>
        <time>2013-02-02T09:21:55.000Z</time>
      </trkpt>
      <trkpt lat="47.21195" lon="-0.04789">
        <ele>49</ele>
        <time>2013-02-02T09:21:58.000Z</time>
      </trkpt>
      <trkpt lat="47.21194" lon="-0.04788">
        <ele>49</ele>
        <time>2013-02-02T09:21:59.000Z</time>
      </trkpt>
      <trkpt lat="47.21191" lon="-0.04784">
        <ele>49</ele>
        <time>2013-02-02T09:22:02.000Z</time>
      </trkpt>
      <trkpt lat="47.2119" lon="-0.04783">
        <ele>49</ele>
        <time>2013-02-02T09:22:03.000Z</time>
      </trkpt>
      <trkpt lat="47.21188" lon="-0.04779">
        <ele>49</ele>
        <time>2013-02-02T09:22:05.000Z</time>
      </trkpt>
      <trkpt lat="47.21187" lon="-0.04778">
        <ele>49</ele>
        <time>2013-02-02T09:22:06.000Z</time>
      </trkpt>
      <trkpt lat="47.21183" lon="-0.04773">
        <ele>49</ele>
        <time>2013-02-02T09:22:09.000Z</time>
      </trkpt>
      <trkpt lat="47.21182" lon="-0.04772">
        <ele>49</ele>
        <time>2013-02-02T09:22:10.000Z</time>
      </trkpt>
      <trkpt lat="47.21179" lon="-0.04769">
        <ele>49</ele>
        <time>2013-02-02T09:22:12.000Z</time>
      </trkpt>
      <trkpt lat="47.21178" lon="-0.04768">
        <ele>49</ele>
        <time>2013-02-02T09:22:13.000Z</time>
      </trkpt>
      <trkpt lat="47.21175" lon="-0.04765">
        <ele>48</ele>
        <time>2013-02-02T09:22:16.000Z</time>
      </trkpt>
      <trkpt lat="47.21174" lon="-0.04764">
        <ele>48</ele>
        <time>2013-02-02T09:22:17.000Z</time>
      </trkpt>
      <trkpt lat="47.21171" lon="-0.0476">
        <ele>48</ele>
        <time>2013-02-02T09:22:19.000Z</time>
      </trkpt>
      <trkpt lat="47.2117" lon="-0.04758">
        <ele>48</ele>
        <time>2013-02-02T09:22:20.000Z</time>
      </trkpt>
      <trkpt lat="47.21167" lon="-0.04754">
        <ele>48</ele>
        <time>2013-02-02T09:22:23.000Z</time>
      </trkpt>
      <trkpt lat="47.21166" lon="-0.04752">
        <ele>48</ele>
        <time>2013-02-02T09:22:24.000Z</time>
      </trkpt>
      <trkpt lat="47.21163" lon="-0.04751">
        <ele>48</ele>
        <time>2013-02-02T09:22:26.000Z</time>
      </trkpt>
      <trkpt lat="47.21161" lon="-0.0475">
        <ele>48</ele>
        <time>2013-02-02T09:22:27.000Z</time>
      </trkpt>
      <trkpt lat="47.21158" lon="-0.04747">
        <ele>47</ele>
        <time>2013-02-02T09:22:30.000Z</time>
      </trkpt>
      <trkpt lat="47.21157" lon="-0.04745">
        <ele>47</ele>
        <time>2013-02-02T09:22:31.000Z</time>
      </trkpt>
      <trkpt lat="47.21153" lon="-0.04744">
        <ele>47</ele>
        <time>2013-02-02T09:22:34.000Z</time>
      </trkpt>
      <trkpt lat="47.21151" lon="-0.04743">
        <ele>47</ele>
        <time>2013-02-02T09:22:35.000Z</time>
      </trkpt>
      <trkpt lat="47.21147" lon="-0.04742">
        <ele>47</ele>
        <time>2013-02-02T09:22:37.000Z</time>
      </trkpt>
      <trkpt lat="47.21146" lon="-0.0474">
        <ele>47</ele>
        <time>2013-02-02T09:22:38.000Z</time>
      </trkpt>
      <trkpt lat="47.21143" lon="-0.04736">
        <ele>47</ele>
        <time>2013-02-02T09:22:41.000Z</time>
      </trkpt>
      <trkpt lat="47.21141" lon="-0.04736">
        <ele>47</ele>
        <time>2013-02-02T09:22:42.000Z</time>
      </trkpt>
      <trkpt lat="47.21137" lon="-0.04733">
        <ele>46</ele>
        <time>2013-02-02T09:22:45.000Z</time>
      </trkpt>
      <trkpt lat="47.21136" lon="-0.04732">
        <ele>46</ele>
        <time>2013-02-02T09:22:46.000Z</time>
      </trkpt>
      <trkpt lat="47.21133" lon="-0.04729">
        <ele>46</ele>
        <time>2013-02-02T09:22:49.000Z</time>
      </trkpt>
      <trkpt lat="47.21132" lon="-0.04727">
        <ele>46</ele>
        <time>2013-02-02T09:22:50.000Z</time>
      </trkpt>
      <trkpt lat="47.21129" lon="-0.04723">
        <ele>46</ele>
        <time>2013-02-02T09:22:52.000Z</time>
      </trkpt>
      <trkpt lat="47.21128" lon="-0.04723">
        <ele>46</ele>
        <time>2013-02-02T09:22:53.000Z</time>
      </trkpt>
      <trkpt lat="47.21124" lon="-0.04721">
        <ele>46</ele>
        <time>2013-02-02T09:22:55.000Z</time>
      </trkpt>
      <trkpt lat="47.21123" lon="-0.0472">
        <ele>46</ele>
        <time>2013-02-02T09:22:56.000Z</time>
      </trkpt>
      <trkpt lat="47.21119" lon="-0.04719">
        <ele>46</ele>
        <time>2013-02-02T09:22:59.000Z</time>
      </trkpt>
      <trkpt lat="47.21118" lon="-0.04717">
        <ele>46</ele>
        <time>2013-02-02T09:23:00.000Z</time>
      </trkpt>
      <trkpt lat="47.21114" lon="-0.04715">
        <ele>46</ele>
        <time>2013-02-02T09:23:03.000Z</time>
      </trkpt>
      <trkpt lat="47.21113" lon="-0.04714">
        <ele>46</ele>
        <time>2013-02-02T09:23:04.000Z</time>
      </trkpt>
      <trkpt lat="47.2111" lon="-0.04712">
        <ele>46</ele>
        <time>2013-02-02T09:23:06.000Z</time>
      </trkpt>
      <trkpt lat="47.21108" lon="-0.04711">
        <ele>46</ele>
        <time>2013-02-02T09:23:07.000Z</time>
      </trkpt>
      <trkpt lat="47.21104" lon="-0.04707">
        <ele>46</ele>
        <time>2013-02-02T09:23:10.000Z</time>
      </trkpt>
      <trkpt lat="47.21103" lon="-0.04707">
        <ele>46</ele>
        <time>2013-02-02T09:23:11.000Z</time>
      </trkpt>
      <trkpt lat="47.211" lon="-0.04704">
        <ele>45</ele>
        <time>2013-02-02T09:23:13.000Z</time>
      </trkpt>
      <trkpt lat="47.21099" lon="-0.04703">
        <ele>45</ele>
        <time>2013-02-02T09:23:14.000Z</time>
      </trkpt>
      <trkpt lat="47.21096" lon="-0.047">
        <ele>45</ele>
        <time>2013-02-02T09:23:16.000Z</time>
      </trkpt>
      <trkpt lat="47.21095" lon="-0.04698">
        <ele>45</ele>
        <time>2013-02-02T09:23:17.000Z</time>
      </trkpt>
      <trkpt lat="47.21091" lon="-0.04695">
        <ele>45</ele>
        <time>2013-02-02T09:23:20.000Z</time>
      </trkpt>
      <trkpt lat="47.2109" lon="-0.04694">
        <ele>45</ele>
        <time>2013-02-02T09:23:21.000Z</time>
      </trkpt>
      <trkpt lat="47.21088" lon="-0.04691">
        <ele>45</ele>
        <time>2013-02-02T09:23:23.000Z</time>
      </trkpt>
      <trkpt lat="47.21086" lon="-0.04689">
        <ele>45</ele>
        <time>2013-02-02T09:23:24.000Z</time>
      </trkpt>
      <trkpt lat="47.21082" lon="-0.04686">
        <ele>43</ele>
        <time>2013-02-02T09:23:27.000Z</time>
      </trkpt>
      <trkpt lat="47.21081" lon="-0.04684">
        <ele>44</ele>
        <time>2013-02-02T09:23:28.000Z</time>
      </trkpt>
      <trkpt lat="47.21078" lon="-0.04682">
        <ele>44</ele>
        <time>2013-02-02T09:23:31.000Z</time>
      </trkpt>
      <trkpt lat="47.21077" lon="-0.04682">
        <ele>44</ele>
        <time>2013-02-02T09:23:32.000Z</time>
      </trkpt>
      <trkpt lat="47.21073" lon="-0.04678">
        <ele>44</ele>
        <time>2013-02-02T09:23:35.000Z</time>
      </trkpt>
      <trkpt lat="47.21072" lon="-0.04677">
        <ele>43</ele>
        <time>2013-02-02T09:23:36.000Z</time>
      </trkpt>
      <trkpt lat="47.21068" lon="-0.04674">
        <ele>43</ele>
        <time>2013-02-02T09:23:39.000Z</time>
      </trkpt>
      <trkpt lat="47.21067" lon="-0.04673">
        <ele>43</ele>
        <time>2013-02-02T09:23:40.000Z</time>
      </trkpt>
      <trkpt lat="47.21065" lon="-0.04671">
        <ele>43</ele>
        <time>2013-02-02T09:23:42.000Z</time>
      </trkpt>
      <trkpt lat="47.21063" lon="-0.04669">
        <ele>43</ele>
        <time>2013-02-02T09:23:43.000Z</time>
      </trkpt>
      <trkpt lat="47.2106" lon="-0.04667">
        <ele>43</ele>
        <time>2013-02-02T09:23:45.000Z</time>
      </trkpt>
      <trkpt lat="47.21059" lon="-0.04665">
        <ele>43</ele>
        <time>2013-02-02T09:23:46.000Z</time>
      </trkpt>
      <trkpt lat="47.21057" lon="-0.04663">
        <ele>43</ele>
        <time>2013-02-02T09:23:47.000Z</time>
      </trkpt>
      <trkpt lat="47.21055" lon="-0.0466">
        <ele>43</ele>
        <time>2013-02-02T09:23:48.000Z</time>
      </trkpt>
      <trkpt lat="47.21052" lon="-0.04657">
        <ele>43</ele>
        <time>2013-02-02T09:23:51.000Z</time>
      </trkpt>
      <trkpt lat="47.21051" lon="-0.04656">
        <ele>43</ele>
        <time>2013-02-02T09:23:52.000Z</time>
      </trkpt>
      <trkpt lat="47.21048" lon="-0.04653">
        <ele>43</ele>
        <time>2013-02-02T09:23:54.000Z</time>
      </trkpt>
      <trkpt lat="47.21047" lon="-0.04653">
        <ele>43</ele>
        <time>2013-02-02T09:23:55.000Z</time>
      </trkpt>
      <trkpt lat="47.21043" lon="-0.0465">
        <ele>43</ele>
        <time>2013-02-02T09:23:58.000Z</time>
      </trkpt>
      <trkpt lat="47.21042" lon="-0.0465">
        <ele>43</ele>
        <time>2013-02-02T09:23:59.000Z</time>
      </trkpt>
      <trkpt lat="47.21038" lon="-0.04648">
        <ele>42</ele>
        <time>2013-02-02T09:24:01.000Z</time>
      </trkpt>
      <trkpt lat="47.21037" lon="-0.04646">
        <ele>42</ele>
        <time>2013-02-02T09:24:02.000Z</time>
      </trkpt>
      <trkpt lat="47.21034" lon="-0.04644">
        <ele>42</ele>
        <time>2013-02-02T09:24:04.000Z</time>
      </trkpt>
      <trkpt lat="47.21032" lon="-0.04644">
        <ele>42</ele>
        <time>2013-02-02T09:24:05.000Z</time>
      </trkpt>
      <trkpt lat="47.21028" lon="-0.04644">
        <ele>42</ele>
        <time>2013-02-02T09:24:08.000Z</time>
      </trkpt>
      <trkpt lat="47.21027" lon="-0.04643">
        <ele>42</ele>
        <time>2013-02-02T09:24:09.000Z</time>
      </trkpt>
      <trkpt lat="47.21023" lon="-0.04641">
        <ele>42</ele>
        <time>2013-02-02T09:24:12.000Z</time>
      </trkpt>
      <trkpt lat="47.21022" lon="-0.04641">
        <ele>42</ele>
        <time>2013-02-02T09:24:13.000Z</time>
      </trkpt>
      <trkpt lat="47.21018" lon="-0.04638">
        <ele>42</ele>
        <time>2013-02-02T09:24:16.000Z</time>
      </trkpt>
      <trkpt lat="47.21017" lon="-0.04637">
        <ele>42</ele>
        <time>2013-02-02T09:24:17.000Z</time>
      </trkpt>
      <trkpt lat="47.21013" lon="-0.04634">
        <ele>42</ele>
        <time>2013-02-02T09:24:20.000Z</time>
      </trkpt>
      <trkpt lat="47.21012" lon="-0.04633">
        <ele>42</ele>
        <time>2013-02-02T09:24:21.000Z</time>
      </trkpt>
      <trkpt lat="47.21008" lon="-0.04631">
        <ele>42</ele>
        <time>2013-02-02T09:24:24.000Z</time>
      </trkpt>
      <trkpt lat="47.21007" lon="-0.04631">
        <ele>42</ele>
        <time>2013-02-02T09:24:25.000Z</time>
      </trkpt>
      <trkpt lat="47.21004" lon="-0.04628">
        <ele>42</ele>
        <time>2013-02-02T09:24:27.000Z</time>
      </trkpt>
      <trkpt lat="47.21002" lon="-0.04626">
        <ele>42</ele>
        <time>2013-02-02T09:24:28.000Z</time>
      </trkpt>
      <trkpt lat="47.20999" lon="-0.04623">
        <ele>40</ele>
        <time>2013-02-02T09:24:30.000Z</time>
      </trkpt>
      <trkpt lat="47.20998" lon="-0.04622">
        <ele>40</ele>
        <time>2013-02-02T09:24:31.000Z</time>
      </trkpt>
      <trkpt lat="47.20996" lon="-0.04618">
        <ele>40</ele>
        <time>2013-02-02T09:24:33.000Z</time>
      </trkpt>
      <trkpt lat="47.20995" lon="-0.04617">
        <ele>40</ele>
        <time>2013-02-02T09:24:34.000Z</time>
      </trkpt>
      <trkpt lat="47.20992" lon="-0.04614">
        <ele>40</ele>
        <time>2013-02-02T09:24:36.000Z</time>
      </trkpt>
      <trkpt lat="47.20991" lon="-0.04613">
        <ele>40</ele>
        <time>2013-02-02T09:24:37.000Z</time>
      </trkpt>
      <trkpt lat="47.20988" lon="-0.0461">
        <ele>40</ele>
        <time>2013-02-02T09:24:40.000Z</time>
      </trkpt>
      <trkpt lat="47.20987" lon="-0.04609">
        <ele>40</ele>
        <time>2013-02-02T09:24:41.000Z</time>
      </trkpt>
      <trkpt lat="47.20983" lon="-0.04606">
        <ele>40</ele>
        <time>2013-02-02T09:24:44.000Z</time>
      </trkpt>
      <trkpt lat="47.20981" lon="-0.04605">
        <ele>40</ele>
        <time>2013-02-02T09:24:45.000Z</time>
      </trkpt>
      <trkpt lat="47.20979" lon="-0.04602">
        <ele>39</ele>
        <time>2013-02-02T09:24:47.000Z</time>
      </trkpt>
      <trkpt lat="47.20978" lon="-0.04598">
        <ele>39</ele>
        <time>2013-02-02T09:24:48.000Z</time>
      </trkpt>
      <trkpt lat="47.20975" lon="-0.04596">
        <ele>39</ele>
        <time>2013-02-02T09:24:50.000Z</time>
      </trkpt>
      <trkpt lat="47.20973" lon="-0.04595">
        <ele>39</ele>
        <time>2013-02-02T09:24:51.000Z</time>
      </trkpt>
      <trkpt lat="47.20969" lon="-0.04594">
        <ele>39</ele>
        <time>2013-02-02T09:24:54.000Z</time>
      </trkpt>
      <trkpt lat="47.20967" lon="-0.04594">
        <ele>39</ele>
        <time>2013-02-02T09:24:55.000Z</time>
      </trkpt>
      <trkpt lat="47.20965" lon="-0.04599">
        <ele>39</ele>
        <time>2013-02-02T09:24:58.000Z</time>
      </trkpt>
      <trkpt lat="47.20964" lon="-0.04601">
        <ele>39</ele>
        <time>2013-02-02T09:24:59.000Z</time>
      </trkpt>
      <trkpt lat="47.20963" lon="-0.04606">
        <ele>39</ele>
        <time>2013-02-02T09:25:02.000Z</time>
      </trkpt>
      <trkpt lat="47.20963" lon="-0.04608">
        <ele>39</ele>
        <time>2013-02-02T09:25:03.000Z</time>
      </trkpt>
      <trkpt lat="47.20963" lon="-0.04614">
        <ele>39</ele>
        <time>2013-02-02T09:25:06.000Z</time>
      </trkpt>
      <trkpt lat="47.20963" lon="-0.04616">
        <ele>39</ele>
        <time>2013-02-02T09:25:07.000Z</time>
      </trkpt>
      <trkpt lat="47.20963" lon="-0.04622">
        <ele>39</ele>
        <time>2013-02-02T09:25:10.000Z</time>
      </trkpt>
      <trkpt lat="47.20963" lon="-0.04624">
        <ele>39</ele>
        <time>2013-02-02T09:25:11.000Z</time>
      </trkpt>
      <trkpt lat="47.20963" lon="-0.04629">
        <ele>39</ele>
        <time>2013-02-02T09:25:13.000Z</time>
      </trkpt>
      <trkpt lat="47.20963" lon="-0.04631">
        <ele>39</ele>
        <time>2013-02-02T09:25:14.000Z</time>
      </trkpt>
      <trkpt lat="47.20962" lon="-0.04637">
        <ele>39</ele>
        <time>2013-02-02T09:25:17.000Z</time>
      </trkpt>
      <trkpt lat="47.20962" lon="-0.04639">
        <ele>39</ele>
        <time>2013-02-02T09:25:18.000Z</time>
      </trkpt>
      <trkpt lat="47.20961" lon="-0.04644">
        <ele>39</ele>
        <time>2013-02-02T09:25:20.000Z</time>
      </trkpt>
      <trkpt lat="47.2096" lon="-0.04646">
        <ele>39</ele>
        <time>2013-02-02T09:25:21.000Z</time>
      </trkpt>
      <trkpt lat="47.20959" lon="-0.04651">
        <ele>39</ele>
        <time>2013-02-02T09:25:24.000Z</time>
      </trkpt>
      <trkpt lat="47.20958" lon="-0.04654">
        <ele>39</ele>
        <time>2013-02-02T09:25:25.000Z</time>
      </trkpt>
      <trkpt lat="47.20958" lon="-0.04659">
        <ele>39</ele>
        <time>2013-02-02T09:25:28.000Z</time>
      </trkpt>
      <trkpt lat="47.20958" lon="-0.04661">
        <ele>39</ele>
        <time>2013-02-02T09:25:29.000Z</time>
      </trkpt>
      <trkpt lat="47.20957" lon="-0.04665">
        <ele>39</ele>
        <time>2013-02-02T09:25:31.000Z</time>
      </trkpt>
      <trkpt lat="47.20957" lon="-0.04668">
        <ele>40</ele>
        <time>2013-02-02T09:25:32.000Z</time>
      </trkpt>
      <trkpt lat="47.20958" lon="-0.04673">
        <ele>40</ele>
        <time>2013-02-02T09:25:34.000Z</time>
      </trkpt>
      <trkpt lat="47.20958" lon="-0.04675">
        <ele>40</ele>
        <time>2013-02-02T09:25:35.000Z</time>
      </trkpt>
      <trkpt lat="47.20958" lon="-0.0468">
        <ele>40</ele>
        <time>2013-02-02T09:25:37.000Z</time>
      </trkpt>
      <trkpt lat="47.20958" lon="-0.04683">
        <ele>40</ele>
        <time>2013-02-02T09:25:38.000Z</time>
      </trkpt>
      <trkpt lat="47.20958" lon="-0.04687">
        <ele>40</ele>
        <time>2013-02-02T09:25:40.000Z</time>
      </trkpt>
      <trkpt lat="47.20958" lon="-0.04689">
        <ele>40</ele>
        <time>2013-02-02T09:25:41.000Z</time>
      </trkpt>
      <trkpt lat="47.20958" lon="-0.04695">
        <ele>40</ele>
        <time>2013-02-02T09:25:43.000Z</time>
      </trkpt>
      <trkpt lat="47.20957" lon="-0.04699">
        <ele>40</ele>
        <time>2013-02-02T09:25:44.000Z</time>
      </trkpt>
      <trkpt lat="47.20957" lon="-0.04704">
        <ele>40</ele>
        <time>2013-02-02T09:25:50.000Z</time>
      </trkpt>
      <trkpt lat="47.20957" lon="-0.04706">
        <ele>40</ele>
        <time>2013-02-02T09:25:51.000Z</time>
      </trkpt>
      <trkpt lat="47.20956" lon="-0.04712">
        <ele>40</ele>
        <time>2013-02-02T09:25:54.000Z</time>
      </trkpt>
      <trkpt lat="47.20956" lon="-0.04713">
        <ele>41</ele>
        <time>2013-02-02T09:25:55.000Z</time>
      </trkpt>
      <trkpt lat="47.20955" lon="-0.04718">
        <ele>41</ele>
        <time>2013-02-02T09:25:57.000Z</time>
      </trkpt>
      <trkpt lat="47.20955" lon="-0.04721">
        <ele>41</ele>
        <time>2013-02-02T09:25:58.000Z</time>
      </trkpt>
      <trkpt lat="47.20955" lon="-0.04726">
        <ele>41</ele>
        <time>2013-02-02T09:26:00.000Z</time>
      </trkpt>
      <trkpt lat="47.20955" lon="-0.04728">
        <ele>41</ele>
        <time>2013-02-02T09:26:01.000Z</time>
      </trkpt>
      <trkpt lat="47.20954" lon="-0.04732">
        <ele>41</ele>
        <time>2013-02-02T09:26:03.000Z</time>
      </trkpt>
      <trkpt lat="47.20954" lon="-0.04734">
        <ele>41</ele>
        <time>2013-02-02T09:26:04.000Z</time>
      </trkpt>
      <trkpt lat="47.20954" lon="-0.04741">
        <ele>41</ele>
        <time>2013-02-02T09:26:07.000Z</time>
      </trkpt>
      <trkpt lat="47.20955" lon="-0.04743">
        <ele>41</ele>
        <time>2013-02-02T09:26:08.000Z</time>
      </trkpt>
      <trkpt lat="47.20955" lon="-0.0475">
        <ele>41</ele>
        <time>2013-02-02T09:26:11.000Z</time>
      </trkpt>
      <trkpt lat="47.20955" lon="-0.04751">
        <ele>41</ele>
        <time>2013-02-02T09:26:12.000Z</time>
      </trkpt>
      <trkpt lat="47.20955" lon="-0.04758">
        <ele>41</ele>
        <time>2013-02-02T09:26:15.000Z</time>
      </trkpt>
      <trkpt lat="47.20955" lon="-0.0476">
        <ele>41</ele>
        <time>2013-02-02T09:26:16.000Z</time>
      </trkpt>
      <trkpt lat="47.20954" lon="-0.04765">
        <ele>41</ele>
        <time>2013-02-02T09:26:18.000Z</time>
      </trkpt>
      <trkpt lat="47.20953" lon="-0.04767">
        <ele>41</ele>
        <time>2013-02-02T09:26:19.000Z</time>
      </trkpt>
      <trkpt lat="47.20952" lon="-0.04772">
        <ele>41</ele>
        <time>2013-02-02T09:26:22.000Z</time>
      </trkpt>
      <trkpt lat="47.20951" lon="-0.04775">
        <ele>41</ele>
        <time>2013-02-02T09:26:23.000Z</time>
      </trkpt>
      <trkpt lat="47.2095" lon="-0.04782">
        <ele>41</ele>
        <time>2013-02-02T09:26:25.000Z</time>
      </trkpt>
      <trkpt lat="47.2095" lon="-0.04785">
        <ele>41</ele>
        <time>2013-02-02T09:26:26.000Z</time>
      </trkpt>
      <trkpt lat="47.2095" lon="-0.04789">
        <ele>41</ele>
        <time>2013-02-02T09:26:27.000Z</time>
      </trkpt>
      <trkpt lat="47.20949" lon="-0.04792">
        <ele>41</ele>
        <time>2013-02-02T09:26:28.000Z</time>
      </trkpt>
      <trkpt lat="47.20949" lon="-0.04797">
        <ele>41</ele>
        <time>2013-02-02T09:26:30.000Z</time>
      </trkpt>
      <trkpt lat="47.20949" lon="-0.048">
        <ele>41</ele>
        <time>2013-02-02T09:26:31.000Z</time>
      </trkpt>
      <trkpt lat="47.2095" lon="-0.04805">
        <ele>41</ele>
        <time>2013-02-02T09:26:34.000Z</time>
      </trkpt>
      <trkpt lat="47.2095" lon="-0.04808">
        <ele>41</ele>
        <time>2013-02-02T09:26:35.000Z</time>
      </trkpt>
      <trkpt lat="47.20949" lon="-0.04814">
        <ele>41</ele>
        <time>2013-02-02T09:26:39.000Z</time>
      </trkpt>
      <trkpt lat="47.20949" lon="-0.04816">
        <ele>41</ele>
        <time>2013-02-02T09:26:40.000Z</time>
      </trkpt>
      <trkpt lat="47.20949" lon="-0.04822">
        <ele>41</ele>
        <time>2013-02-02T09:26:43.000Z</time>
      </trkpt>
      <trkpt lat="47.20949" lon="-0.04824">
        <ele>41</ele>
        <time>2013-02-02T09:26:44.000Z</time>
      </trkpt>
      <trkpt lat="47.20949" lon="-0.0483">
        <ele>41</ele>
        <time>2013-02-02T09:26:47.000Z</time>
      </trkpt>
      <trkpt lat="47.20949" lon="-0.04832">
        <ele>41</ele>
        <time>2013-02-02T09:26:48.000Z</time>
      </trkpt>
      <trkpt lat="47.20948" lon="-0.04838">
        <ele>40</ele>
        <time>2013-02-02T09:26:51.000Z</time>
      </trkpt>
      <trkpt lat="47.20948" lon="-0.04841">
        <ele>40</ele>
        <time>2013-02-02T09:26:52.000Z</time>
      </trkpt>
      <trkpt lat="47.20948" lon="-0.04846">
        <ele>40</ele>
        <time>2013-02-02T09:26:56.000Z</time>
      </trkpt>
      <trkpt lat="47.20948" lon="-0.04849">
        <ele>40</ele>
        <time>2013-02-02T09:26:57.000Z</time>
      </trkpt>
      <trkpt lat="47.20948" lon="-0.04853">
        <ele>40</ele>
        <time>2013-02-02T09:26:59.000Z</time>
      </trkpt>
      <trkpt lat="47.20948" lon="-0.04856">
        <ele>40</ele>
        <time>2013-02-02T09:27:00.000Z</time>
      </trkpt>
      <trkpt lat="47.20947" lon="-0.0486">
        <ele>40</ele>
        <time>2013-02-02T09:27:01.000Z</time>
      </trkpt>
      <trkpt lat="47.20947" lon="-0.04864">
        <ele>40</ele>
        <time>2013-02-02T09:27:02.000Z</time>
      </trkpt>
      <trkpt lat="47.20947" lon="-0.04869">
        <ele>40</ele>
        <time>2013-02-02T09:27:06.000Z</time>
      </trkpt>
      <trkpt lat="47.20947" lon="-0.04872">
        <ele>40</ele>
        <time>2013-02-02T09:27:07.000Z</time>
      </trkpt>
      <trkpt lat="47.20946" lon="-0.04877">
        <ele>40</ele>
        <time>2013-02-02T09:27:10.000Z</time>
      </trkpt>
      <trkpt lat="47.20945" lon="-0.04879">
        <ele>40</ele>
        <time>2013-02-02T09:27:11.000Z</time>
      </trkpt>
      <trkpt lat="47.20945" lon="-0.04884">
        <ele>40</ele>
        <time>2013-02-02T09:27:13.000Z</time>
      </trkpt>
      <trkpt lat="47.20944" lon="-0.04887">
        <ele>40</ele>
        <time>2013-02-02T09:27:14.000Z</time>
      </trkpt>
      <trkpt lat="47.20944" lon="-0.04891">
        <ele>40</ele>
        <time>2013-02-02T09:27:16.000Z</time>
      </trkpt>
      <trkpt lat="47.20944" lon="-0.04894">
        <ele>40</ele>
        <time>2013-02-02T09:27:17.000Z</time>
      </trkpt>
      <trkpt lat="47.20944" lon="-0.04898">
        <ele>40</ele>
        <time>2013-02-02T09:27:20.000Z</time>
      </trkpt>
      <trkpt lat="47.20944" lon="-0.04902">
        <ele>40</ele>
        <time>2013-02-02T09:27:21.000Z</time>
      </trkpt>
      <trkpt lat="47.20943" lon="-0.04908">
        <ele>40</ele>
        <time>2013-02-02T09:27:24.000Z</time>
      </trkpt>
      <trkpt lat="47.20943" lon="-0.04912">
        <ele>40</ele>
        <time>2013-02-02T09:27:25.000Z</time>
      </trkpt>
      <trkpt lat="47.20944" lon="-0.04918">
        <ele>40</ele>
        <time>2013-02-02T09:27:28.000Z</time>
      </trkpt>
      <trkpt lat="47.20944" lon="-0.04921">
        <ele>40</ele>
        <time>2013-02-02T09:27:29.000Z</time>
      </trkpt>
      <trkpt lat="47.20943" lon="-0.04925">
        <ele>40</ele>
        <time>2013-02-02T09:27:32.000Z</time>
      </trkpt>
      <trkpt lat="47.20943" lon="-0.04927">
        <ele>40</ele>
        <time>2013-02-02T09:27:33.000Z</time>
      </trkpt>
      <trkpt lat="47.20942" lon="-0.04932">
        <ele>40</ele>
        <time>2013-02-02T09:27:35.000Z</time>
      </trkpt>
      <trkpt lat="47.20942" lon="-0.04935">
        <ele>40</ele>
        <time>2013-02-02T09:27:36.000Z</time>
      </trkpt>
      <trkpt lat="47.20941" lon="-0.0494">
        <ele>40</ele>
        <time>2013-02-02T09:27:38.000Z</time>
      </trkpt>
      <trkpt lat="47.2094" lon="-0.04942">
        <ele>40</ele>
        <time>2013-02-02T09:27:39.000Z</time>
      </trkpt>
      <trkpt lat="47.20939" lon="-0.04948">
        <ele>40</ele>
        <time>2013-02-02T09:27:42.000Z</time>
      </trkpt>
      <trkpt lat="47.20939" lon="-0.0495">
        <ele>40</ele>
        <time>2013-02-02T09:27:43.000Z</time>
      </trkpt>
      <trkpt lat="47.20939" lon="-0.04955">
        <ele>40</ele>
        <time>2013-02-02T09:27:46.000Z</time>
      </trkpt>
      <trkpt lat="47.20939" lon="-0.04958">
        <ele>40</ele>
        <time>2013-02-02T09:27:47.000Z</time>
      </trkpt>
      <trkpt lat="47.20938" lon="-0.04961">
        <ele>40</ele>
        <time>2013-02-02T09:27:48.000Z</time>
      </trkpt>
      <trkpt lat="47.20938" lon="-0.04964">
        <ele>40</ele>
        <time>2013-02-02T09:27:49.000Z</time>
      </trkpt>
      <trkpt lat="47.20937" lon="-0.04967">
        <ele>40</ele>
        <time>2013-02-02T09:27:50.000Z</time>
      </trkpt>
      <trkpt lat="47.20936" lon="-0.04971">
        <ele>40</ele>
        <time>2013-02-02T09:27:51.000Z</time>
      </trkpt>
      <trkpt lat="47.20936" lon="-0.04974">
        <ele>40</ele>
        <time>2013-02-02T09:27:52.000Z</time>
      </trkpt>
      <trkpt lat="47.20935" lon="-0.04977">
        <ele>40</ele>
        <time>2013-02-02T09:27:53.000Z</time>
      </trkpt>
      <trkpt lat="47.20935" lon="-0.04984">
        <ele>40</ele>
        <time>2013-02-02T09:27:56.000Z</time>
      </trkpt>
      <trkpt lat="47.20935" lon="-0.04985">
        <ele>40</ele>
        <time>2013-02-02T09:27:57.000Z</time>
      </trkpt>
      <trkpt lat="47.20935" lon="-0.04991">
        <ele>40</ele>
        <time>2013-02-02T09:28:00.000Z</time>
      </trkpt>
      <trkpt lat="47.20934" lon="-0.04994">
        <ele>40</ele>
        <time>2013-02-02T09:28:01.000Z</time>
      </trkpt>
      <trkpt lat="47.20934" lon="-0.05">
        <ele>40</ele>
        <time>2013-02-02T09:28:04.000Z</time>
      </trkpt>
      <trkpt lat="47.20934" lon="-0.05002">
        <ele>40</ele>
        <time>2013-02-02T09:28:05.000Z</time>
      </trkpt>
      <trkpt lat="47.20935" lon="-0.05007">
        <ele>40</ele>
        <time>2013-02-02T09:28:07.000Z</time>
      </trkpt>
      <trkpt lat="47.20934" lon="-0.05009">
        <ele>40</ele>
        <time>2013-02-02T09:28:08.000Z</time>
      </trkpt>
      <trkpt lat="47.20934" lon="-0.05012">
        <ele>40</ele>
        <time>2013-02-02T09:28:09.000Z</time>
      </trkpt>
      <trkpt lat="47.20934" lon="-0.05015">
        <ele>40</ele>
        <time>2013-02-02T09:28:10.000Z</time>
      </trkpt>
      <trkpt lat="47.20934" lon="-0.05021">
        <ele>40</ele>
        <time>2013-02-02T09:28:13.000Z</time>
      </trkpt>
      <trkpt lat="47.20934" lon="-0.05024">
        <ele>40</ele>
        <time>2013-02-02T09:28:14.000Z</time>
      </trkpt>
      <trkpt lat="47.20933" lon="-0.05029">
        <ele>40</ele>
        <time>2013-02-02T09:28:16.000Z</time>
      </trkpt>
      <trkpt lat="47.20933" lon="-0.05031">
        <ele>40</ele>
        <time>2013-02-02T09:28:17.000Z</time>
      </trkpt>
      <trkpt lat="47.20932" lon="-0.05037">
        <ele>40</ele>
        <time>2013-02-02T09:28:20.000Z</time>
      </trkpt>
      <trkpt lat="47.20932" lon="-0.05039">
        <ele>40</ele>
        <time>2013-02-02T09:28:21.000Z</time>
      </trkpt>
      <trkpt lat="47.20932" lon="-0.05044">
        <ele>40</ele>
        <time>2013-02-02T09:28:24.000Z</time>
      </trkpt>
      <trkpt lat="47.20932" lon="-0.05046">
        <ele>40</ele>
        <time>2013-02-02T09:28:25.000Z</time>
      </trkpt>
      <trkpt lat="47.20932" lon="-0.05052">
        <ele>40</ele>
        <time>2013-02-02T09:28:27.000Z</time>
      </trkpt>
      <trkpt lat="47.20932" lon="-0.05056">
        <ele>40</ele>
        <time>2013-02-02T09:28:28.000Z</time>
      </trkpt>
      <trkpt lat="47.20931" lon="-0.05062">
        <ele>40</ele>
        <time>2013-02-02T09:28:31.000Z</time>
      </trkpt>
      <trkpt lat="47.2093" lon="-0.05064">
        <ele>40</ele>
        <time>2013-02-02T09:28:32.000Z</time>
      </trkpt>
      <trkpt lat="47.2093" lon="-0.0507">
        <ele>40</ele>
        <time>2013-02-02T09:28:35.000Z</time>
      </trkpt>
      <trkpt lat="47.2093" lon="-0.05072">
        <ele>40</ele>
        <time>2013-02-02T09:28:36.000Z</time>
      </trkpt>
      <trkpt lat="47.20932" lon="-0.05078">
        <ele>40</ele>
        <time>2013-02-02T09:28:39.000Z</time>
      </trkpt>
      <trkpt lat="47.20932" lon="-0.05081">
        <ele>40</ele>
        <time>2013-02-02T09:28:40.000Z</time>
      </trkpt>
      <trkpt lat="47.20931" lon="-0.05087">
        <ele>40</ele>
        <time>2013-02-02T09:28:42.000Z</time>
      </trkpt>
      <trkpt lat="47.20932" lon="-0.05088">
        <ele>40</ele>
        <time>2013-02-02T09:28:43.000Z</time>
      </trkpt>
      <trkpt lat="47.20932" lon="-0.05092">
        <ele>40</ele>
        <time>2013-02-02T09:28:47.000Z</time>
      </trkpt>
      <trkpt lat="47.20931" lon="-0.05095">
        <ele>40</ele>
        <time>2013-02-02T09:28:48.000Z</time>
      </trkpt>
      <trkpt lat="47.2093" lon="-0.051">
        <ele>40</ele>
        <time>2013-02-02T09:28:51.000Z</time>
      </trkpt>
      <trkpt lat="47.20929" lon="-0.05103">
        <ele>40</ele>
        <time>2013-02-02T09:28:52.000Z</time>
      </trkpt>
      <trkpt lat="47.20928" lon="-0.05106">
        <ele>40</ele>
        <time>2013-02-02T09:28:53.000Z</time>
      </trkpt>
      <trkpt lat="47.20928" lon="-0.0511">
        <ele>40</ele>
        <time>2013-02-02T09:28:54.000Z</time>
      </trkpt>
      <trkpt lat="47.20928" lon="-0.05116">
        <ele>40</ele>
        <time>2013-02-02T09:28:57.000Z</time>
      </trkpt>
      <trkpt lat="47.20928" lon="-0.05118">
        <ele>40</ele>
        <time>2013-02-02T09:28:58.000Z</time>
      </trkpt>
      <trkpt lat="47.20928" lon="-0.05123">
        <ele>40</ele>
        <time>2013-02-02T09:29:00.000Z</time>
      </trkpt>
      <trkpt lat="47.20928" lon="-0.05126">
        <ele>39</ele>
        <time>2013-02-02T09:29:01.000Z</time>
      </trkpt>
      <trkpt lat="47.20928" lon="-0.05132">
        <ele>39</ele>
        <time>2013-02-02T09:29:03.000Z</time>
      </trkpt>
      <trkpt lat="47.20927" lon="-0.05135">
        <ele>39</ele>
        <time>2013-02-02T09:29:04.000Z</time>
      </trkpt>
      <trkpt lat="47.20926" lon="-0.05141">
        <ele>39</ele>
        <time>2013-02-02T09:29:08.000Z</time>
      </trkpt>
      <trkpt lat="47.20926" lon="-0.05143">
        <ele>39</ele>
        <time>2013-02-02T09:29:09.000Z</time>
      </trkpt>
      <trkpt lat="47.20926" lon="-0.05149">
        <ele>39</ele>
        <time>2013-02-02T09:29:11.000Z</time>
      </trkpt>
      <trkpt lat="47.20926" lon="-0.05151">
        <ele>39</ele>
        <time>2013-02-02T09:29:12.000Z</time>
      </trkpt>
      <trkpt lat="47.20925" lon="-0.05158">
        <ele>39</ele>
        <time>2013-02-02T09:29:15.000Z</time>
      </trkpt>
      <trkpt lat="47.20925" lon="-0.05159">
        <ele>39</ele>
        <time>2013-02-02T09:29:16.000Z</time>
      </trkpt>
      <trkpt lat="47.20924" lon="-0.05165">
        <ele>38</ele>
        <time>2013-02-02T09:29:19.000Z</time>
      </trkpt>
      <trkpt lat="47.20924" lon="-0.05168">
        <ele>38</ele>
        <time>2013-02-02T09:29:20.000Z</time>
      </trkpt>
      <trkpt lat="47.20924" lon="-0.05173">
        <ele>38</ele>
        <time>2013-02-02T09:29:22.000Z</time>
      </trkpt>
      <trkpt lat="47.20924" lon="-0.05176">
        <ele>38</ele>
        <time>2013-02-02T09:29:23.000Z</time>
      </trkpt>
      <trkpt lat="47.20923" lon="-0.0518">
        <ele>39</ele>
        <time>2013-02-02T09:29:25.001Z</time>
      </trkpt>
      <trkpt lat="47.20923" lon="-0.05182">
        <ele>39</ele>
        <time>2013-02-02T09:29:26.001Z</time>
      </trkpt>
      <trkpt lat="47.20923" lon="-0.05187">
        <ele>39</ele>
        <time>2013-02-02T09:29:28.001Z</time>
      </trkpt>
      <trkpt lat="47.20922" lon="-0.05189">
        <ele>39</ele>
        <time>2013-02-02T09:29:29.001Z</time>
      </trkpt>
      <trkpt lat="47.20921" lon="-0.05193">
        <ele>39</ele>
        <time>2013-02-02T09:29:31.001Z</time>
      </trkpt>
      <trkpt lat="47.20921" lon="-0.05196">
        <ele>39</ele>
        <time>2013-02-02T09:29:32.001Z</time>
      </trkpt>
      <trkpt lat="47.2092" lon="-0.05201">
        <ele>39</ele>
        <time>2013-02-02T09:29:34.001Z</time>
      </trkpt>
      <trkpt lat="47.2092" lon="-0.05204">
        <ele>39</ele>
        <time>2013-02-02T09:29:35.001Z</time>
      </trkpt>
      <trkpt lat="47.20919" lon="-0.05209">
        <ele>39</ele>
        <time>2013-02-02T09:29:37.001Z</time>
      </trkpt>
      <trkpt lat="47.20919" lon="-0.05212">
        <ele>39</ele>
        <time>2013-02-02T09:29:38.001Z</time>
      </trkpt>
      <trkpt lat="47.20919" lon="-0.05219">
        <ele>39</ele>
        <time>2013-02-02T09:29:42.001Z</time>
      </trkpt>
      <trkpt lat="47.20919" lon="-0.05221">
        <ele>39</ele>
        <time>2013-02-02T09:29:43.001Z</time>
      </trkpt>
      <trkpt lat="47.20919" lon="-0.05227">
        <ele>39</ele>
        <time>2013-02-02T09:29:46.001Z</time>
      </trkpt>
      <trkpt lat="47.20919" lon="-0.05229">
        <ele>39</ele>
        <time>2013-02-02T09:29:47.001Z</time>
      </trkpt>
      <trkpt lat="47.20919" lon="-0.05234">
        <ele>39</ele>
        <time>2013-02-02T09:29:49.001Z</time>
      </trkpt>
      <trkpt lat="47.20919" lon="-0.05237">
        <ele>39</ele>
        <time>2013-02-02T09:29:50.001Z</time>
      </trkpt>
      <trkpt lat="47.20919" lon="-0.05241">
        <ele>39</ele>
        <time>2013-02-02T09:29:52.001Z</time>
      </trkpt>
      <trkpt lat="47.20919" lon="-0.05244">
        <ele>39</ele>
        <time>2013-02-02T09:29:53.001Z</time>
      </trkpt>
      <trkpt lat="47.20918" lon="-0.05249">
        <ele>39</ele>
        <time>2013-02-02T09:29:56.001Z</time>
      </trkpt>
      <trkpt lat="47.20918" lon="-0.05251">
        <ele>39</ele>
        <time>2013-02-02T09:29:57.001Z</time>
      </trkpt>
      <trkpt lat="47.20918" lon="-0.05257">
        <ele>39</ele>
        <time>2013-02-02T09:29:59.001Z</time>
      </trkpt>
      <trkpt lat="47.20917" lon="-0.0526">
        <ele>39</ele>
        <time>2013-02-02T09:30:00.001Z</time>
      </trkpt>
      <trkpt lat="47.20917" lon="-0.05264">
        <ele>39</ele>
        <time>2013-02-02T09:30:02.001Z</time>
      </trkpt>
      <trkpt lat="47.20917" lon="-0.05267">
        <ele>39</ele>
        <time>2013-02-02T09:30:03.001Z</time>
      </trkpt>
      <trkpt lat="47.20917" lon="-0.05273">
        <ele>39</ele>
        <time>2013-02-02T09:30:05.001Z</time>
      </trkpt>
      <trkpt lat="47.20917" lon="-0.05275">
        <ele>39</ele>
        <time>2013-02-02T09:30:06.001Z</time>
      </trkpt>
      <trkpt lat="47.20916" lon="-0.05281">
        <ele>38</ele>
        <time>2013-02-02T09:30:09.001Z</time>
      </trkpt>
      <trkpt lat="47.20914" lon="-0.05283">
        <ele>38</ele>
        <time>2013-02-02T09:30:10.001Z</time>
      </trkpt>
      <trkpt lat="47.20911" lon="-0.05285">
        <ele>38</ele>
        <time>2013-02-02T09:30:12.001Z</time>
      </trkpt>
      <trkpt lat="47.20909" lon="-0.05287">
        <ele>38</ele>
        <time>2013-02-02T09:30:13.001Z</time>
      </trkpt>
      <trkpt lat="47.20905" lon="-0.05287">
        <ele>38</ele>
        <time>2013-02-02T09:30:16.001Z</time>
      </trkpt>
      <trkpt lat="47.20903" lon="-0.05287">
        <ele>38</ele>
        <time>2013-02-02T09:30:17.001Z</time>
      </trkpt>
      <trkpt lat="47.20899" lon="-0.05284">
        <ele>38</ele>
        <time>2013-02-02T09:30:19.001Z</time>
      </trkpt>
      <trkpt lat="47.20897" lon="-0.05283">
        <ele>38</ele>
        <time>2013-02-02T09:30:20.001Z</time>
      </trkpt>
      <trkpt lat="47.20894" lon="-0.05281">
        <ele>38</ele>
        <time>2013-02-02T09:30:22.001Z</time>
      </trkpt>
      <trkpt lat="47.20893" lon="-0.0528">
        <ele>38</ele>
        <time>2013-02-02T09:30:23.001Z</time>
      </trkpt>
      <trkpt lat="47.20889" lon="-0.05277">
        <ele>38</ele>
        <time>2013-02-02T09:30:26.001Z</time>
      </trkpt>
      <trkpt lat="47.20888" lon="-0.05276">
        <ele>38</ele>
        <time>2013-02-02T09:30:27.001Z</time>
      </trkpt>
      <trkpt lat="47.20885" lon="-0.05273">
        <ele>38</ele>
        <time>2013-02-02T09:30:29.001Z</time>
      </trkpt>
      <trkpt lat="47.20884" lon="-0.05271">
        <ele>37</ele>
        <time>2013-02-02T09:30:30.001Z</time>
      </trkpt>
      <trkpt lat="47.20881" lon="-0.05269">
        <ele>37</ele>
        <time>2013-02-02T09:30:32.001Z</time>
      </trkpt>
      <trkpt lat="47.2088" lon="-0.05267">
        <ele>37</ele>
        <time>2013-02-02T09:30:33.001Z</time>
      </trkpt>
      <trkpt lat="47.20877" lon="-0.05263">
        <ele>37</ele>
        <time>2013-02-02T09:30:36.001Z</time>
      </trkpt>
      <trkpt lat="47.20876" lon="-0.05262">
        <ele>37</ele>
        <time>2013-02-02T09:30:37.001Z</time>
      </trkpt>
      <trkpt lat="47.20872" lon="-0.05262">
        <ele>37</ele>
        <time>2013-02-02T09:30:40.001Z</time>
      </trkpt>
      <trkpt lat="47.20871" lon="-0.05262">
        <ele>37</ele>
        <time>2013-02-02T09:30:41.001Z</time>
      </trkpt>
      <trkpt lat="47.20867" lon="-0.05259">
        <ele>37</ele>
        <time>2013-02-02T09:30:44.001Z</time>
      </trkpt>
      <trkpt lat="47.20866" lon="-0.05259">
        <ele>37</ele>
        <time>2013-02-02T09:30:45.001Z</time>
      </trkpt>
      <trkpt lat="47.20863" lon="-0.05255">
        <ele>37</ele>
        <time>2013-02-02T09:30:47.001Z</time>
      </trkpt>
      <trkpt lat="47.20862" lon="-0.05255">
        <ele>37</ele>
        <time>2013-02-02T09:30:48.001Z</time>
      </trkpt>
      <trkpt lat="47.20859" lon="-0.05251">
        <ele>37</ele>
        <time>2013-02-02T09:30:50.001Z</time>
      </trkpt>
      <trkpt lat="47.20858" lon="-0.0525">
        <ele>37</ele>
        <time>2013-02-02T09:30:51.001Z</time>
      </trkpt>
      <trkpt lat="47.20855" lon="-0.05248">
        <ele>37</ele>
        <time>2013-02-02T09:30:53.001Z</time>
      </trkpt>
      <trkpt lat="47.20853" lon="-0.05246">
        <ele>37</ele>
        <time>2013-02-02T09:30:54.001Z</time>
      </trkpt>
      <trkpt lat="47.20851" lon="-0.05243">
        <ele>37</ele>
        <time>2013-02-02T09:30:56.001Z</time>
      </trkpt>
      <trkpt lat="47.20849" lon="-0.05242">
        <ele>37</ele>
        <time>2013-02-02T09:30:57.001Z</time>
      </trkpt>
      <trkpt lat="47.20846" lon="-0.05239">
        <ele>37</ele>
        <time>2013-02-02T09:30:59.001Z</time>
      </trkpt>
      <trkpt lat="47.20845" lon="-0.05237">
        <ele>37</ele>
        <time>2013-02-02T09:31:00.001Z</time>
      </trkpt>
      <trkpt lat="47.20843" lon="-0.05234">
        <ele>37</ele>
        <time>2013-02-02T09:31:03.001Z</time>
      </trkpt>
      <trkpt lat="47.20842" lon="-0.05233">
        <ele>37</ele>
        <time>2013-02-02T09:31:04.001Z</time>
      </trkpt>
      <trkpt lat="47.20839" lon="-0.05229">
        <ele>37</ele>
        <time>2013-02-02T09:31:07.001Z</time>
      </trkpt>
      <trkpt lat="47.20838" lon="-0.05227">
        <ele>37</ele>
        <time>2013-02-02T09:31:08.001Z</time>
      </trkpt>
      <trkpt lat="47.20835" lon="-0.05221">
        <ele>37</ele>
        <time>2013-02-02T09:31:11.001Z</time>
      </trkpt>
      <trkpt lat="47.20834" lon="-0.0522">
        <ele>37</ele>
        <time>2013-02-02T09:31:12.001Z</time>
      </trkpt>
      <trkpt lat="47.20832" lon="-0.05216">
        <ele>36</ele>
        <time>2013-02-02T09:31:14.001Z</time>
      </trkpt>
      <trkpt lat="47.20831" lon="-0.05213">
        <ele>36</ele>
        <time>2013-02-02T09:31:15.001Z</time>
      </trkpt>
      <trkpt lat="47.20829" lon="-0.05208">
        <ele>36</ele>
        <time>2013-02-02T09:31:17.001Z</time>
      </trkpt>
      <trkpt lat="47.20829" lon="-0.05206">
        <ele>36</ele>
        <time>2013-02-02T09:31:18.001Z</time>
      </trkpt>
      <trkpt lat="47.20826" lon="-0.05202">
        <ele>36</ele>
        <time>2013-02-02T09:31:21.001Z</time>
      </trkpt>
      <trkpt lat="47.20824" lon="-0.052">
        <ele>36</ele>
        <time>2013-02-02T09:31:22.001Z</time>
      </trkpt>
      <trkpt lat="47.20822" lon="-0.05197">
        <ele>36</ele>
        <time>2013-02-02T09:31:24.001Z</time>
      </trkpt>
      <trkpt lat="47.2082" lon="-0.05196">
        <ele>36</ele>
        <time>2013-02-02T09:31:25.001Z</time>
      </trkpt>
      <trkpt lat="47.20817" lon="-0.05193">
        <ele>36</ele>
        <time>2013-02-02T09:31:27.001Z</time>
      </trkpt>
      <trkpt lat="47.20816" lon="-0.05191">
        <ele>36</ele>
        <time>2013-02-02T09:31:28.001Z</time>
      </trkpt>
      <trkpt lat="47.20813" lon="-0.05187">
        <ele>36</ele>
        <time>2013-02-02T09:31:31.001Z</time>
      </trkpt>
      <trkpt lat="47.20812" lon="-0.05185">
        <ele>36</ele>
        <time>2013-02-02T09:31:32.001Z</time>
      </trkpt>
      <trkpt lat="47.2081" lon="-0.05183">
        <ele>36</ele>
        <time>2013-02-02T09:31:34.001Z</time>
      </trkpt>
      <trkpt lat="47.20808" lon="-0.05181">
        <ele>36</ele>
        <time>2013-02-02T09:31:35.001Z</time>
      </trkpt>
      <trkpt lat="47.20805" lon="-0.05179">
        <ele>36</ele>
        <time>2013-02-02T09:31:38.001Z</time>
      </trkpt>
      <trkpt lat="47.20804" lon="-0.05179">
        <ele>35</ele>
        <time>2013-02-02T09:31:39.001Z</time>
      </trkpt>
      <trkpt lat="47.208" lon="-0.05178">
        <ele>35</ele>
        <time>2013-02-02T09:31:42.001Z</time>
      </trkpt>
      <trkpt lat="47.20799" lon="-0.05177">
        <ele>35</ele>
        <time>2013-02-02T09:31:43.001Z</time>
      </trkpt>
      <trkpt lat="47.20795" lon="-0.05176">
        <ele>35</ele>
        <time>2013-02-02T09:31:45.001Z</time>
      </trkpt>
      <trkpt lat="47.20794" lon="-0.05175">
        <ele>35</ele>
        <time>2013-02-02T09:31:46.001Z</time>
      </trkpt>
      <trkpt lat="47.20791" lon="-0.05173">
        <ele>35</ele>
        <time>2013-02-02T09:31:48.001Z</time>
      </trkpt>
      <trkpt lat="47.2079" lon="-0.05172">
        <ele>35</ele>
        <time>2013-02-02T09:31:49.001Z</time>
      </trkpt>
      <trkpt lat="47.20787" lon="-0.0517">
        <ele>35</ele>
        <time>2013-02-02T09:31:51.001Z</time>
      </trkpt>
      <trkpt lat="47.20786" lon="-0.05168">
        <ele>35</ele>
        <time>2013-02-02T09:31:52.001Z</time>
      </trkpt>
      <trkpt lat="47.20782" lon="-0.05165">
        <ele>35</ele>
        <time>2013-02-02T09:31:54.001Z</time>
      </trkpt>
      <trkpt lat="47.20781" lon="-0.05163">
        <ele>35</ele>
        <time>2013-02-02T09:31:55.001Z</time>
      </trkpt>
      <trkpt lat="47.20778" lon="-0.05159">
        <ele>35</ele>
        <time>2013-02-02T09:31:58.001Z</time>
      </trkpt>
      <trkpt lat="47.20778" lon="-0.05157">
        <ele>35</ele>
        <time>2013-02-02T09:31:59.001Z</time>
      </trkpt>
      <trkpt lat="47.20775" lon="-0.05154">
        <ele>35</ele>
        <time>2013-02-02T09:32:02.001Z</time>
      </trkpt>
      <trkpt lat="47.20774" lon="-0.05153">
        <ele>35</ele>
        <time>2013-02-02T09:32:03.001Z</time>
      </trkpt>
      <trkpt lat="47.20769" lon="-0.05152">
        <ele>35</ele>
        <time>2013-02-02T09:32:07.001Z</time>
      </trkpt>
      <trkpt lat="47.20767" lon="-0.05153">
        <ele>35</ele>
        <time>2013-02-02T09:32:08.001Z</time>
      </trkpt>
      <trkpt lat="47.20763" lon="-0.05155">
        <ele>35</ele>
        <time>2013-02-02T09:32:10.001Z</time>
      </trkpt>
      <trkpt lat="47.20762" lon="-0.05155">
        <ele>34</ele>
        <time>2013-02-02T09:32:11.001Z</time>
      </trkpt>
      <trkpt lat="47.20758" lon="-0.05157">
        <ele>34</ele>
        <time>2013-02-02T09:32:13.001Z</time>
      </trkpt>
      <trkpt lat="47.20757" lon="-0.05157">
        <ele>34</ele>
        <time>2013-02-02T09:32:14.001Z</time>
      </trkpt>
      <trkpt lat="47.20753" lon="-0.05157">
        <ele>34</ele>
        <time>2013-02-02T09:32:16.001Z</time>
      </trkpt>
      <trkpt lat="47.20751" lon="-0.05157">
        <ele>34</ele>
        <time>2013-02-02T09:32:17.001Z</time>
      </trkpt>
      <trkpt lat="47.20747" lon="-0.05156">
        <ele>34</ele>
        <time>2013-02-02T09:32:20.001Z</time>
      </trkpt>
      <trkpt lat="47.20746" lon="-0.05155">
        <ele>34</ele>
        <time>2013-02-02T09:32:21.001Z</time>
      </trkpt>
      <trkpt lat="47.20742" lon="-0.05155">
        <ele>34</ele>
        <time>2013-02-02T09:32:24.001Z</time>
      </trkpt>
      <trkpt lat="47.2074" lon="-0.05155">
        <ele>34</ele>
        <time>2013-02-02T09:32:25.001Z</time>
      </trkpt>
      <trkpt lat="47.20737" lon="-0.05155">
        <ele>34</ele>
        <time>2013-02-02T09:32:27.001Z</time>
      </trkpt>
      <trkpt lat="47.20735" lon="-0.05155">
        <ele>34</ele>
        <time>2013-02-02T09:32:28.001Z</time>
      </trkpt>
      <trkpt lat="47.20731" lon="-0.05155">
        <ele>34</ele>
        <time>2013-02-02T09:32:31.001Z</time>
      </trkpt>
      <trkpt lat="47.2073" lon="-0.05155">
        <ele>34</ele>
        <time>2013-02-02T09:32:32.001Z</time>
      </trkpt>
      <trkpt lat="47.20726" lon="-0.05155">
        <ele>34</ele>
        <time>2013-02-02T09:32:34.001Z</time>
      </trkpt>
      <trkpt lat="47.20724" lon="-0.05155">
        <ele>34</ele>
        <time>2013-02-02T09:32:35.001Z</time>
      </trkpt>
      <trkpt lat="47.20721" lon="-0.05154">
        <ele>34</ele>
        <time>2013-02-02T09:32:37.001Z</time>
      </trkpt>
      <trkpt lat="47.20719" lon="-0.05153">
        <ele>34</ele>
        <time>2013-02-02T09:32:38.001Z</time>
      </trkpt>
      <trkpt lat="47.20715" lon="-0.05151">
        <ele>34</ele>
        <time>2013-02-02T09:32:40.001Z</time>
      </trkpt>
      <trkpt lat="47.20714" lon="-0.0515">
        <ele>34</ele>
        <time>2013-02-02T09:32:41.001Z</time>
      </trkpt>
      <trkpt lat="47.2071" lon="-0.05147">
        <ele>34</ele>
        <time>2013-02-02T09:32:44.001Z</time>
      </trkpt>
      <trkpt lat="47.20709" lon="-0.05145">
        <ele>34</ele>
        <time>2013-02-02T09:32:45.001Z</time>
      </trkpt>
      <trkpt lat="47.20706" lon="-0.05141">
        <ele>34</ele>
        <time>2013-02-02T09:32:47.001Z</time>
      </trkpt>
      <trkpt lat="47.20705" lon="-0.0514">
        <ele>34</ele>
        <time>2013-02-02T09:32:48.001Z</time>
      </trkpt>
      <trkpt lat="47.20704" lon="-0.05135">
        <ele>34</ele>
        <time>2013-02-02T09:32:50.001Z</time>
      </trkpt>
      <trkpt lat="47.20703" lon="-0.05133">
        <ele>34</ele>
        <time>2013-02-02T09:32:51.001Z</time>
      </trkpt>
      <trkpt lat="47.20702" lon="-0.05128">
        <ele>34</ele>
        <time>2013-02-02T09:32:53.001Z</time>
      </trkpt>
      <trkpt lat="47.20701" lon="-0.05126">
        <ele>34</ele>
        <time>2013-02-02T09:32:54.001Z</time>
      </trkpt>
      <trkpt lat="47.20701" lon="-0.0512">
        <ele>34</ele>
        <time>2013-02-02T09:32:57.001Z</time>
      </trkpt>
      <trkpt lat="47.20701" lon="-0.05117">
        <ele>34</ele>
        <time>2013-02-02T09:32:58.001Z</time>
      </trkpt>
      <trkpt lat="47.20701" lon="-0.05114">
        <ele>34</ele>
        <time>2013-02-02T09:32:59.001Z</time>
      </trkpt>
      <trkpt lat="47.20701" lon="-0.0511">
        <ele>34</ele>
        <time>2013-02-02T09:33:00.001Z</time>
      </trkpt>
      <trkpt lat="47.20702" lon="-0.05105">
        <ele>34</ele>
        <time>2013-02-02T09:33:02.001Z</time>
      </trkpt>
      <trkpt lat="47.20702" lon="-0.05102">
        <ele>34</ele>
        <time>2013-02-02T09:33:03.001Z</time>
      </trkpt>
      <trkpt lat="47.20702" lon="-0.05098">
        <ele>34</ele>
        <time>2013-02-02T09:33:05.001Z</time>
      </trkpt>
      <trkpt lat="47.20702" lon="-0.05095">
        <ele>34</ele>
        <time>2013-02-02T09:33:06.001Z</time>
      </trkpt>
      <trkpt lat="47.20702" lon="-0.05091">
        <ele>34</ele>
        <time>2013-02-02T09:33:08.001Z</time>
      </trkpt>
      <trkpt lat="47.20702" lon="-0.05088">
        <ele>34</ele>
        <time>2013-02-02T09:33:09.001Z</time>
      </trkpt>
      <trkpt lat="47.20702" lon="-0.05083">
        <ele>33</ele>
        <time>2013-02-02T09:33:11.001Z</time>
      </trkpt>
      <trkpt lat="47.20702" lon="-0.05081">
        <ele>33</ele>
        <time>2013-02-02T09:33:12.001Z</time>
      </trkpt>
      <trkpt lat="47.20701" lon="-0.05075">
        <ele>33</ele>
        <time>2013-02-02T09:33:14.001Z</time>
      </trkpt>
      <trkpt lat="47.20701" lon="-0.05073">
        <ele>33</ele>
        <time>2013-02-02T09:33:15.001Z</time>
      </trkpt>
      <trkpt lat="47.20701" lon="-0.05068">
        <ele>33</ele>
        <time>2013-02-02T09:33:17.001Z</time>
      </trkpt>
      <trkpt lat="47.20701" lon="-0.05066">
        <ele>33</ele>
        <time>2013-02-02T09:33:18.001Z</time>
      </trkpt>
      <trkpt lat="47.207" lon="-0.05059">
        <ele>33</ele>
        <time>2013-02-02T09:33:21.001Z</time>
      </trkpt>
      <trkpt lat="47.207" lon="-0.05057">
        <ele>33</ele>
        <time>2013-02-02T09:33:22.001Z</time>
      </trkpt>
      <trkpt lat="47.20699" lon="-0.05052">
        <ele>33</ele>
        <time>2013-02-02T09:33:25.001Z</time>
      </trkpt>
      <trkpt lat="47.20699" lon="-0.0505">
        <ele>33</ele>
        <time>2013-02-02T09:33:26.001Z</time>
      </trkpt>
      <trkpt lat="47.20699" lon="-0.05045">
        <ele>33</ele>
        <time>2013-02-02T09:33:30.001Z</time>
      </trkpt>
      <trkpt lat="47.20699" lon="-0.05042">
        <ele>33</ele>
        <time>2013-02-02T09:33:31.001Z</time>
      </trkpt>
      <trkpt lat="47.20699" lon="-0.05036">
        <ele>33</ele>
        <time>2013-02-02T09:33:33.001Z</time>
      </trkpt>
      <trkpt lat="47.20699" lon="-0.05035">
        <ele>33</ele>
        <time>2013-02-02T09:33:34.001Z</time>
      </trkpt>
      <trkpt lat="47.20698" lon="-0.0503">
        <ele>33</ele>
        <time>2013-02-02T09:33:36.001Z</time>
      </trkpt>
      <trkpt lat="47.20698" lon="-0.05027">
        <ele>33</ele>
        <time>2013-02-02T09:33:37.001Z</time>
      </trkpt>
      <trkpt lat="47.20698" lon="-0.0502">
        <ele>33</ele>
        <time>2013-02-02T09:33:40.001Z</time>
      </trkpt>
      <trkpt lat="47.20698" lon="-0.05018">
        <ele>33</ele>
        <time>2013-02-02T09:33:41.001Z</time>
      </trkpt>
      <trkpt lat="47.20698" lon="-0.05012">
        <ele>33</ele>
        <time>2013-02-02T09:33:44.001Z</time>
      </trkpt>
      <trkpt lat="47.20698" lon="-0.05009">
        <ele>33</ele>
        <time>2013-02-02T09:33:45.001Z</time>
      </trkpt>
      <trkpt lat="47.20697" lon="-0.05004">
        <ele>33</ele>
        <time>2013-02-02T09:33:47.001Z</time>
      </trkpt>
      <trkpt lat="47.20696" lon="-0.05002">
        <ele>33</ele>
        <time>2013-02-02T09:33:48.001Z</time>
      </trkpt>
      <trkpt lat="47.20695" lon="-0.04998">
        <ele>33</ele>
        <time>2013-02-02T09:33:50.001Z</time>
      </trkpt>
      <trkpt lat="47.20695" lon="-0.04996">
        <ele>33</ele>
        <time>2013-02-02T09:33:51.001Z</time>
      </trkpt>
      <trkpt lat="47.20694" lon="-0.0499">
        <ele>33</ele>
        <time>2013-02-02T09:33:54.001Z</time>
      </trkpt>
      <trkpt lat="47.20693" lon="-0.04989">
        <ele>33</ele>
        <time>2013-02-02T09:33:55.001Z</time>
      </trkpt>
      <trkpt lat="47.20691" lon="-0.04983">
        <ele>33</ele>
        <time>2013-02-02T09:33:57.001Z</time>
      </trkpt>
      <trkpt lat="47.20691" lon="-0.04981">
        <ele>33</ele>
        <time>2013-02-02T09:33:58.001Z</time>
      </trkpt>
      <trkpt lat="47.20689" lon="-0.04975">
        <ele>33</ele>
        <time>2013-02-02T09:34:01.001Z</time>
      </trkpt>
      <trkpt lat="47.20689" lon="-0.04975">
        <ele>33</ele>
        <time>2013-02-02T09:34:02.001Z</time>
      </trkpt>
      <trkpt lat="47.20687" lon="-0.04971">
        <ele>33</ele>
        <time>2013-02-02T09:34:04.001Z</time>
      </trkpt>
      <trkpt lat="47.20686" lon="-0.04969">
        <ele>33</ele>
        <time>2013-02-02T09:34:05.001Z</time>
      </trkpt>
      <trkpt lat="47.20684" lon="-0.04964">
        <ele>33</ele>
        <time>2013-02-02T09:34:08.001Z</time>
      </trkpt>
      <trkpt lat="47.20683" lon="-0.04963">
        <ele>33</ele>
        <time>2013-02-02T09:34:09.001Z</time>
      </trkpt>
      <trkpt lat="47.20681" lon="-0.04958">
        <ele>33</ele>
        <time>2013-02-02T09:34:12.001Z</time>
      </trkpt>
      <trkpt lat="47.2068" lon="-0.04956">
        <ele>33</ele>
        <time>2013-02-02T09:34:13.001Z</time>
      </trkpt>
      <trkpt lat="47.20677" lon="-0.04952">
        <ele>33</ele>
        <time>2013-02-02T09:34:16.001Z</time>
      </trkpt>
      <trkpt lat="47.20676" lon="-0.04951">
        <ele>33</ele>
        <time>2013-02-02T09:34:17.001Z</time>
      </trkpt>
      <trkpt lat="47.20675" lon="-0.04947">
        <ele>33</ele>
        <time>2013-02-02T09:34:19.001Z</time>
      </trkpt>
      <trkpt lat="47.20674" lon="-0.04945">
        <ele>33</ele>
        <time>2013-02-02T09:34:20.001Z</time>
      </trkpt>
      <trkpt lat="47.20671" lon="-0.0494">
        <ele>34</ele>
        <time>2013-02-02T09:34:23.001Z</time>
      </trkpt>
      <trkpt lat="47.2067" lon="-0.04938">
        <ele>34</ele>
        <time>2013-02-02T09:34:24.001Z</time>
      </trkpt>
      <trkpt lat="47.20667" lon="-0.04934">
        <ele>34</ele>
        <time>2013-02-02T09:34:27.001Z</time>
      </trkpt>
      <trkpt lat="47.20666" lon="-0.04933">
        <ele>34</ele>
        <time>2013-02-02T09:34:28.001Z</time>
      </trkpt>
      <trkpt lat="47.20664" lon="-0.04929">
        <ele>34</ele>
        <time>2013-02-02T09:34:30.001Z</time>
      </trkpt>
      <trkpt lat="47.20662" lon="-0.04927">
        <ele>34</ele>
        <time>2013-02-02T09:34:31.001Z</time>
      </trkpt>
      <trkpt lat="47.2066" lon="-0.04922">
        <ele>34</ele>
        <time>2013-02-02T09:34:35.001Z</time>
      </trkpt>
      <trkpt lat="47.2066" lon="-0.04922">
        <ele>34</ele>
        <time>2013-02-02T09:34:36.001Z</time>
      </trkpt>
      <trkpt lat="47.20658" lon="-0.04916">
        <ele>34</ele>
        <time>2013-02-02T09:34:40.001Z</time>
      </trkpt>
      <trkpt lat="47.20658" lon="-0.04915">
        <ele>34</ele>
        <time>2013-02-02T09:34:41.001Z</time>
      </trkpt>
      <trkpt lat="47.20656" lon="-0.0491">
        <ele>34</ele>
        <time>2013-02-02T09:34:46.001Z</time>
      </trkpt>
      <trkpt lat="47.20656" lon="-0.04908">
        <ele>34</ele>
        <time>2013-02-02T09:34:47.001Z</time>
      </trkpt>
      <trkpt lat="47.20655" lon="-0.04902">
        <ele>34</ele>
        <time>2013-02-02T09:34:51.001Z</time>
      </trkpt>
      <trkpt lat="47.20655" lon="-0.04901">
        <ele>34</ele>
        <time>2013-02-02T09:34:52.001Z</time>
      </trkpt>
      <trkpt lat="47.20654" lon="-0.04907">
        <ele>34</ele>
        <time>2013-02-02T09:35:39.001Z</time>
      </trkpt>
      <trkpt lat="47.20654" lon="-0.04908">
        <ele>34</ele>
        <time>2013-02-02T09:35:40.001Z</time>
      </trkpt>
      <trkpt lat="47.20651" lon="-0.04904">
        <ele>34</ele>
        <time>2013-02-02T09:37:07.001Z</time>
      </trkpt>
      <trkpt lat="47.2065" lon="-0.04903">
        <ele>34</ele>
        <time>2013-02-02T09:37:08.001Z</time>
      </trkpt>
      <trkpt lat="47.20646" lon="-0.049">
        <ele>34</ele>
        <time>2013-02-02T09:37:11.001Z</time>
      </trkpt>
      <trkpt lat="47.20645" lon="-0.04898">
        <ele>34</ele>
        <time>2013-02-02T09:37:12.001Z</time>
      </trkpt>
      <trkpt lat="47.20642" lon="-0.04894">
        <ele>34</ele>
        <time>2013-02-02T09:37:15.001Z</time>
      </trkpt>
      <trkpt lat="47.20641" lon="-0.04892">
        <ele>34</ele>
        <time>2013-02-02T09:37:16.001Z</time>
      </trkpt>
      <trkpt lat="47.20638" lon="-0.04888">
        <ele>34</ele>
        <time>2013-02-02T09:37:18.001Z</time>
      </trkpt>
      <trkpt lat="47.20637" lon="-0.04886">
        <ele>34</ele>
        <time>2013-02-02T09:37:19.001Z</time>
      </trkpt>
      <trkpt lat="47.20635" lon="-0.04883">
        <ele>34</ele>
        <time>2013-02-02T09:37:21.001Z</time>
      </trkpt>
      <trkpt lat="47.20633" lon="-0.04882">
        <ele>34</ele>
        <time>2013-02-02T09:37:22.001Z</time>
      </trkpt>
      <trkpt lat="47.20631" lon="-0.04878">
        <ele>34</ele>
        <time>2013-02-02T09:37:25.001Z</time>
      </trkpt>
      <trkpt lat="47.2063" lon="-0.04877">
        <ele>34</ele>
        <time>2013-02-02T09:37:26.001Z</time>
      </trkpt>
      <trkpt lat="47.20627" lon="-0.04873">
        <ele>34</ele>
        <time>2013-02-02T09:37:29.001Z</time>
      </trkpt>
      <trkpt lat="47.20626" lon="-0.0487">
        <ele>34</ele>
        <time>2013-02-02T09:37:30.001Z</time>
      </trkpt>
      <trkpt lat="47.20623" lon="-0.04866">
        <ele>34</ele>
        <time>2013-02-02T09:37:33.001Z</time>
      </trkpt>
      <trkpt lat="47.20622" lon="-0.04865">
        <ele>34</ele>
        <time>2013-02-02T09:37:34.001Z</time>
      </trkpt>
      <trkpt lat="47.20619" lon="-0.0486">
        <ele>34</ele>
        <time>2013-02-02T09:37:37.001Z</time>
      </trkpt>
      <trkpt lat="47.20618" lon="-0.04859">
        <ele>34</ele>
        <time>2013-02-02T09:37:38.001Z</time>
      </trkpt>
      <trkpt lat="47.20616" lon="-0.04856">
        <ele>34</ele>
        <time>2013-02-02T09:37:40.001Z</time>
      </trkpt>
      <trkpt lat="47.20614" lon="-0.04853">
        <ele>34</ele>
        <time>2013-02-02T09:37:41.001Z</time>
      </trkpt>
      <trkpt lat="47.20612" lon="-0.0485">
        <ele>34</ele>
        <time>2013-02-02T09:37:43.001Z</time>
      </trkpt>
      <trkpt lat="47.2061" lon="-0.04849">
        <ele>34</ele>
        <time>2013-02-02T09:37:44.001Z</time>
      </trkpt>
      <trkpt lat="47.20607" lon="-0.04845">
        <ele>34</ele>
        <time>2013-02-02T09:37:46.001Z</time>
      </trkpt>
      <trkpt lat="47.20606" lon="-0.04844">
        <ele>34</ele>
        <time>2013-02-02T09:37:47.001Z</time>
      </trkpt>
      <trkpt lat="47.20603" lon="-0.04842">
        <ele>34</ele>
        <time>2013-02-02T09:37:50.001Z</time>
      </trkpt>
      <trkpt lat="47.20602" lon="-0.04841">
        <ele>34</ele>
        <time>2013-02-02T09:37:51.001Z</time>
      </trkpt>
      <trkpt lat="47.20599" lon="-0.04837">
        <ele>34</ele>
        <time>2013-02-02T09:37:53.001Z</time>
      </trkpt>
      <trkpt lat="47.20598" lon="-0.04835">
        <ele>34</ele>
        <time>2013-02-02T09:37:54.001Z</time>
      </trkpt>
      <trkpt lat="47.20596" lon="-0.04832">
        <ele>33</ele>
        <time>2013-02-02T09:37:56.001Z</time>
      </trkpt>
      <trkpt lat="47.20595" lon="-0.0483">
        <ele>33</ele>
        <time>2013-02-02T09:37:57.001Z</time>
      </trkpt>
      <trkpt lat="47.20593" lon="-0.04827">
        <ele>33</ele>
        <time>2013-02-02T09:37:59.001Z</time>
      </trkpt>
      <trkpt lat="47.20592" lon="-0.04825">
        <ele>33</ele>
        <time>2013-02-02T09:38:00.001Z</time>
      </trkpt>
      <trkpt lat="47.2059" lon="-0.04821">
        <ele>33</ele>
        <time>2013-02-02T09:38:03.001Z</time>
      </trkpt>
      <trkpt lat="47.20589" lon="-0.0482">
        <ele>33</ele>
        <time>2013-02-02T09:38:04.001Z</time>
      </trkpt>
      <trkpt lat="47.20585" lon="-0.04817">
        <ele>33</ele>
        <time>2013-02-02T09:38:07.001Z</time>
      </trkpt>
      <trkpt lat="47.20584" lon="-0.04815">
        <ele>33</ele>
        <time>2013-02-02T09:38:08.001Z</time>
      </trkpt>
      <trkpt lat="47.20581" lon="-0.04811">
        <ele>34</ele>
        <time>2013-02-02T09:38:11.001Z</time>
      </trkpt>
      <trkpt lat="47.20581" lon="-0.0481">
        <ele>34</ele>
        <time>2013-02-02T09:38:12.001Z</time>
      </trkpt>
      <trkpt lat="47.20578" lon="-0.04806">
        <ele>34</ele>
        <time>2013-02-02T09:38:14.001Z</time>
      </trkpt>
      <trkpt lat="47.20577" lon="-0.04804">
        <ele>34</ele>
        <time>2013-02-02T09:38:15.001Z</time>
      </trkpt>
      <trkpt lat="47.20574" lon="-0.04799">
        <ele>34</ele>
        <time>2013-02-02T09:38:17.001Z</time>
      </trkpt>
      <trkpt lat="47.20572" lon="-0.04797">
        <ele>34</ele>
        <time>2013-02-02T09:38:18.001Z</time>
      </trkpt>
      <trkpt lat="47.20569" lon="-0.04793">
        <ele>34</ele>
        <time>2013-02-02T09:38:21.001Z</time>
      </trkpt>
      <trkpt lat="47.20568" lon="-0.04792">
        <ele>34</ele>
        <time>2013-02-02T09:38:22.001Z</time>
      </trkpt>
      <trkpt lat="47.20566" lon="-0.04789">
        <ele>34</ele>
        <time>2013-02-02T09:38:24.001Z</time>
      </trkpt>
      <trkpt lat="47.20565" lon="-0.04787">
        <ele>34</ele>
        <time>2013-02-02T09:38:25.001Z</time>
      </trkpt>
      <trkpt lat="47.20563" lon="-0.04781">
        <ele>34</ele>
        <time>2013-02-02T09:38:27.001Z</time>
      </trkpt>
      <trkpt lat="47.20562" lon="-0.04779">
        <ele>34</ele>
        <time>2013-02-02T09:38:28.001Z</time>
      </trkpt>
      <trkpt lat="47.2056" lon="-0.04774">
        <ele>34</ele>
        <time>2013-02-02T09:38:31.001Z</time>
      </trkpt>
      <trkpt lat="47.20559" lon="-0.04772">
        <ele>34</ele>
        <time>2013-02-02T09:38:32.001Z</time>
      </trkpt>
      <trkpt lat="47.20556" lon="-0.04768">
        <ele>34</ele>
        <time>2013-02-02T09:38:35.001Z</time>
      </trkpt>
      <trkpt lat="47.20555" lon="-0.04766">
        <ele>34</ele>
        <time>2013-02-02T09:38:36.001Z</time>
      </trkpt>
      <trkpt lat="47.20553" lon="-0.04763">
        <ele>34</ele>
        <time>2013-02-02T09:38:38.001Z</time>
      </trkpt>
      <trkpt lat="47.20552" lon="-0.0476">
        <ele>34</ele>
        <time>2013-02-02T09:38:39.001Z</time>
      </trkpt>
      <trkpt lat="47.20551" lon="-0.04754">
        <ele>34</ele>
        <time>2013-02-02T09:38:41.001Z</time>
      </trkpt>
      <trkpt lat="47.20551" lon="-0.04752">
        <ele>34</ele>
        <time>2013-02-02T09:38:42.001Z</time>
      </trkpt>
      <trkpt lat="47.2055" lon="-0.04747">
        <ele>34</ele>
        <time>2013-02-02T09:38:45.001Z</time>
      </trkpt>
      <trkpt lat="47.2055" lon="-0.04744">
        <ele>34</ele>
        <time>2013-02-02T09:38:46.001Z</time>
      </trkpt>
      <trkpt lat="47.20548" lon="-0.04739">
        <ele>34</ele>
        <time>2013-02-02T09:38:48.001Z</time>
      </trkpt>
      <trkpt lat="47.20548" lon="-0.04737">
        <ele>34</ele>
        <time>2013-02-02T09:38:49.001Z</time>
      </trkpt>
      <trkpt lat="47.20547" lon="-0.0473">
        <ele>34</ele>
        <time>2013-02-02T09:38:52.001Z</time>
      </trkpt>
      <trkpt lat="47.20546" lon="-0.04728">
        <ele>34</ele>
        <time>2013-02-02T09:38:53.001Z</time>
      </trkpt>
      <trkpt lat="47.20546" lon="-0.04722">
        <ele>34</ele>
        <time>2013-02-02T09:38:55.001Z</time>
      </trkpt>
      <trkpt lat="47.20546" lon="-0.04719">
        <ele>34</ele>
        <time>2013-02-02T09:38:56.001Z</time>
      </trkpt>
      <trkpt lat="47.20545" lon="-0.04714">
        <ele>34</ele>
        <time>2013-02-02T09:38:58.001Z</time>
      </trkpt>
      <trkpt lat="47.20545" lon="-0.04711">
        <ele>34</ele>
        <time>2013-02-02T09:38:59.001Z</time>
      </trkpt>
      <trkpt lat="47.20545" lon="-0.04706">
        <ele>34</ele>
        <time>2013-02-02T09:39:01.001Z</time>
      </trkpt>
      <trkpt lat="47.20545" lon="-0.04704">
        <ele>34</ele>
        <time>2013-02-02T09:39:02.001Z</time>
      </trkpt>
      <trkpt lat="47.20544" lon="-0.04698">
        <ele>34</ele>
        <time>2013-02-02T09:39:05.001Z</time>
      </trkpt>
      <trkpt lat="47.20544" lon="-0.04696">
        <ele>34</ele>
        <time>2013-02-02T09:39:06.001Z</time>
      </trkpt>
      <trkpt lat="47.20543" lon="-0.04691">
        <ele>34</ele>
        <time>2013-02-02T09:39:09.001Z</time>
      </trkpt>
      <trkpt lat="47.20543" lon="-0.04689">
        <ele>34</ele>
        <time>2013-02-02T09:39:10.001Z</time>
      </trkpt>
      <trkpt lat="47.20542" lon="-0.04684">
        <ele>34</ele>
        <time>2013-02-02T09:39:13.001Z</time>
      </trkpt>
      <trkpt lat="47.20542" lon="-0.04681">
        <ele>34</ele>
        <time>2013-02-02T09:39:14.001Z</time>
      </trkpt>
      <trkpt lat="47.20541" lon="-0.04676">
        <ele>34</ele>
        <time>2013-02-02T09:39:17.001Z</time>
      </trkpt>
      <trkpt lat="47.20542" lon="-0.04673">
        <ele>33</ele>
        <time>2013-02-02T09:39:18.001Z</time>
      </trkpt>
      <trkpt lat="47.20541" lon="-0.04668">
        <ele>33</ele>
        <time>2013-02-02T09:39:21.001Z</time>
      </trkpt>
      <trkpt lat="47.20541" lon="-0.04666">
        <ele>33</ele>
        <time>2013-02-02T09:39:22.001Z</time>
      </trkpt>
      <trkpt lat="47.20541" lon="-0.04659">
        <ele>33</ele>
        <time>2013-02-02T09:39:25.001Z</time>
      </trkpt>
      <trkpt lat="47.20541" lon="-0.04657">
        <ele>33</ele>
        <time>2013-02-02T09:39:26.001Z</time>
      </trkpt>
      <trkpt lat="47.20541" lon="-0.04652">
        <ele>33</ele>
        <time>2013-02-02T09:39:28.001Z</time>
      </trkpt>
      <trkpt lat="47.20541" lon="-0.04649">
        <ele>33</ele>
        <time>2013-02-02T09:39:29.001Z</time>
      </trkpt>
      <trkpt lat="47.20541" lon="-0.04643">
        <ele>33</ele>
        <time>2013-02-02T09:39:31.001Z</time>
      </trkpt>
      <trkpt lat="47.20541" lon="-0.0464">
        <ele>33</ele>
        <time>2013-02-02T09:39:32.001Z</time>
      </trkpt>
      <trkpt lat="47.20542" lon="-0.04635">
        <ele>33</ele>
        <time>2013-02-02T09:39:35.001Z</time>
      </trkpt>
      <trkpt lat="47.20542" lon="-0.04633">
        <ele>33</ele>
        <time>2013-02-02T09:39:36.001Z</time>
      </trkpt>
      <trkpt lat="47.20541" lon="-0.04627">
        <ele>33</ele>
        <time>2013-02-02T09:39:39.001Z</time>
      </trkpt>
      <trkpt lat="47.20541" lon="-0.04625">
        <ele>32</ele>
        <time>2013-02-02T09:39:40.001Z</time>
      </trkpt>
      <trkpt lat="47.20541" lon="-0.04621">
        <ele>32</ele>
        <time>2013-02-02T09:39:42.001Z</time>
      </trkpt>
      <trkpt lat="47.20541" lon="-0.04618">
        <ele>32</ele>
        <time>2013-02-02T09:39:43.001Z</time>
      </trkpt>
      <trkpt lat="47.20541" lon="-0.04613">
        <ele>32</ele>
        <time>2013-02-02T09:39:45.001Z</time>
      </trkpt>
      <trkpt lat="47.20541" lon="-0.0461">
        <ele>32</ele>
        <time>2013-02-02T09:39:46.001Z</time>
      </trkpt>
      <trkpt lat="47.2054" lon="-0.04603">
        <ele>32</ele>
        <time>2013-02-02T09:39:49.001Z</time>
      </trkpt>
      <trkpt lat="47.2054" lon="-0.04601">
        <ele>32</ele>
        <time>2013-02-02T09:39:50.001Z</time>
      </trkpt>
      <trkpt lat="47.2054" lon="-0.04594">
        <ele>32</ele>
        <time>2013-02-02T09:39:53.001Z</time>
      </trkpt>
      <trkpt lat="47.2054" lon="-0.04592">
        <ele>32</ele>
        <time>2013-02-02T09:39:54.001Z</time>
      </trkpt>
      <trkpt lat="47.20541" lon="-0.04586">
        <ele>32</ele>
        <time>2013-02-02T09:39:56.001Z</time>
      </trkpt>
      <trkpt lat="47.20541" lon="-0.04583">
        <ele>32</ele>
        <time>2013-02-02T09:39:57.001Z</time>
      </trkpt>
      <trkpt lat="47.20542" lon="-0.04577">
        <ele>32</ele>
        <time>2013-02-02T09:39:59.001Z</time>
      </trkpt>
      <trkpt lat="47.20543" lon="-0.04575">
        <ele>32</ele>
        <time>2013-02-02T09:40:00.001Z</time>
      </trkpt>
      <trkpt lat="47.20544" lon="-0.0457">
        <ele>33</ele>
        <time>2013-02-02T09:40:02.001Z</time>
      </trkpt>
      <trkpt lat="47.20545" lon="-0.04568">
        <ele>33</ele>
        <time>2013-02-02T09:40:03.001Z</time>
      </trkpt>
      <trkpt lat="47.20545" lon="-0.04563">
        <ele>33</ele>
        <time>2013-02-02T09:40:05.001Z</time>
      </trkpt>
      <trkpt lat="47.20545" lon="-0.04561">
        <ele>33</ele>
        <time>2013-02-02T09:40:06.001Z</time>
      </trkpt>
      <trkpt lat="47.20546" lon="-0.04556">
        <ele>33</ele>
        <time>2013-02-02T09:40:08.001Z</time>
      </trkpt>
      <trkpt lat="47.20546" lon="-0.04554">
        <ele>33</ele>
        <time>2013-02-02T09:40:09.001Z</time>
      </trkpt>
      <trkpt lat="47.20546" lon="-0.0455">
        <ele>33</ele>
        <time>2013-02-02T09:40:11.001Z</time>
      </trkpt>
      <trkpt lat="47.20546" lon="-0.04547">
        <ele>33</ele>
        <time>2013-02-02T09:40:12.001Z</time>
      </trkpt>
      <trkpt lat="47.20546" lon="-0.04542">
        <ele>33</ele>
        <time>2013-02-02T09:40:14.001Z</time>
      </trkpt>
      <trkpt lat="47.20546" lon="-0.0454">
        <ele>33</ele>
        <time>2013-02-02T09:40:15.001Z</time>
      </trkpt>
      <trkpt lat="47.20546" lon="-0.04535">
        <ele>33</ele>
        <time>2013-02-02T09:40:17.001Z</time>
      </trkpt>
      <trkpt lat="47.20547" lon="-0.04532">
        <ele>33</ele>
        <time>2013-02-02T09:40:18.001Z</time>
      </trkpt>
      <trkpt lat="47.20547" lon="-0.04527">
        <ele>33</ele>
        <time>2013-02-02T09:40:20.001Z</time>
      </trkpt>
      <trkpt lat="47.20547" lon="-0.04524">
        <ele>33</ele>
        <time>2013-02-02T09:40:21.001Z</time>
      </trkpt>
      <trkpt lat="47.20548" lon="-0.04519">
        <ele>33</ele>
        <time>2013-02-02T09:40:23.001Z</time>
      </trkpt>
      <trkpt lat="47.20548" lon="-0.04517">
        <ele>33</ele>
        <time>2013-02-02T09:40:24.001Z</time>
      </trkpt>
      <trkpt lat="47.20549" lon="-0.04511">
        <ele>33</ele>
        <time>2013-02-02T09:40:26.001Z</time>
      </trkpt>
      <trkpt lat="47.20549" lon="-0.04509">
        <ele>33</ele>
        <time>2013-02-02T09:40:27.001Z</time>
      </trkpt>
      <trkpt lat="47.20549" lon="-0.04504">
        <ele>33</ele>
        <time>2013-02-02T09:40:30.001Z</time>
      </trkpt>
      <trkpt lat="47.2055" lon="-0.04501">
        <ele>33</ele>
        <time>2013-02-02T09:40:31.001Z</time>
      </trkpt>
      <trkpt lat="47.2055" lon="-0.04495">
        <ele>34</ele>
        <time>2013-02-02T09:40:33.001Z</time>
      </trkpt>
      <trkpt lat="47.2055" lon="-0.04492">
        <ele>34</ele>
        <time>2013-02-02T09:40:34.001Z</time>
      </trkpt>
      <trkpt lat="47.20551" lon="-0.04486">
        <ele>34</ele>
        <time>2013-02-02T09:40:37.001Z</time>
      </trkpt>
      <trkpt lat="47.20551" lon="-0.04484">
        <ele>34</ele>
        <time>2013-02-02T09:40:38.001Z</time>
      </trkpt>
      <trkpt lat="47.20553" lon="-0.04478">
        <ele>34</ele>
        <time>2013-02-02T09:40:41.001Z</time>
      </trkpt>
      <trkpt lat="47.20553" lon="-0.04476">
        <ele>34</ele>
        <time>2013-02-02T09:40:42.001Z</time>
      </trkpt>
      <trkpt lat="47.20553" lon="-0.0447">
        <ele>34</ele>
        <time>2013-02-02T09:40:45.001Z</time>
      </trkpt>
      <trkpt lat="47.20553" lon="-0.04467">
        <ele>34</ele>
        <time>2013-02-02T09:40:46.001Z</time>
      </trkpt>
      <trkpt lat="47.20552" lon="-0.04462">
        <ele>34</ele>
        <time>2013-02-02T09:40:48.001Z</time>
      </trkpt>
      <trkpt lat="47.20553" lon="-0.04459">
        <ele>34</ele>
        <time>2013-02-02T09:40:49.001Z</time>
      </trkpt>
      <trkpt lat="47.20553" lon="-0.04454">
        <ele>34</ele>
        <time>2013-02-02T09:40:51.001Z</time>
      </trkpt>
      <trkpt lat="47.20553" lon="-0.04452">
        <ele>34</ele>
        <time>2013-02-02T09:40:52.001Z</time>
      </trkpt>
      <trkpt lat="47.20553" lon="-0.04445">
        <ele>34</ele>
        <time>2013-02-02T09:40:55.001Z</time>
      </trkpt>
      <trkpt lat="47.20553" lon="-0.04444">
        <ele>34</ele>
        <time>2013-02-02T09:40:56.001Z</time>
      </trkpt>
      <trkpt lat="47.20554" lon="-0.04439">
        <ele>34</ele>
        <time>2013-02-02T09:40:58.001Z</time>
      </trkpt>
      <trkpt lat="47.20554" lon="-0.04437">
        <ele>34</ele>
        <time>2013-02-02T09:40:59.001Z</time>
      </trkpt>
      <trkpt lat="47.20554" lon="-0.04432">
        <ele>34</ele>
        <time>2013-02-02T09:41:01.001Z</time>
      </trkpt>
      <trkpt lat="47.20554" lon="-0.0443">
        <ele>34</ele>
        <time>2013-02-02T09:41:02.001Z</time>
      </trkpt>
      <trkpt lat="47.20553" lon="-0.04424">
        <ele>34</ele>
        <time>2013-02-02T09:41:05.001Z</time>
      </trkpt>
      <trkpt lat="47.20553" lon="-0.04422">
        <ele>34</ele>
        <time>2013-02-02T09:41:06.001Z</time>
      </trkpt>
      <trkpt lat="47.20554" lon="-0.04416">
        <ele>34</ele>
        <time>2013-02-02T09:41:09.001Z</time>
      </trkpt>
      <trkpt lat="47.20554" lon="-0.04413">
        <ele>34</ele>
        <time>2013-02-02T09:41:10.001Z</time>
      </trkpt>
      <trkpt lat="47.20554" lon="-0.04408">
        <ele>34</ele>
        <time>2013-02-02T09:41:12.001Z</time>
      </trkpt>
      <trkpt lat="47.20554" lon="-0.04406">
        <ele>34</ele>
        <time>2013-02-02T09:41:13.001Z</time>
      </trkpt>
      <trkpt lat="47.20554" lon="-0.044">
        <ele>34</ele>
        <time>2013-02-02T09:41:15.001Z</time>
      </trkpt>
      <trkpt lat="47.20554" lon="-0.04398">
        <ele>34</ele>
        <time>2013-02-02T09:41:16.001Z</time>
      </trkpt>
      <trkpt lat="47.20555" lon="-0.04392">
        <ele>34</ele>
        <time>2013-02-02T09:41:19.001Z</time>
      </trkpt>
      <trkpt lat="47.20555" lon="-0.04389">
        <ele>34</ele>
        <time>2013-02-02T09:41:20.001Z</time>
      </trkpt>
      <trkpt lat="47.20555" lon="-0.04385">
        <ele>34</ele>
        <time>2013-02-02T09:41:22.001Z</time>
      </trkpt>
      <trkpt lat="47.20555" lon="-0.04383">
        <ele>34</ele>
        <time>2013-02-02T09:41:23.001Z</time>
      </trkpt>
      <trkpt lat="47.20556" lon="-0.04377">
        <ele>34</ele>
        <time>2013-02-02T09:41:25.001Z</time>
      </trkpt>
      <trkpt lat="47.20556" lon="-0.04375">
        <ele>34</ele>
        <time>2013-02-02T09:41:26.001Z</time>
      </trkpt>
      <trkpt lat="47.20556" lon="-0.04369">
        <ele>34</ele>
        <time>2013-02-02T09:41:29.001Z</time>
      </trkpt>
      <trkpt lat="47.20556" lon="-0.04366">
        <ele>34</ele>
        <time>2013-02-02T09:41:30.001Z</time>
      </trkpt>
      <trkpt lat="47.20556" lon="-0.04362">
        <ele>34</ele>
        <time>2013-02-02T09:41:32.001Z</time>
      </trkpt>
      <trkpt lat="47.20557" lon="-0.0436">
        <ele>34</ele>
        <time>2013-02-02T09:41:33.001Z</time>
      </trkpt>
      <trkpt lat="47.20557" lon="-0.04355">
        <ele>34</ele>
        <time>2013-02-02T09:41:35.001Z</time>
      </trkpt>
      <trkpt lat="47.20557" lon="-0.04353">
        <ele>34</ele>
        <time>2013-02-02T09:41:36.001Z</time>
      </trkpt>
      <trkpt lat="47.20558" lon="-0.04347">
        <ele>34</ele>
        <time>2013-02-02T09:41:38.001Z</time>
      </trkpt>
      <trkpt lat="47.20558" lon="-0.04344">
        <ele>34</ele>
        <time>2013-02-02T09:41:39.001Z</time>
      </trkpt>
      <trkpt lat="47.20558" lon="-0.04339">
        <ele>34</ele>
        <time>2013-02-02T09:41:41.001Z</time>
      </trkpt>
      <trkpt lat="47.20558" lon="-0.04338">
        <ele>34</ele>
        <time>2013-02-02T09:41:42.001Z</time>
      </trkpt>
      <trkpt lat="47.20559" lon="-0.04332">
        <ele>34</ele>
        <time>2013-02-02T09:41:45.001Z</time>
      </trkpt>
      <trkpt lat="47.20559" lon="-0.04329">
        <ele>34</ele>
        <time>2013-02-02T09:41:46.001Z</time>
      </trkpt>
      <trkpt lat="47.20559" lon="-0.04324">
        <ele>35</ele>
        <time>2013-02-02T09:41:48.001Z</time>
      </trkpt>
      <trkpt lat="47.20559" lon="-0.04321">
        <ele>35</ele>
        <time>2013-02-02T09:41:49.001Z</time>
      </trkpt>
      <trkpt lat="47.20559" lon="-0.04316">
        <ele>35</ele>
        <time>2013-02-02T09:41:52.001Z</time>
      </trkpt>
      <trkpt lat="47.20559" lon="-0.04313">
        <ele>35</ele>
        <time>2013-02-02T09:41:53.001Z</time>
      </trkpt>
      <trkpt lat="47.20559" lon="-0.04308">
        <ele>35</ele>
        <time>2013-02-02T09:41:55.001Z</time>
      </trkpt>
      <trkpt lat="47.20559" lon="-0.04305">
        <ele>35</ele>
        <time>2013-02-02T09:41:56.001Z</time>
      </trkpt>
      <trkpt lat="47.20559" lon="-0.043">
        <ele>35</ele>
        <time>2013-02-02T09:41:58.001Z</time>
      </trkpt>
      <trkpt lat="47.20558" lon="-0.04298">
        <ele>35</ele>
        <time>2013-02-02T09:41:59.001Z</time>
      </trkpt>
      <trkpt lat="47.20558" lon="-0.04293">
        <ele>35</ele>
        <time>2013-02-02T09:42:01.001Z</time>
      </trkpt>
      <trkpt lat="47.20557" lon="-0.0429">
        <ele>35</ele>
        <time>2013-02-02T09:42:02.001Z</time>
      </trkpt>
      <trkpt lat="47.20557" lon="-0.04284">
        <ele>35</ele>
        <time>2013-02-02T09:42:05.001Z</time>
      </trkpt>
      <trkpt lat="47.20557" lon="-0.04282">
        <ele>35</ele>
        <time>2013-02-02T09:42:06.001Z</time>
      </trkpt>
      <trkpt lat="47.20557" lon="-0.04277">
        <ele>35</ele>
        <time>2013-02-02T09:42:08.001Z</time>
      </trkpt>
      <trkpt lat="47.20557" lon="-0.04275">
        <ele>35</ele>
        <time>2013-02-02T09:42:09.001Z</time>
      </trkpt>
      <trkpt lat="47.20557" lon="-0.04269">
        <ele>35</ele>
        <time>2013-02-02T09:42:12.001Z</time>
      </trkpt>
      <trkpt lat="47.20557" lon="-0.04267">
        <ele>35</ele>
        <time>2013-02-02T09:42:13.001Z</time>
      </trkpt>
      <trkpt lat="47.20558" lon="-0.0426">
        <ele>35</ele>
        <time>2013-02-02T09:42:16.001Z</time>
      </trkpt>
      <trkpt lat="47.20558" lon="-0.04257">
        <ele>35</ele>
        <time>2013-02-02T09:42:17.001Z</time>
      </trkpt>
      <trkpt lat="47.20558" lon="-0.04253">
        <ele>35</ele>
        <time>2013-02-02T09:42:19.001Z</time>
      </trkpt>
      <trkpt lat="47.20558" lon="-0.0425">
        <ele>35</ele>
        <time>2013-02-02T09:42:20.001Z</time>
      </trkpt>
      <trkpt lat="47.20558" lon="-0.04246">
        <ele>35</ele>
        <time>2013-02-02T09:42:22.001Z</time>
      </trkpt>
      <trkpt lat="47.20558" lon="-0.04243">
        <ele>35</ele>
        <time>2013-02-02T09:42:23.001Z</time>
      </trkpt>
      <trkpt lat="47.20558" lon="-0.04237">
        <ele>35</ele>
        <time>2013-02-02T09:42:26.001Z</time>
      </trkpt>
      <trkpt lat="47.20558" lon="-0.04235">
        <ele>35</ele>
        <time>2013-02-02T09:42:27.001Z</time>
      </trkpt>
      <trkpt lat="47.20559" lon="-0.0423">
        <ele>35</ele>
        <time>2013-02-02T09:42:29.001Z</time>
      </trkpt>
      <trkpt lat="47.20559" lon="-0.04227">
        <ele>35</ele>
        <time>2013-02-02T09:42:30.001Z</time>
      </trkpt>
      <trkpt lat="47.20559" lon="-0.04221">
        <ele>35</ele>
        <time>2013-02-02T09:42:33.001Z</time>
      </trkpt>
      <trkpt lat="47.20559" lon="-0.04218">
        <ele>35</ele>
        <time>2013-02-02T09:42:34.001Z</time>
      </trkpt>
      <trkpt lat="47.2056" lon="-0.04213">
        <ele>35</ele>
        <time>2013-02-02T09:42:37.001Z</time>
      </trkpt>
      <trkpt lat="47.2056" lon="-0.0421">
        <ele>35</ele>
        <time>2013-02-02T09:42:38.001Z</time>
      </trkpt>
      <trkpt lat="47.20561" lon="-0.04206">
        <ele>36</ele>
        <time>2013-02-02T09:42:41.001Z</time>
      </trkpt>
      <trkpt lat="47.20561" lon="-0.04204">
        <ele>36</ele>
        <time>2013-02-02T09:42:42.001Z</time>
      </trkpt>
      <trkpt lat="47.20561" lon="-0.04199">
        <ele>36</ele>
        <time>2013-02-02T09:42:44.001Z</time>
      </trkpt>
      <trkpt lat="47.20562" lon="-0.04197">
        <ele>36</ele>
        <time>2013-02-02T09:42:45.001Z</time>
      </trkpt>
      <trkpt lat="47.20562" lon="-0.04191">
        <ele>36</ele>
        <time>2013-02-02T09:42:47.001Z</time>
      </trkpt>
      <trkpt lat="47.20562" lon="-0.04189">
        <ele>36</ele>
        <time>2013-02-02T09:42:48.001Z</time>
      </trkpt>
      <trkpt lat="47.20562" lon="-0.04184">
        <ele>36</ele>
        <time>2013-02-02T09:42:50.001Z</time>
      </trkpt>
      <trkpt lat="47.20562" lon="-0.04182">
        <ele>36</ele>
        <time>2013-02-02T09:42:51.001Z</time>
      </trkpt>
      <trkpt lat="47.20562" lon="-0.04177">
        <ele>36</ele>
        <time>2013-02-02T09:42:53.001Z</time>
      </trkpt>
      <trkpt lat="47.20562" lon="-0.04175">
        <ele>36</ele>
        <time>2013-02-02T09:42:54.001Z</time>
      </trkpt>
      <trkpt lat="47.20563" lon="-0.0417">
        <ele>36</ele>
        <time>2013-02-02T09:42:56.001Z</time>
      </trkpt>
      <trkpt lat="47.20563" lon="-0.04168">
        <ele>36</ele>
        <time>2013-02-02T09:42:57.001Z</time>
      </trkpt>
      <trkpt lat="47.20562" lon="-0.04162">
        <ele>36</ele>
        <time>2013-02-02T09:43:00.001Z</time>
      </trkpt>
      <trkpt lat="47.20562" lon="-0.0416">
        <ele>36</ele>
        <time>2013-02-02T09:43:01.001Z</time>
      </trkpt>
      <trkpt lat="47.20562" lon="-0.04155">
        <ele>36</ele>
        <time>2013-02-02T09:43:03.001Z</time>
      </trkpt>
      <trkpt lat="47.20562" lon="-0.04153">
        <ele>36</ele>
        <time>2013-02-02T09:43:04.001Z</time>
      </trkpt>
      <trkpt lat="47.20561" lon="-0.04148">
        <ele>36</ele>
        <time>2013-02-02T09:43:06.001Z</time>
      </trkpt>
      <trkpt lat="47.20561" lon="-0.04146">
        <ele>36</ele>
        <time>2013-02-02T09:43:07.001Z</time>
      </trkpt>
      <trkpt lat="47.20561" lon="-0.04141">
        <ele>36</ele>
        <time>2013-02-02T09:43:09.001Z</time>
      </trkpt>
      <trkpt lat="47.20561" lon="-0.04139">
        <ele>36</ele>
        <time>2013-02-02T09:43:10.001Z</time>
      </trkpt>
      <trkpt lat="47.20561" lon="-0.04133">
        <ele>36</ele>
        <time>2013-02-02T09:43:12.001Z</time>
      </trkpt>
      <trkpt lat="47.20561" lon="-0.04131">
        <ele>36</ele>
        <time>2013-02-02T09:43:13.001Z</time>
      </trkpt>
      <trkpt lat="47.2056" lon="-0.04126">
        <ele>36</ele>
        <time>2013-02-02T09:43:15.001Z</time>
      </trkpt>
      <trkpt lat="47.2056" lon="-0.04124">
        <ele>36</ele>
        <time>2013-02-02T09:43:16.001Z</time>
      </trkpt>
      <trkpt lat="47.20559" lon="-0.04118">
        <ele>36</ele>
        <time>2013-02-02T09:43:19.001Z</time>
      </trkpt>
      <trkpt lat="47.20559" lon="-0.04116">
        <ele>36</ele>
        <time>2013-02-02T09:43:20.001Z</time>
      </trkpt>
      <trkpt lat="47.2056" lon="-0.0411">
        <ele>36</ele>
        <time>2013-02-02T09:43:23.001Z</time>
      </trkpt>
      <trkpt lat="47.2056" lon="-0.04108">
        <ele>36</ele>
        <time>2013-02-02T09:43:24.001Z</time>
      </trkpt>
      <trkpt lat="47.2056" lon="-0.04102">
        <ele>36</ele>
        <time>2013-02-02T09:43:27.001Z</time>
      </trkpt>
      <trkpt lat="47.2056" lon="-0.041">
        <ele>36</ele>
        <time>2013-02-02T09:43:28.001Z</time>
      </trkpt>
      <trkpt lat="47.2056" lon="-0.04095">
        <ele>36</ele>
        <time>2013-02-02T09:43:30.001Z</time>
      </trkpt>
      <trkpt lat="47.20561" lon="-0.04093">
        <ele>36</ele>
        <time>2013-02-02T09:43:31.001Z</time>
      </trkpt>
      <trkpt lat="47.20561" lon="-0.04088">
        <ele>36</ele>
        <time>2013-02-02T09:43:33.001Z</time>
      </trkpt>
      <trkpt lat="47.20562" lon="-0.04085">
        <ele>36</ele>
        <time>2013-02-02T09:43:34.001Z</time>
      </trkpt>
      <trkpt lat="47.20563" lon="-0.04079">
        <ele>36</ele>
        <time>2013-02-02T09:43:36.001Z</time>
      </trkpt>
      <trkpt lat="47.20563" lon="-0.04077">
        <ele>36</ele>
        <time>2013-02-02T09:43:37.001Z</time>
      </trkpt>
      <trkpt lat="47.20564" lon="-0.04072">
        <ele>36</ele>
        <time>2013-02-02T09:43:39.001Z</time>
      </trkpt>
      <trkpt lat="47.20564" lon="-0.0407">
        <ele>36</ele>
        <time>2013-02-02T09:43:40.001Z</time>
      </trkpt>
      <trkpt lat="47.20564" lon="-0.04064">
        <ele>36</ele>
        <time>2013-02-02T09:43:42.001Z</time>
      </trkpt>
      <trkpt lat="47.20564" lon="-0.04062">
        <ele>36</ele>
        <time>2013-02-02T09:43:43.001Z</time>
      </trkpt>
      <trkpt lat="47.20565" lon="-0.04057">
        <ele>36</ele>
        <time>2013-02-02T09:43:45.001Z</time>
      </trkpt>
      <trkpt lat="47.20565" lon="-0.04054">
        <ele>36</ele>
        <time>2013-02-02T09:43:46.001Z</time>
      </trkpt>
      <trkpt lat="47.20566" lon="-0.04049">
        <ele>36</ele>
        <time>2013-02-02T09:43:48.001Z</time>
      </trkpt>
      <trkpt lat="47.20566" lon="-0.04046">
        <ele>36</ele>
        <time>2013-02-02T09:43:49.001Z</time>
      </trkpt>
      <trkpt lat="47.20566" lon="-0.04042">
        <ele>36</ele>
        <time>2013-02-02T09:43:51.001Z</time>
      </trkpt>
      <trkpt lat="47.20567" lon="-0.04039">
        <ele>36</ele>
        <time>2013-02-02T09:43:52.001Z</time>
      </trkpt>
      <trkpt lat="47.20567" lon="-0.04035">
        <ele>36</ele>
        <time>2013-02-02T09:43:54.001Z</time>
      </trkpt>
      <trkpt lat="47.20567" lon="-0.04033">
        <ele>36</ele>
        <time>2013-02-02T09:43:55.001Z</time>
      </trkpt>
      <trkpt lat="47.20568" lon="-0.04027">
        <ele>35</ele>
        <time>2013-02-02T09:43:57.001Z</time>
      </trkpt>
      <trkpt lat="47.20568" lon="-0.04025">
        <ele>35</ele>
        <time>2013-02-02T09:43:58.001Z</time>
      </trkpt>
      <trkpt lat="47.20569" lon="-0.0402">
        <ele>35</ele>
        <time>2013-02-02T09:44:00.001Z</time>
      </trkpt>
      <trkpt lat="47.20569" lon="-0.04017">
        <ele>35</ele>
        <time>2013-02-02T09:44:01.001Z</time>
      </trkpt>
      <trkpt lat="47.2057" lon="-0.04012">
        <ele>35</ele>
        <time>2013-02-02T09:44:04.001Z</time>
      </trkpt>
      <trkpt lat="47.2057" lon="-0.0401">
        <ele>35</ele>
        <time>2013-02-02T09:44:05.001Z</time>
      </trkpt>
      <trkpt lat="47.2057" lon="-0.04003">
        <ele>35</ele>
        <time>2013-02-02T09:44:08.001Z</time>
      </trkpt>
      <trkpt lat="47.2057" lon="-0.04001">
        <ele>35</ele>
        <time>2013-02-02T09:44:09.001Z</time>
      </trkpt>
      <trkpt lat="47.2057" lon="-0.03995">
        <ele>35</ele>
        <time>2013-02-02T09:44:12.001Z</time>
      </trkpt>
      <trkpt lat="47.20571" lon="-0.03992">
        <ele>35</ele>
        <time>2013-02-02T09:44:13.001Z</time>
      </trkpt>
      <trkpt lat="47.20571" lon="-0.03988">
        <ele>35</ele>
        <time>2013-02-02T09:44:15.001Z</time>
      </trkpt>
      <trkpt lat="47.20571" lon="-0.03986">
        <ele>35</ele>
        <time>2013-02-02T09:44:16.001Z</time>
      </trkpt>
      <trkpt lat="47.20572" lon="-0.03982">
        <ele>35</ele>
        <time>2013-02-02T09:44:18.001Z</time>
      </trkpt>
      <trkpt lat="47.20572" lon="-0.03979">
        <ele>35</ele>
        <time>2013-02-02T09:44:19.001Z</time>
      </trkpt>
      <trkpt lat="47.20572" lon="-0.03973">
        <ele>36</ele>
        <time>2013-02-02T09:44:21.001Z</time>
      </trkpt>
      <trkpt lat="47.20573" lon="-0.0397">
        <ele>36</ele>
        <time>2013-02-02T09:44:22.001Z</time>
      </trkpt>
      <trkpt lat="47.20573" lon="-0.03965">
        <ele>36</ele>
        <time>2013-02-02T09:44:24.001Z</time>
      </trkpt>
      <trkpt lat="47.20573" lon="-0.03962">
        <ele>36</ele>
        <time>2013-02-02T09:44:25.001Z</time>
      </trkpt>
      <trkpt lat="47.20573" lon="-0.03957">
        <ele>36</ele>
        <time>2013-02-02T09:44:27.001Z</time>
      </trkpt>
      <trkpt lat="47.20573" lon="-0.03955">
        <ele>36</ele>
        <time>2013-02-02T09:44:28.001Z</time>
      </trkpt>
      <trkpt lat="47.20574" lon="-0.0395">
        <ele>36</ele>
        <time>2013-02-02T09:44:30.001Z</time>
      </trkpt>
      <trkpt lat="47.20574" lon="-0.03948">
        <ele>36</ele>
        <time>2013-02-02T09:44:31.001Z</time>
      </trkpt>
      <trkpt lat="47.20574" lon="-0.03942">
        <ele>36</ele>
        <time>2013-02-02T09:44:34.001Z</time>
      </trkpt>
      <trkpt lat="47.20574" lon="-0.0394">
        <ele>36</ele>
        <time>2013-02-02T09:44:35.001Z</time>
      </trkpt>
      <trkpt lat="47.20575" lon="-0.03936">
        <ele>36</ele>
        <time>2013-02-02T09:44:37.001Z</time>
      </trkpt>
      <trkpt lat="47.20575" lon="-0.03933">
        <ele>36</ele>
        <time>2013-02-02T09:44:38.001Z</time>
      </trkpt>
      <trkpt lat="47.20576" lon="-0.03928">
        <ele>36</ele>
        <time>2013-02-02T09:44:40.001Z</time>
      </trkpt>
      <trkpt lat="47.20576" lon="-0.03926">
        <ele>36</ele>
        <time>2013-02-02T09:44:41.001Z</time>
      </trkpt>
      <trkpt lat="47.20576" lon="-0.0392">
        <ele>36</ele>
        <time>2013-02-02T09:44:44.001Z</time>
      </trkpt>
      <trkpt lat="47.20576" lon="-0.03918">
        <ele>36</ele>
        <time>2013-02-02T09:44:45.001Z</time>
      </trkpt>
      <trkpt lat="47.20576" lon="-0.03913">
        <ele>36</ele>
        <time>2013-02-02T09:44:47.001Z</time>
      </trkpt>
      <trkpt lat="47.20577" lon="-0.0391">
        <ele>36</ele>
        <time>2013-02-02T09:44:48.001Z</time>
      </trkpt>
      <trkpt lat="47.20577" lon="-0.03905">
        <ele>36</ele>
        <time>2013-02-02T09:44:51.001Z</time>
      </trkpt>
      <trkpt lat="47.20578" lon="-0.03902">
        <ele>36</ele>
        <time>2013-02-02T09:44:52.001Z</time>
      </trkpt>
      <trkpt lat="47.20579" lon="-0.03897">
        <ele>36</ele>
        <time>2013-02-02T09:44:54.001Z</time>
      </trkpt>
      <trkpt lat="47.20579" lon="-0.03896">
        <ele>36</ele>
        <time>2013-02-02T09:44:55.001Z</time>
      </trkpt>
      <trkpt lat="47.20581" lon="-0.0389">
        <ele>36</ele>
        <time>2013-02-02T09:44:57.001Z</time>
      </trkpt>
      <trkpt lat="47.20582" lon="-0.03888">
        <ele>36</ele>
        <time>2013-02-02T09:44:58.001Z</time>
      </trkpt>
      <trkpt lat="47.20584" lon="-0.03885">
        <ele>36</ele>
        <time>2013-02-02T09:45:01.001Z</time>
      </trkpt>
      <trkpt lat="47.20585" lon="-0.03883">
        <ele>36</ele>
        <time>2013-02-02T09:45:02.001Z</time>
      </trkpt>
      <trkpt lat="47.20589" lon="-0.0388">
        <ele>36</ele>
        <time>2013-02-02T09:45:05.001Z</time>
      </trkpt>
      <trkpt lat="47.2059" lon="-0.03879">
        <ele>36</ele>
        <time>2013-02-02T09:45:06.001Z</time>
      </trkpt>
      <trkpt lat="47.20593" lon="-0.03876">
        <ele>36</ele>
        <time>2013-02-02T09:45:08.001Z</time>
      </trkpt>
      <trkpt lat="47.20594" lon="-0.03874">
        <ele>36</ele>
        <time>2013-02-02T09:45:09.001Z</time>
      </trkpt>
      <trkpt lat="47.20596" lon="-0.03869">
        <ele>36</ele>
        <time>2013-02-02T09:45:12.001Z</time>
      </trkpt>
      <trkpt lat="47.20597" lon="-0.03867">
        <ele>36</ele>
        <time>2013-02-02T09:45:13.001Z</time>
      </trkpt>
      <trkpt lat="47.20599" lon="-0.03862">
        <ele>36</ele>
        <time>2013-02-02T09:45:16.001Z</time>
      </trkpt>
      <trkpt lat="47.206" lon="-0.0386">
        <ele>36</ele>
        <time>2013-02-02T09:45:17.001Z</time>
      </trkpt>
      <trkpt lat="47.20603" lon="-0.03856">
        <ele>36</ele>
        <time>2013-02-02T09:45:20.001Z</time>
      </trkpt>
      <trkpt lat="47.20604" lon="-0.03855">
        <ele>36</ele>
        <time>2013-02-02T09:45:21.001Z</time>
      </trkpt>
      <trkpt lat="47.20605" lon="-0.0385">
        <ele>36</ele>
        <time>2013-02-02T09:45:23.001Z</time>
      </trkpt>
      <trkpt lat="47.20605" lon="-0.03847">
        <ele>36</ele>
        <time>2013-02-02T09:45:24.001Z</time>
      </trkpt>
      <trkpt lat="47.20608" lon="-0.03843">
        <ele>36</ele>
        <time>2013-02-02T09:45:26.001Z</time>
      </trkpt>
      <trkpt lat="47.20609" lon="-0.03842">
        <ele>36</ele>
        <time>2013-02-02T09:45:27.001Z</time>
      </trkpt>
      <trkpt lat="47.20612" lon="-0.03839">
        <ele>36</ele>
        <time>2013-02-02T09:45:29.001Z</time>
      </trkpt>
      <trkpt lat="47.20613" lon="-0.03836">
        <ele>36</ele>
        <time>2013-02-02T09:45:30.001Z</time>
      </trkpt>
      <trkpt lat="47.20614" lon="-0.03831">
        <ele>36</ele>
        <time>2013-02-02T09:45:33.001Z</time>
      </trkpt>
      <trkpt lat="47.20615" lon="-0.0383">
        <ele>36</ele>
        <time>2013-02-02T09:45:34.001Z</time>
      </trkpt>
      <trkpt lat="47.20616" lon="-0.03824">
        <ele>36</ele>
        <time>2013-02-02T09:45:37.001Z</time>
      </trkpt>
      <trkpt lat="47.20617" lon="-0.03822">
        <ele>36</ele>
        <time>2013-02-02T09:45:38.001Z</time>
      </trkpt>
      <trkpt lat="47.20618" lon="-0.03818">
        <ele>36</ele>
        <time>2013-02-02T09:45:40.001Z</time>
      </trkpt>
      <trkpt lat="47.20619" lon="-0.03816">
        <ele>36</ele>
        <time>2013-02-02T09:45:41.001Z</time>
      </trkpt>
      <trkpt lat="47.20621" lon="-0.03812">
        <ele>36</ele>
        <time>2013-02-02T09:45:43.001Z</time>
      </trkpt>
      <trkpt lat="47.20622" lon="-0.03809">
        <ele>36</ele>
        <time>2013-02-02T09:45:44.001Z</time>
      </trkpt>
      <trkpt lat="47.20624" lon="-0.03805">
        <ele>36</ele>
        <time>2013-02-02T09:45:47.001Z</time>
      </trkpt>
      <trkpt lat="47.20625" lon="-0.03803">
        <ele>36</ele>
        <time>2013-02-02T09:45:48.001Z</time>
      </trkpt>
      <trkpt lat="47.20627" lon="-0.03799">
        <ele>37</ele>
        <time>2013-02-02T09:45:50.001Z</time>
      </trkpt>
      <trkpt lat="47.20627" lon="-0.03797">
        <ele>37</ele>
        <time>2013-02-02T09:45:51.001Z</time>
      </trkpt>
      <trkpt lat="47.20628" lon="-0.03793">
        <ele>37</ele>
        <time>2013-02-02T09:45:53.001Z</time>
      </trkpt>
      <trkpt lat="47.20628" lon="-0.0379">
        <ele>37</ele>
        <time>2013-02-02T09:45:54.001Z</time>
      </trkpt>
      <trkpt lat="47.20626" lon="-0.03784">
        <ele>37</ele>
        <time>2013-02-02T09:45:58.001Z</time>
      </trkpt>
      <trkpt lat="47.20626" lon="-0.03783">
        <ele>37</ele>
        <time>2013-02-02T09:45:59.001Z</time>
      </trkpt>
      <trkpt lat="47.20624" lon="-0.03778">
        <ele>36</ele>
        <time>2013-02-02T09:46:05.001Z</time>
      </trkpt>
      <trkpt lat="47.20624" lon="-0.03775">
        <ele>36</ele>
        <time>2013-02-02T09:46:06.001Z</time>
      </trkpt>
      <trkpt lat="47.20621" lon="-0.0377">
        <ele>36</ele>
        <time>2013-02-02T09:46:09.001Z</time>
      </trkpt>
      <trkpt lat="47.2062" lon="-0.03768">
        <ele>36</ele>
        <time>2013-02-02T09:46:10.001Z</time>
      </trkpt>
      <trkpt lat="47.20619" lon="-0.03763">
        <ele>36</ele>
        <time>2013-02-02T09:46:15.001Z</time>
      </trkpt>
      <trkpt lat="47.20619" lon="-0.03761">
        <ele>36</ele>
        <time>2013-02-02T09:46:16.001Z</time>
      </trkpt>
      <trkpt lat="47.20618" lon="-0.03756">
        <ele>36</ele>
        <time>2013-02-02T09:46:18.001Z</time>
      </trkpt>
      <trkpt lat="47.20618" lon="-0.03753">
        <ele>36</ele>
        <time>2013-02-02T09:46:19.001Z</time>
      </trkpt>
      <trkpt lat="47.20616" lon="-0.03749">
        <ele>37</ele>
        <time>2013-02-02T09:46:21.001Z</time>
      </trkpt>
      <trkpt lat="47.20616" lon="-0.03747">
        <ele>37</ele>
        <time>2013-02-02T09:46:22.001Z</time>
      </trkpt>
      <trkpt lat="47.20613" lon="-0.03743">
        <ele>37</ele>
        <time>2013-02-02T09:46:26.001Z</time>
      </trkpt>
      <trkpt lat="47.20612" lon="-0.03742">
        <ele>37</ele>
        <time>2013-02-02T09:46:27.001Z</time>
      </trkpt>
      <trkpt lat="47.20611" lon="-0.03736">
        <ele>37</ele>
        <time>2013-02-02T09:46:30.001Z</time>
      </trkpt>
      <trkpt lat="47.2061" lon="-0.03733">
        <ele>37</ele>
        <time>2013-02-02T09:46:31.001Z</time>
      </trkpt>
      <trkpt lat="47.20609" lon="-0.03728">
        <ele>37</ele>
        <time>2013-02-02T09:46:33.001Z</time>
      </trkpt>
      <trkpt lat="47.20609" lon="-0.03725">
        <ele>37</ele>
        <time>2013-02-02T09:46:34.001Z</time>
      </trkpt>
      <trkpt lat="47.20608" lon="-0.0372">
        <ele>37</ele>
        <time>2013-02-02T09:46:36.001Z</time>
      </trkpt>
      <trkpt lat="47.20607" lon="-0.03717">
        <ele>37</ele>
        <time>2013-02-02T09:46:37.001Z</time>
      </trkpt>
      <trkpt lat="47.20606" lon="-0.03711">
        <ele>37</ele>
        <time>2013-02-02T09:46:39.001Z</time>
      </trkpt>
      <trkpt lat="47.20605" lon="-0.03709">
        <ele>37</ele>
        <time>2013-02-02T09:46:40.001Z</time>
      </trkpt>
      <trkpt lat="47.20604" lon="-0.03705">
        <ele>37</ele>
        <time>2013-02-02T09:46:42.001Z</time>
      </trkpt>
      <trkpt lat="47.20603" lon="-0.03703">
        <ele>37</ele>
        <time>2013-02-02T09:46:43.001Z</time>
      </trkpt>
      <trkpt lat="47.20602" lon="-0.03697">
        <ele>37</ele>
        <time>2013-02-02T09:46:45.001Z</time>
      </trkpt>
      <trkpt lat="47.20602" lon="-0.03696">
        <ele>37</ele>
        <time>2013-02-02T09:46:46.001Z</time>
      </trkpt>
      <trkpt lat="47.20601" lon="-0.03692">
        <ele>37</ele>
        <time>2013-02-02T09:46:48.001Z</time>
      </trkpt>
      <trkpt lat="47.206" lon="-0.0369">
        <ele>37</ele>
        <time>2013-02-02T09:46:49.001Z</time>
      </trkpt>
      <trkpt lat="47.20599" lon="-0.03684">
        <ele>37</ele>
        <time>2013-02-02T09:46:51.001Z</time>
      </trkpt>
      <trkpt lat="47.20598" lon="-0.03682">
        <ele>37</ele>
        <time>2013-02-02T09:46:52.001Z</time>
      </trkpt>
      <trkpt lat="47.20597" lon="-0.03678">
        <ele>37</ele>
        <time>2013-02-02T09:46:54.001Z</time>
      </trkpt>
      <trkpt lat="47.20596" lon="-0.03675">
        <ele>37</ele>
        <time>2013-02-02T09:46:55.001Z</time>
      </trkpt>
      <trkpt lat="47.20594" lon="-0.0367">
        <ele>37</ele>
        <time>2013-02-02T09:46:57.001Z</time>
      </trkpt>
      <trkpt lat="47.20594" lon="-0.03668">
        <ele>37</ele>
        <time>2013-02-02T09:46:58.001Z</time>
      </trkpt>
      <trkpt lat="47.20592" lon="-0.03663">
        <ele>37</ele>
        <time>2013-02-02T09:47:00.001Z</time>
      </trkpt>
      <trkpt lat="47.20592" lon="-0.03661">
        <ele>37</ele>
        <time>2013-02-02T09:47:01.001Z</time>
      </trkpt>
      <trkpt lat="47.2059" lon="-0.03658">
        <ele>37</ele>
        <time>2013-02-02T09:47:03.001Z</time>
      </trkpt>
      <trkpt lat="47.2059" lon="-0.03655">
        <ele>37</ele>
        <time>2013-02-02T09:47:04.001Z</time>
      </trkpt>
      <trkpt lat="47.20588" lon="-0.03649">
        <ele>37</ele>
        <time>2013-02-02T09:47:06.001Z</time>
      </trkpt>
      <trkpt lat="47.20588" lon="-0.03646">
        <ele>37</ele>
        <time>2013-02-02T09:47:07.001Z</time>
      </trkpt>
      <trkpt lat="47.20587" lon="-0.03641">
        <ele>37</ele>
        <time>2013-02-02T09:47:09.001Z</time>
      </trkpt>
      <trkpt lat="47.20587" lon="-0.03639">
        <ele>37</ele>
        <time>2013-02-02T09:47:10.001Z</time>
      </trkpt>
      <trkpt lat="47.20585" lon="-0.03633">
        <ele>37</ele>
        <time>2013-02-02T09:47:13.001Z</time>
      </trkpt>
      <trkpt lat="47.20584" lon="-0.0363">
        <ele>37</ele>
        <time>2013-02-02T09:47:14.001Z</time>
      </trkpt>
      <trkpt lat="47.20583" lon="-0.03624">
        <ele>37</ele>
        <time>2013-02-02T09:47:16.001Z</time>
      </trkpt>
      <trkpt lat="47.20582" lon="-0.03622">
        <ele>37</ele>
        <time>2013-02-02T09:47:17.001Z</time>
      </trkpt>
      <trkpt lat="47.20581" lon="-0.03617">
        <ele>37</ele>
        <time>2013-02-02T09:47:20.001Z</time>
      </trkpt>
      <trkpt lat="47.2058" lon="-0.03616">
        <ele>37</ele>
        <time>2013-02-02T09:47:21.001Z</time>
      </trkpt>
      <trkpt lat="47.20579" lon="-0.03612">
        <ele>37</ele>
        <time>2013-02-02T09:47:23.001Z</time>
      </trkpt>
      <trkpt lat="47.20578" lon="-0.03609">
        <ele>37</ele>
        <time>2013-02-02T09:47:24.001Z</time>
      </trkpt>
      <trkpt lat="47.20577" lon="-0.03603">
        <ele>37</ele>
        <time>2013-02-02T09:47:26.001Z</time>
      </trkpt>
      <trkpt lat="47.20576" lon="-0.03601">
        <ele>37</ele>
        <time>2013-02-02T09:47:27.001Z</time>
      </trkpt>
      <trkpt lat="47.20575" lon="-0.03597">
        <ele>36</ele>
        <time>2013-02-02T09:47:29.001Z</time>
      </trkpt>
      <trkpt lat="47.20574" lon="-0.03595">
        <ele>36</ele>
        <time>2013-02-02T09:47:30.001Z</time>
      </trkpt>
      <trkpt lat="47.20573" lon="-0.0359">
        <ele>36</ele>
        <time>2013-02-02T09:47:32.001Z</time>
      </trkpt>
      <trkpt lat="47.20572" lon="-0.03588">
        <ele>36</ele>
        <time>2013-02-02T09:47:33.001Z</time>
      </trkpt>
      <trkpt lat="47.20571" lon="-0.03583">
        <ele>36</ele>
        <time>2013-02-02T09:47:35.001Z</time>
      </trkpt>
      <trkpt lat="47.2057" lon="-0.0358">
        <ele>36</ele>
        <time>2013-02-02T09:47:36.001Z</time>
      </trkpt>
      <trkpt lat="47.20569" lon="-0.03576">
        <ele>36</ele>
        <time>2013-02-02T09:47:38.001Z</time>
      </trkpt>
      <trkpt lat="47.20568" lon="-0.03574">
        <ele>36</ele>
        <time>2013-02-02T09:47:39.001Z</time>
      </trkpt>
      <trkpt lat="47.20566" lon="-0.03569">
        <ele>36</ele>
        <time>2013-02-02T09:47:43.001Z</time>
      </trkpt>
      <trkpt lat="47.20566" lon="-0.03567">
        <ele>36</ele>
        <time>2013-02-02T09:47:44.001Z</time>
      </trkpt>
      <trkpt lat="47.20564" lon="-0.03563">
        <ele>36</ele>
        <time>2013-02-02T09:47:46.001Z</time>
      </trkpt>
      <trkpt lat="47.20563" lon="-0.0356">
        <ele>36</ele>
        <time>2013-02-02T09:47:47.001Z</time>
      </trkpt>
      <trkpt lat="47.20562" lon="-0.03556">
        <ele>36</ele>
        <time>2013-02-02T09:47:49.001Z</time>
      </trkpt>
      <trkpt lat="47.20561" lon="-0.03554">
        <ele>36</ele>
        <time>2013-02-02T09:47:50.001Z</time>
      </trkpt>
      <trkpt lat="47.20561" lon="-0.03549">
        <ele>36</ele>
        <time>2013-02-02T09:47:52.001Z</time>
      </trkpt>
      <trkpt lat="47.2056" lon="-0.03547">
        <ele>36</ele>
        <time>2013-02-02T09:47:53.001Z</time>
      </trkpt>
      <trkpt lat="47.20559" lon="-0.03542">
        <ele>37</ele>
        <time>2013-02-02T09:47:55.001Z</time>
      </trkpt>
      <trkpt lat="47.20558" lon="-0.03539">
        <ele>37</ele>
        <time>2013-02-02T09:47:56.001Z</time>
      </trkpt>
      <trkpt lat="47.20556" lon="-0.03534">
        <ele>37</ele>
        <time>2013-02-02T09:47:58.001Z</time>
      </trkpt>
      <trkpt lat="47.20555" lon="-0.03532">
        <ele>37</ele>
        <time>2013-02-02T09:47:59.001Z</time>
      </trkpt>
      <trkpt lat="47.20553" lon="-0.03526">
        <ele>37</ele>
        <time>2013-02-02T09:48:02.001Z</time>
      </trkpt>
      <trkpt lat="47.20552" lon="-0.03524">
        <ele>37</ele>
        <time>2013-02-02T09:48:03.001Z</time>
      </trkpt>
      <trkpt lat="47.20552" lon="-0.03519">
        <ele>37</ele>
        <time>2013-02-02T09:48:07.001Z</time>
      </trkpt>
      <trkpt lat="47.20551" lon="-0.03517">
        <ele>37</ele>
        <time>2013-02-02T09:48:08.001Z</time>
      </trkpt>
      <trkpt lat="47.2055" lon="-0.03511">
        <ele>37</ele>
        <time>2013-02-02T09:48:11.001Z</time>
      </trkpt>
      <trkpt lat="47.2055" lon="-0.03508">
        <ele>37</ele>
        <time>2013-02-02T09:48:12.001Z</time>
      </trkpt>
      <trkpt lat="47.2055" lon="-0.03505">
        <ele>37</ele>
        <time>2013-02-02T09:48:13.001Z</time>
      </trkpt>
      <trkpt lat="47.20549" lon="-0.03501">
        <ele>37</ele>
        <time>2013-02-02T09:48:14.001Z</time>
      </trkpt>
      <trkpt lat="47.20548" lon="-0.03495">
        <ele>37</ele>
        <time>2013-02-02T09:48:16.001Z</time>
      </trkpt>
      <trkpt lat="47.20548" lon="-0.03493">
        <ele>37</ele>
        <time>2013-02-02T09:48:17.001Z</time>
      </trkpt>
      <trkpt lat="47.20547" lon="-0.03489">
        <ele>37</ele>
        <time>2013-02-02T09:48:19.001Z</time>
      </trkpt>
      <trkpt lat="47.20547" lon="-0.03486">
        <ele>37</ele>
        <time>2013-02-02T09:48:20.001Z</time>
      </trkpt>
      <trkpt lat="47.20545" lon="-0.0348">
        <ele>37</ele>
        <time>2013-02-02T09:48:22.001Z</time>
      </trkpt>
      <trkpt lat="47.20545" lon="-0.03477">
        <ele>37</ele>
        <time>2013-02-02T09:48:23.001Z</time>
      </trkpt>
      <trkpt lat="47.20544" lon="-0.03473">
        <ele>37</ele>
        <time>2013-02-02T09:48:26.001Z</time>
      </trkpt>
      <trkpt lat="47.20543" lon="-0.03471">
        <ele>37</ele>
        <time>2013-02-02T09:48:27.001Z</time>
      </trkpt>
      <trkpt lat="47.20542" lon="-0.03466">
        <ele>37</ele>
        <time>2013-02-02T09:48:30.001Z</time>
      </trkpt>
      <trkpt lat="47.20541" lon="-0.03463">
        <ele>36</ele>
        <time>2013-02-02T09:48:31.001Z</time>
      </trkpt>
      <trkpt lat="47.2054" lon="-0.03458">
        <ele>36</ele>
        <time>2013-02-02T09:48:34.001Z</time>
      </trkpt>
      <trkpt lat="47.2054" lon="-0.03456">
        <ele>36</ele>
        <time>2013-02-02T09:48:35.001Z</time>
      </trkpt>
      <trkpt lat="47.20538" lon="-0.0345">
        <ele>36</ele>
        <time>2013-02-02T09:48:38.001Z</time>
      </trkpt>
      <trkpt lat="47.20537" lon="-0.03448">
        <ele>36</ele>
        <time>2013-02-02T09:48:39.001Z</time>
      </trkpt>
      <trkpt lat="47.20536" lon="-0.03443">
        <ele>36</ele>
        <time>2013-02-02T09:48:41.001Z</time>
      </trkpt>
      <trkpt lat="47.20536" lon="-0.03441">
        <ele>36</ele>
        <time>2013-02-02T09:48:42.001Z</time>
      </trkpt>
      <trkpt lat="47.20535" lon="-0.03436">
        <ele>36</ele>
        <time>2013-02-02T09:48:44.001Z</time>
      </trkpt>
      <trkpt lat="47.20534" lon="-0.03433">
        <ele>36</ele>
        <time>2013-02-02T09:48:45.001Z</time>
      </trkpt>
      <trkpt lat="47.20533" lon="-0.03427">
        <ele>36</ele>
        <time>2013-02-02T09:48:47.001Z</time>
      </trkpt>
      <trkpt lat="47.20533" lon="-0.03425">
        <ele>36</ele>
        <time>2013-02-02T09:48:48.001Z</time>
      </trkpt>
      <trkpt lat="47.20532" lon="-0.03419">
        <ele>36</ele>
        <time>2013-02-02T09:48:50.001Z</time>
      </trkpt>
      <trkpt lat="47.20532" lon="-0.03417">
        <ele>36</ele>
        <time>2013-02-02T09:48:51.001Z</time>
      </trkpt>
      <trkpt lat="47.20532" lon="-0.03411">
        <ele>37</ele>
        <time>2013-02-02T09:48:53.001Z</time>
      </trkpt>
      <trkpt lat="47.20531" lon="-0.03409">
        <ele>37</ele>
        <time>2013-02-02T09:48:54.001Z</time>
      </trkpt>
      <trkpt lat="47.2053" lon="-0.03405">
        <ele>37</ele>
        <time>2013-02-02T09:48:56.001Z</time>
      </trkpt>
      <trkpt lat="47.2053" lon="-0.03401">
        <ele>37</ele>
        <time>2013-02-02T09:48:57.001Z</time>
      </trkpt>
      <trkpt lat="47.20529" lon="-0.03397">
        <ele>37</ele>
        <time>2013-02-02T09:48:59.001Z</time>
      </trkpt>
      <trkpt lat="47.20528" lon="-0.03394">
        <ele>37</ele>
        <time>2013-02-02T09:49:00.001Z</time>
      </trkpt>
      <trkpt lat="47.20527" lon="-0.0339">
        <ele>37</ele>
        <time>2013-02-02T09:49:02.001Z</time>
      </trkpt>
      <trkpt lat="47.20526" lon="-0.03388">
        <ele>37</ele>
        <time>2013-02-02T09:49:03.001Z</time>
      </trkpt>
      <trkpt lat="47.20525" lon="-0.03383">
        <ele>37</ele>
        <time>2013-02-02T09:49:05.001Z</time>
      </trkpt>
      <trkpt lat="47.20525" lon="-0.0338">
        <ele>37</ele>
        <time>2013-02-02T09:49:06.001Z</time>
      </trkpt>
      <trkpt lat="47.20523" lon="-0.03376">
        <ele>37</ele>
        <time>2013-02-02T09:49:09.001Z</time>
      </trkpt>
      <trkpt lat="47.20523" lon="-0.03373">
        <ele>37</ele>
        <time>2013-02-02T09:49:10.001Z</time>
      </trkpt>
      <trkpt lat="47.20522" lon="-0.03368">
        <ele>37</ele>
        <time>2013-02-02T09:49:12.001Z</time>
      </trkpt>
      <trkpt lat="47.20522" lon="-0.03366">
        <ele>37</ele>
        <time>2013-02-02T09:49:13.001Z</time>
      </trkpt>
      <trkpt lat="47.20522" lon="-0.03361">
        <ele>37</ele>
        <time>2013-02-02T09:49:15.001Z</time>
      </trkpt>
      <trkpt lat="47.20521" lon="-0.03359">
        <ele>37</ele>
        <time>2013-02-02T09:49:16.001Z</time>
      </trkpt>
      <trkpt lat="47.20521" lon="-0.03354">
        <ele>37</ele>
        <time>2013-02-02T09:49:18.001Z</time>
      </trkpt>
      <trkpt lat="47.20521" lon="-0.03352">
        <ele>37</ele>
        <time>2013-02-02T09:49:19.001Z</time>
      </trkpt>
      <trkpt lat="47.20519" lon="-0.03345">
        <ele>37</ele>
        <time>2013-02-02T09:49:22.001Z</time>
      </trkpt>
      <trkpt lat="47.20519" lon="-0.03343">
        <ele>37</ele>
        <time>2013-02-02T09:49:23.001Z</time>
      </trkpt>
      <trkpt lat="47.20517" lon="-0.03337">
        <ele>37</ele>
        <time>2013-02-02T09:49:26.001Z</time>
      </trkpt>
      <trkpt lat="47.20517" lon="-0.03335">
        <ele>37</ele>
        <time>2013-02-02T09:49:27.001Z</time>
      </trkpt>
      <trkpt lat="47.20517" lon="-0.0333">
        <ele>38</ele>
        <time>2013-02-02T09:49:29.001Z</time>
      </trkpt>
      <trkpt lat="47.20516" lon="-0.03329">
        <ele>38</ele>
        <time>2013-02-02T09:49:30.001Z</time>
      </trkpt>
      <trkpt lat="47.20516" lon="-0.03324">
        <ele>38</ele>
        <time>2013-02-02T09:49:32.001Z</time>
      </trkpt>
      <trkpt lat="47.20515" lon="-0.03321">
        <ele>38</ele>
        <time>2013-02-02T09:49:33.001Z</time>
      </trkpt>
      <trkpt lat="47.20515" lon="-0.03317">
        <ele>38</ele>
        <time>2013-02-02T09:49:35.001Z</time>
      </trkpt>
      <trkpt lat="47.20514" lon="-0.03314">
        <ele>38</ele>
        <time>2013-02-02T09:49:36.001Z</time>
      </trkpt>
      <trkpt lat="47.20513" lon="-0.0331">
        <ele>38</ele>
        <time>2013-02-02T09:49:38.001Z</time>
      </trkpt>
      <trkpt lat="47.20512" lon="-0.03307">
        <ele>38</ele>
        <time>2013-02-02T09:49:39.001Z</time>
      </trkpt>
      <trkpt lat="47.20511" lon="-0.03303">
        <ele>38</ele>
        <time>2013-02-02T09:49:41.001Z</time>
      </trkpt>
      <trkpt lat="47.2051" lon="-0.033">
        <ele>38</ele>
        <time>2013-02-02T09:49:42.001Z</time>
      </trkpt>
      <trkpt lat="47.20509" lon="-0.03294">
        <ele>38</ele>
        <time>2013-02-02T09:49:44.001Z</time>
      </trkpt>
      <trkpt lat="47.20508" lon="-0.03292">
        <ele>38</ele>
        <time>2013-02-02T09:49:45.001Z</time>
      </trkpt>
      <trkpt lat="47.20507" lon="-0.03286">
        <ele>38</ele>
        <time>2013-02-02T09:49:47.001Z</time>
      </trkpt>
      <trkpt lat="47.20507" lon="-0.03283">
        <ele>38</ele>
        <time>2013-02-02T09:49:48.001Z</time>
      </trkpt>
      <trkpt lat="47.20506" lon="-0.03278">
        <ele>38</ele>
        <time>2013-02-02T09:49:50.001Z</time>
      </trkpt>
      <trkpt lat="47.20505" lon="-0.03276">
        <ele>38</ele>
        <time>2013-02-02T09:49:51.001Z</time>
      </trkpt>
      <trkpt lat="47.20504" lon="-0.03272">
        <ele>38</ele>
        <time>2013-02-02T09:49:53.001Z</time>
      </trkpt>
      <trkpt lat="47.20503" lon="-0.03269">
        <ele>38</ele>
        <time>2013-02-02T09:49:54.001Z</time>
      </trkpt>
      <trkpt lat="47.20502" lon="-0.03263">
        <ele>38</ele>
        <time>2013-02-02T09:49:57.001Z</time>
      </trkpt>
      <trkpt lat="47.20501" lon="-0.03261">
        <ele>38</ele>
        <time>2013-02-02T09:49:58.001Z</time>
      </trkpt>
      <trkpt lat="47.20501" lon="-0.03257">
        <ele>38</ele>
        <time>2013-02-02T09:50:00.001Z</time>
      </trkpt>
      <trkpt lat="47.205" lon="-0.03254">
        <ele>38</ele>
        <time>2013-02-02T09:50:01.001Z</time>
      </trkpt>
      <trkpt lat="47.20499" lon="-0.03248">
        <ele>38</ele>
        <time>2013-02-02T09:50:04.001Z</time>
      </trkpt>
      <trkpt lat="47.20498" lon="-0.03246">
        <ele>38</ele>
        <time>2013-02-02T09:50:05.001Z</time>
      </trkpt>
      <trkpt lat="47.20497" lon="-0.03241">
        <ele>38</ele>
        <time>2013-02-02T09:50:07.001Z</time>
      </trkpt>
      <trkpt lat="47.20496" lon="-0.03238">
        <ele>38</ele>
        <time>2013-02-02T09:50:08.001Z</time>
      </trkpt>
      <trkpt lat="47.20494" lon="-0.03234">
        <ele>39</ele>
        <time>2013-02-02T09:50:10.001Z</time>
      </trkpt>
      <trkpt lat="47.20494" lon="-0.03231">
        <ele>39</ele>
        <time>2013-02-02T09:50:11.001Z</time>
      </trkpt>
      <trkpt lat="47.20493" lon="-0.03226">
        <ele>39</ele>
        <time>2013-02-02T09:50:13.001Z</time>
      </trkpt>
      <trkpt lat="47.20492" lon="-0.03223">
        <ele>39</ele>
        <time>2013-02-02T09:50:14.001Z</time>
      </trkpt>
      <trkpt lat="47.20491" lon="-0.03218">
        <ele>39</ele>
        <time>2013-02-02T09:50:17.001Z</time>
      </trkpt>
      <trkpt lat="47.20491" lon="-0.03216">
        <ele>39</ele>
        <time>2013-02-02T09:50:18.001Z</time>
      </trkpt>
      <trkpt lat="47.20489" lon="-0.03211">
        <ele>39</ele>
        <time>2013-02-02T09:50:20.001Z</time>
      </trkpt>
      <trkpt lat="47.20488" lon="-0.03208">
        <ele>39</ele>
        <time>2013-02-02T09:50:21.001Z</time>
      </trkpt>
      <trkpt lat="47.20486" lon="-0.03203">
        <ele>39</ele>
        <time>2013-02-02T09:50:23.001Z</time>
      </trkpt>
      <trkpt lat="47.20485" lon="-0.03201">
        <ele>39</ele>
        <time>2013-02-02T09:50:24.001Z</time>
      </trkpt>
      <trkpt lat="47.20483" lon="-0.03195">
        <ele>39</ele>
        <time>2013-02-02T09:50:27.001Z</time>
      </trkpt>
      <trkpt lat="47.20482" lon="-0.03193">
        <ele>39</ele>
        <time>2013-02-02T09:50:28.001Z</time>
      </trkpt>
      <trkpt lat="47.2048" lon="-0.03188">
        <ele>39</ele>
        <time>2013-02-02T09:50:30.001Z</time>
      </trkpt>
      <trkpt lat="47.20479" lon="-0.03186">
        <ele>39</ele>
        <time>2013-02-02T09:50:31.001Z</time>
      </trkpt>
      <trkpt lat="47.20478" lon="-0.03182">
        <ele>39</ele>
        <time>2013-02-02T09:50:33.001Z</time>
      </trkpt>
      <trkpt lat="47.20476" lon="-0.0318">
        <ele>39</ele>
        <time>2013-02-02T09:50:34.001Z</time>
      </trkpt>
      <trkpt lat="47.20474" lon="-0.03176">
        <ele>39</ele>
        <time>2013-02-02T09:50:37.001Z</time>
      </trkpt>
      <trkpt lat="47.20472" lon="-0.03174">
        <ele>39</ele>
        <time>2013-02-02T09:50:38.001Z</time>
      </trkpt>
      <trkpt lat="47.2047" lon="-0.03169">
        <ele>39</ele>
        <time>2013-02-02T09:50:41.001Z</time>
      </trkpt>
      <trkpt lat="47.20469" lon="-0.03167">
        <ele>39</ele>
        <time>2013-02-02T09:50:42.001Z</time>
      </trkpt>
      <trkpt lat="47.20468" lon="-0.03161">
        <ele>41</ele>
        <time>2013-02-02T09:50:44.001Z</time>
      </trkpt>
      <trkpt lat="47.20468" lon="-0.03158">
        <ele>41</ele>
        <time>2013-02-02T09:50:45.001Z</time>
      </trkpt>
      <trkpt lat="47.20467" lon="-0.03154">
        <ele>41</ele>
        <time>2013-02-02T09:50:47.001Z</time>
      </trkpt>
      <trkpt lat="47.20467" lon="-0.03152">
        <ele>41</ele>
        <time>2013-02-02T09:50:48.001Z</time>
      </trkpt>
      <trkpt lat="47.20465" lon="-0.03146">
        <ele>41</ele>
        <time>2013-02-02T09:50:51.001Z</time>
      </trkpt>
      <trkpt lat="47.20464" lon="-0.03144">
        <ele>41</ele>
        <time>2013-02-02T09:50:52.001Z</time>
      </trkpt>
      <trkpt lat="47.20463" lon="-0.03138">
        <ele>41</ele>
        <time>2013-02-02T09:50:54.001Z</time>
      </trkpt>
      <trkpt lat="47.20463" lon="-0.03137">
        <ele>41</ele>
        <time>2013-02-02T09:50:55.001Z</time>
      </trkpt>
      <trkpt lat="47.20461" lon="-0.03132">
        <ele>41</ele>
        <time>2013-02-02T09:50:57.001Z</time>
      </trkpt>
      <trkpt lat="47.20461" lon="-0.0313">
        <ele>41</ele>
        <time>2013-02-02T09:50:58.001Z</time>
      </trkpt>
      <trkpt lat="47.20459" lon="-0.03126">
        <ele>41</ele>
        <time>2013-02-02T09:51:00.001Z</time>
      </trkpt>
      <trkpt lat="47.20458" lon="-0.03123">
        <ele>42</ele>
        <time>2013-02-02T09:51:01.001Z</time>
      </trkpt>
      <trkpt lat="47.20457" lon="-0.03118">
        <ele>42</ele>
        <time>2013-02-02T09:51:03.001Z</time>
      </trkpt>
      <trkpt lat="47.20456" lon="-0.03116">
        <ele>42</ele>
        <time>2013-02-02T09:51:04.001Z</time>
      </trkpt>
      <trkpt lat="47.20455" lon="-0.03112">
        <ele>42</ele>
        <time>2013-02-02T09:51:06.001Z</time>
      </trkpt>
      <trkpt lat="47.20454" lon="-0.03109">
        <ele>42</ele>
        <time>2013-02-02T09:51:07.001Z</time>
      </trkpt>
      <trkpt lat="47.20453" lon="-0.03107">
        <ele>42</ele>
        <time>2013-02-02T09:51:08.001Z</time>
      </trkpt>
      <trkpt lat="47.20451" lon="-0.03104">
        <ele>42</ele>
        <time>2013-02-02T09:51:09.001Z</time>
      </trkpt>
      <trkpt lat="47.2045" lon="-0.03098">
        <ele>42</ele>
        <time>2013-02-02T09:51:13.001Z</time>
      </trkpt>
      <trkpt lat="47.20449" lon="-0.03095">
        <ele>42</ele>
        <time>2013-02-02T09:51:14.001Z</time>
      </trkpt>
      <trkpt lat="47.20448" lon="-0.03091">
        <ele>42</ele>
        <time>2013-02-02T09:51:16.001Z</time>
      </trkpt>
      <trkpt lat="47.20447" lon="-0.03088">
        <ele>42</ele>
        <time>2013-02-02T09:51:17.001Z</time>
      </trkpt>
      <trkpt lat="47.20446" lon="-0.03083">
        <ele>43</ele>
        <time>2013-02-02T09:51:20.001Z</time>
      </trkpt>
      <trkpt lat="47.20445" lon="-0.03081">
        <ele>43</ele>
        <time>2013-02-02T09:51:21.001Z</time>
      </trkpt>
      <trkpt lat="47.20444" lon="-0.03075">
        <ele>43</ele>
        <time>2013-02-02T09:51:23.001Z</time>
      </trkpt>
      <trkpt lat="47.20443" lon="-0.03072">
        <ele>43</ele>
        <time>2013-02-02T09:51:24.001Z</time>
      </trkpt>
      <trkpt lat="47.20442" lon="-0.03067">
        <ele>43</ele>
        <time>2013-02-02T09:51:26.001Z</time>
      </trkpt>
      <trkpt lat="47.20441" lon="-0.03064">
        <ele>43</ele>
        <time>2013-02-02T09:51:27.001Z</time>
      </trkpt>
      <trkpt lat="47.20439" lon="-0.03059">
        <ele>43</ele>
        <time>2013-02-02T09:51:30.001Z</time>
      </trkpt>
      <trkpt lat="47.20439" lon="-0.03057">
        <ele>43</ele>
        <time>2013-02-02T09:51:31.001Z</time>
      </trkpt>
      <trkpt lat="47.20438" lon="-0.03052">
        <ele>43</ele>
        <time>2013-02-02T09:51:35.001Z</time>
      </trkpt>
      <trkpt lat="47.20437" lon="-0.03049">
        <ele>43</ele>
        <time>2013-02-02T09:51:36.001Z</time>
      </trkpt>
      <trkpt lat="47.20436" lon="-0.03044">
        <ele>43</ele>
        <time>2013-02-02T09:51:39.001Z</time>
      </trkpt>
      <trkpt lat="47.20436" lon="-0.03043">
        <ele>43</ele>
        <time>2013-02-02T09:51:40.001Z</time>
      </trkpt>
      <trkpt lat="47.20435" lon="-0.03039">
        <ele>43</ele>
        <time>2013-02-02T09:51:42.001Z</time>
      </trkpt>
      <trkpt lat="47.20434" lon="-0.03035">
        <ele>43</ele>
        <time>2013-02-02T09:51:43.001Z</time>
      </trkpt>
      <trkpt lat="47.20432" lon="-0.03029">
        <ele>42</ele>
        <time>2013-02-02T09:51:46.001Z</time>
      </trkpt>
      <trkpt lat="47.20432" lon="-0.03027">
        <ele>42</ele>
        <time>2013-02-02T09:51:47.001Z</time>
      </trkpt>
      <trkpt lat="47.2043" lon="-0.03022">
        <ele>42</ele>
        <time>2013-02-02T09:51:49.001Z</time>
      </trkpt>
      <trkpt lat="47.2043" lon="-0.0302">
        <ele>42</ele>
        <time>2013-02-02T09:51:50.001Z</time>
      </trkpt>
      <trkpt lat="47.20429" lon="-0.03015">
        <ele>42</ele>
        <time>2013-02-02T09:51:52.001Z</time>
      </trkpt>
      <trkpt lat="47.20429" lon="-0.03012">
        <ele>42</ele>
        <time>2013-02-02T09:51:53.001Z</time>
      </trkpt>
      <trkpt lat="47.20427" lon="-0.03006">
        <ele>42</ele>
        <time>2013-02-02T09:51:55.001Z</time>
      </trkpt>
      <trkpt lat="47.20426" lon="-0.03004">
        <ele>42</ele>
        <time>2013-02-02T09:51:56.001Z</time>
      </trkpt>
      <trkpt lat="47.20424" lon="-0.02998">
        <ele>42</ele>
        <time>2013-02-02T09:52:00.001Z</time>
      </trkpt>
      <trkpt lat="47.20423" lon="-0.02996">
        <ele>42</ele>
        <time>2013-02-02T09:52:01.001Z</time>
      </trkpt>
      <trkpt lat="47.20422" lon="-0.02991">
        <ele>42</ele>
        <time>2013-02-02T09:52:03.001Z</time>
      </trkpt>
      <trkpt lat="47.20422" lon="-0.02989">
        <ele>43</ele>
        <time>2013-02-02T09:52:04.001Z</time>
      </trkpt>
      <trkpt lat="47.20421" lon="-0.02983">
        <ele>43</ele>
        <time>2013-02-02T09:52:07.001Z</time>
      </trkpt>
      <trkpt lat="47.2042" lon="-0.02981">
        <ele>43</ele>
        <time>2013-02-02T09:52:08.001Z</time>
      </trkpt>
      <trkpt lat="47.20419" lon="-0.02976">
        <ele>43</ele>
        <time>2013-02-02T09:52:10.001Z</time>
      </trkpt>
      <trkpt lat="47.20418" lon="-0.02973">
        <ele>43</ele>
        <time>2013-02-02T09:52:11.001Z</time>
      </trkpt>
      <trkpt lat="47.20417" lon="-0.02967">
        <ele>43</ele>
        <time>2013-02-02T09:52:14.001Z</time>
      </trkpt>
      <trkpt lat="47.20417" lon="-0.02966">
        <ele>43</ele>
        <time>2013-02-02T09:52:15.001Z</time>
      </trkpt>
      <trkpt lat="47.20416" lon="-0.02961">
        <ele>43</ele>
        <time>2013-02-02T09:52:18.001Z</time>
      </trkpt>
      <trkpt lat="47.20416" lon="-0.02957">
        <ele>43</ele>
        <time>2013-02-02T09:52:19.001Z</time>
      </trkpt>
      <trkpt lat="47.20416" lon="-0.02952">
        <ele>44</ele>
        <time>2013-02-02T09:52:21.001Z</time>
      </trkpt>
      <trkpt lat="47.20416" lon="-0.0295">
        <ele>44</ele>
        <time>2013-02-02T09:52:22.001Z</time>
      </trkpt>
      <trkpt lat="47.20415" lon="-0.02944">
        <ele>44</ele>
        <time>2013-02-02T09:52:25.001Z</time>
      </trkpt>
      <trkpt lat="47.20414" lon="-0.02942">
        <ele>44</ele>
        <time>2013-02-02T09:52:26.001Z</time>
      </trkpt>
      <trkpt lat="47.20413" lon="-0.02937">
        <ele>44</ele>
        <time>2013-02-02T09:52:28.001Z</time>
      </trkpt>
      <trkpt lat="47.20412" lon="-0.02936">
        <ele>44</ele>
        <time>2013-02-02T09:52:29.001Z</time>
      </trkpt>
      <trkpt lat="47.20411" lon="-0.02931">
        <ele>44</ele>
        <time>2013-02-02T09:52:32.001Z</time>
      </trkpt>
      <trkpt lat="47.2041" lon="-0.02928">
        <ele>44</ele>
        <time>2013-02-02T09:52:33.001Z</time>
      </trkpt>
      <trkpt lat="47.20409" lon="-0.02923">
        <ele>44</ele>
        <time>2013-02-02T09:52:37.001Z</time>
      </trkpt>
      <trkpt lat="47.20408" lon="-0.0292">
        <ele>44</ele>
        <time>2013-02-02T09:52:38.001Z</time>
      </trkpt>
      <trkpt lat="47.20407" lon="-0.02914">
        <ele>45</ele>
        <time>2013-02-02T09:52:40.001Z</time>
      </trkpt>
      <trkpt lat="47.20406" lon="-0.02911">
        <ele>45</ele>
        <time>2013-02-02T09:52:41.001Z</time>
      </trkpt>
      <trkpt lat="47.20405" lon="-0.02906">
        <ele>45</ele>
        <time>2013-02-02T09:52:43.001Z</time>
      </trkpt>
      <trkpt lat="47.20404" lon="-0.02903">
        <ele>45</ele>
        <time>2013-02-02T09:52:44.001Z</time>
      </trkpt>
      <trkpt lat="47.20403" lon="-0.02898">
        <ele>45</ele>
        <time>2013-02-02T09:52:46.001Z</time>
      </trkpt>
      <trkpt lat="47.20403" lon="-0.02896">
        <ele>46</ele>
        <time>2013-02-02T09:52:47.001Z</time>
      </trkpt>
      <trkpt lat="47.20402" lon="-0.0289">
        <ele>46</ele>
        <time>2013-02-02T09:52:50.001Z</time>
      </trkpt>
      <trkpt lat="47.20402" lon="-0.02888">
        <ele>46</ele>
        <time>2013-02-02T09:52:51.001Z</time>
      </trkpt>
      <trkpt lat="47.20401" lon="-0.02882">
        <ele>46</ele>
        <time>2013-02-02T09:52:53.001Z</time>
      </trkpt>
      <trkpt lat="47.20402" lon="-0.02881">
        <ele>46</ele>
        <time>2013-02-02T09:52:54.001Z</time>
      </trkpt>
      <trkpt lat="47.20402" lon="-0.02874">
        <ele>46</ele>
        <time>2013-02-02T09:52:57.001Z</time>
      </trkpt>
      <trkpt lat="47.20401" lon="-0.02872">
        <ele>46</ele>
        <time>2013-02-02T09:52:58.001Z</time>
      </trkpt>
      <trkpt lat="47.204" lon="-0.02867">
        <ele>46</ele>
        <time>2013-02-02T09:53:01.001Z</time>
      </trkpt>
      <trkpt lat="47.204" lon="-0.02866">
        <ele>46</ele>
        <time>2013-02-02T09:53:02.001Z</time>
      </trkpt>
      <trkpt lat="47.20399" lon="-0.02861">
        <ele>46</ele>
        <time>2013-02-02T09:53:05.001Z</time>
      </trkpt>
      <trkpt lat="47.20399" lon="-0.02859">
        <ele>46</ele>
        <time>2013-02-02T09:53:06.001Z</time>
      </trkpt>
      <trkpt lat="47.20398" lon="-0.02853">
        <ele>46</ele>
        <time>2013-02-02T09:53:08.001Z</time>
      </trkpt>
      <trkpt lat="47.20397" lon="-0.0285">
        <ele>46</ele>
        <time>2013-02-02T09:53:09.001Z</time>
      </trkpt>
      <trkpt lat="47.20396" lon="-0.02846">
        <ele>46</ele>
        <time>2013-02-02T09:53:12.001Z</time>
      </trkpt>
      <trkpt lat="47.20396" lon="-0.02843">
        <ele>46</ele>
        <time>2013-02-02T09:53:13.001Z</time>
      </trkpt>
      <trkpt lat="47.20395" lon="-0.02837">
        <ele>46</ele>
        <time>2013-02-02T09:53:15.001Z</time>
      </trkpt>
      <trkpt lat="47.20394" lon="-0.02835">
        <ele>46</ele>
        <time>2013-02-02T09:53:16.001Z</time>
      </trkpt>
      <trkpt lat="47.20393" lon="-0.02831">
        <ele>47</ele>
        <time>2013-02-02T09:53:19.001Z</time>
      </trkpt>
      <trkpt lat="47.20393" lon="-0.02829">
        <ele>47</ele>
        <time>2013-02-02T09:53:20.001Z</time>
      </trkpt>
      <trkpt lat="47.20392" lon="-0.02825">
        <ele>47</ele>
        <time>2013-02-02T09:53:22.001Z</time>
      </trkpt>
      <trkpt lat="47.20391" lon="-0.02821">
        <ele>47</ele>
        <time>2013-02-02T09:53:23.001Z</time>
      </trkpt>
      <trkpt lat="47.2039" lon="-0.02816">
        <ele>47</ele>
        <time>2013-02-02T09:53:26.001Z</time>
      </trkpt>
      <trkpt lat="47.20389" lon="-0.02814">
        <ele>47</ele>
        <time>2013-02-02T09:53:27.001Z</time>
      </trkpt>
      <trkpt lat="47.20387" lon="-0.02808">
        <ele>47</ele>
        <time>2013-02-02T09:53:31.001Z</time>
      </trkpt>
      <trkpt lat="47.20386" lon="-0.02806">
        <ele>47</ele>
        <time>2013-02-02T09:53:32.001Z</time>
      </trkpt>
      <trkpt lat="47.20386" lon="-0.028">
        <ele>47</ele>
        <time>2013-02-02T09:53:35.001Z</time>
      </trkpt>
      <trkpt lat="47.20385" lon="-0.02799">
        <ele>47</ele>
        <time>2013-02-02T09:53:36.001Z</time>
      </trkpt>
      <trkpt lat="47.20385" lon="-0.02793">
        <ele>47</ele>
        <time>2013-02-02T09:53:38.000Z</time>
      </trkpt>
      <trkpt lat="47.20384" lon="-0.02789">
        <ele>47</ele>
        <time>2013-02-02T09:53:39.000Z</time>
      </trkpt>
      <trkpt lat="47.20384" lon="-0.02784">
        <ele>47</ele>
        <time>2013-02-02T09:53:41.000Z</time>
      </trkpt>
      <trkpt lat="47.20383" lon="-0.02782">
        <ele>47</ele>
        <time>2013-02-02T09:53:42.000Z</time>
      </trkpt>
      <trkpt lat="47.20383" lon="-0.02776">
        <ele>47</ele>
        <time>2013-02-02T09:53:44.000Z</time>
      </trkpt>
      <trkpt lat="47.20383" lon="-0.02774">
        <ele>47</ele>
        <time>2013-02-02T09:53:45.000Z</time>
      </trkpt>
      <trkpt lat="47.20382" lon="-0.02769">
        <ele>47</ele>
        <time>2013-02-02T09:53:47.000Z</time>
      </trkpt>
      <trkpt lat="47.20382" lon="-0.02766">
        <ele>47</ele>
        <time>2013-02-02T09:53:48.000Z</time>
      </trkpt>
      <trkpt lat="47.20381" lon="-0.0276">
        <ele>47</ele>
        <time>2013-02-02T09:53:50.000Z</time>
      </trkpt>
      <trkpt lat="47.20381" lon="-0.02758">
        <ele>47</ele>
        <time>2013-02-02T09:53:51.000Z</time>
      </trkpt>
      <trkpt lat="47.2038" lon="-0.02752">
        <ele>47</ele>
        <time>2013-02-02T09:53:55.000Z</time>
      </trkpt>
      <trkpt lat="47.2038" lon="-0.0275">
        <ele>48</ele>
        <time>2013-02-02T09:53:56.000Z</time>
      </trkpt>
      <trkpt lat="47.20379" lon="-0.02746">
        <ele>49</ele>
        <time>2013-02-02T09:53:58.000Z</time>
      </trkpt>
      <trkpt lat="47.20379" lon="-0.02743">
        <ele>49</ele>
        <time>2013-02-02T09:53:59.000Z</time>
      </trkpt>
      <trkpt lat="47.20378" lon="-0.02737">
        <ele>49</ele>
        <time>2013-02-02T09:54:03.000Z</time>
      </trkpt>
      <trkpt lat="47.20378" lon="-0.02735">
        <ele>49</ele>
        <time>2013-02-02T09:54:04.000Z</time>
      </trkpt>
      <trkpt lat="47.20376" lon="-0.02729">
        <ele>49</ele>
        <time>2013-02-02T09:54:07.000Z</time>
      </trkpt>
      <trkpt lat="47.20376" lon="-0.02727">
        <ele>49</ele>
        <time>2013-02-02T09:54:08.000Z</time>
      </trkpt>
      <trkpt lat="47.20375" lon="-0.02722">
        <ele>49</ele>
        <time>2013-02-02T09:54:11.000Z</time>
      </trkpt>
      <trkpt lat="47.20375" lon="-0.02721">
        <ele>49</ele>
        <time>2013-02-02T09:54:12.000Z</time>
      </trkpt>
      <trkpt lat="47.20374" lon="-0.02715">
        <ele>49</ele>
        <time>2013-02-02T09:54:14.000Z</time>
      </trkpt>
      <trkpt lat="47.20374" lon="-0.02713">
        <ele>49</ele>
        <time>2013-02-02T09:54:15.000Z</time>
      </trkpt>
      <trkpt lat="47.20374" lon="-0.02707">
        <ele>50</ele>
        <time>2013-02-02T09:54:18.000Z</time>
      </trkpt>
      <trkpt lat="47.20373" lon="-0.02705">
        <ele>50</ele>
        <time>2013-02-02T09:54:19.000Z</time>
      </trkpt>
      <trkpt lat="47.20373" lon="-0.027">
        <ele>50</ele>
        <time>2013-02-02T09:54:21.000Z</time>
      </trkpt>
      <trkpt lat="47.20372" lon="-0.02697">
        <ele>50</ele>
        <time>2013-02-02T09:54:22.000Z</time>
      </trkpt>
      <trkpt lat="47.20371" lon="-0.02692">
        <ele>50</ele>
        <time>2013-02-02T09:54:25.000Z</time>
      </trkpt>
      <trkpt lat="47.20371" lon="-0.0269">
        <ele>50</ele>
        <time>2013-02-02T09:54:26.000Z</time>
      </trkpt>
      <trkpt lat="47.2037" lon="-0.02685">
        <ele>50</ele>
        <time>2013-02-02T09:54:29.000Z</time>
      </trkpt>
      <trkpt lat="47.2037" lon="-0.02682">
        <ele>50</ele>
        <time>2013-02-02T09:54:30.000Z</time>
      </trkpt>
      <trkpt lat="47.20368" lon="-0.02678">
        <ele>50</ele>
        <time>2013-02-02T09:54:32.000Z</time>
      </trkpt>
      <trkpt lat="47.20367" lon="-0.02675">
        <ele>50</ele>
        <time>2013-02-02T09:54:33.000Z</time>
      </trkpt>
      <trkpt lat="47.20367" lon="-0.0267">
        <ele>50</ele>
        <time>2013-02-02T09:54:35.000Z</time>
      </trkpt>
      <trkpt lat="47.20367" lon="-0.02667">
        <ele>54</ele>
        <time>2013-02-02T09:54:36.000Z</time>
      </trkpt>
      <trkpt lat="47.20366" lon="-0.0266">
        <ele>54</ele>
        <time>2013-02-02T09:54:38.000Z</time>
      </trkpt>
      <trkpt lat="47.20366" lon="-0.02658">
        <ele>54</ele>
        <time>2013-02-02T09:54:39.000Z</time>
      </trkpt>
      <trkpt lat="47.20365" lon="-0.02652">
        <ele>54</ele>
        <time>2013-02-02T09:54:42.000Z</time>
      </trkpt>
      <trkpt lat="47.20364" lon="-0.0265">
        <ele>54</ele>
        <time>2013-02-02T09:54:43.000Z</time>
      </trkpt>
      <trkpt lat="47.20362" lon="-0.02645">
        <ele>54</ele>
        <time>2013-02-02T09:54:45.000Z</time>
      </trkpt>
      <trkpt lat="47.20362" lon="-0.02644">
        <ele>54</ele>
        <time>2013-02-02T09:54:46.000Z</time>
      </trkpt>
      <trkpt lat="47.20362" lon="-0.02639">
        <ele>54</ele>
        <time>2013-02-02T09:54:51.000Z</time>
      </trkpt>
      <trkpt lat="47.20362" lon="-0.02637">
        <ele>55</ele>
        <time>2013-02-02T09:54:52.000Z</time>
      </trkpt>
      <trkpt lat="47.20364" lon="-0.0263">
        <ele>55</ele>
        <time>2013-02-02T09:54:56.000Z</time>
      </trkpt>
      <trkpt lat="47.20364" lon="-0.0263">
        <ele>55</ele>
        <time>2013-02-02T09:54:57.000Z</time>
      </trkpt>
      <trkpt lat="47.20365" lon="-0.02624">
        <ele>55</ele>
        <time>2013-02-02T09:55:12.000Z</time>
      </trkpt>
      <trkpt lat="47.20366" lon="-0.02623">
        <ele>55</ele>
        <time>2013-02-02T09:55:13.000Z</time>
      </trkpt>
      <trkpt lat="47.20369" lon="-0.0262">
        <ele>56</ele>
        <time>2013-02-02T09:55:29.000Z</time>
      </trkpt>
      <trkpt lat="47.2037" lon="-0.02619">
        <ele>56</ele>
        <time>2013-02-02T09:55:30.000Z</time>
      </trkpt>
      <trkpt lat="47.20373" lon="-0.02616">
        <ele>56</ele>
        <time>2013-02-02T09:55:33.000Z</time>
      </trkpt>
      <trkpt lat="47.20375" lon="-0.02615">
        <ele>56</ele>
        <time>2013-02-02T09:55:34.000Z</time>
      </trkpt>
      <trkpt lat="47.20378" lon="-0.02614">
        <ele>56</ele>
        <time>2013-02-02T09:55:35.000Z</time>
      </trkpt>
      <trkpt lat="47.2038" lon="-0.02614">
        <ele>56</ele>
        <time>2013-02-02T09:55:36.000Z</time>
      </trkpt>
      <trkpt lat="47.20383" lon="-0.02614">
        <ele>56</ele>
        <time>2013-02-02T09:55:37.000Z</time>
      </trkpt>
      <trkpt lat="47.20385" lon="-0.02614">
        <ele>56</ele>
        <time>2013-02-02T09:55:38.000Z</time>
      </trkpt>
      <trkpt lat="47.20389" lon="-0.02613">
        <ele>57</ele>
        <time>2013-02-02T09:55:40.000Z</time>
      </trkpt>
      <trkpt lat="47.2039" lon="-0.02614">
        <ele>57</ele>
        <time>2013-02-02T09:55:41.000Z</time>
      </trkpt>
      <trkpt lat="47.20394" lon="-0.02615">
        <ele>57</ele>
        <time>2013-02-02T09:55:44.000Z</time>
      </trkpt>
      <trkpt lat="47.20395" lon="-0.02616">
        <ele>57</ele>
        <time>2013-02-02T09:55:45.000Z</time>
      </trkpt>
      <trkpt lat="47.20399" lon="-0.02615">
        <ele>57</ele>
        <time>2013-02-02T09:55:48.000Z</time>
      </trkpt>
      <trkpt lat="47.20401" lon="-0.02615">
        <ele>57</ele>
        <time>2013-02-02T09:55:49.000Z</time>
      </trkpt>
      <trkpt lat="47.20405" lon="-0.02616">
        <ele>57</ele>
        <time>2013-02-02T09:55:52.000Z</time>
      </trkpt>
      <trkpt lat="47.20406" lon="-0.02616">
        <ele>57</ele>
        <time>2013-02-02T09:55:53.000Z</time>
      </trkpt>
      <trkpt lat="47.20408" lon="-0.02616">
        <ele>57</ele>
        <time>2013-02-02T09:55:54.000Z</time>
      </trkpt>
      <trkpt lat="47.20411" lon="-0.02616">
        <ele>57</ele>
        <time>2013-02-02T09:55:55.000Z</time>
      </trkpt>
      <trkpt lat="47.20414" lon="-0.02617">
        <ele>57</ele>
        <time>2013-02-02T09:55:57.000Z</time>
      </trkpt>
      <trkpt lat="47.20416" lon="-0.02617">
        <ele>57</ele>
        <time>2013-02-02T09:55:58.000Z</time>
      </trkpt>
      <trkpt lat="47.20417" lon="-0.02617">
        <ele>59</ele>
        <time>2013-02-02T09:55:59.000Z</time>
      </trkpt>
      <trkpt lat="47.2042" lon="-0.02619">
        <ele>59</ele>
        <time>2013-02-02T09:56:00.000Z</time>
      </trkpt>
      <trkpt lat="47.20424" lon="-0.02621">
        <ele>58</ele>
        <time>2013-02-02T09:56:02.000Z</time>
      </trkpt>
      <trkpt lat="47.20425" lon="-0.02621">
        <ele>58</ele>
        <time>2013-02-02T09:56:03.000Z</time>
      </trkpt>
      <trkpt lat="47.20429" lon="-0.02622">
        <ele>58</ele>
        <time>2013-02-02T09:56:06.000Z</time>
      </trkpt>
      <trkpt lat="47.2043" lon="-0.02622">
        <ele>58</ele>
        <time>2013-02-02T09:56:07.000Z</time>
      </trkpt>
      <trkpt lat="47.20434" lon="-0.02623">
        <ele>58</ele>
        <time>2013-02-02T09:56:09.000Z</time>
      </trkpt>
      <trkpt lat="47.20436" lon="-0.02624">
        <ele>58</ele>
        <time>2013-02-02T09:56:10.000Z</time>
      </trkpt>
      <trkpt lat="47.2044" lon="-0.02626">
        <ele>58</ele>
        <time>2013-02-02T09:56:13.000Z</time>
      </trkpt>
      <trkpt lat="47.20441" lon="-0.02628">
        <ele>58</ele>
        <time>2013-02-02T09:56:14.000Z</time>
      </trkpt>
      <trkpt lat="47.20444" lon="-0.0263">
        <ele>58</ele>
        <time>2013-02-02T09:56:16.000Z</time>
      </trkpt>
      <trkpt lat="47.20446" lon="-0.0263">
        <ele>58</ele>
        <time>2013-02-02T09:56:17.000Z</time>
      </trkpt>
      <trkpt lat="47.20449" lon="-0.0263">
        <ele>58</ele>
        <time>2013-02-02T09:56:19.000Z</time>
      </trkpt>
      <trkpt lat="47.20451" lon="-0.0263">
        <ele>58</ele>
        <time>2013-02-02T09:56:20.000Z</time>
      </trkpt>
      <trkpt lat="47.20455" lon="-0.0263">
        <ele>58</ele>
        <time>2013-02-02T09:56:23.000Z</time>
      </trkpt>
      <trkpt lat="47.20457" lon="-0.0263">
        <ele>58</ele>
        <time>2013-02-02T09:56:24.000Z</time>
      </trkpt>
      <trkpt lat="47.20461" lon="-0.0263">
        <ele>58</ele>
        <time>2013-02-02T09:56:27.000Z</time>
      </trkpt>
      <trkpt lat="47.20462" lon="-0.0263">
        <ele>58</ele>
        <time>2013-02-02T09:56:28.000Z</time>
      </trkpt>
      <trkpt lat="47.20465" lon="-0.02629">
        <ele>58</ele>
        <time>2013-02-02T09:56:30.000Z</time>
      </trkpt>
      <trkpt lat="47.20467" lon="-0.02629">
        <ele>58</ele>
        <time>2013-02-02T09:56:31.000Z</time>
      </trkpt>
      <trkpt lat="47.20472" lon="-0.02627">
        <ele>59</ele>
        <time>2013-02-02T09:56:34.000Z</time>
      </trkpt>
      <trkpt lat="47.20474" lon="-0.02627">
        <ele>59</ele>
        <time>2013-02-02T09:56:35.000Z</time>
      </trkpt>
      <trkpt lat="47.20477" lon="-0.02626">
        <ele>59</ele>
        <time>2013-02-02T09:56:37.000Z</time>
      </trkpt>
      <trkpt lat="47.20478" lon="-0.02625">
        <ele>59</ele>
        <time>2013-02-02T09:56:38.000Z</time>
      </trkpt>
      <trkpt lat="47.20482" lon="-0.02623">
        <ele>59</ele>
        <time>2013-02-02T09:56:41.000Z</time>
      </trkpt>
      <trkpt lat="47.20483" lon="-0.02622">
        <ele>59</ele>
        <time>2013-02-02T09:56:42.000Z</time>
      </trkpt>
      <trkpt lat="47.20487" lon="-0.02621">
        <ele>59</ele>
        <time>2013-02-02T09:56:45.000Z</time>
      </trkpt>
      <trkpt lat="47.20489" lon="-0.0262">
        <ele>59</ele>
        <time>2013-02-02T09:56:46.000Z</time>
      </trkpt>
      <trkpt lat="47.20492" lon="-0.02618">
        <ele>59</ele>
        <time>2013-02-02T09:56:48.000Z</time>
      </trkpt>
      <trkpt lat="47.20493" lon="-0.02618">
        <ele>59</ele>
        <time>2013-02-02T09:56:49.000Z</time>
      </trkpt>
      <trkpt lat="47.20496" lon="-0.02615">
        <ele>60</ele>
        <time>2013-02-02T09:56:51.000Z</time>
      </trkpt>
      <trkpt lat="47.20498" lon="-0.02613">
        <ele>60</ele>
        <time>2013-02-02T09:56:52.000Z</time>
      </trkpt>
      <trkpt lat="47.20501" lon="-0.0261">
        <ele>60</ele>
        <time>2013-02-02T09:56:56.000Z</time>
      </trkpt>
      <trkpt lat="47.20502" lon="-0.02609">
        <ele>60</ele>
        <time>2013-02-02T09:56:57.000Z</time>
      </trkpt>
      <trkpt lat="47.20505" lon="-0.02606">
        <ele>60</ele>
        <time>2013-02-02T09:56:59.000Z</time>
      </trkpt>
      <trkpt lat="47.20507" lon="-0.02604">
        <ele>60</ele>
        <time>2013-02-02T09:57:00.000Z</time>
      </trkpt>
      <trkpt lat="47.20508" lon="-0.02603">
        <ele>61</ele>
        <time>2013-02-02T09:57:01.000Z</time>
      </trkpt>
      <trkpt lat="47.20511" lon="-0.02601">
        <ele>61</ele>
        <time>2013-02-02T09:57:02.000Z</time>
      </trkpt>
      <trkpt lat="47.20514" lon="-0.02597">
        <ele>61</ele>
        <time>2013-02-02T09:57:04.000Z</time>
      </trkpt>
      <trkpt lat="47.20515" lon="-0.02596">
        <ele>61</ele>
        <time>2013-02-02T09:57:05.000Z</time>
      </trkpt>
      <trkpt lat="47.20519" lon="-0.02593">
        <ele>61</ele>
        <time>2013-02-02T09:57:08.000Z</time>
      </trkpt>
      <trkpt lat="47.20521" lon="-0.02592">
        <ele>61</ele>
        <time>2013-02-02T09:57:09.000Z</time>
      </trkpt>
      <trkpt lat="47.20524" lon="-0.02589">
        <ele>60</ele>
        <time>2013-02-02T09:57:11.000Z</time>
      </trkpt>
      <trkpt lat="47.20526" lon="-0.02587">
        <ele>60</ele>
        <time>2013-02-02T09:57:12.000Z</time>
      </trkpt>
      <trkpt lat="47.20529" lon="-0.02584">
        <ele>60</ele>
        <time>2013-02-02T09:57:15.000Z</time>
      </trkpt>
      <trkpt lat="47.20531" lon="-0.02583">
        <ele>64</ele>
        <time>2013-02-02T09:57:16.000Z</time>
      </trkpt>
      <trkpt lat="47.20534" lon="-0.0258">
        <ele>64</ele>
        <time>2013-02-02T09:57:18.000Z</time>
      </trkpt>
      <trkpt lat="47.20535" lon="-0.02578">
        <ele>64</ele>
        <time>2013-02-02T09:57:19.000Z</time>
      </trkpt>
      <trkpt lat="47.20539" lon="-0.02575">
        <ele>64</ele>
        <time>2013-02-02T09:57:22.000Z</time>
      </trkpt>
      <trkpt lat="47.2054" lon="-0.02575">
        <ele>64</ele>
        <time>2013-02-02T09:57:23.000Z</time>
      </trkpt>
      <trkpt lat="47.20543" lon="-0.02573">
        <ele>64</ele>
        <time>2013-02-02T09:57:26.000Z</time>
      </trkpt>
      <trkpt lat="47.20545" lon="-0.02572">
        <ele>64</ele>
        <time>2013-02-02T09:57:27.000Z</time>
      </trkpt>
      <trkpt lat="47.20548" lon="-0.0257">
        <ele>64</ele>
        <time>2013-02-02T09:57:29.000Z</time>
      </trkpt>
      <trkpt lat="47.2055" lon="-0.02568">
        <ele>64</ele>
        <time>2013-02-02T09:57:30.000Z</time>
      </trkpt>
      <trkpt lat="47.20552" lon="-0.02566">
        <ele>64</ele>
        <time>2013-02-02T09:57:32.000Z</time>
      </trkpt>
      <trkpt lat="47.20554" lon="-0.02565">
        <ele>64</ele>
        <time>2013-02-02T09:57:33.000Z</time>
      </trkpt>
      <trkpt lat="47.20557" lon="-0.02563">
        <ele>64</ele>
        <time>2013-02-02T09:57:35.000Z</time>
      </trkpt>
      <trkpt lat="47.20559" lon="-0.02563">
        <ele>64</ele>
        <time>2013-02-02T09:57:36.000Z</time>
      </trkpt>
      <trkpt lat="47.20562" lon="-0.02561">
        <ele>64</ele>
        <time>2013-02-02T09:57:39.000Z</time>
      </trkpt>
      <trkpt lat="47.20564" lon="-0.0256">
        <ele>64</ele>
        <time>2013-02-02T09:57:40.000Z</time>
      </trkpt>
      <trkpt lat="47.20568" lon="-0.02558">
        <ele>64</ele>
        <time>2013-02-02T09:57:43.000Z</time>
      </trkpt>
      <trkpt lat="47.20568" lon="-0.02558">
        <ele>64</ele>
        <time>2013-02-02T09:57:44.000Z</time>
      </trkpt>
      <trkpt lat="47.20572" lon="-0.02556">
        <ele>64</ele>
        <time>2013-02-02T09:57:46.000Z</time>
      </trkpt>
      <trkpt lat="47.20573" lon="-0.02555">
        <ele>64</ele>
        <time>2013-02-02T09:57:47.000Z</time>
      </trkpt>
      <trkpt lat="47.20577" lon="-0.02554">
        <ele>64</ele>
        <time>2013-02-02T09:57:49.000Z</time>
      </trkpt>
      <trkpt lat="47.20578" lon="-0.02553">
        <ele>64</ele>
        <time>2013-02-02T09:57:50.000Z</time>
      </trkpt>
      <trkpt lat="47.20582" lon="-0.02551">
        <ele>64</ele>
        <time>2013-02-02T09:57:53.000Z</time>
      </trkpt>
      <trkpt lat="47.20584" lon="-0.0255">
        <ele>62</ele>
        <time>2013-02-02T09:57:54.000Z</time>
      </trkpt>
      <trkpt lat="47.20587" lon="-0.02547">
        <ele>62</ele>
        <time>2013-02-02T09:57:57.000Z</time>
      </trkpt>
      <trkpt lat="47.20587" lon="-0.02546">
        <ele>62</ele>
        <time>2013-02-02T09:57:58.000Z</time>
      </trkpt>
      <trkpt lat="47.2059" lon="-0.02542">
        <ele>62</ele>
        <time>2013-02-02T09:58:01.000Z</time>
      </trkpt>
      <trkpt lat="47.20592" lon="-0.02541">
        <ele>63</ele>
        <time>2013-02-02T09:58:02.000Z</time>
      </trkpt>
      <trkpt lat="47.20595" lon="-0.02537">
        <ele>63</ele>
        <time>2013-02-02T09:58:04.000Z</time>
      </trkpt>
      <trkpt lat="47.20596" lon="-0.02536">
        <ele>63</ele>
        <time>2013-02-02T09:58:05.000Z</time>
      </trkpt>
      <trkpt lat="47.206" lon="-0.02534">
        <ele>63</ele>
        <time>2013-02-02T09:58:07.000Z</time>
      </trkpt>
      <trkpt lat="47.20601" lon="-0.02533">
        <ele>63</ele>
        <time>2013-02-02T09:58:08.000Z</time>
      </trkpt>
      <trkpt lat="47.20603" lon="-0.02531">
        <ele>63</ele>
        <time>2013-02-02T09:58:10.000Z</time>
      </trkpt>
      <trkpt lat="47.20605" lon="-0.02529">
        <ele>63</ele>
        <time>2013-02-02T09:58:11.000Z</time>
      </trkpt>
      <trkpt lat="47.20608" lon="-0.02526">
        <ele>63</ele>
        <time>2013-02-02T09:58:15.000Z</time>
      </trkpt>
      <trkpt lat="47.20609" lon="-0.02525">
        <ele>63</ele>
        <time>2013-02-02T09:58:16.000Z</time>
      </trkpt>
      <trkpt lat="47.20612" lon="-0.02523">
        <ele>63</ele>
        <time>2013-02-02T09:58:18.000Z</time>
      </trkpt>
      <trkpt lat="47.20613" lon="-0.02522">
        <ele>63</ele>
        <time>2013-02-02T09:58:19.000Z</time>
      </trkpt>
      <trkpt lat="47.20617" lon="-0.0252">
        <ele>63</ele>
        <time>2013-02-02T09:58:22.000Z</time>
      </trkpt>
      <trkpt lat="47.20619" lon="-0.02518">
        <ele>63</ele>
        <time>2013-02-02T09:58:23.000Z</time>
      </trkpt>
      <trkpt lat="47.20622" lon="-0.02516">
        <ele>63</ele>
        <time>2013-02-02T09:58:26.000Z</time>
      </trkpt>
      <trkpt lat="47.20623" lon="-0.02515">
        <ele>63</ele>
        <time>2013-02-02T09:58:27.000Z</time>
      </trkpt>
      <trkpt lat="47.20626" lon="-0.02511">
        <ele>63</ele>
        <time>2013-02-02T09:58:30.000Z</time>
      </trkpt>
      <trkpt lat="47.20628" lon="-0.02508">
        <ele>63</ele>
        <time>2013-02-02T09:58:31.000Z</time>
      </trkpt>
      <trkpt lat="47.20631" lon="-0.02503">
        <ele>63</ele>
        <time>2013-02-02T09:58:33.000Z</time>
      </trkpt>
      <trkpt lat="47.20632" lon="-0.02501">
        <ele>63</ele>
        <time>2013-02-02T09:58:34.000Z</time>
      </trkpt>
      <trkpt lat="47.20635" lon="-0.02497">
        <ele>65</ele>
        <time>2013-02-02T09:58:37.000Z</time>
      </trkpt>
      <trkpt lat="47.20637" lon="-0.02496">
        <ele>65</ele>
        <time>2013-02-02T09:58:38.000Z</time>
      </trkpt>
      <trkpt lat="47.20639" lon="-0.02492">
        <ele>65</ele>
        <time>2013-02-02T09:58:40.000Z</time>
      </trkpt>
      <trkpt lat="47.20639" lon="-0.02491">
        <ele>65</ele>
        <time>2013-02-02T09:58:41.000Z</time>
      </trkpt>
      <trkpt lat="47.20643" lon="-0.02488">
        <ele>65</ele>
        <time>2013-02-02T09:58:43.000Z</time>
      </trkpt>
      <trkpt lat="47.20644" lon="-0.02486">
        <ele>65</ele>
        <time>2013-02-02T09:58:44.000Z</time>
      </trkpt>
      <trkpt lat="47.20646" lon="-0.02481">
        <ele>65</ele>
        <time>2013-02-02T09:58:47.000Z</time>
      </trkpt>
      <trkpt lat="47.20646" lon="-0.02479">
        <ele>65</ele>
        <time>2013-02-02T09:58:48.000Z</time>
      </trkpt>
      <trkpt lat="47.20649" lon="-0.02475">
        <ele>65</ele>
        <time>2013-02-02T09:58:51.000Z</time>
      </trkpt>
      <trkpt lat="47.2065" lon="-0.02472">
        <ele>65</ele>
        <time>2013-02-02T09:58:52.000Z</time>
      </trkpt>
      <trkpt lat="47.20653" lon="-0.02468">
        <ele>65</ele>
        <time>2013-02-02T09:58:55.000Z</time>
      </trkpt>
      <trkpt lat="47.20655" lon="-0.02467">
        <ele>65</ele>
        <time>2013-02-02T09:58:56.000Z</time>
      </trkpt>
      <trkpt lat="47.20657" lon="-0.02465">
        <ele>66</ele>
        <time>2013-02-02T09:58:57.000Z</time>
      </trkpt>
      <trkpt lat="47.20659" lon="-0.02463">
        <ele>66</ele>
        <time>2013-02-02T09:58:58.000Z</time>
      </trkpt>
      <trkpt lat="47.20663" lon="-0.0246">
        <ele>66</ele>
        <time>2013-02-02T09:59:01.000Z</time>
      </trkpt>
      <trkpt lat="47.20664" lon="-0.0246">
        <ele>66</ele>
        <time>2013-02-02T09:59:02.000Z</time>
      </trkpt>
      <trkpt lat="47.20668" lon="-0.02458">
        <ele>65</ele>
        <time>2013-02-02T09:59:04.000Z</time>
      </trkpt>
      <trkpt lat="47.2067" lon="-0.02457">
        <ele>65</ele>
        <time>2013-02-02T09:59:05.000Z</time>
      </trkpt>
      <trkpt lat="47.20674" lon="-0.02456">
        <ele>65</ele>
        <time>2013-02-02T09:59:07.000Z</time>
      </trkpt>
      <trkpt lat="47.20675" lon="-0.02454">
        <ele>65</ele>
        <time>2013-02-02T09:59:08.000Z</time>
      </trkpt>
      <trkpt lat="47.20679" lon="-0.02453">
        <ele>65</ele>
        <time>2013-02-02T09:59:10.000Z</time>
      </trkpt>
      <trkpt lat="47.2068" lon="-0.02453">
        <ele>65</ele>
        <time>2013-02-02T09:59:11.000Z</time>
      </trkpt>
      <trkpt lat="47.20684" lon="-0.02451">
        <ele>65</ele>
        <time>2013-02-02T09:59:13.000Z</time>
      </trkpt>
      <trkpt lat="47.20686" lon="-0.02451">
        <ele>65</ele>
        <time>2013-02-02T09:59:14.000Z</time>
      </trkpt>
      <trkpt lat="47.20689" lon="-0.02451">
        <ele>65</ele>
        <time>2013-02-02T09:59:16.000Z</time>
      </trkpt>
      <trkpt lat="47.20691" lon="-0.02451">
        <ele>65</ele>
        <time>2013-02-02T09:59:17.000Z</time>
      </trkpt>
      <trkpt lat="47.20695" lon="-0.02452">
        <ele>65</ele>
        <time>2013-02-02T09:59:19.000Z</time>
      </trkpt>
      <trkpt lat="47.20697" lon="-0.02452">
        <ele>65</ele>
        <time>2013-02-02T09:59:20.000Z</time>
      </trkpt>
      <trkpt lat="47.207" lon="-0.02451">
        <ele>65</ele>
        <time>2013-02-02T09:59:22.000Z</time>
      </trkpt>
      <trkpt lat="47.20702" lon="-0.02449">
        <ele>65</ele>
        <time>2013-02-02T09:59:23.000Z</time>
      </trkpt>
      <trkpt lat="47.20705" lon="-0.02447">
        <ele>65</ele>
        <time>2013-02-02T09:59:25.000Z</time>
      </trkpt>
      <trkpt lat="47.20706" lon="-0.02447">
        <ele>65</ele>
        <time>2013-02-02T09:59:26.000Z</time>
      </trkpt>
      <trkpt lat="47.20709" lon="-0.02447">
        <ele>65</ele>
        <time>2013-02-02T09:59:28.000Z</time>
      </trkpt>
      <trkpt lat="47.20711" lon="-0.02446">
        <ele>65</ele>
        <time>2013-02-02T09:59:29.000Z</time>
      </trkpt>
      <trkpt lat="47.20714" lon="-0.02445">
        <ele>65</ele>
        <time>2013-02-02T09:59:31.000Z</time>
      </trkpt>
      <trkpt lat="47.20716" lon="-0.02444">
        <ele>65</ele>
        <time>2013-02-02T09:59:32.000Z</time>
      </trkpt>
      <trkpt lat="47.2072" lon="-0.02443">
        <ele>65</ele>
        <time>2013-02-02T09:59:34.000Z</time>
      </trkpt>
      <trkpt lat="47.20722" lon="-0.02442">
        <ele>65</ele>
        <time>2013-02-02T09:59:35.000Z</time>
      </trkpt>
      <trkpt lat="47.20725" lon="-0.0244">
        <ele>66</ele>
        <time>2013-02-02T09:59:37.000Z</time>
      </trkpt>
      <trkpt lat="47.20727" lon="-0.02439">
        <ele>66</ele>
        <time>2013-02-02T09:59:38.000Z</time>
      </trkpt>
      <trkpt lat="47.2073" lon="-0.02437">
        <ele>66</ele>
        <time>2013-02-02T09:59:40.000Z</time>
      </trkpt>
      <trkpt lat="47.20731" lon="-0.02436">
        <ele>66</ele>
        <time>2013-02-02T09:59:41.000Z</time>
      </trkpt>
      <trkpt lat="47.20734" lon="-0.02434">
        <ele>66</ele>
        <time>2013-02-02T09:59:43.000Z</time>
      </trkpt>
      <trkpt lat="47.20735" lon="-0.02434">
        <ele>66</ele>
        <time>2013-02-02T09:59:44.000Z</time>
      </trkpt>
      <trkpt lat="47.20739" lon="-0.02431">
        <ele>66</ele>
        <time>2013-02-02T09:59:47.000Z</time>
      </trkpt>
      <trkpt lat="47.2074" lon="-0.02431">
        <ele>66</ele>
        <time>2013-02-02T09:59:48.000Z</time>
      </trkpt>
      <trkpt lat="47.20744" lon="-0.02429">
        <ele>66</ele>
        <time>2013-02-02T09:59:51.000Z</time>
      </trkpt>
      <trkpt lat="47.20745" lon="-0.02428">
        <ele>66</ele>
        <time>2013-02-02T09:59:52.000Z</time>
      </trkpt>
      <trkpt lat="47.20748" lon="-0.02425">
        <ele>66</ele>
        <time>2013-02-02T09:59:55.000Z</time>
      </trkpt>
      <trkpt lat="47.20748" lon="-0.02424">
        <ele>67</ele>
        <time>2013-02-02T09:59:56.000Z</time>
      </trkpt>
      <trkpt lat="47.20751" lon="-0.0242">
        <ele>67</ele>
        <time>2013-02-02T09:59:59.000Z</time>
      </trkpt>
      <trkpt lat="47.20752" lon="-0.02419">
        <ele>67</ele>
        <time>2013-02-02T10:00:00.000Z</time>
      </trkpt>
      <trkpt lat="47.20756" lon="-0.02416">
        <ele>67</ele>
        <time>2013-02-02T10:00:03.000Z</time>
      </trkpt>
      <trkpt lat="47.20757" lon="-0.02415">
        <ele>67</ele>
        <time>2013-02-02T10:00:04.000Z</time>
      </trkpt>
      <trkpt lat="47.20759" lon="-0.02413">
        <ele>67</ele>
        <time>2013-02-02T10:00:06.000Z</time>
      </trkpt>
      <trkpt lat="47.20761" lon="-0.02412">
        <ele>67</ele>
        <time>2013-02-02T10:00:07.000Z</time>
      </trkpt>
      <trkpt lat="47.20764" lon="-0.02409">
        <ele>67</ele>
        <time>2013-02-02T10:00:10.000Z</time>
      </trkpt>
      <trkpt lat="47.20766" lon="-0.02408">
        <ele>67</ele>
        <time>2013-02-02T10:00:11.000Z</time>
      </trkpt>
      <trkpt lat="47.20768" lon="-0.02406">
        <ele>68</ele>
        <time>2013-02-02T10:00:13.000Z</time>
      </trkpt>
      <trkpt lat="47.20769" lon="-0.02404">
        <ele>68</ele>
        <time>2013-02-02T10:00:14.000Z</time>
      </trkpt>
      <trkpt lat="47.20772" lon="-0.02399">
        <ele>68</ele>
        <time>2013-02-02T10:00:17.000Z</time>
      </trkpt>
      <trkpt lat="47.20773" lon="-0.02398">
        <ele>68</ele>
        <time>2013-02-02T10:00:18.000Z</time>
      </trkpt>
      <trkpt lat="47.20777" lon="-0.02394">
        <ele>68</ele>
        <time>2013-02-02T10:00:21.000Z</time>
      </trkpt>
      <trkpt lat="47.20778" lon="-0.02393">
        <ele>68</ele>
        <time>2013-02-02T10:00:22.000Z</time>
      </trkpt>
      <trkpt lat="47.20782" lon="-0.0239">
        <ele>68</ele>
        <time>2013-02-02T10:00:26.000Z</time>
      </trkpt>
      <trkpt lat="47.20783" lon="-0.02389">
        <ele>68</ele>
        <time>2013-02-02T10:00:27.000Z</time>
      </trkpt>
      <trkpt lat="47.20787" lon="-0.02389">
        <ele>68</ele>
        <time>2013-02-02T10:00:29.000Z</time>
      </trkpt>
      <trkpt lat="47.20789" lon="-0.02389">
        <ele>68</ele>
        <time>2013-02-02T10:00:30.000Z</time>
      </trkpt>
      <trkpt lat="47.20793" lon="-0.02387">
        <ele>68</ele>
        <time>2013-02-02T10:00:33.000Z</time>
      </trkpt>
      <trkpt lat="47.20794" lon="-0.02386">
        <ele>68</ele>
        <time>2013-02-02T10:00:34.000Z</time>
      </trkpt>
      <trkpt lat="47.20799" lon="-0.02386">
        <ele>68</ele>
        <time>2013-02-02T10:00:36.000Z</time>
      </trkpt>
      <trkpt lat="47.208" lon="-0.02386">
        <ele>68</ele>
        <time>2013-02-02T10:00:37.000Z</time>
      </trkpt>
      <trkpt lat="47.20804" lon="-0.02384">
        <ele>68</ele>
        <time>2013-02-02T10:00:39.000Z</time>
      </trkpt>
      <trkpt lat="47.20806" lon="-0.02382">
        <ele>68</ele>
        <time>2013-02-02T10:00:40.000Z</time>
      </trkpt>
      <trkpt lat="47.20809" lon="-0.02381">
        <ele>68</ele>
        <time>2013-02-02T10:00:42.000Z</time>
      </trkpt>
      <trkpt lat="47.2081" lon="-0.02379">
        <ele>68</ele>
        <time>2013-02-02T10:00:43.000Z</time>
      </trkpt>
      <trkpt lat="47.20813" lon="-0.02378">
        <ele>68</ele>
        <time>2013-02-02T10:00:45.000Z</time>
      </trkpt>
      <trkpt lat="47.20815" lon="-0.02377">
        <ele>68</ele>
        <time>2013-02-02T10:00:46.000Z</time>
      </trkpt>
      <trkpt lat="47.20819" lon="-0.02377">
        <ele>68</ele>
        <time>2013-02-02T10:00:49.000Z</time>
      </trkpt>
      <trkpt lat="47.20821" lon="-0.02377">
        <ele>68</ele>
        <time>2013-02-02T10:00:50.000Z</time>
      </trkpt>
      <trkpt lat="47.20825" lon="-0.02378">
        <ele>68</ele>
        <time>2013-02-02T10:00:52.000Z</time>
      </trkpt>
      <trkpt lat="47.20827" lon="-0.02377">
        <ele>68</ele>
        <time>2013-02-02T10:00:53.000Z</time>
      </trkpt>
      <trkpt lat="47.20829" lon="-0.02377">
        <ele>68</ele>
        <time>2013-02-02T10:00:54.000Z</time>
      </trkpt>
      <trkpt lat="47.20831" lon="-0.02376">
        <ele>68</ele>
        <time>2013-02-02T10:00:55.000Z</time>
      </trkpt>
      <trkpt lat="47.20835" lon="-0.02375">
        <ele>67</ele>
        <time>2013-02-02T10:00:57.000Z</time>
      </trkpt>
      <trkpt lat="47.20837" lon="-0.02375">
        <ele>67</ele>
        <time>2013-02-02T10:00:58.000Z</time>
      </trkpt>
      <trkpt lat="47.20841" lon="-0.02374">
        <ele>67</ele>
        <time>2013-02-02T10:01:02.000Z</time>
      </trkpt>
      <trkpt lat="47.20842" lon="-0.02373">
        <ele>67</ele>
        <time>2013-02-02T10:01:03.000Z</time>
      </trkpt>
      <trkpt lat="47.20846" lon="-0.02371">
        <ele>67</ele>
        <time>2013-02-02T10:01:05.000Z</time>
      </trkpt>
      <trkpt lat="47.20848" lon="-0.0237">
        <ele>68</ele>
        <time>2013-02-02T10:01:06.000Z</time>
      </trkpt>
      <trkpt lat="47.20851" lon="-0.02369">
        <ele>68</ele>
        <time>2013-02-02T10:01:09.000Z</time>
      </trkpt>
      <trkpt lat="47.20853" lon="-0.02368">
        <ele>68</ele>
        <time>2013-02-02T10:01:10.000Z</time>
      </trkpt>
      <trkpt lat="47.20857" lon="-0.02368">
        <ele>68</ele>
        <time>2013-02-02T10:01:13.000Z</time>
      </trkpt>
      <trkpt lat="47.20858" lon="-0.02368">
        <ele>68</ele>
        <time>2013-02-02T10:01:14.000Z</time>
      </trkpt>
      <trkpt lat="47.20862" lon="-0.02368">
        <ele>68</ele>
        <time>2013-02-02T10:01:17.000Z</time>
      </trkpt>
      <trkpt lat="47.20864" lon="-0.02368">
        <ele>68</ele>
        <time>2013-02-02T10:01:18.000Z</time>
      </trkpt>
      <trkpt lat="47.20869" lon="-0.02368">
        <ele>68</ele>
        <time>2013-02-02T10:01:20.000Z</time>
      </trkpt>
      <trkpt lat="47.20869" lon="-0.02368">
        <ele>68</ele>
        <time>2013-02-02T10:01:21.000Z</time>
      </trkpt>
      <trkpt lat="47.20873" lon="-0.02368">
        <ele>68</ele>
        <time>2013-02-02T10:01:23.000Z</time>
      </trkpt>
      <trkpt lat="47.20875" lon="-0.02367">
        <ele>68</ele>
        <time>2013-02-02T10:01:24.000Z</time>
      </trkpt>
      <trkpt lat="47.20879" lon="-0.02367">
        <ele>68</ele>
        <time>2013-02-02T10:01:27.000Z</time>
      </trkpt>
      <trkpt lat="47.2088" lon="-0.02367">
        <ele>68</ele>
        <time>2013-02-02T10:01:28.000Z</time>
      </trkpt>
      <trkpt lat="47.20884" lon="-0.02365">
        <ele>68</ele>
        <time>2013-02-02T10:01:31.000Z</time>
      </trkpt>
      <trkpt lat="47.20885" lon="-0.02364">
        <ele>68</ele>
        <time>2013-02-02T10:01:32.000Z</time>
      </trkpt>
      <trkpt lat="47.20889" lon="-0.02362">
        <ele>68</ele>
        <time>2013-02-02T10:01:34.000Z</time>
      </trkpt>
      <trkpt lat="47.2089" lon="-0.02362">
        <ele>68</ele>
        <time>2013-02-02T10:01:35.000Z</time>
      </trkpt>
      <trkpt lat="47.20894" lon="-0.02361">
        <ele>68</ele>
        <time>2013-02-02T10:01:38.000Z</time>
      </trkpt>
      <trkpt lat="47.20896" lon="-0.02361">
        <ele>68</ele>
        <time>2013-02-02T10:01:39.000Z</time>
      </trkpt>
      <trkpt lat="47.209" lon="-0.02361">
        <ele>68</ele>
        <time>2013-02-02T10:01:43.000Z</time>
      </trkpt>
      <trkpt lat="47.20901" lon="-0.0236">
        <ele>68</ele>
        <time>2013-02-02T10:01:44.000Z</time>
      </trkpt>
      <trkpt lat="47.20904" lon="-0.02358">
        <ele>69</ele>
        <time>2013-02-02T10:01:46.000Z</time>
      </trkpt>
      <trkpt lat="47.20906" lon="-0.02357">
        <ele>69</ele>
        <time>2013-02-02T10:01:47.000Z</time>
      </trkpt>
      <trkpt lat="47.20909" lon="-0.02358">
        <ele>69</ele>
        <time>2013-02-02T10:01:49.000Z</time>
      </trkpt>
      <trkpt lat="47.20912" lon="-0.02358">
        <ele>69</ele>
        <time>2013-02-02T10:01:50.000Z</time>
      </trkpt>
      <trkpt lat="47.20914" lon="-0.02358">
        <ele>69</ele>
        <time>2013-02-02T10:01:51.000Z</time>
      </trkpt>
      <trkpt lat="47.20917" lon="-0.02357">
        <ele>69</ele>
        <time>2013-02-02T10:01:52.000Z</time>
      </trkpt>
      <trkpt lat="47.2092" lon="-0.02358">
        <ele>69</ele>
        <time>2013-02-02T10:01:54.000Z</time>
      </trkpt>
      <trkpt lat="47.20922" lon="-0.02358">
        <ele>69</ele>
        <time>2013-02-02T10:01:55.000Z</time>
      </trkpt>
      <trkpt lat="47.20925" lon="-0.02359">
        <ele>69</ele>
        <time>2013-02-02T10:01:57.000Z</time>
      </trkpt>
      <trkpt lat="47.20926" lon="-0.02359">
        <ele>69</ele>
        <time>2013-02-02T10:01:58.000Z</time>
      </trkpt>
      <trkpt lat="47.2093" lon="-0.0236">
        <ele>69</ele>
        <time>2013-02-02T10:02:00.000Z</time>
      </trkpt>
      <trkpt lat="47.20932" lon="-0.0236">
        <ele>69</ele>
        <time>2013-02-02T10:02:01.000Z</time>
      </trkpt>
      <trkpt lat="47.20934" lon="-0.02362">
        <ele>69</ele>
        <time>2013-02-02T10:02:03.000Z</time>
      </trkpt>
      <trkpt lat="47.20936" lon="-0.02363">
        <ele>69</ele>
        <time>2013-02-02T10:02:04.000Z</time>
      </trkpt>
      <trkpt lat="47.2094" lon="-0.02364">
        <ele>69</ele>
        <time>2013-02-02T10:02:06.000Z</time>
      </trkpt>
      <trkpt lat="47.20941" lon="-0.02364">
        <ele>69</ele>
        <time>2013-02-02T10:02:07.000Z</time>
      </trkpt>
      <trkpt lat="47.20945" lon="-0.02366">
        <ele>69</ele>
        <time>2013-02-02T10:02:10.000Z</time>
      </trkpt>
      <trkpt lat="47.20946" lon="-0.02367">
        <ele>69</ele>
        <time>2013-02-02T10:02:11.000Z</time>
      </trkpt>
      <trkpt lat="47.20949" lon="-0.02368">
        <ele>69</ele>
        <time>2013-02-02T10:02:15.000Z</time>
      </trkpt>
      <trkpt lat="47.20951" lon="-0.02368">
        <ele>69</ele>
        <time>2013-02-02T10:02:16.000Z</time>
      </trkpt>
      <trkpt lat="47.20954" lon="-0.02368">
        <ele>69</ele>
        <time>2013-02-02T10:02:18.000Z</time>
      </trkpt>
      <trkpt lat="47.20956" lon="-0.02368">
        <ele>69</ele>
        <time>2013-02-02T10:02:19.000Z</time>
      </trkpt>
      <trkpt lat="47.20959" lon="-0.0237">
        <ele>69</ele>
        <time>2013-02-02T10:02:21.000Z</time>
      </trkpt>
      <trkpt lat="47.20961" lon="-0.02371">
        <ele>69</ele>
        <time>2013-02-02T10:02:22.000Z</time>
      </trkpt>
      <trkpt lat="47.20963" lon="-0.02373">
        <ele>69</ele>
        <time>2013-02-02T10:02:24.000Z</time>
      </trkpt>
      <trkpt lat="47.20965" lon="-0.02374">
        <ele>69</ele>
        <time>2013-02-02T10:02:25.000Z</time>
      </trkpt>
      <trkpt lat="47.20968" lon="-0.02377">
        <ele>69</ele>
        <time>2013-02-02T10:02:28.000Z</time>
      </trkpt>
      <trkpt lat="47.2097" lon="-0.02378">
        <ele>69</ele>
        <time>2013-02-02T10:02:29.000Z</time>
      </trkpt>
      <trkpt lat="47.20973" lon="-0.0238">
        <ele>68</ele>
        <time>2013-02-02T10:02:32.000Z</time>
      </trkpt>
      <trkpt lat="47.20974" lon="-0.02381">
        <ele>68</ele>
        <time>2013-02-02T10:02:33.000Z</time>
      </trkpt>
      <trkpt lat="47.20978" lon="-0.02384">
        <ele>68</ele>
        <time>2013-02-02T10:02:36.000Z</time>
      </trkpt>
      <trkpt lat="47.20979" lon="-0.02385">
        <ele>68</ele>
        <time>2013-02-02T10:02:37.000Z</time>
      </trkpt>
      <trkpt lat="47.20982" lon="-0.0239">
        <ele>68</ele>
        <time>2013-02-02T10:02:40.000Z</time>
      </trkpt>
      <trkpt lat="47.20983" lon="-0.02391">
        <ele>68</ele>
        <time>2013-02-02T10:02:41.000Z</time>
      </trkpt>
      <trkpt lat="47.20987" lon="-0.02394">
        <ele>68</ele>
        <time>2013-02-02T10:02:44.000Z</time>
      </trkpt>
      <trkpt lat="47.20988" lon="-0.02394">
        <ele>68</ele>
        <time>2013-02-02T10:02:45.000Z</time>
      </trkpt>
      <trkpt lat="47.20991" lon="-0.02395">
        <ele>68</ele>
        <time>2013-02-02T10:02:47.000Z</time>
      </trkpt>
      <trkpt lat="47.20993" lon="-0.02396">
        <ele>68</ele>
        <time>2013-02-02T10:02:48.000Z</time>
      </trkpt>
      <trkpt lat="47.20996" lon="-0.02395">
        <ele>68</ele>
        <time>2013-02-02T10:02:50.000Z</time>
      </trkpt>
      <trkpt lat="47.20998" lon="-0.02394">
        <ele>68</ele>
        <time>2013-02-02T10:02:51.000Z</time>
      </trkpt>
      <trkpt lat="47.21002" lon="-0.02392">
        <ele>69</ele>
        <time>2013-02-02T10:02:53.000Z</time>
      </trkpt>
      <trkpt lat="47.21003" lon="-0.02392">
        <ele>69</ele>
        <time>2013-02-02T10:02:54.000Z</time>
      </trkpt>
      <trkpt lat="47.21008" lon="-0.02392">
        <ele>69</ele>
        <time>2013-02-02T10:02:57.000Z</time>
      </trkpt>
      <trkpt lat="47.2101" lon="-0.02392">
        <ele>69</ele>
        <time>2013-02-02T10:02:58.000Z</time>
      </trkpt>
      <trkpt lat="47.21013" lon="-0.02395">
        <ele>69</ele>
        <time>2013-02-02T10:03:00.000Z</time>
      </trkpt>
      <trkpt lat="47.21016" lon="-0.02396">
        <ele>69</ele>
        <time>2013-02-02T10:03:01.000Z</time>
      </trkpt>
      <trkpt lat="47.2102" lon="-0.02397">
        <ele>69</ele>
        <time>2013-02-02T10:03:04.000Z</time>
      </trkpt>
      <trkpt lat="47.21021" lon="-0.02397">
        <ele>69</ele>
        <time>2013-02-02T10:03:05.000Z</time>
      </trkpt>
      <trkpt lat="47.21023" lon="-0.02392">
        <ele>69</ele>
        <time>2013-02-02T10:03:08.000Z</time>
      </trkpt>
      <trkpt lat="47.21025" lon="-0.02393">
        <ele>69</ele>
        <time>2013-02-02T10:03:09.000Z</time>
      </trkpt>
      <trkpt lat="47.21027" lon="-0.02394">
        <ele>69</ele>
        <time>2013-02-02T10:03:10.000Z</time>
      </trkpt>
      <trkpt lat="47.2103" lon="-0.02395">
        <ele>69</ele>
        <time>2013-02-02T10:03:11.000Z</time>
      </trkpt>
      <trkpt lat="47.21034" lon="-0.02396">
        <ele>69</ele>
        <time>2013-02-02T10:03:13.000Z</time>
      </trkpt>
      <trkpt lat="47.21035" lon="-0.02396">
        <ele>69</ele>
        <time>2013-02-02T10:03:14.000Z</time>
      </trkpt>
      <trkpt lat="47.21039" lon="-0.02395">
        <ele>69</ele>
        <time>2013-02-02T10:03:18.000Z</time>
      </trkpt>
      <trkpt lat="47.21042" lon="-0.02395">
        <ele>69</ele>
        <time>2013-02-02T10:03:19.000Z</time>
      </trkpt>
      <trkpt lat="47.21046" lon="-0.02394">
        <ele>69</ele>
        <time>2013-02-02T10:03:21.000Z</time>
      </trkpt>
      <trkpt lat="47.21047" lon="-0.02394">
        <ele>69</ele>
        <time>2013-02-02T10:03:22.000Z</time>
      </trkpt>
      <trkpt lat="47.21051" lon="-0.02394">
        <ele>69</ele>
        <time>2013-02-02T10:03:24.000Z</time>
      </trkpt>
      <trkpt lat="47.21052" lon="-0.02394">
        <ele>69</ele>
        <time>2013-02-02T10:03:25.000Z</time>
      </trkpt>
      <trkpt lat="47.21055" lon="-0.02394">
        <ele>69</ele>
        <time>2013-02-02T10:03:27.000Z</time>
      </trkpt>
      <trkpt lat="47.21057" lon="-0.02394">
        <ele>69</ele>
        <time>2013-02-02T10:03:28.000Z</time>
      </trkpt>
      <trkpt lat="47.2106" lon="-0.02393">
        <ele>69</ele>
        <time>2013-02-02T10:03:30.000Z</time>
      </trkpt>
      <trkpt lat="47.21062" lon="-0.02392">
        <ele>69</ele>
        <time>2013-02-02T10:03:31.000Z</time>
      </trkpt>
      <trkpt lat="47.21065" lon="-0.02393">
        <ele>69</ele>
        <time>2013-02-02T10:03:33.000Z</time>
      </trkpt>
      <trkpt lat="47.21067" lon="-0.02393">
        <ele>69</ele>
        <time>2013-02-02T10:03:34.000Z</time>
      </trkpt>
      <trkpt lat="47.2107" lon="-0.02393">
        <ele>69</ele>
        <time>2013-02-02T10:03:36.000Z</time>
      </trkpt>
      <trkpt lat="47.21071" lon="-0.02392">
        <ele>69</ele>
        <time>2013-02-02T10:03:37.000Z</time>
      </trkpt>
      <trkpt lat="47.21075" lon="-0.02395">
        <ele>69</ele>
        <time>2013-02-02T10:03:40.000Z</time>
      </trkpt>
      <trkpt lat="47.21077" lon="-0.02396">
        <ele>68</ele>
        <time>2013-02-02T10:03:41.000Z</time>
      </trkpt>
      <trkpt lat="47.21081" lon="-0.02396">
        <ele>68</ele>
        <time>2013-02-02T10:03:43.000Z</time>
      </trkpt>
      <trkpt lat="47.21083" lon="-0.02396">
        <ele>68</ele>
        <time>2013-02-02T10:03:44.000Z</time>
      </trkpt>
      <trkpt lat="47.21087" lon="-0.02397">
        <ele>68</ele>
        <time>2013-02-02T10:03:47.000Z</time>
      </trkpt>
      <trkpt lat="47.21088" lon="-0.02397">
        <ele>68</ele>
        <time>2013-02-02T10:03:48.000Z</time>
      </trkpt>
      <trkpt lat="47.21092" lon="-0.02397">
        <ele>68</ele>
        <time>2013-02-02T10:03:50.000Z</time>
      </trkpt>
      <trkpt lat="47.21093" lon="-0.02397">
        <ele>68</ele>
        <time>2013-02-02T10:03:51.000Z</time>
      </trkpt>
      <trkpt lat="47.21097" lon="-0.02397">
        <ele>68</ele>
        <time>2013-02-02T10:03:54.000Z</time>
      </trkpt>
      <trkpt lat="47.21098" lon="-0.02397">
        <ele>68</ele>
        <time>2013-02-02T10:03:55.000Z</time>
      </trkpt>
      <trkpt lat="47.21102" lon="-0.02397">
        <ele>68</ele>
        <time>2013-02-02T10:03:58.000Z</time>
      </trkpt>
      <trkpt lat="47.21103" lon="-0.02397">
        <ele>68</ele>
        <time>2013-02-02T10:03:59.000Z</time>
      </trkpt>
      <trkpt lat="47.21107" lon="-0.02397">
        <ele>68</ele>
        <time>2013-02-02T10:04:01.000Z</time>
      </trkpt>
      <trkpt lat="47.21108" lon="-0.02396">
        <ele>68</ele>
        <time>2013-02-02T10:04:02.000Z</time>
      </trkpt>
      <trkpt lat="47.21112" lon="-0.02396">
        <ele>68</ele>
        <time>2013-02-02T10:04:04.000Z</time>
      </trkpt>
      <trkpt lat="47.21113" lon="-0.02395">
        <ele>68</ele>
        <time>2013-02-02T10:04:05.000Z</time>
      </trkpt>
      <trkpt lat="47.21117" lon="-0.02396">
        <ele>68</ele>
        <time>2013-02-02T10:04:07.000Z</time>
      </trkpt>
      <trkpt lat="47.21119" lon="-0.02395">
        <ele>68</ele>
        <time>2013-02-02T10:04:08.000Z</time>
      </trkpt>
      <trkpt lat="47.21123" lon="-0.02395">
        <ele>68</ele>
        <time>2013-02-02T10:04:11.000Z</time>
      </trkpt>
      <trkpt lat="47.21124" lon="-0.02394">
        <ele>68</ele>
        <time>2013-02-02T10:04:12.000Z</time>
      </trkpt>
      <trkpt lat="47.21128" lon="-0.02392">
        <ele>68</ele>
        <time>2013-02-02T10:04:14.000Z</time>
      </trkpt>
      <trkpt lat="47.21129" lon="-0.02391">
        <ele>68</ele>
        <time>2013-02-02T10:04:15.000Z</time>
      </trkpt>
      <trkpt lat="47.21133" lon="-0.0239">
        <ele>68</ele>
        <time>2013-02-02T10:04:17.000Z</time>
      </trkpt>
      <trkpt lat="47.21135" lon="-0.02389">
        <ele>68</ele>
        <time>2013-02-02T10:04:18.000Z</time>
      </trkpt>
      <trkpt lat="47.21139" lon="-0.02387">
        <ele>68</ele>
        <time>2013-02-02T10:04:21.000Z</time>
      </trkpt>
      <trkpt lat="47.2114" lon="-0.02387">
        <ele>68</ele>
        <time>2013-02-02T10:04:22.000Z</time>
      </trkpt>
      <trkpt lat="47.21141" lon="-0.02381">
        <ele>68</ele>
        <time>2013-02-02T10:04:39.000Z</time>
      </trkpt>
      <trkpt lat="47.21142" lon="-0.0238">
        <ele>68</ele>
        <time>2013-02-02T10:04:40.000Z</time>
      </trkpt>
      <trkpt lat="47.21145" lon="-0.02376">
        <ele>68</ele>
        <time>2013-02-02T10:04:43.000Z</time>
      </trkpt>
      <trkpt lat="47.21146" lon="-0.02376">
        <ele>68</ele>
        <time>2013-02-02T10:04:44.000Z</time>
      </trkpt>
      <trkpt lat="47.21149" lon="-0.02374">
        <ele>68</ele>
        <time>2013-02-02T10:04:46.000Z</time>
      </trkpt>
      <trkpt lat="47.21151" lon="-0.02373">
        <ele>68</ele>
        <time>2013-02-02T10:04:47.000Z</time>
      </trkpt>
      <trkpt lat="47.21154" lon="-0.02371">
        <ele>68</ele>
        <time>2013-02-02T10:04:49.000Z</time>
      </trkpt>
      <trkpt lat="47.21156" lon="-0.0237">
        <ele>68</ele>
        <time>2013-02-02T10:04:50.000Z</time>
      </trkpt>
      <trkpt lat="47.21159" lon="-0.02368">
        <ele>68</ele>
        <time>2013-02-02T10:04:52.000Z</time>
      </trkpt>
      <trkpt lat="47.2116" lon="-0.02366">
        <ele>69</ele>
        <time>2013-02-02T10:04:53.000Z</time>
      </trkpt>
      <trkpt lat="47.21164" lon="-0.02366">
        <ele>69</ele>
        <time>2013-02-02T10:04:55.000Z</time>
      </trkpt>
      <trkpt lat="47.21166" lon="-0.02364">
        <ele>69</ele>
        <time>2013-02-02T10:04:56.000Z</time>
      </trkpt>
      <trkpt lat="47.2117" lon="-0.02364">
        <ele>68</ele>
        <time>2013-02-02T10:04:58.000Z</time>
      </trkpt>
      <trkpt lat="47.21171" lon="-0.02364">
        <ele>68</ele>
        <time>2013-02-02T10:04:59.000Z</time>
      </trkpt>
      <trkpt lat="47.21174" lon="-0.02363">
        <ele>68</ele>
        <time>2013-02-02T10:05:02.000Z</time>
      </trkpt>
      <trkpt lat="47.21176" lon="-0.02363">
        <ele>68</ele>
        <time>2013-02-02T10:05:03.000Z</time>
      </trkpt>
      <trkpt lat="47.21179" lon="-0.02361">
        <ele>68</ele>
        <time>2013-02-02T10:05:05.000Z</time>
      </trkpt>
      <trkpt lat="47.21182" lon="-0.0236">
        <ele>68</ele>
        <time>2013-02-02T10:05:06.000Z</time>
      </trkpt>
      <trkpt lat="47.21186" lon="-0.02358">
        <ele>68</ele>
        <time>2013-02-02T10:05:08.000Z</time>
      </trkpt>
      <trkpt lat="47.21187" lon="-0.02358">
        <ele>68</ele>
        <time>2013-02-02T10:05:09.000Z</time>
      </trkpt>
      <trkpt lat="47.21191" lon="-0.02356">
        <ele>68</ele>
        <time>2013-02-02T10:05:11.000Z</time>
      </trkpt>
      <trkpt lat="47.21192" lon="-0.02356">
        <ele>68</ele>
        <time>2013-02-02T10:05:12.000Z</time>
      </trkpt>
      <trkpt lat="47.21195" lon="-0.02355">
        <ele>68</ele>
        <time>2013-02-02T10:05:15.000Z</time>
      </trkpt>
      <trkpt lat="47.21196" lon="-0.02354">
        <ele>68</ele>
        <time>2013-02-02T10:05:16.000Z</time>
      </trkpt>
      <trkpt lat="47.212" lon="-0.02355">
        <ele>68</ele>
        <time>2013-02-02T10:05:19.000Z</time>
      </trkpt>
      <trkpt lat="47.21202" lon="-0.02355">
        <ele>68</ele>
        <time>2013-02-02T10:05:20.000Z</time>
      </trkpt>
      <trkpt lat="47.21205" lon="-0.02354">
        <ele>68</ele>
        <time>2013-02-02T10:05:22.000Z</time>
      </trkpt>
      <trkpt lat="47.21207" lon="-0.02353">
        <ele>67</ele>
        <time>2013-02-02T10:05:23.000Z</time>
      </trkpt>
      <trkpt lat="47.2121" lon="-0.02352">
        <ele>67</ele>
        <time>2013-02-02T10:05:25.000Z</time>
      </trkpt>
      <trkpt lat="47.21212" lon="-0.02352">
        <ele>67</ele>
        <time>2013-02-02T10:05:26.000Z</time>
      </trkpt>
      <trkpt lat="47.21216" lon="-0.02351">
        <ele>67</ele>
        <time>2013-02-02T10:05:29.000Z</time>
      </trkpt>
      <trkpt lat="47.21218" lon="-0.0235">
        <ele>67</ele>
        <time>2013-02-02T10:05:30.000Z</time>
      </trkpt>
      <trkpt lat="47.21223" lon="-0.0235">
        <ele>67</ele>
        <time>2013-02-02T10:05:33.000Z</time>
      </trkpt>
      <trkpt lat="47.21224" lon="-0.02349">
        <ele>67</ele>
        <time>2013-02-02T10:05:34.000Z</time>
      </trkpt>
      <trkpt lat="47.21228" lon="-0.02348">
        <ele>67</ele>
        <time>2013-02-02T10:05:37.000Z</time>
      </trkpt>
      <trkpt lat="47.21229" lon="-0.02348">
        <ele>67</ele>
        <time>2013-02-02T10:05:38.000Z</time>
      </trkpt>
      <trkpt lat="47.21232" lon="-0.02348">
        <ele>67</ele>
        <time>2013-02-02T10:05:40.000Z</time>
      </trkpt>
      <trkpt lat="47.21234" lon="-0.02348">
        <ele>67</ele>
        <time>2013-02-02T10:05:41.000Z</time>
      </trkpt>
      <trkpt lat="47.21238" lon="-0.02349">
        <ele>67</ele>
        <time>2013-02-02T10:05:44.000Z</time>
      </trkpt>
      <trkpt lat="47.21239" lon="-0.02349">
        <ele>67</ele>
        <time>2013-02-02T10:05:45.000Z</time>
      </trkpt>
      <trkpt lat="47.21242" lon="-0.02349">
        <ele>67</ele>
        <time>2013-02-02T10:05:48.000Z</time>
      </trkpt>
      <trkpt lat="47.21244" lon="-0.0235">
        <ele>67</ele>
        <time>2013-02-02T10:05:49.000Z</time>
      </trkpt>
      <trkpt lat="47.21247" lon="-0.0235">
        <ele>67</ele>
        <time>2013-02-02T10:05:51.000Z</time>
      </trkpt>
      <trkpt lat="47.21249" lon="-0.0235">
        <ele>67</ele>
        <time>2013-02-02T10:05:52.000Z</time>
      </trkpt>
      <trkpt lat="47.21253" lon="-0.02348">
        <ele>67</ele>
        <time>2013-02-02T10:05:55.000Z</time>
      </trkpt>
      <trkpt lat="47.21254" lon="-0.02348">
        <ele>67</ele>
        <time>2013-02-02T10:05:56.000Z</time>
      </trkpt>
      <trkpt lat="47.21258" lon="-0.02347">
        <ele>67</ele>
        <time>2013-02-02T10:05:58.000Z</time>
      </trkpt>
      <trkpt lat="47.21259" lon="-0.02347">
        <ele>67</ele>
        <time>2013-02-02T10:05:59.000Z</time>
      </trkpt>
      <trkpt lat="47.21264" lon="-0.02346">
        <ele>67</ele>
        <time>2013-02-02T10:06:02.000Z</time>
      </trkpt>
      <trkpt lat="47.21265" lon="-0.02346">
        <ele>67</ele>
        <time>2013-02-02T10:06:03.000Z</time>
      </trkpt>
      <trkpt lat="47.21268" lon="-0.02349">
        <ele>67</ele>
        <time>2013-02-02T10:06:07.000Z</time>
      </trkpt>
      <trkpt lat="47.21269" lon="-0.02349">
        <ele>67</ele>
        <time>2013-02-02T10:06:08.000Z</time>
      </trkpt>
      <trkpt lat="47.21272" lon="-0.02351">
        <ele>67</ele>
        <time>2013-02-02T10:06:10.000Z</time>
      </trkpt>
      <trkpt lat="47.21275" lon="-0.02351">
        <ele>67</ele>
        <time>2013-02-02T10:06:11.000Z</time>
      </trkpt>
      <trkpt lat="47.21278" lon="-0.02351">
        <ele>67</ele>
        <time>2013-02-02T10:06:13.000Z</time>
      </trkpt>
      <trkpt lat="47.21279" lon="-0.02351">
        <ele>67</ele>
        <time>2013-02-02T10:06:14.000Z</time>
      </trkpt>
      <trkpt lat="47.21283" lon="-0.02349">
        <ele>67</ele>
        <time>2013-02-02T10:06:16.000Z</time>
      </trkpt>
      <trkpt lat="47.21284" lon="-0.02348">
        <ele>67</ele>
        <time>2013-02-02T10:06:17.000Z</time>
      </trkpt>
      <trkpt lat="47.21288" lon="-0.02347">
        <ele>67</ele>
        <time>2013-02-02T10:06:19.000Z</time>
      </trkpt>
      <trkpt lat="47.2129" lon="-0.02346">
        <ele>67</ele>
        <time>2013-02-02T10:06:20.000Z</time>
      </trkpt>
      <trkpt lat="47.21294" lon="-0.02347">
        <ele>67</ele>
        <time>2013-02-02T10:06:22.000Z</time>
      </trkpt>
      <trkpt lat="47.21295" lon="-0.02347">
        <ele>67</ele>
        <time>2013-02-02T10:06:23.000Z</time>
      </trkpt>
      <trkpt lat="47.21298" lon="-0.02349">
        <ele>67</ele>
        <time>2013-02-02T10:06:25.000Z</time>
      </trkpt>
      <trkpt lat="47.21299" lon="-0.0235">
        <ele>67</ele>
        <time>2013-02-02T10:06:26.000Z</time>
      </trkpt>
      <trkpt lat="47.21304" lon="-0.0235">
        <ele>67</ele>
        <time>2013-02-02T10:06:30.000Z</time>
      </trkpt>
      <trkpt lat="47.21305" lon="-0.02349">
        <ele>67</ele>
        <time>2013-02-02T10:06:31.000Z</time>
      </trkpt>
      <trkpt lat="47.21308" lon="-0.02349">
        <ele>67</ele>
        <time>2013-02-02T10:06:33.000Z</time>
      </trkpt>
      <trkpt lat="47.2131" lon="-0.0235">
        <ele>67</ele>
        <time>2013-02-02T10:06:34.000Z</time>
      </trkpt>
      <trkpt lat="47.21313" lon="-0.02352">
        <ele>67</ele>
        <time>2013-02-02T10:06:36.000Z</time>
      </trkpt>
      <trkpt lat="47.21314" lon="-0.02353">
        <ele>67</ele>
        <time>2013-02-02T10:06:37.000Z</time>
      </trkpt>
      <trkpt lat="47.21318" lon="-0.02356">
        <ele>67</ele>
        <time>2013-02-02T10:06:41.000Z</time>
      </trkpt>
      <trkpt lat="47.2132" lon="-0.02356">
        <ele>67</ele>
        <time>2013-02-02T10:06:42.000Z</time>
      </trkpt>
      <trkpt lat="47.21324" lon="-0.02357">
        <ele>67</ele>
        <time>2013-02-02T10:06:44.000Z</time>
      </trkpt>
      <trkpt lat="47.21325" lon="-0.02357">
        <ele>67</ele>
        <time>2013-02-02T10:06:45.000Z</time>
      </trkpt>
      <trkpt lat="47.21328" lon="-0.02359">
        <ele>67</ele>
        <time>2013-02-02T10:06:48.000Z</time>
      </trkpt>
      <trkpt lat="47.2133" lon="-0.02359">
        <ele>67</ele>
        <time>2013-02-02T10:06:49.000Z</time>
      </trkpt>
      <trkpt lat="47.21333" lon="-0.0236">
        <ele>68</ele>
        <time>2013-02-02T10:06:51.000Z</time>
      </trkpt>
      <trkpt lat="47.21335" lon="-0.02361">
        <ele>68</ele>
        <time>2013-02-02T10:06:52.000Z</time>
      </trkpt>
      <trkpt lat="47.21338" lon="-0.02361">
        <ele>68</ele>
        <time>2013-02-02T10:06:55.000Z</time>
      </trkpt>
      <trkpt lat="47.2134" lon="-0.02361">
        <ele>68</ele>
        <time>2013-02-02T10:06:56.000Z</time>
      </trkpt>
      <trkpt lat="47.21343" lon="-0.02361">
        <ele>68</ele>
        <time>2013-02-02T10:06:58.000Z</time>
      </trkpt>
      <trkpt lat="47.21345" lon="-0.02362">
        <ele>68</ele>
        <time>2013-02-02T10:06:59.000Z</time>
      </trkpt>
      <trkpt lat="47.21349" lon="-0.02363">
        <ele>68</ele>
        <time>2013-02-02T10:07:01.000Z</time>
      </trkpt>
      <trkpt lat="47.21351" lon="-0.02362">
        <ele>68</ele>
        <time>2013-02-02T10:07:02.000Z</time>
      </trkpt>
      <trkpt lat="47.21353" lon="-0.02361">
        <ele>68</ele>
        <time>2013-02-02T10:07:04.000Z</time>
      </trkpt>
      <trkpt lat="47.21355" lon="-0.02359">
        <ele>68</ele>
        <time>2013-02-02T10:07:05.000Z</time>
      </trkpt>
      <trkpt lat="47.21358" lon="-0.02357">
        <ele>68</ele>
        <time>2013-02-02T10:07:07.000Z</time>
      </trkpt>
      <trkpt lat="47.21359" lon="-0.02356">
        <ele>68</ele>
        <time>2013-02-02T10:07:08.000Z</time>
      </trkpt>
      <trkpt lat="47.21362" lon="-0.02352">
        <ele>68</ele>
        <time>2013-02-02T10:07:11.000Z</time>
      </trkpt>
      <trkpt lat="47.21362" lon="-0.02351">
        <ele>68</ele>
        <time>2013-02-02T10:07:12.000Z</time>
      </trkpt>
      <trkpt lat="47.21364" lon="-0.02347">
        <ele>68</ele>
        <time>2013-02-02T10:07:14.000Z</time>
      </trkpt>
      <trkpt lat="47.21364" lon="-0.02344">
        <ele>68</ele>
        <time>2013-02-02T10:07:15.000Z</time>
      </trkpt>
      <trkpt lat="47.21366" lon="-0.02338">
        <ele>68</ele>
        <time>2013-02-02T10:07:18.000Z</time>
      </trkpt>
      <trkpt lat="47.21367" lon="-0.02337">
        <ele>68</ele>
        <time>2013-02-02T10:07:19.000Z</time>
      </trkpt>
      <trkpt lat="47.21369" lon="-0.02331">
        <ele>70</ele>
        <time>2013-02-02T10:07:22.000Z</time>
      </trkpt>
      <trkpt lat="47.2137" lon="-0.0233">
        <ele>70</ele>
        <time>2013-02-02T10:07:23.000Z</time>
      </trkpt>
      <trkpt lat="47.21372" lon="-0.02325">
        <ele>71</ele>
        <time>2013-02-02T10:07:26.000Z</time>
      </trkpt>
      <trkpt lat="47.21373" lon="-0.02324">
        <ele>71</ele>
        <time>2013-02-02T10:07:27.000Z</time>
      </trkpt>
      <trkpt lat="47.21376" lon="-0.02321">
        <ele>71</ele>
        <time>2013-02-02T10:07:30.000Z</time>
      </trkpt>
      <trkpt lat="47.21377" lon="-0.02319">
        <ele>71</ele>
        <time>2013-02-02T10:07:31.000Z</time>
      </trkpt>
      <trkpt lat="47.2138" lon="-0.02316">
        <ele>71</ele>
        <time>2013-02-02T10:07:33.000Z</time>
      </trkpt>
      <trkpt lat="47.2138" lon="-0.02314">
        <ele>71</ele>
        <time>2013-02-02T10:07:34.000Z</time>
      </trkpt>
      <trkpt lat="47.2138" lon="-0.02308">
        <ele>71</ele>
        <time>2013-02-02T10:07:36.000Z</time>
      </trkpt>
      <trkpt lat="47.21381" lon="-0.02306">
        <ele>71</ele>
        <time>2013-02-02T10:07:37.000Z</time>
      </trkpt>
      <trkpt lat="47.21384" lon="-0.023">
        <ele>72</ele>
        <time>2013-02-02T10:07:41.000Z</time>
      </trkpt>
      <trkpt lat="47.21384" lon="-0.02298">
        <ele>72</ele>
        <time>2013-02-02T10:07:42.000Z</time>
      </trkpt>
      <trkpt lat="47.21386" lon="-0.02292">
        <ele>72</ele>
        <time>2013-02-02T10:07:45.000Z</time>
      </trkpt>
      <trkpt lat="47.21387" lon="-0.0229">
        <ele>72</ele>
        <time>2013-02-02T10:07:46.000Z</time>
      </trkpt>
      <trkpt lat="47.21389" lon="-0.02286">
        <ele>72</ele>
        <time>2013-02-02T10:07:49.000Z</time>
      </trkpt>
      <trkpt lat="47.21389" lon="-0.02284">
        <ele>72</ele>
        <time>2013-02-02T10:07:50.000Z</time>
      </trkpt>
      <trkpt lat="47.21389" lon="-0.02279">
        <ele>73</ele>
        <time>2013-02-02T10:07:53.000Z</time>
      </trkpt>
      <trkpt lat="47.2139" lon="-0.02277">
        <ele>73</ele>
        <time>2013-02-02T10:07:54.000Z</time>
      </trkpt>
      <trkpt lat="47.21393" lon="-0.02275">
        <ele>73</ele>
        <time>2013-02-02T10:07:56.000Z</time>
      </trkpt>
      <trkpt lat="47.21394" lon="-0.02273">
        <ele>73</ele>
        <time>2013-02-02T10:07:57.000Z</time>
      </trkpt>
      <trkpt lat="47.21398" lon="-0.0227">
        <ele>73</ele>
        <time>2013-02-02T10:08:00.000Z</time>
      </trkpt>
      <trkpt lat="47.21399" lon="-0.02269">
        <ele>74</ele>
        <time>2013-02-02T10:08:01.000Z</time>
      </trkpt>
      <trkpt lat="47.21403" lon="-0.02267">
        <ele>74</ele>
        <time>2013-02-02T10:08:05.000Z</time>
      </trkpt>
      <trkpt lat="47.21403" lon="-0.02265">
        <ele>74</ele>
        <time>2013-02-02T10:08:06.000Z</time>
      </trkpt>
      <trkpt lat="47.21406" lon="-0.0226">
        <ele>75</ele>
        <time>2013-02-02T10:08:10.000Z</time>
      </trkpt>
      <trkpt lat="47.21405" lon="-0.02259">
        <ele>75</ele>
        <time>2013-02-02T10:08:11.000Z</time>
      </trkpt>
      <trkpt lat="47.21406" lon="-0.02254">
        <ele>75</ele>
        <time>2013-02-02T10:08:14.000Z</time>
      </trkpt>
      <trkpt lat="47.21406" lon="-0.02252">
        <ele>75</ele>
        <time>2013-02-02T10:08:15.000Z</time>
      </trkpt>
      <trkpt lat="47.21407" lon="-0.02247">
        <ele>77</ele>
        <time>2013-02-02T10:08:18.000Z</time>
      </trkpt>
      <trkpt lat="47.21407" lon="-0.02244">
        <ele>77</ele>
        <time>2013-02-02T10:08:19.000Z</time>
      </trkpt>
      <trkpt lat="47.21408" lon="-0.02238">
        <ele>77</ele>
        <time>2013-02-02T10:08:23.000Z</time>
      </trkpt>
      <trkpt lat="47.21408" lon="-0.02236">
        <ele>77</ele>
        <time>2013-02-02T10:08:24.000Z</time>
      </trkpt>
      <trkpt lat="47.21409" lon="-0.02231">
        <ele>77</ele>
        <time>2013-02-02T10:08:30.000Z</time>
      </trkpt>
      <trkpt lat="47.2141" lon="-0.02229">
        <ele>77</ele>
        <time>2013-02-02T10:08:31.000Z</time>
      </trkpt>
      <trkpt lat="47.2141" lon="-0.02225">
        <ele>77</ele>
        <time>2013-02-02T10:08:33.000Z</time>
      </trkpt>
      <trkpt lat="47.2141" lon="-0.02222">
        <ele>77</ele>
        <time>2013-02-02T10:08:34.000Z</time>
      </trkpt>
      <trkpt lat="47.21411" lon="-0.02218">
        <ele>77</ele>
        <time>2013-02-02T10:08:36.000Z</time>
      </trkpt>
      <trkpt lat="47.21413" lon="-0.02214">
        <ele>77</ele>
        <time>2013-02-02T10:08:37.000Z</time>
      </trkpt>
      <trkpt lat="47.21414" lon="-0.02211">
        <ele>77</ele>
        <time>2013-02-02T10:08:38.000Z</time>
      </trkpt>
      <trkpt lat="47.21415" lon="-0.02207">
        <ele>77</ele>
        <time>2013-02-02T10:08:39.000Z</time>
      </trkpt>
      <trkpt lat="47.21418" lon="-0.02204">
        <ele>79</ele>
        <time>2013-02-02T10:08:41.000Z</time>
      </trkpt>
      <trkpt lat="47.21419" lon="-0.02203">
        <ele>79</ele>
        <time>2013-02-02T10:08:42.000Z</time>
      </trkpt>
      <trkpt lat="47.21421" lon="-0.02198">
        <ele>79</ele>
        <time>2013-02-02T10:08:46.000Z</time>
      </trkpt>
      <trkpt lat="47.21421" lon="-0.02196">
        <ele>79</ele>
        <time>2013-02-02T10:08:47.000Z</time>
      </trkpt>
      <trkpt lat="47.21424" lon="-0.02195">
        <ele>79</ele>
        <time>2013-02-02T10:08:48.000Z</time>
      </trkpt>
      <trkpt lat="47.21427" lon="-0.02193">
        <ele>79</ele>
        <time>2013-02-02T10:08:49.000Z</time>
      </trkpt>
      <trkpt lat="47.21431" lon="-0.02192">
        <ele>79</ele>
        <time>2013-02-02T10:08:51.000Z</time>
      </trkpt>
      <trkpt lat="47.21432" lon="-0.02191">
        <ele>79</ele>
        <time>2013-02-02T10:08:52.000Z</time>
      </trkpt>
      <trkpt lat="47.21436" lon="-0.02189">
        <ele>79</ele>
        <time>2013-02-02T10:08:55.000Z</time>
      </trkpt>
      <trkpt lat="47.21438" lon="-0.02189">
        <ele>79</ele>
        <time>2013-02-02T10:08:56.000Z</time>
      </trkpt>
      <trkpt lat="47.21441" lon="-0.0219">
        <ele>79</ele>
        <time>2013-02-02T10:09:02.000Z</time>
      </trkpt>
    </trkseg>
  </trk>
</gpx>